<?xml version="1.0" encoding="UTF-8" standalone="no" ?>
<gpx xmlns="http://www.topografix.com/GPX/1/1" xmlns:xsi="http://www.w3.org/2001/XMLSchema-instance" xsi:schemaLocation="http://www.topografix.com/GPX/1/1 http://www.topografix.com/GPX/1/1/gpx.xsd" version="1.1" creator="VisuGPX - https://www.visugpx.com">
  <metadata>
    <name>Vtt Solo </name>
  </metadata>
  <trk>
    <name><![CDATA[Vtt Solo _1]]></name>
    <trkseg>
      <trkpt lat="43.9145" lon="1.90596">
        <ele>144</ele>
        <time>2022-10-12T10:10:50Z</time>
      </trkpt>
      <trkpt lat="43.9144" lon="1.90602">
        <ele>144.6</ele>
        <time>2022-10-12T10:10:55Z</time>
      </trkpt>
      <trkpt lat="43.91435" lon="1.90603">
        <ele>144.6</ele>
        <time>2022-10-12T10:10:57Z</time>
      </trkpt>
      <trkpt lat="43.91433" lon="1.90603">
        <ele>144.6</ele>
        <time>2022-10-12T10:10:58Z</time>
      </trkpt>
      <trkpt lat="43.91431" lon="1.90602">
        <ele>144.6</ele>
        <time>2022-10-12T10:10:59Z</time>
      </trkpt>
      <trkpt lat="43.91428" lon="1.90601">
        <ele>144.8</ele>
        <time>2022-10-12T10:11:00Z</time>
      </trkpt>
      <trkpt lat="43.91425" lon="1.90599">
        <ele>144.6</ele>
        <time>2022-10-12T10:11:01Z</time>
      </trkpt>
      <trkpt lat="43.91403" lon="1.90581">
        <ele>144.8</ele>
        <time>2022-10-12T10:11:08Z</time>
      </trkpt>
      <trkpt lat="43.91372" lon="1.90555">
        <ele>145.2</ele>
        <time>2022-10-12T10:11:16Z</time>
      </trkpt>
      <trkpt lat="43.91365" lon="1.90548">
        <ele>145.2</ele>
        <time>2022-10-12T10:11:18Z</time>
      </trkpt>
      <trkpt lat="43.9136" lon="1.90537">
        <ele>145.2</ele>
        <time>2022-10-12T10:11:20Z</time>
      </trkpt>
      <trkpt lat="43.91358" lon="1.90531">
        <ele>145.2</ele>
        <time>2022-10-12T10:11:21Z</time>
      </trkpt>
      <trkpt lat="43.91357" lon="1.90525">
        <ele>145.2</ele>
        <time>2022-10-12T10:11:22Z</time>
      </trkpt>
      <trkpt lat="43.91357" lon="1.90518">
        <ele>145.2</ele>
        <time>2022-10-12T10:11:23Z</time>
      </trkpt>
      <trkpt lat="43.91359" lon="1.90511">
        <ele>145.2</ele>
        <time>2022-10-12T10:11:24Z</time>
      </trkpt>
      <trkpt lat="43.91361" lon="1.90505">
        <ele>145.2</ele>
        <time>2022-10-12T10:11:25Z</time>
      </trkpt>
      <trkpt lat="43.91363" lon="1.90498">
        <ele>145.2</ele>
        <time>2022-10-12T10:11:26Z</time>
      </trkpt>
      <trkpt lat="43.91365" lon="1.90492">
        <ele>145.2</ele>
        <time>2022-10-12T10:11:27Z</time>
      </trkpt>
      <trkpt lat="43.91375" lon="1.90467">
        <ele>145.2</ele>
        <time>2022-10-12T10:11:31Z</time>
      </trkpt>
      <trkpt lat="43.91382" lon="1.90448">
        <ele>145.2</ele>
        <time>2022-10-12T10:11:34Z</time>
      </trkpt>
      <trkpt lat="43.91384" lon="1.90441">
        <ele>145.2</ele>
        <time>2022-10-12T10:11:35Z</time>
      </trkpt>
      <trkpt lat="43.91387" lon="1.90435">
        <ele>145.2</ele>
        <time>2022-10-12T10:11:36Z</time>
      </trkpt>
      <trkpt lat="43.91389" lon="1.90429">
        <ele>145.2</ele>
        <time>2022-10-12T10:11:37Z</time>
      </trkpt>
      <trkpt lat="43.91391" lon="1.90423">
        <ele>145.2</ele>
        <time>2022-10-12T10:11:38Z</time>
      </trkpt>
      <trkpt lat="43.91393" lon="1.90417">
        <ele>145.2</ele>
        <time>2022-10-12T10:11:39Z</time>
      </trkpt>
      <trkpt lat="43.91395" lon="1.90411">
        <ele>145.4</ele>
        <time>2022-10-12T10:11:40Z</time>
      </trkpt>
      <trkpt lat="43.91397" lon="1.90406">
        <ele>145.4</ele>
        <time>2022-10-12T10:11:41Z</time>
      </trkpt>
      <trkpt lat="43.91401" lon="1.90395">
        <ele>145.6</ele>
        <time>2022-10-12T10:11:43Z</time>
      </trkpt>
      <trkpt lat="43.91403" lon="1.90389">
        <ele>145.6</ele>
        <time>2022-10-12T10:11:44Z</time>
      </trkpt>
      <trkpt lat="43.91406" lon="1.90384">
        <ele>145.6</ele>
        <time>2022-10-12T10:11:45Z</time>
      </trkpt>
      <trkpt lat="43.91408" lon="1.90379">
        <ele>145.8</ele>
        <time>2022-10-12T10:11:46Z</time>
      </trkpt>
      <trkpt lat="43.9141" lon="1.90374">
        <ele>146</ele>
        <time>2022-10-12T10:11:47Z</time>
      </trkpt>
      <trkpt lat="43.91411" lon="1.9037">
        <ele>146</ele>
        <time>2022-10-12T10:11:48Z</time>
      </trkpt>
      <trkpt lat="43.91412" lon="1.90366">
        <ele>146.2</ele>
        <time>2022-10-12T10:11:49Z</time>
      </trkpt>
      <trkpt lat="43.91412" lon="1.90361">
        <ele>146.4</ele>
        <time>2022-10-12T10:11:50Z</time>
      </trkpt>
      <trkpt lat="43.9141" lon="1.90356">
        <ele>146.2</ele>
        <time>2022-10-12T10:11:51Z</time>
      </trkpt>
      <trkpt lat="43.91405" lon="1.90345">
        <ele>146.6</ele>
        <time>2022-10-12T10:11:53Z</time>
      </trkpt>
      <trkpt lat="43.91405" lon="1.9034">
        <ele>146.8</ele>
        <time>2022-10-12T10:11:54Z</time>
      </trkpt>
      <trkpt lat="43.91407" lon="1.90335">
        <ele>146.8</ele>
        <time>2022-10-12T10:11:55Z</time>
      </trkpt>
      <trkpt lat="43.91411" lon="1.90332">
        <ele>147</ele>
        <time>2022-10-12T10:11:56Z</time>
      </trkpt>
      <trkpt lat="43.91417" lon="1.90327">
        <ele>147.2</ele>
        <time>2022-10-12T10:11:58Z</time>
      </trkpt>
      <trkpt lat="43.91421" lon="1.90322">
        <ele>147.4</ele>
        <time>2022-10-12T10:11:59Z</time>
      </trkpt>
      <trkpt lat="43.91426" lon="1.9031">
        <ele>147.4</ele>
        <time>2022-10-12T10:12:01Z</time>
      </trkpt>
      <trkpt lat="43.91429" lon="1.90304">
        <ele>147.4</ele>
        <time>2022-10-12T10:12:02Z</time>
      </trkpt>
      <trkpt lat="43.91437" lon="1.90286">
        <ele>147.2</ele>
        <time>2022-10-12T10:12:05Z</time>
      </trkpt>
      <trkpt lat="43.9144" lon="1.9028">
        <ele>147.2</ele>
        <time>2022-10-12T10:12:06Z</time>
      </trkpt>
      <trkpt lat="43.91441" lon="1.90273">
        <ele>147.2</ele>
        <time>2022-10-12T10:12:07Z</time>
      </trkpt>
      <trkpt lat="43.91442" lon="1.90266">
        <ele>147</ele>
        <time>2022-10-12T10:12:08Z</time>
      </trkpt>
      <trkpt lat="43.91441" lon="1.90259">
        <ele>147</ele>
        <time>2022-10-12T10:12:09Z</time>
      </trkpt>
      <trkpt lat="43.9144" lon="1.90252">
        <ele>147</ele>
        <time>2022-10-12T10:12:10Z</time>
      </trkpt>
      <trkpt lat="43.91439" lon="1.90245">
        <ele>147</ele>
        <time>2022-10-12T10:12:11Z</time>
      </trkpt>
      <trkpt lat="43.91436" lon="1.90224">
        <ele>147.2</ele>
        <time>2022-10-12T10:12:14Z</time>
      </trkpt>
      <trkpt lat="43.91428" lon="1.90182">
        <ele>147</ele>
        <time>2022-10-12T10:12:20Z</time>
      </trkpt>
      <trkpt lat="43.91427" lon="1.90175">
        <ele>147</ele>
        <time>2022-10-12T10:12:21Z</time>
      </trkpt>
      <trkpt lat="43.91426" lon="1.90168">
        <ele>147</ele>
        <time>2022-10-12T10:12:22Z</time>
      </trkpt>
      <trkpt lat="43.91425" lon="1.90162">
        <ele>147</ele>
        <time>2022-10-12T10:12:23Z</time>
      </trkpt>
      <trkpt lat="43.91424" lon="1.90158">
        <ele>147</ele>
        <time>2022-10-12T10:12:24Z</time>
      </trkpt>
      <trkpt lat="43.91423" lon="1.90155">
        <ele>147</ele>
        <time>2022-10-12T10:12:25Z</time>
      </trkpt>
      <trkpt lat="43.91421" lon="1.90151">
        <ele>147</ele>
        <time>2022-10-12T10:12:26Z</time>
      </trkpt>
      <trkpt lat="43.91419" lon="1.90149">
        <ele>147</ele>
        <time>2022-10-12T10:12:27Z</time>
      </trkpt>
      <trkpt lat="43.91415" lon="1.90147">
        <ele>147</ele>
        <time>2022-10-12T10:12:28Z</time>
      </trkpt>
      <trkpt lat="43.91411" lon="1.90146">
        <ele>147</ele>
        <time>2022-10-12T10:12:29Z</time>
      </trkpt>
      <trkpt lat="43.91407" lon="1.90145">
        <ele>147</ele>
        <time>2022-10-12T10:12:30Z</time>
      </trkpt>
      <trkpt lat="43.91402" lon="1.90144">
        <ele>147</ele>
        <time>2022-10-12T10:12:31Z</time>
      </trkpt>
      <trkpt lat="43.91398" lon="1.90143">
        <ele>147</ele>
        <time>2022-10-12T10:12:32Z</time>
      </trkpt>
      <trkpt lat="43.91385" lon="1.90135">
        <ele>146.8</ele>
        <time>2022-10-12T10:12:35Z</time>
      </trkpt>
      <trkpt lat="43.91381" lon="1.90131">
        <ele>146.8</ele>
        <time>2022-10-12T10:12:36Z</time>
      </trkpt>
      <trkpt lat="43.91345" lon="1.9009">
        <ele>146.6</ele>
        <time>2022-10-12T10:12:45Z</time>
      </trkpt>
      <trkpt lat="43.91333" lon="1.90074">
        <ele>146.4</ele>
        <time>2022-10-12T10:12:48Z</time>
      </trkpt>
      <trkpt lat="43.9133" lon="1.9007">
        <ele>146.4</ele>
        <time>2022-10-12T10:12:49Z</time>
      </trkpt>
      <trkpt lat="43.91326" lon="1.90065">
        <ele>146.4</ele>
        <time>2022-10-12T10:12:50Z</time>
      </trkpt>
      <trkpt lat="43.91323" lon="1.9006">
        <ele>146.4</ele>
        <time>2022-10-12T10:12:51Z</time>
      </trkpt>
      <trkpt lat="43.91318" lon="1.90056">
        <ele>146.4</ele>
        <time>2022-10-12T10:12:52Z</time>
      </trkpt>
      <trkpt lat="43.91314" lon="1.90052">
        <ele>146.4</ele>
        <time>2022-10-12T10:12:53Z</time>
      </trkpt>
      <trkpt lat="43.91281" lon="1.90029">
        <ele>146.4</ele>
        <time>2022-10-12T10:13:00Z</time>
      </trkpt>
      <trkpt lat="43.91276" lon="1.90026">
        <ele>146.4</ele>
        <time>2022-10-12T10:13:01Z</time>
      </trkpt>
      <trkpt lat="43.91271" lon="1.90024">
        <ele>146.4</ele>
        <time>2022-10-12T10:13:02Z</time>
      </trkpt>
      <trkpt lat="43.91255" lon="1.90019">
        <ele>146.6</ele>
        <time>2022-10-12T10:13:05Z</time>
      </trkpt>
      <trkpt lat="43.9125" lon="1.90016">
        <ele>146.4</ele>
        <time>2022-10-12T10:13:06Z</time>
      </trkpt>
      <trkpt lat="43.91245" lon="1.90013">
        <ele>146.4</ele>
        <time>2022-10-12T10:13:07Z</time>
      </trkpt>
      <trkpt lat="43.91241" lon="1.90008">
        <ele>146.4</ele>
        <time>2022-10-12T10:13:08Z</time>
      </trkpt>
      <trkpt lat="43.91237" lon="1.90003">
        <ele>146.2</ele>
        <time>2022-10-12T10:13:09Z</time>
      </trkpt>
      <trkpt lat="43.91234" lon="1.89997">
        <ele>146.2</ele>
        <time>2022-10-12T10:13:10Z</time>
      </trkpt>
      <trkpt lat="43.91231" lon="1.89991">
        <ele>146.2</ele>
        <time>2022-10-12T10:13:11Z</time>
      </trkpt>
      <trkpt lat="43.91229" lon="1.89986">
        <ele>146.2</ele>
        <time>2022-10-12T10:13:12Z</time>
      </trkpt>
      <trkpt lat="43.91227" lon="1.8998">
        <ele>146.2</ele>
        <time>2022-10-12T10:13:13Z</time>
      </trkpt>
      <trkpt lat="43.91226" lon="1.89976">
        <ele>146.2</ele>
        <time>2022-10-12T10:13:14Z</time>
      </trkpt>
      <trkpt lat="43.91225" lon="1.89972">
        <ele>146.2</ele>
        <time>2022-10-12T10:13:15Z</time>
      </trkpt>
      <trkpt lat="43.91224" lon="1.89969">
        <ele>146.2</ele>
        <time>2022-10-12T10:13:16Z</time>
      </trkpt>
      <trkpt lat="43.91224" lon="1.89967">
        <ele>146.2</ele>
        <time>2022-10-12T10:13:17Z</time>
      </trkpt>
      <trkpt lat="43.91223" lon="1.89962">
        <ele>146</ele>
        <time>2022-10-12T10:13:19Z</time>
      </trkpt>
      <trkpt lat="43.91222" lon="1.8996">
        <ele>146</ele>
        <time>2022-10-12T10:13:20Z</time>
      </trkpt>
      <trkpt lat="43.91217" lon="1.89947">
        <ele>146</ele>
        <time>2022-10-12T10:13:23Z</time>
      </trkpt>
      <trkpt lat="43.91201" lon="1.89905">
        <ele>145.6</ele>
        <time>2022-10-12T10:13:30Z</time>
      </trkpt>
      <trkpt lat="43.91193" lon="1.89875">
        <ele>145.6</ele>
        <time>2022-10-12T10:13:34Z</time>
      </trkpt>
      <trkpt lat="43.91191" lon="1.89868">
        <ele>145.6</ele>
        <time>2022-10-12T10:13:35Z</time>
      </trkpt>
      <trkpt lat="43.9119" lon="1.89861">
        <ele>145.4</ele>
        <time>2022-10-12T10:13:36Z</time>
      </trkpt>
      <trkpt lat="43.91189" lon="1.89856">
        <ele>145.4</ele>
        <time>2022-10-12T10:13:37Z</time>
      </trkpt>
      <trkpt lat="43.9119" lon="1.89852">
        <ele>145.4</ele>
        <time>2022-10-12T10:13:38Z</time>
      </trkpt>
      <trkpt lat="43.91192" lon="1.89849">
        <ele>145.2</ele>
        <time>2022-10-12T10:13:39Z</time>
      </trkpt>
      <trkpt lat="43.91195" lon="1.89848">
        <ele>145.2</ele>
        <time>2022-10-12T10:13:40Z</time>
      </trkpt>
      <trkpt lat="43.9122" lon="1.89843">
        <ele>145</ele>
        <time>2022-10-12T10:13:46Z</time>
      </trkpt>
      <trkpt lat="43.91257" lon="1.8984">
        <ele>145.4</ele>
        <time>2022-10-12T10:13:54Z</time>
      </trkpt>
      <trkpt lat="43.9129" lon="1.8983">
        <ele>145.6</ele>
        <time>2022-10-12T10:14:01Z</time>
      </trkpt>
      <trkpt lat="43.913" lon="1.89827">
        <ele>145.8</ele>
        <time>2022-10-12T10:14:03Z</time>
      </trkpt>
      <trkpt lat="43.91319" lon="1.89823">
        <ele>146</ele>
        <time>2022-10-12T10:14:07Z</time>
      </trkpt>
      <trkpt lat="43.91329" lon="1.89819">
        <ele>146.4</ele>
        <time>2022-10-12T10:14:09Z</time>
      </trkpt>
      <trkpt lat="43.91338" lon="1.89816">
        <ele>146.4</ele>
        <time>2022-10-12T10:14:11Z</time>
      </trkpt>
      <trkpt lat="43.91352" lon="1.89811">
        <ele>146.6</ele>
        <time>2022-10-12T10:14:14Z</time>
      </trkpt>
      <trkpt lat="43.91361" lon="1.89807">
        <ele>146.8</ele>
        <time>2022-10-12T10:14:16Z</time>
      </trkpt>
      <trkpt lat="43.91366" lon="1.89805">
        <ele>146.8</ele>
        <time>2022-10-12T10:14:17Z</time>
      </trkpt>
      <trkpt lat="43.9137" lon="1.89803">
        <ele>147</ele>
        <time>2022-10-12T10:14:18Z</time>
      </trkpt>
      <trkpt lat="43.91392" lon="1.89795">
        <ele>147.4</ele>
        <time>2022-10-12T10:14:23Z</time>
      </trkpt>
      <trkpt lat="43.91402" lon="1.89791">
        <ele>147.4</ele>
        <time>2022-10-12T10:14:25Z</time>
      </trkpt>
      <trkpt lat="43.91443" lon="1.89775">
        <ele>147.6</ele>
        <time>2022-10-12T10:14:33Z</time>
      </trkpt>
      <trkpt lat="43.91453" lon="1.89771">
        <ele>147.6</ele>
        <time>2022-10-12T10:14:35Z</time>
      </trkpt>
      <trkpt lat="43.91493" lon="1.89753">
        <ele>147.6</ele>
        <time>2022-10-12T10:14:43Z</time>
      </trkpt>
      <trkpt lat="43.91498" lon="1.8975">
        <ele>147.6</ele>
        <time>2022-10-12T10:14:44Z</time>
      </trkpt>
      <trkpt lat="43.91508" lon="1.89745">
        <ele>147.6</ele>
        <time>2022-10-12T10:14:46Z</time>
      </trkpt>
      <trkpt lat="43.91523" lon="1.89737">
        <ele>147.8</ele>
        <time>2022-10-12T10:14:49Z</time>
      </trkpt>
      <trkpt lat="43.91533" lon="1.89732">
        <ele>147.8</ele>
        <time>2022-10-12T10:14:51Z</time>
      </trkpt>
      <trkpt lat="43.91576" lon="1.89711">
        <ele>147.6</ele>
        <time>2022-10-12T10:14:59Z</time>
      </trkpt>
      <trkpt lat="43.91581" lon="1.89708">
        <ele>147.6</ele>
        <time>2022-10-12T10:15:00Z</time>
      </trkpt>
      <trkpt lat="43.91609" lon="1.89695">
        <ele>147.6</ele>
        <time>2022-10-12T10:15:05Z</time>
      </trkpt>
      <trkpt lat="43.9162" lon="1.8969">
        <ele>147.6</ele>
        <time>2022-10-12T10:15:07Z</time>
      </trkpt>
      <trkpt lat="43.91625" lon="1.89687">
        <ele>147.8</ele>
        <time>2022-10-12T10:15:08Z</time>
      </trkpt>
      <trkpt lat="43.91635" lon="1.89681">
        <ele>147.8</ele>
        <time>2022-10-12T10:15:10Z</time>
      </trkpt>
      <trkpt lat="43.91641" lon="1.89678">
        <ele>147.8</ele>
        <time>2022-10-12T10:15:11Z</time>
      </trkpt>
      <trkpt lat="43.91666" lon="1.89661">
        <ele>148.2</ele>
        <time>2022-10-12T10:15:16Z</time>
      </trkpt>
      <trkpt lat="43.91671" lon="1.89657">
        <ele>148.4</ele>
        <time>2022-10-12T10:15:17Z</time>
      </trkpt>
      <trkpt lat="43.9168" lon="1.89648">
        <ele>148.4</ele>
        <time>2022-10-12T10:15:19Z</time>
      </trkpt>
      <trkpt lat="43.91689" lon="1.89639">
        <ele>148.6</ele>
        <time>2022-10-12T10:15:21Z</time>
      </trkpt>
      <trkpt lat="43.91693" lon="1.89634">
        <ele>148.6</ele>
        <time>2022-10-12T10:15:22Z</time>
      </trkpt>
      <trkpt lat="43.91698" lon="1.8963">
        <ele>148.6</ele>
        <time>2022-10-12T10:15:23Z</time>
      </trkpt>
      <trkpt lat="43.91703" lon="1.89626">
        <ele>148.6</ele>
        <time>2022-10-12T10:15:24Z</time>
      </trkpt>
      <trkpt lat="43.91707" lon="1.89622">
        <ele>148.8</ele>
        <time>2022-10-12T10:15:25Z</time>
      </trkpt>
      <trkpt lat="43.91711" lon="1.89617">
        <ele>148.8</ele>
        <time>2022-10-12T10:15:26Z</time>
      </trkpt>
      <trkpt lat="43.9172" lon="1.89609">
        <ele>149</ele>
        <time>2022-10-12T10:15:28Z</time>
      </trkpt>
      <trkpt lat="43.91724" lon="1.89605">
        <ele>149</ele>
        <time>2022-10-12T10:15:29Z</time>
      </trkpt>
      <trkpt lat="43.91729" lon="1.896">
        <ele>149.2</ele>
        <time>2022-10-12T10:15:30Z</time>
      </trkpt>
      <trkpt lat="43.91737" lon="1.89591">
        <ele>149.2</ele>
        <time>2022-10-12T10:15:32Z</time>
      </trkpt>
      <trkpt lat="43.91745" lon="1.89582">
        <ele>149.2</ele>
        <time>2022-10-12T10:15:34Z</time>
      </trkpt>
      <trkpt lat="43.91749" lon="1.89578">
        <ele>149.4</ele>
        <time>2022-10-12T10:15:35Z</time>
      </trkpt>
      <trkpt lat="43.91757" lon="1.89569">
        <ele>149.6</ele>
        <time>2022-10-12T10:15:37Z</time>
      </trkpt>
      <trkpt lat="43.91769" lon="1.89556">
        <ele>149.8</ele>
        <time>2022-10-12T10:15:40Z</time>
      </trkpt>
      <trkpt lat="43.91773" lon="1.89552">
        <ele>150</ele>
        <time>2022-10-12T10:15:41Z</time>
      </trkpt>
      <trkpt lat="43.91777" lon="1.89548">
        <ele>150</ele>
        <time>2022-10-12T10:15:42Z</time>
      </trkpt>
      <trkpt lat="43.91781" lon="1.89544">
        <ele>150</ele>
        <time>2022-10-12T10:15:43Z</time>
      </trkpt>
      <trkpt lat="43.91785" lon="1.8954">
        <ele>150.2</ele>
        <time>2022-10-12T10:15:44Z</time>
      </trkpt>
      <trkpt lat="43.91793" lon="1.89532">
        <ele>150.2</ele>
        <time>2022-10-12T10:15:46Z</time>
      </trkpt>
      <trkpt lat="43.91798" lon="1.89528">
        <ele>150.4</ele>
        <time>2022-10-12T10:15:47Z</time>
      </trkpt>
      <trkpt lat="43.91801" lon="1.89524">
        <ele>150.4</ele>
        <time>2022-10-12T10:15:48Z</time>
      </trkpt>
      <trkpt lat="43.91805" lon="1.8952">
        <ele>150.6</ele>
        <time>2022-10-12T10:15:49Z</time>
      </trkpt>
      <trkpt lat="43.91818" lon="1.89508">
        <ele>150.8</ele>
        <time>2022-10-12T10:15:52Z</time>
      </trkpt>
      <trkpt lat="43.91862" lon="1.89469">
        <ele>151.2</ele>
        <time>2022-10-12T10:16:02Z</time>
      </trkpt>
      <trkpt lat="43.91896" lon="1.89443">
        <ele>151.4</ele>
        <time>2022-10-12T10:16:09Z</time>
      </trkpt>
      <trkpt lat="43.91906" lon="1.89438">
        <ele>151.4</ele>
        <time>2022-10-12T10:16:11Z</time>
      </trkpt>
      <trkpt lat="43.91922" lon="1.8943">
        <ele>151.6</ele>
        <time>2022-10-12T10:16:14Z</time>
      </trkpt>
      <trkpt lat="43.9196" lon="1.89411">
        <ele>151.8</ele>
        <time>2022-10-12T10:16:21Z</time>
      </trkpt>
      <trkpt lat="43.91983" lon="1.89401">
        <ele>151.8</ele>
        <time>2022-10-12T10:16:25Z</time>
      </trkpt>
      <trkpt lat="43.91989" lon="1.89398">
        <ele>151.8</ele>
        <time>2022-10-12T10:16:26Z</time>
      </trkpt>
      <trkpt lat="43.92012" lon="1.89388">
        <ele>151.6</ele>
        <time>2022-10-12T10:16:30Z</time>
      </trkpt>
      <trkpt lat="43.92034" lon="1.89376">
        <ele>151.6</ele>
        <time>2022-10-12T10:16:34Z</time>
      </trkpt>
      <trkpt lat="43.92046" lon="1.89371">
        <ele>151.6</ele>
        <time>2022-10-12T10:16:36Z</time>
      </trkpt>
      <trkpt lat="43.92051" lon="1.89368">
        <ele>151.8</ele>
        <time>2022-10-12T10:16:37Z</time>
      </trkpt>
      <trkpt lat="43.92062" lon="1.89362">
        <ele>151.8</ele>
        <time>2022-10-12T10:16:39Z</time>
      </trkpt>
      <trkpt lat="43.92068" lon="1.89359">
        <ele>151.8</ele>
        <time>2022-10-12T10:16:40Z</time>
      </trkpt>
      <trkpt lat="43.92073" lon="1.89356">
        <ele>151.8</ele>
        <time>2022-10-12T10:16:41Z</time>
      </trkpt>
      <trkpt lat="43.92079" lon="1.89353">
        <ele>151.8</ele>
        <time>2022-10-12T10:16:42Z</time>
      </trkpt>
      <trkpt lat="43.92084" lon="1.8935">
        <ele>152</ele>
        <time>2022-10-12T10:16:43Z</time>
      </trkpt>
      <trkpt lat="43.92089" lon="1.89347">
        <ele>152</ele>
        <time>2022-10-12T10:16:44Z</time>
      </trkpt>
      <trkpt lat="43.92095" lon="1.89344">
        <ele>152.2</ele>
        <time>2022-10-12T10:16:45Z</time>
      </trkpt>
      <trkpt lat="43.921" lon="1.89341">
        <ele>152.2</ele>
        <time>2022-10-12T10:16:46Z</time>
      </trkpt>
      <trkpt lat="43.92105" lon="1.89338">
        <ele>152.2</ele>
        <time>2022-10-12T10:16:47Z</time>
      </trkpt>
      <trkpt lat="43.9211" lon="1.89335">
        <ele>152.2</ele>
        <time>2022-10-12T10:16:48Z</time>
      </trkpt>
      <trkpt lat="43.92126" lon="1.89324">
        <ele>152.4</ele>
        <time>2022-10-12T10:16:51Z</time>
      </trkpt>
      <trkpt lat="43.92131" lon="1.89321">
        <ele>152.6</ele>
        <time>2022-10-12T10:16:52Z</time>
      </trkpt>
      <trkpt lat="43.92141" lon="1.89314">
        <ele>152.6</ele>
        <time>2022-10-12T10:16:54Z</time>
      </trkpt>
      <trkpt lat="43.92146" lon="1.89311">
        <ele>152.6</ele>
        <time>2022-10-12T10:16:55Z</time>
      </trkpt>
      <trkpt lat="43.92156" lon="1.89303">
        <ele>152.8</ele>
        <time>2022-10-12T10:16:57Z</time>
      </trkpt>
      <trkpt lat="43.92161" lon="1.893">
        <ele>152.8</ele>
        <time>2022-10-12T10:16:58Z</time>
      </trkpt>
      <trkpt lat="43.92181" lon="1.89285">
        <ele>152.8</ele>
        <time>2022-10-12T10:17:02Z</time>
      </trkpt>
      <trkpt lat="43.92192" lon="1.89277">
        <ele>152.8</ele>
        <time>2022-10-12T10:17:04Z</time>
      </trkpt>
      <trkpt lat="43.92197" lon="1.89273">
        <ele>152.8</ele>
        <time>2022-10-12T10:17:05Z</time>
      </trkpt>
      <trkpt lat="43.92203" lon="1.89268">
        <ele>153</ele>
        <time>2022-10-12T10:17:06Z</time>
      </trkpt>
      <trkpt lat="43.92227" lon="1.8925">
        <ele>153.2</ele>
        <time>2022-10-12T10:17:11Z</time>
      </trkpt>
      <trkpt lat="43.92247" lon="1.89232">
        <ele>153.6</ele>
        <time>2022-10-12T10:17:15Z</time>
      </trkpt>
      <trkpt lat="43.92257" lon="1.89223">
        <ele>153.8</ele>
        <time>2022-10-12T10:17:17Z</time>
      </trkpt>
      <trkpt lat="43.92261" lon="1.89218">
        <ele>153.8</ele>
        <time>2022-10-12T10:17:18Z</time>
      </trkpt>
      <trkpt lat="43.92265" lon="1.89213">
        <ele>153.8</ele>
        <time>2022-10-12T10:17:19Z</time>
      </trkpt>
      <trkpt lat="43.92283" lon="1.89194">
        <ele>154</ele>
        <time>2022-10-12T10:17:23Z</time>
      </trkpt>
      <trkpt lat="43.92287" lon="1.89189">
        <ele>154</ele>
        <time>2022-10-12T10:17:24Z</time>
      </trkpt>
      <trkpt lat="43.92291" lon="1.89184">
        <ele>154</ele>
        <time>2022-10-12T10:17:25Z</time>
      </trkpt>
      <trkpt lat="43.92304" lon="1.89169">
        <ele>154.2</ele>
        <time>2022-10-12T10:17:28Z</time>
      </trkpt>
      <trkpt lat="43.92338" lon="1.89128">
        <ele>154.6</ele>
        <time>2022-10-12T10:17:36Z</time>
      </trkpt>
      <trkpt lat="43.92342" lon="1.89123">
        <ele>154.6</ele>
        <time>2022-10-12T10:17:37Z</time>
      </trkpt>
      <trkpt lat="43.92347" lon="1.89117">
        <ele>154.6</ele>
        <time>2022-10-12T10:17:38Z</time>
      </trkpt>
      <trkpt lat="43.92355" lon="1.89108">
        <ele>154.8</ele>
        <time>2022-10-12T10:17:40Z</time>
      </trkpt>
      <trkpt lat="43.92363" lon="1.89098">
        <ele>154.8</ele>
        <time>2022-10-12T10:17:42Z</time>
      </trkpt>
      <trkpt lat="43.92367" lon="1.89093">
        <ele>154.8</ele>
        <time>2022-10-12T10:17:43Z</time>
      </trkpt>
      <trkpt lat="43.92371" lon="1.89089">
        <ele>154.8</ele>
        <time>2022-10-12T10:17:44Z</time>
      </trkpt>
      <trkpt lat="43.92375" lon="1.89085">
        <ele>155</ele>
        <time>2022-10-12T10:17:45Z</time>
      </trkpt>
      <trkpt lat="43.92379" lon="1.8908">
        <ele>155</ele>
        <time>2022-10-12T10:17:46Z</time>
      </trkpt>
      <trkpt lat="43.92382" lon="1.89077">
        <ele>155</ele>
        <time>2022-10-12T10:17:47Z</time>
      </trkpt>
      <trkpt lat="43.92384" lon="1.89075">
        <ele>155</ele>
        <time>2022-10-12T10:17:48Z</time>
      </trkpt>
      <trkpt lat="43.92386" lon="1.89073">
        <ele>155.2</ele>
        <time>2022-10-12T10:17:49Z</time>
      </trkpt>
      <trkpt lat="43.92388" lon="1.89071">
        <ele>155.2</ele>
        <time>2022-10-12T10:17:50Z</time>
      </trkpt>
      <trkpt lat="43.92391" lon="1.89069">
        <ele>155.4</ele>
        <time>2022-10-12T10:17:51Z</time>
      </trkpt>
      <trkpt lat="43.92409" lon="1.89054">
        <ele>155.6</ele>
        <time>2022-10-12T10:17:57Z</time>
      </trkpt>
      <trkpt lat="43.92435" lon="1.8903">
        <ele>155.4</ele>
        <time>2022-10-12T10:18:04Z</time>
      </trkpt>
      <trkpt lat="43.92477" lon="1.88991">
        <ele>155.4</ele>
        <time>2022-10-12T10:18:14Z</time>
      </trkpt>
      <trkpt lat="43.92486" lon="1.88984">
        <ele>155.4</ele>
        <time>2022-10-12T10:18:16Z</time>
      </trkpt>
      <trkpt lat="43.9249" lon="1.88981">
        <ele>155.4</ele>
        <time>2022-10-12T10:18:17Z</time>
      </trkpt>
      <trkpt lat="43.92494" lon="1.88979">
        <ele>155.4</ele>
        <time>2022-10-12T10:18:18Z</time>
      </trkpt>
      <trkpt lat="43.92499" lon="1.88976">
        <ele>155.4</ele>
        <time>2022-10-12T10:18:19Z</time>
      </trkpt>
      <trkpt lat="43.92508" lon="1.88972">
        <ele>155.4</ele>
        <time>2022-10-12T10:18:21Z</time>
      </trkpt>
      <trkpt lat="43.92512" lon="1.88971">
        <ele>155.4</ele>
        <time>2022-10-12T10:18:22Z</time>
      </trkpt>
      <trkpt lat="43.92522" lon="1.88968">
        <ele>155.6</ele>
        <time>2022-10-12T10:18:24Z</time>
      </trkpt>
      <trkpt lat="43.92537" lon="1.88963">
        <ele>155.4</ele>
        <time>2022-10-12T10:18:27Z</time>
      </trkpt>
      <trkpt lat="43.92542" lon="1.88962">
        <ele>155.4</ele>
        <time>2022-10-12T10:18:28Z</time>
      </trkpt>
      <trkpt lat="43.92556" lon="1.88958">
        <ele>155.6</ele>
        <time>2022-10-12T10:18:31Z</time>
      </trkpt>
      <trkpt lat="43.92585" lon="1.88953">
        <ele>155.6</ele>
        <time>2022-10-12T10:18:37Z</time>
      </trkpt>
      <trkpt lat="43.926" lon="1.88952">
        <ele>155.8</ele>
        <time>2022-10-12T10:18:40Z</time>
      </trkpt>
      <trkpt lat="43.92605" lon="1.88952">
        <ele>155.8</ele>
        <time>2022-10-12T10:18:41Z</time>
      </trkpt>
      <trkpt lat="43.92609" lon="1.88952">
        <ele>155.8</ele>
        <time>2022-10-12T10:18:42Z</time>
      </trkpt>
      <trkpt lat="43.92645" lon="1.88949">
        <ele>156.2</ele>
        <time>2022-10-12T10:18:49Z</time>
      </trkpt>
      <trkpt lat="43.9265" lon="1.88948">
        <ele>156.2</ele>
        <time>2022-10-12T10:18:50Z</time>
      </trkpt>
      <trkpt lat="43.92665" lon="1.88947">
        <ele>156.6</ele>
        <time>2022-10-12T10:18:52Z</time>
      </trkpt>
      <trkpt lat="43.92697" lon="1.88937">
        <ele>156.6</ele>
        <time>2022-10-12T10:18:59Z</time>
      </trkpt>
      <trkpt lat="43.92712" lon="1.88928">
        <ele>156.8</ele>
        <time>2022-10-12T10:19:01Z</time>
      </trkpt>
      <trkpt lat="43.92712" lon="1.88928">
        <ele>156.8</ele>
        <time>2022-10-12T10:19:02Z</time>
      </trkpt>
      <trkpt lat="43.92723" lon="1.88922">
        <ele>156.8</ele>
        <time>2022-10-12T10:19:03Z</time>
      </trkpt>
      <trkpt lat="43.92727" lon="1.8892">
        <ele>156.8</ele>
        <time>2022-10-12T10:19:04Z</time>
      </trkpt>
      <trkpt lat="43.92732" lon="1.88917">
        <ele>157</ele>
        <time>2022-10-12T10:19:05Z</time>
      </trkpt>
      <trkpt lat="43.92737" lon="1.88915">
        <ele>157</ele>
        <time>2022-10-12T10:19:06Z</time>
      </trkpt>
      <trkpt lat="43.92737" lon="1.88915">
        <ele>157.2</ele>
        <time>2022-10-12T10:19:07Z</time>
      </trkpt>
      <trkpt lat="43.92747" lon="1.88911">
        <ele>157.2</ele>
        <time>2022-10-12T10:19:08Z</time>
      </trkpt>
      <trkpt lat="43.92752" lon="1.8891">
        <ele>157.2</ele>
        <time>2022-10-12T10:19:09Z</time>
      </trkpt>
      <trkpt lat="43.92772" lon="1.88903">
        <ele>157.6</ele>
        <time>2022-10-12T10:19:13Z</time>
      </trkpt>
      <trkpt lat="43.92776" lon="1.88901">
        <ele>157.6</ele>
        <time>2022-10-12T10:19:14Z</time>
      </trkpt>
      <trkpt lat="43.92781" lon="1.88899">
        <ele>157.8</ele>
        <time>2022-10-12T10:19:15Z</time>
      </trkpt>
      <trkpt lat="43.92781" lon="1.88899">
        <ele>157.8</ele>
        <time>2022-10-12T10:19:16Z</time>
      </trkpt>
      <trkpt lat="43.9279" lon="1.88897">
        <ele>157.8</ele>
        <time>2022-10-12T10:19:17Z</time>
      </trkpt>
      <trkpt lat="43.92795" lon="1.88896">
        <ele>158</ele>
        <time>2022-10-12T10:19:18Z</time>
      </trkpt>
      <trkpt lat="43.92799" lon="1.88896">
        <ele>158</ele>
        <time>2022-10-12T10:19:19Z</time>
      </trkpt>
      <trkpt lat="43.92822" lon="1.88897">
        <ele>158.4</ele>
        <time>2022-10-12T10:19:25Z</time>
      </trkpt>
      <trkpt lat="43.92831" lon="1.88898">
        <ele>158.4</ele>
        <time>2022-10-12T10:19:26Z</time>
      </trkpt>
      <trkpt lat="43.92839" lon="1.88898">
        <ele>158.6</ele>
        <time>2022-10-12T10:19:28Z</time>
      </trkpt>
      <trkpt lat="43.92843" lon="1.88898">
        <ele>158.6</ele>
        <time>2022-10-12T10:19:29Z</time>
      </trkpt>
      <trkpt lat="43.92847" lon="1.88899">
        <ele>158.8</ele>
        <time>2022-10-12T10:19:30Z</time>
      </trkpt>
      <trkpt lat="43.92851" lon="1.88898">
        <ele>158.8</ele>
        <time>2022-10-12T10:19:31Z</time>
      </trkpt>
      <trkpt lat="43.92854" lon="1.88899">
        <ele>158.8</ele>
        <time>2022-10-12T10:19:32Z</time>
      </trkpt>
      <trkpt lat="43.92857" lon="1.88899">
        <ele>159</ele>
        <time>2022-10-12T10:19:33Z</time>
      </trkpt>
      <trkpt lat="43.9286" lon="1.88899">
        <ele>159</ele>
        <time>2022-10-12T10:19:34Z</time>
      </trkpt>
      <trkpt lat="43.92863" lon="1.88899">
        <ele>159.2</ele>
        <time>2022-10-12T10:19:35Z</time>
      </trkpt>
      <trkpt lat="43.92865" lon="1.88898">
        <ele>159.2</ele>
        <time>2022-10-12T10:19:36Z</time>
      </trkpt>
      <trkpt lat="43.92868" lon="1.88897">
        <ele>159.4</ele>
        <time>2022-10-12T10:19:37Z</time>
      </trkpt>
      <trkpt lat="43.9287" lon="1.88897">
        <ele>159.4</ele>
        <time>2022-10-12T10:19:38Z</time>
      </trkpt>
      <trkpt lat="43.92872" lon="1.88896">
        <ele>159.6</ele>
        <time>2022-10-12T10:19:39Z</time>
      </trkpt>
      <trkpt lat="43.92872" lon="1.88896">
        <ele>159.8</ele>
        <time>2022-10-12T10:19:40Z</time>
      </trkpt>
      <trkpt lat="43.92874" lon="1.88895">
        <ele>160.2</ele>
        <time>2022-10-12T10:19:41Z</time>
      </trkpt>
      <trkpt lat="43.92875" lon="1.88894">
        <ele>160.4</ele>
        <time>2022-10-12T10:19:42Z</time>
      </trkpt>
      <trkpt lat="43.92883" lon="1.8889">
        <ele>160.8</ele>
        <time>2022-10-12T10:19:45Z</time>
      </trkpt>
      <trkpt lat="43.92884" lon="1.88889">
        <ele>161.2</ele>
        <time>2022-10-12T10:19:46Z</time>
      </trkpt>
      <trkpt lat="43.92884" lon="1.88889">
        <ele>161.2</ele>
        <time>2022-10-12T10:19:47Z</time>
      </trkpt>
      <trkpt lat="43.92888" lon="1.88887">
        <ele>161.4</ele>
        <time>2022-10-12T10:19:48Z</time>
      </trkpt>
      <trkpt lat="43.9289" lon="1.88886">
        <ele>161.6</ele>
        <time>2022-10-12T10:19:49Z</time>
      </trkpt>
      <trkpt lat="43.92892" lon="1.88885">
        <ele>161.8</ele>
        <time>2022-10-12T10:19:50Z</time>
      </trkpt>
      <trkpt lat="43.92894" lon="1.88884">
        <ele>162</ele>
        <time>2022-10-12T10:19:51Z</time>
      </trkpt>
      <trkpt lat="43.92896" lon="1.88883">
        <ele>162.2</ele>
        <time>2022-10-12T10:19:52Z</time>
      </trkpt>
      <trkpt lat="43.92898" lon="1.88882">
        <ele>162.4</ele>
        <time>2022-10-12T10:19:53Z</time>
      </trkpt>
      <trkpt lat="43.92899" lon="1.88881">
        <ele>162.8</ele>
        <time>2022-10-12T10:19:54Z</time>
      </trkpt>
      <trkpt lat="43.92901" lon="1.8888">
        <ele>163</ele>
        <time>2022-10-12T10:19:55Z</time>
      </trkpt>
      <trkpt lat="43.92903" lon="1.88879">
        <ele>163.2</ele>
        <time>2022-10-12T10:19:56Z</time>
      </trkpt>
      <trkpt lat="43.92904" lon="1.88877">
        <ele>163.6</ele>
        <time>2022-10-12T10:19:57Z</time>
      </trkpt>
      <trkpt lat="43.92906" lon="1.88876">
        <ele>163.8</ele>
        <time>2022-10-12T10:19:58Z</time>
      </trkpt>
      <trkpt lat="43.92908" lon="1.88875">
        <ele>164.2</ele>
        <time>2022-10-12T10:19:59Z</time>
      </trkpt>
      <trkpt lat="43.9291" lon="1.88874">
        <ele>164.4</ele>
        <time>2022-10-12T10:20:00Z</time>
      </trkpt>
      <trkpt lat="43.92911" lon="1.88873">
        <ele>164.6</ele>
        <time>2022-10-12T10:20:01Z</time>
      </trkpt>
      <trkpt lat="43.92913" lon="1.88872">
        <ele>164.8</ele>
        <time>2022-10-12T10:20:02Z</time>
      </trkpt>
      <trkpt lat="43.92913" lon="1.88872">
        <ele>165</ele>
        <time>2022-10-12T10:20:03Z</time>
      </trkpt>
      <trkpt lat="43.92917" lon="1.8887">
        <ele>165.4</ele>
        <time>2022-10-12T10:20:04Z</time>
      </trkpt>
      <trkpt lat="43.92919" lon="1.88868">
        <ele>165.4</ele>
        <time>2022-10-12T10:20:05Z</time>
      </trkpt>
      <trkpt lat="43.92921" lon="1.88867">
        <ele>165.8</ele>
        <time>2022-10-12T10:20:06Z</time>
      </trkpt>
      <trkpt lat="43.92923" lon="1.88866">
        <ele>165.8</ele>
        <time>2022-10-12T10:20:07Z</time>
      </trkpt>
      <trkpt lat="43.92923" lon="1.88866">
        <ele>166.2</ele>
        <time>2022-10-12T10:20:08Z</time>
      </trkpt>
      <trkpt lat="43.92926" lon="1.88863">
        <ele>166.4</ele>
        <time>2022-10-12T10:20:09Z</time>
      </trkpt>
      <trkpt lat="43.92928" lon="1.88862">
        <ele>166.6</ele>
        <time>2022-10-12T10:20:10Z</time>
      </trkpt>
      <trkpt lat="43.9293" lon="1.8886">
        <ele>166.8</ele>
        <time>2022-10-12T10:20:11Z</time>
      </trkpt>
      <trkpt lat="43.92932" lon="1.88859">
        <ele>167</ele>
        <time>2022-10-12T10:20:12Z</time>
      </trkpt>
      <trkpt lat="43.92934" lon="1.88858">
        <ele>167.2</ele>
        <time>2022-10-12T10:20:13Z</time>
      </trkpt>
      <trkpt lat="43.92937" lon="1.88856">
        <ele>167.4</ele>
        <time>2022-10-12T10:20:14Z</time>
      </trkpt>
      <trkpt lat="43.92939" lon="1.88854">
        <ele>167.4</ele>
        <time>2022-10-12T10:20:15Z</time>
      </trkpt>
      <trkpt lat="43.92941" lon="1.88852">
        <ele>167.6</ele>
        <time>2022-10-12T10:20:16Z</time>
      </trkpt>
      <trkpt lat="43.92944" lon="1.88851">
        <ele>167.6</ele>
        <time>2022-10-12T10:20:17Z</time>
      </trkpt>
      <trkpt lat="43.92946" lon="1.8885">
        <ele>167.8</ele>
        <time>2022-10-12T10:20:18Z</time>
      </trkpt>
      <trkpt lat="43.92949" lon="1.88848">
        <ele>167.8</ele>
        <time>2022-10-12T10:20:19Z</time>
      </trkpt>
      <trkpt lat="43.92951" lon="1.88847">
        <ele>167.8</ele>
        <time>2022-10-12T10:20:20Z</time>
      </trkpt>
      <trkpt lat="43.92954" lon="1.88845">
        <ele>167.8</ele>
        <time>2022-10-12T10:20:21Z</time>
      </trkpt>
      <trkpt lat="43.92957" lon="1.88844">
        <ele>167.8</ele>
        <time>2022-10-12T10:20:22Z</time>
      </trkpt>
      <trkpt lat="43.9296" lon="1.88842">
        <ele>168</ele>
        <time>2022-10-12T10:20:23Z</time>
      </trkpt>
      <trkpt lat="43.9296" lon="1.88842">
        <ele>168</ele>
        <time>2022-10-12T10:20:24Z</time>
      </trkpt>
      <trkpt lat="43.92967" lon="1.88839">
        <ele>168</ele>
        <time>2022-10-12T10:20:25Z</time>
      </trkpt>
      <trkpt lat="43.92971" lon="1.88838">
        <ele>168.2</ele>
        <time>2022-10-12T10:20:26Z</time>
      </trkpt>
      <trkpt lat="43.92974" lon="1.88836">
        <ele>168.2</ele>
        <time>2022-10-12T10:20:27Z</time>
      </trkpt>
      <trkpt lat="43.92977" lon="1.88833">
        <ele>168.2</ele>
        <time>2022-10-12T10:20:28Z</time>
      </trkpt>
      <trkpt lat="43.92979" lon="1.88831">
        <ele>168.2</ele>
        <time>2022-10-12T10:20:29Z</time>
      </trkpt>
      <trkpt lat="43.92982" lon="1.88829">
        <ele>168</ele>
        <time>2022-10-12T10:20:30Z</time>
      </trkpt>
      <trkpt lat="43.92985" lon="1.88826">
        <ele>168</ele>
        <time>2022-10-12T10:20:31Z</time>
      </trkpt>
      <trkpt lat="43.92988" lon="1.88824">
        <ele>168</ele>
        <time>2022-10-12T10:20:32Z</time>
      </trkpt>
      <trkpt lat="43.92992" lon="1.88823">
        <ele>168</ele>
        <time>2022-10-12T10:20:33Z</time>
      </trkpt>
      <trkpt lat="43.92995" lon="1.88821">
        <ele>168.2</ele>
        <time>2022-10-12T10:20:34Z</time>
      </trkpt>
      <trkpt lat="43.92999" lon="1.88819">
        <ele>168.2</ele>
        <time>2022-10-12T10:20:35Z</time>
      </trkpt>
      <trkpt lat="43.93002" lon="1.88817">
        <ele>168.2</ele>
        <time>2022-10-12T10:20:36Z</time>
      </trkpt>
      <trkpt lat="43.9302" lon="1.88809">
        <ele>168.4</ele>
        <time>2022-10-12T10:20:41Z</time>
      </trkpt>
      <trkpt lat="43.93024" lon="1.88807">
        <ele>168.4</ele>
        <time>2022-10-12T10:20:42Z</time>
      </trkpt>
      <trkpt lat="43.93041" lon="1.88797">
        <ele>168.6</ele>
        <time>2022-10-12T10:20:47Z</time>
      </trkpt>
      <trkpt lat="43.93045" lon="1.88796">
        <ele>168.6</ele>
        <time>2022-10-12T10:20:48Z</time>
      </trkpt>
      <trkpt lat="43.93048" lon="1.88794">
        <ele>168.6</ele>
        <time>2022-10-12T10:20:49Z</time>
      </trkpt>
      <trkpt lat="43.93051" lon="1.88792">
        <ele>168.6</ele>
        <time>2022-10-12T10:20:50Z</time>
      </trkpt>
      <trkpt lat="43.93057" lon="1.88787">
        <ele>168.8</ele>
        <time>2022-10-12T10:20:52Z</time>
      </trkpt>
      <trkpt lat="43.9306" lon="1.88785">
        <ele>168.8</ele>
        <time>2022-10-12T10:20:53Z</time>
      </trkpt>
      <trkpt lat="43.93074" lon="1.88772">
        <ele>169</ele>
        <time>2022-10-12T10:20:58Z</time>
      </trkpt>
      <trkpt lat="43.93077" lon="1.88769">
        <ele>169.2</ele>
        <time>2022-10-12T10:20:59Z</time>
      </trkpt>
      <trkpt lat="43.9308" lon="1.88767">
        <ele>169.4</ele>
        <time>2022-10-12T10:21:00Z</time>
      </trkpt>
      <trkpt lat="43.93108" lon="1.88738">
        <ele>170</ele>
        <time>2022-10-12T10:21:09Z</time>
      </trkpt>
      <trkpt lat="43.93125" lon="1.88716">
        <ele>169.8</ele>
        <time>2022-10-12T10:21:14Z</time>
      </trkpt>
      <trkpt lat="43.93133" lon="1.88706">
        <ele>169.6</ele>
        <time>2022-10-12T10:21:16Z</time>
      </trkpt>
      <trkpt lat="43.93144" lon="1.88689">
        <ele>169.4</ele>
        <time>2022-10-12T10:21:19Z</time>
      </trkpt>
      <trkpt lat="43.93148" lon="1.88684">
        <ele>169.2</ele>
        <time>2022-10-12T10:21:21Z</time>
      </trkpt>
      <trkpt lat="43.93178" lon="1.88643">
        <ele>169</ele>
        <time>2022-10-12T10:21:27Z</time>
      </trkpt>
      <trkpt lat="43.93178" lon="1.88643">
        <ele>168.8</ele>
        <time>2022-10-12T10:21:28Z</time>
      </trkpt>
      <trkpt lat="43.93204" lon="1.88607">
        <ele>168.2</ele>
        <time>2022-10-12T10:21:33Z</time>
      </trkpt>
      <trkpt lat="43.93213" lon="1.88595">
        <ele>168</ele>
        <time>2022-10-12T10:21:35Z</time>
      </trkpt>
      <trkpt lat="43.93217" lon="1.8859">
        <ele>168</ele>
        <time>2022-10-12T10:21:36Z</time>
      </trkpt>
      <trkpt lat="43.93228" lon="1.88581">
        <ele>167.6</ele>
        <time>2022-10-12T10:21:38Z</time>
      </trkpt>
      <trkpt lat="43.93228" lon="1.88581">
        <ele>167.6</ele>
        <time>2022-10-12T10:21:39Z</time>
      </trkpt>
      <trkpt lat="43.93238" lon="1.88571">
        <ele>167.4</ele>
        <time>2022-10-12T10:21:40Z</time>
      </trkpt>
      <trkpt lat="43.93243" lon="1.88565">
        <ele>167.4</ele>
        <time>2022-10-12T10:21:41Z</time>
      </trkpt>
      <trkpt lat="43.93247" lon="1.88559">
        <ele>167.2</ele>
        <time>2022-10-12T10:21:42Z</time>
      </trkpt>
      <trkpt lat="43.93249" lon="1.88552">
        <ele>167.2</ele>
        <time>2022-10-12T10:21:43Z</time>
      </trkpt>
      <trkpt lat="43.93249" lon="1.88552">
        <ele>167.2</ele>
        <time>2022-10-12T10:21:44Z</time>
      </trkpt>
      <trkpt lat="43.93255" lon="1.88539">
        <ele>167.2</ele>
        <time>2022-10-12T10:21:45Z</time>
      </trkpt>
      <trkpt lat="43.93258" lon="1.88533">
        <ele>167.2</ele>
        <time>2022-10-12T10:21:46Z</time>
      </trkpt>
      <trkpt lat="43.93262" lon="1.88527">
        <ele>167.2</ele>
        <time>2022-10-12T10:21:47Z</time>
      </trkpt>
      <trkpt lat="43.93265" lon="1.88521">
        <ele>167.2</ele>
        <time>2022-10-12T10:21:48Z</time>
      </trkpt>
      <trkpt lat="43.93268" lon="1.88516">
        <ele>167.2</ele>
        <time>2022-10-12T10:21:49Z</time>
      </trkpt>
      <trkpt lat="43.93271" lon="1.88511">
        <ele>167.2</ele>
        <time>2022-10-12T10:21:50Z</time>
      </trkpt>
      <trkpt lat="43.93277" lon="1.885">
        <ele>167.2</ele>
        <time>2022-10-12T10:21:52Z</time>
      </trkpt>
      <trkpt lat="43.93288" lon="1.88483">
        <ele>167.2</ele>
        <time>2022-10-12T10:21:55Z</time>
      </trkpt>
      <trkpt lat="43.93295" lon="1.88472">
        <ele>167.2</ele>
        <time>2022-10-12T10:21:57Z</time>
      </trkpt>
      <trkpt lat="43.93299" lon="1.88467">
        <ele>167.2</ele>
        <time>2022-10-12T10:21:58Z</time>
      </trkpt>
      <trkpt lat="43.93308" lon="1.8845">
        <ele>167.2</ele>
        <time>2022-10-12T10:22:01Z</time>
      </trkpt>
      <trkpt lat="43.93311" lon="1.88444">
        <ele>167.4</ele>
        <time>2022-10-12T10:22:02Z</time>
      </trkpt>
      <trkpt lat="43.93313" lon="1.88437">
        <ele>167.4</ele>
        <time>2022-10-12T10:22:03Z</time>
      </trkpt>
      <trkpt lat="43.93322" lon="1.88411">
        <ele>167.8</ele>
        <time>2022-10-12T10:22:07Z</time>
      </trkpt>
      <trkpt lat="43.93324" lon="1.88404">
        <ele>168</ele>
        <time>2022-10-12T10:22:08Z</time>
      </trkpt>
      <trkpt lat="43.9333" lon="1.88384">
        <ele>168.4</ele>
        <time>2022-10-12T10:22:11Z</time>
      </trkpt>
      <trkpt lat="43.93332" lon="1.88378">
        <ele>168.6</ele>
        <time>2022-10-12T10:22:12Z</time>
      </trkpt>
      <trkpt lat="43.93334" lon="1.88372">
        <ele>168.6</ele>
        <time>2022-10-12T10:22:13Z</time>
      </trkpt>
      <trkpt lat="43.93334" lon="1.88372">
        <ele>168.6</ele>
        <time>2022-10-12T10:22:14Z</time>
      </trkpt>
      <trkpt lat="43.93342" lon="1.88347">
        <ele>168.8</ele>
        <time>2022-10-12T10:22:17Z</time>
      </trkpt>
      <trkpt lat="43.93344" lon="1.88342">
        <ele>168.6</ele>
        <time>2022-10-12T10:22:18Z</time>
      </trkpt>
      <trkpt lat="43.93346" lon="1.88336">
        <ele>168.8</ele>
        <time>2022-10-12T10:22:19Z</time>
      </trkpt>
      <trkpt lat="43.93347" lon="1.8833">
        <ele>168.6</ele>
        <time>2022-10-12T10:22:20Z</time>
      </trkpt>
      <trkpt lat="43.93347" lon="1.8833">
        <ele>168.8</ele>
        <time>2022-10-12T10:22:21Z</time>
      </trkpt>
      <trkpt lat="43.93352" lon="1.88312">
        <ele>169.2</ele>
        <time>2022-10-12T10:22:23Z</time>
      </trkpt>
      <trkpt lat="43.93354" lon="1.88306">
        <ele>169.2</ele>
        <time>2022-10-12T10:22:24Z</time>
      </trkpt>
      <trkpt lat="43.93355" lon="1.88301">
        <ele>169.2</ele>
        <time>2022-10-12T10:22:25Z</time>
      </trkpt>
      <trkpt lat="43.93356" lon="1.88295">
        <ele>169.2</ele>
        <time>2022-10-12T10:22:26Z</time>
      </trkpt>
      <trkpt lat="43.93359" lon="1.88284">
        <ele>169.4</ele>
        <time>2022-10-12T10:22:28Z</time>
      </trkpt>
      <trkpt lat="43.9336" lon="1.88278">
        <ele>169.4</ele>
        <time>2022-10-12T10:22:29Z</time>
      </trkpt>
      <trkpt lat="43.93361" lon="1.88273">
        <ele>169.4</ele>
        <time>2022-10-12T10:22:30Z</time>
      </trkpt>
      <trkpt lat="43.93367" lon="1.8825">
        <ele>169.8</ele>
        <time>2022-10-12T10:22:34Z</time>
      </trkpt>
      <trkpt lat="43.93372" lon="1.88225">
        <ele>170.2</ele>
        <time>2022-10-12T10:22:38Z</time>
      </trkpt>
      <trkpt lat="43.93376" lon="1.88206">
        <ele>170.6</ele>
        <time>2022-10-12T10:22:41Z</time>
      </trkpt>
      <trkpt lat="43.93376" lon="1.882">
        <ele>170.8</ele>
        <time>2022-10-12T10:22:42Z</time>
      </trkpt>
      <trkpt lat="43.93377" lon="1.88195">
        <ele>171</ele>
        <time>2022-10-12T10:22:43Z</time>
      </trkpt>
      <trkpt lat="43.93378" lon="1.88188">
        <ele>171.2</ele>
        <time>2022-10-12T10:22:44Z</time>
      </trkpt>
      <trkpt lat="43.93378" lon="1.88184">
        <ele>171.4</ele>
        <time>2022-10-12T10:22:45Z</time>
      </trkpt>
      <trkpt lat="43.93378" lon="1.88179">
        <ele>171.6</ele>
        <time>2022-10-12T10:22:46Z</time>
      </trkpt>
      <trkpt lat="43.93378" lon="1.88179">
        <ele>171.6</ele>
        <time>2022-10-12T10:22:47Z</time>
      </trkpt>
      <trkpt lat="43.93378" lon="1.88169">
        <ele>171.8</ele>
        <time>2022-10-12T10:22:48Z</time>
      </trkpt>
      <trkpt lat="43.93379" lon="1.88163">
        <ele>171.8</ele>
        <time>2022-10-12T10:22:49Z</time>
      </trkpt>
      <trkpt lat="43.9338" lon="1.88158">
        <ele>172</ele>
        <time>2022-10-12T10:22:50Z</time>
      </trkpt>
      <trkpt lat="43.93379" lon="1.88153">
        <ele>172</ele>
        <time>2022-10-12T10:22:51Z</time>
      </trkpt>
      <trkpt lat="43.93378" lon="1.88149">
        <ele>172</ele>
        <time>2022-10-12T10:22:52Z</time>
      </trkpt>
      <trkpt lat="43.93377" lon="1.88144">
        <ele>172.2</ele>
        <time>2022-10-12T10:22:53Z</time>
      </trkpt>
      <trkpt lat="43.93377" lon="1.8814">
        <ele>172.2</ele>
        <time>2022-10-12T10:22:54Z</time>
      </trkpt>
      <trkpt lat="43.93377" lon="1.88135">
        <ele>172.4</ele>
        <time>2022-10-12T10:22:55Z</time>
      </trkpt>
      <trkpt lat="43.93377" lon="1.8813">
        <ele>172.4</ele>
        <time>2022-10-12T10:22:56Z</time>
      </trkpt>
      <trkpt lat="43.93377" lon="1.88126">
        <ele>172.8</ele>
        <time>2022-10-12T10:22:57Z</time>
      </trkpt>
      <trkpt lat="43.93376" lon="1.88122">
        <ele>173.2</ele>
        <time>2022-10-12T10:22:58Z</time>
      </trkpt>
      <trkpt lat="43.93375" lon="1.88119">
        <ele>173.6</ele>
        <time>2022-10-12T10:22:59Z</time>
      </trkpt>
      <trkpt lat="43.93375" lon="1.88115">
        <ele>173.8</ele>
        <time>2022-10-12T10:23:00Z</time>
      </trkpt>
      <trkpt lat="43.93375" lon="1.88111">
        <ele>173.8</ele>
        <time>2022-10-12T10:23:01Z</time>
      </trkpt>
      <trkpt lat="43.93375" lon="1.88107">
        <ele>174</ele>
        <time>2022-10-12T10:23:02Z</time>
      </trkpt>
      <trkpt lat="43.93375" lon="1.88107">
        <ele>174.2</ele>
        <time>2022-10-12T10:23:03Z</time>
      </trkpt>
      <trkpt lat="43.93375" lon="1.88099">
        <ele>174.4</ele>
        <time>2022-10-12T10:23:04Z</time>
      </trkpt>
      <trkpt lat="43.93374" lon="1.88096">
        <ele>174.4</ele>
        <time>2022-10-12T10:23:05Z</time>
      </trkpt>
      <trkpt lat="43.93374" lon="1.88096">
        <ele>175</ele>
        <time>2022-10-12T10:23:06Z</time>
      </trkpt>
      <trkpt lat="43.93374" lon="1.88089">
        <ele>175</ele>
        <time>2022-10-12T10:23:07Z</time>
      </trkpt>
      <trkpt lat="43.93373" lon="1.88085">
        <ele>175.2</ele>
        <time>2022-10-12T10:23:08Z</time>
      </trkpt>
      <trkpt lat="43.93374" lon="1.88081">
        <ele>175.6</ele>
        <time>2022-10-12T10:23:09Z</time>
      </trkpt>
      <trkpt lat="43.93374" lon="1.88077">
        <ele>175.8</ele>
        <time>2022-10-12T10:23:10Z</time>
      </trkpt>
      <trkpt lat="43.93375" lon="1.88074">
        <ele>176</ele>
        <time>2022-10-12T10:23:11Z</time>
      </trkpt>
      <trkpt lat="43.93375" lon="1.88069">
        <ele>176.2</ele>
        <time>2022-10-12T10:23:12Z</time>
      </trkpt>
      <trkpt lat="43.93376" lon="1.88064">
        <ele>176.4</ele>
        <time>2022-10-12T10:23:13Z</time>
      </trkpt>
      <trkpt lat="43.93377" lon="1.88059">
        <ele>176.4</ele>
        <time>2022-10-12T10:23:14Z</time>
      </trkpt>
      <trkpt lat="43.93378" lon="1.88052">
        <ele>176.4</ele>
        <time>2022-10-12T10:23:15Z</time>
      </trkpt>
      <trkpt lat="43.93379" lon="1.88045">
        <ele>176.6</ele>
        <time>2022-10-12T10:23:16Z</time>
      </trkpt>
      <trkpt lat="43.93381" lon="1.88039">
        <ele>176.4</ele>
        <time>2022-10-12T10:23:17Z</time>
      </trkpt>
      <trkpt lat="43.93382" lon="1.88033">
        <ele>176.4</ele>
        <time>2022-10-12T10:23:18Z</time>
      </trkpt>
      <trkpt lat="43.93384" lon="1.88024">
        <ele>176.4</ele>
        <time>2022-10-12T10:23:19Z</time>
      </trkpt>
      <trkpt lat="43.93385" lon="1.88018">
        <ele>176.4</ele>
        <time>2022-10-12T10:23:20Z</time>
      </trkpt>
      <trkpt lat="43.93386" lon="1.88011">
        <ele>176.4</ele>
        <time>2022-10-12T10:23:21Z</time>
      </trkpt>
      <trkpt lat="43.93388" lon="1.88003">
        <ele>176.2</ele>
        <time>2022-10-12T10:23:22Z</time>
      </trkpt>
      <trkpt lat="43.9339" lon="1.87996">
        <ele>176.2</ele>
        <time>2022-10-12T10:23:23Z</time>
      </trkpt>
      <trkpt lat="43.93391" lon="1.87987">
        <ele>176</ele>
        <time>2022-10-12T10:23:24Z</time>
      </trkpt>
      <trkpt lat="43.93393" lon="1.87978">
        <ele>175.8</ele>
        <time>2022-10-12T10:23:25Z</time>
      </trkpt>
      <trkpt lat="43.93393" lon="1.87978">
        <ele>175.6</ele>
        <time>2022-10-12T10:23:26Z</time>
      </trkpt>
      <trkpt lat="43.93394" lon="1.87964">
        <ele>175.2</ele>
        <time>2022-10-12T10:23:27Z</time>
      </trkpt>
      <trkpt lat="43.93394" lon="1.87957">
        <ele>175</ele>
        <time>2022-10-12T10:23:28Z</time>
      </trkpt>
      <trkpt lat="43.93393" lon="1.8795">
        <ele>174.4</ele>
        <time>2022-10-12T10:23:29Z</time>
      </trkpt>
      <trkpt lat="43.93392" lon="1.87943">
        <ele>174.2</ele>
        <time>2022-10-12T10:23:30Z</time>
      </trkpt>
      <trkpt lat="43.93391" lon="1.87937">
        <ele>174</ele>
        <time>2022-10-12T10:23:31Z</time>
      </trkpt>
      <trkpt lat="43.93391" lon="1.87937">
        <ele>174</ele>
        <time>2022-10-12T10:23:32Z</time>
      </trkpt>
      <trkpt lat="43.9339" lon="1.87925">
        <ele>173.8</ele>
        <time>2022-10-12T10:23:33Z</time>
      </trkpt>
      <trkpt lat="43.9339" lon="1.87919">
        <ele>173.8</ele>
        <time>2022-10-12T10:23:34Z</time>
      </trkpt>
      <trkpt lat="43.93389" lon="1.87913">
        <ele>173.8</ele>
        <time>2022-10-12T10:23:35Z</time>
      </trkpt>
      <trkpt lat="43.93389" lon="1.87907">
        <ele>173.8</ele>
        <time>2022-10-12T10:23:36Z</time>
      </trkpt>
      <trkpt lat="43.93388" lon="1.87901">
        <ele>173.8</ele>
        <time>2022-10-12T10:23:37Z</time>
      </trkpt>
      <trkpt lat="43.93387" lon="1.87896">
        <ele>173.8</ele>
        <time>2022-10-12T10:23:38Z</time>
      </trkpt>
      <trkpt lat="43.93386" lon="1.8789">
        <ele>173.8</ele>
        <time>2022-10-12T10:23:39Z</time>
      </trkpt>
      <trkpt lat="43.93385" lon="1.87885">
        <ele>173.8</ele>
        <time>2022-10-12T10:23:40Z</time>
      </trkpt>
      <trkpt lat="43.93384" lon="1.8788">
        <ele>174</ele>
        <time>2022-10-12T10:23:41Z</time>
      </trkpt>
      <trkpt lat="43.93383" lon="1.87875">
        <ele>174</ele>
        <time>2022-10-12T10:23:42Z</time>
      </trkpt>
      <trkpt lat="43.93383" lon="1.8787">
        <ele>174.2</ele>
        <time>2022-10-12T10:23:43Z</time>
      </trkpt>
      <trkpt lat="43.93377" lon="1.87843">
        <ele>174.6</ele>
        <time>2022-10-12T10:23:48Z</time>
      </trkpt>
      <trkpt lat="43.93375" lon="1.87834">
        <ele>175</ele>
        <time>2022-10-12T10:23:50Z</time>
      </trkpt>
      <trkpt lat="43.93373" lon="1.87829">
        <ele>175</ele>
        <time>2022-10-12T10:23:51Z</time>
      </trkpt>
      <trkpt lat="43.93372" lon="1.87823">
        <ele>175.2</ele>
        <time>2022-10-12T10:23:52Z</time>
      </trkpt>
      <trkpt lat="43.93371" lon="1.87818">
        <ele>175.4</ele>
        <time>2022-10-12T10:23:53Z</time>
      </trkpt>
      <trkpt lat="43.9337" lon="1.87813">
        <ele>175.4</ele>
        <time>2022-10-12T10:23:54Z</time>
      </trkpt>
      <trkpt lat="43.93367" lon="1.87792">
        <ele>176</ele>
        <time>2022-10-12T10:23:58Z</time>
      </trkpt>
      <trkpt lat="43.93366" lon="1.87753">
        <ele>176.4</ele>
        <time>2022-10-12T10:24:04Z</time>
      </trkpt>
      <trkpt lat="43.93369" lon="1.8773">
        <ele>176.6</ele>
        <time>2022-10-12T10:24:07Z</time>
      </trkpt>
      <trkpt lat="43.93369" lon="1.87723">
        <ele>176.6</ele>
        <time>2022-10-12T10:24:08Z</time>
      </trkpt>
      <trkpt lat="43.93369" lon="1.87723">
        <ele>176.6</ele>
        <time>2022-10-12T10:24:09Z</time>
      </trkpt>
      <trkpt lat="43.93366" lon="1.87709">
        <ele>176.4</ele>
        <time>2022-10-12T10:24:10Z</time>
      </trkpt>
      <trkpt lat="43.93363" lon="1.87703">
        <ele>176.4</ele>
        <time>2022-10-12T10:24:11Z</time>
      </trkpt>
      <trkpt lat="43.9336" lon="1.87697">
        <ele>176.4</ele>
        <time>2022-10-12T10:24:12Z</time>
      </trkpt>
      <trkpt lat="43.93357" lon="1.87692">
        <ele>176.2</ele>
        <time>2022-10-12T10:24:13Z</time>
      </trkpt>
      <trkpt lat="43.93355" lon="1.87688">
        <ele>176.2</ele>
        <time>2022-10-12T10:24:14Z</time>
      </trkpt>
      <trkpt lat="43.93353" lon="1.87683">
        <ele>176.2</ele>
        <time>2022-10-12T10:24:15Z</time>
      </trkpt>
      <trkpt lat="43.9335" lon="1.87679">
        <ele>176.2</ele>
        <time>2022-10-12T10:24:16Z</time>
      </trkpt>
      <trkpt lat="43.93348" lon="1.87674">
        <ele>176.4</ele>
        <time>2022-10-12T10:24:17Z</time>
      </trkpt>
      <trkpt lat="43.93347" lon="1.8767">
        <ele>176.4</ele>
        <time>2022-10-12T10:24:18Z</time>
      </trkpt>
      <trkpt lat="43.93344" lon="1.87666">
        <ele>176.4</ele>
        <time>2022-10-12T10:24:19Z</time>
      </trkpt>
      <trkpt lat="43.93326" lon="1.8764">
        <ele>177</ele>
        <time>2022-10-12T10:24:26Z</time>
      </trkpt>
      <trkpt lat="43.93319" lon="1.87633">
        <ele>177.6</ele>
        <time>2022-10-12T10:24:28Z</time>
      </trkpt>
      <trkpt lat="43.93316" lon="1.87631">
        <ele>177.8</ele>
        <time>2022-10-12T10:24:29Z</time>
      </trkpt>
      <trkpt lat="43.93313" lon="1.87628">
        <ele>178</ele>
        <time>2022-10-12T10:24:30Z</time>
      </trkpt>
      <trkpt lat="43.9331" lon="1.87626">
        <ele>178.2</ele>
        <time>2022-10-12T10:24:31Z</time>
      </trkpt>
      <trkpt lat="43.9331" lon="1.87626">
        <ele>178.2</ele>
        <time>2022-10-12T10:24:32Z</time>
      </trkpt>
      <trkpt lat="43.93304" lon="1.87623">
        <ele>178.6</ele>
        <time>2022-10-12T10:24:33Z</time>
      </trkpt>
      <trkpt lat="43.93303" lon="1.8762">
        <ele>178.8</ele>
        <time>2022-10-12T10:24:34Z</time>
      </trkpt>
      <trkpt lat="43.93302" lon="1.87617">
        <ele>179.2</ele>
        <time>2022-10-12T10:24:35Z</time>
      </trkpt>
      <trkpt lat="43.93301" lon="1.87613">
        <ele>179.4</ele>
        <time>2022-10-12T10:24:36Z</time>
      </trkpt>
      <trkpt lat="43.93302" lon="1.8761">
        <ele>179.8</ele>
        <time>2022-10-12T10:24:37Z</time>
      </trkpt>
      <trkpt lat="43.93302" lon="1.87606">
        <ele>180.4</ele>
        <time>2022-10-12T10:24:38Z</time>
      </trkpt>
      <trkpt lat="43.93305" lon="1.876">
        <ele>180.4</ele>
        <time>2022-10-12T10:24:39Z</time>
      </trkpt>
      <trkpt lat="43.93307" lon="1.87596">
        <ele>180.6</ele>
        <time>2022-10-12T10:24:40Z</time>
      </trkpt>
      <trkpt lat="43.93307" lon="1.87596">
        <ele>180.6</ele>
        <time>2022-10-12T10:24:41Z</time>
      </trkpt>
      <trkpt lat="43.93315" lon="1.87586">
        <ele>180.6</ele>
        <time>2022-10-12T10:24:42Z</time>
      </trkpt>
      <trkpt lat="43.93319" lon="1.87581">
        <ele>180.6</ele>
        <time>2022-10-12T10:24:43Z</time>
      </trkpt>
      <trkpt lat="43.93324" lon="1.87576">
        <ele>180.6</ele>
        <time>2022-10-12T10:24:44Z</time>
      </trkpt>
      <trkpt lat="43.9333" lon="1.87572">
        <ele>180.6</ele>
        <time>2022-10-12T10:24:45Z</time>
      </trkpt>
      <trkpt lat="43.9333" lon="1.87572">
        <ele>180.6</ele>
        <time>2022-10-12T10:24:46Z</time>
      </trkpt>
      <trkpt lat="43.93341" lon="1.87566">
        <ele>180.6</ele>
        <time>2022-10-12T10:24:47Z</time>
      </trkpt>
      <trkpt lat="43.93347" lon="1.87565">
        <ele>180.4</ele>
        <time>2022-10-12T10:24:48Z</time>
      </trkpt>
      <trkpt lat="43.93347" lon="1.87565">
        <ele>180.4</ele>
        <time>2022-10-12T10:24:49Z</time>
      </trkpt>
      <trkpt lat="43.93357" lon="1.87563">
        <ele>180.2</ele>
        <time>2022-10-12T10:24:50Z</time>
      </trkpt>
      <trkpt lat="43.93363" lon="1.87562">
        <ele>179.8</ele>
        <time>2022-10-12T10:24:51Z</time>
      </trkpt>
      <trkpt lat="43.93367" lon="1.8756">
        <ele>179.8</ele>
        <time>2022-10-12T10:24:52Z</time>
      </trkpt>
      <trkpt lat="43.93371" lon="1.87556">
        <ele>179.6</ele>
        <time>2022-10-12T10:24:53Z</time>
      </trkpt>
      <trkpt lat="43.93374" lon="1.87552">
        <ele>179.4</ele>
        <time>2022-10-12T10:24:54Z</time>
      </trkpt>
      <trkpt lat="43.93374" lon="1.87547">
        <ele>179.4</ele>
        <time>2022-10-12T10:24:55Z</time>
      </trkpt>
      <trkpt lat="43.93373" lon="1.87543">
        <ele>179.4</ele>
        <time>2022-10-12T10:24:56Z</time>
      </trkpt>
      <trkpt lat="43.93372" lon="1.87539">
        <ele>179.4</ele>
        <time>2022-10-12T10:24:57Z</time>
      </trkpt>
      <trkpt lat="43.93371" lon="1.87535">
        <ele>179.4</ele>
        <time>2022-10-12T10:24:58Z</time>
      </trkpt>
      <trkpt lat="43.93371" lon="1.87533">
        <ele>179.4</ele>
        <time>2022-10-12T10:24:59Z</time>
      </trkpt>
      <trkpt lat="43.9337" lon="1.8753">
        <ele>179.4</ele>
        <time>2022-10-12T10:25:00Z</time>
      </trkpt>
      <trkpt lat="43.9337" lon="1.87528">
        <ele>179.8</ele>
        <time>2022-10-12T10:25:01Z</time>
      </trkpt>
      <trkpt lat="43.93369" lon="1.87526">
        <ele>179.8</ele>
        <time>2022-10-12T10:25:02Z</time>
      </trkpt>
      <trkpt lat="43.93369" lon="1.87524">
        <ele>180.4</ele>
        <time>2022-10-12T10:25:03Z</time>
      </trkpt>
      <trkpt lat="43.93368" lon="1.87522">
        <ele>180.4</ele>
        <time>2022-10-12T10:25:04Z</time>
      </trkpt>
      <trkpt lat="43.93367" lon="1.87517">
        <ele>180.8</ele>
        <time>2022-10-12T10:25:06Z</time>
      </trkpt>
      <trkpt lat="43.93367" lon="1.87514">
        <ele>181</ele>
        <time>2022-10-12T10:25:07Z</time>
      </trkpt>
      <trkpt lat="43.93366" lon="1.87512">
        <ele>181</ele>
        <time>2022-10-12T10:25:08Z</time>
      </trkpt>
      <trkpt lat="43.93364" lon="1.875">
        <ele>182</ele>
        <time>2022-10-12T10:25:13Z</time>
      </trkpt>
      <trkpt lat="43.93364" lon="1.87497">
        <ele>182.2</ele>
        <time>2022-10-12T10:25:14Z</time>
      </trkpt>
      <trkpt lat="43.93363" lon="1.87487">
        <ele>182.8</ele>
        <time>2022-10-12T10:25:18Z</time>
      </trkpt>
      <trkpt lat="43.93363" lon="1.87484">
        <ele>183</ele>
        <time>2022-10-12T10:25:19Z</time>
      </trkpt>
      <trkpt lat="43.93362" lon="1.87482">
        <ele>183</ele>
        <time>2022-10-12T10:25:20Z</time>
      </trkpt>
      <trkpt lat="43.93361" lon="1.87479">
        <ele>183.2</ele>
        <time>2022-10-12T10:25:21Z</time>
      </trkpt>
      <trkpt lat="43.93361" lon="1.87477">
        <ele>183.4</ele>
        <time>2022-10-12T10:25:22Z</time>
      </trkpt>
      <trkpt lat="43.9336" lon="1.87475">
        <ele>183.6</ele>
        <time>2022-10-12T10:25:23Z</time>
      </trkpt>
      <trkpt lat="43.93359" lon="1.87473">
        <ele>183.6</ele>
        <time>2022-10-12T10:25:24Z</time>
      </trkpt>
      <trkpt lat="43.93358" lon="1.87472">
        <ele>183.8</ele>
        <time>2022-10-12T10:25:25Z</time>
      </trkpt>
      <trkpt lat="43.93357" lon="1.8747">
        <ele>184.2</ele>
        <time>2022-10-12T10:25:26Z</time>
      </trkpt>
      <trkpt lat="43.93356" lon="1.87469">
        <ele>184.4</ele>
        <time>2022-10-12T10:25:27Z</time>
      </trkpt>
      <trkpt lat="43.93356" lon="1.87469">
        <ele>184.8</ele>
        <time>2022-10-12T10:25:28Z</time>
      </trkpt>
      <trkpt lat="43.93353" lon="1.87466">
        <ele>185</ele>
        <time>2022-10-12T10:25:29Z</time>
      </trkpt>
      <trkpt lat="43.93352" lon="1.87466">
        <ele>185.4</ele>
        <time>2022-10-12T10:25:30Z</time>
      </trkpt>
      <trkpt lat="43.9335" lon="1.87465">
        <ele>185.6</ele>
        <time>2022-10-12T10:25:31Z</time>
      </trkpt>
      <trkpt lat="43.93349" lon="1.87464">
        <ele>185.8</ele>
        <time>2022-10-12T10:25:32Z</time>
      </trkpt>
      <trkpt lat="43.93347" lon="1.87464">
        <ele>185.8</ele>
        <time>2022-10-12T10:25:33Z</time>
      </trkpt>
      <trkpt lat="43.93345" lon="1.87463">
        <ele>186</ele>
        <time>2022-10-12T10:25:34Z</time>
      </trkpt>
      <trkpt lat="43.93344" lon="1.87462">
        <ele>186.4</ele>
        <time>2022-10-12T10:25:35Z</time>
      </trkpt>
      <trkpt lat="43.93343" lon="1.87461">
        <ele>186.6</ele>
        <time>2022-10-12T10:25:36Z</time>
      </trkpt>
      <trkpt lat="43.93342" lon="1.8746">
        <ele>187</ele>
        <time>2022-10-12T10:25:37Z</time>
      </trkpt>
      <trkpt lat="43.93341" lon="1.87458">
        <ele>187.4</ele>
        <time>2022-10-12T10:25:38Z</time>
      </trkpt>
      <trkpt lat="43.9334" lon="1.87456">
        <ele>187.8</ele>
        <time>2022-10-12T10:25:39Z</time>
      </trkpt>
      <trkpt lat="43.93339" lon="1.87455">
        <ele>188</ele>
        <time>2022-10-12T10:25:40Z</time>
      </trkpt>
      <trkpt lat="43.93338" lon="1.87454">
        <ele>188.4</ele>
        <time>2022-10-12T10:25:41Z</time>
      </trkpt>
      <trkpt lat="43.93338" lon="1.87452">
        <ele>188.8</ele>
        <time>2022-10-12T10:25:42Z</time>
      </trkpt>
      <trkpt lat="43.93337" lon="1.8745">
        <ele>188.8</ele>
        <time>2022-10-12T10:25:43Z</time>
      </trkpt>
      <trkpt lat="43.93337" lon="1.87448">
        <ele>189.2</ele>
        <time>2022-10-12T10:25:44Z</time>
      </trkpt>
      <trkpt lat="43.93337" lon="1.87445">
        <ele>189.2</ele>
        <time>2022-10-12T10:25:45Z</time>
      </trkpt>
      <trkpt lat="43.93336" lon="1.87443">
        <ele>189.6</ele>
        <time>2022-10-12T10:25:46Z</time>
      </trkpt>
      <trkpt lat="43.93336" lon="1.87441">
        <ele>189.8</ele>
        <time>2022-10-12T10:25:47Z</time>
      </trkpt>
      <trkpt lat="43.93336" lon="1.8744">
        <ele>190.2</ele>
        <time>2022-10-12T10:25:48Z</time>
      </trkpt>
      <trkpt lat="43.93335" lon="1.87438">
        <ele>190.4</ele>
        <time>2022-10-12T10:25:49Z</time>
      </trkpt>
      <trkpt lat="43.93334" lon="1.87437">
        <ele>190.8</ele>
        <time>2022-10-12T10:25:50Z</time>
      </trkpt>
      <trkpt lat="43.93334" lon="1.87437">
        <ele>191</ele>
        <time>2022-10-12T10:25:51Z</time>
      </trkpt>
      <trkpt lat="43.93332" lon="1.87433">
        <ele>191.2</ele>
        <time>2022-10-12T10:25:52Z</time>
      </trkpt>
      <trkpt lat="43.93331" lon="1.87431">
        <ele>191.4</ele>
        <time>2022-10-12T10:25:53Z</time>
      </trkpt>
      <trkpt lat="43.9333" lon="1.87429">
        <ele>191.6</ele>
        <time>2022-10-12T10:25:54Z</time>
      </trkpt>
      <trkpt lat="43.93329" lon="1.87427">
        <ele>192</ele>
        <time>2022-10-12T10:25:55Z</time>
      </trkpt>
      <trkpt lat="43.93328" lon="1.87425">
        <ele>192</ele>
        <time>2022-10-12T10:25:56Z</time>
      </trkpt>
      <trkpt lat="43.93327" lon="1.87423">
        <ele>192.4</ele>
        <time>2022-10-12T10:25:57Z</time>
      </trkpt>
      <trkpt lat="43.93326" lon="1.8742">
        <ele>192.6</ele>
        <time>2022-10-12T10:25:58Z</time>
      </trkpt>
      <trkpt lat="43.93324" lon="1.87419">
        <ele>192.8</ele>
        <time>2022-10-12T10:25:59Z</time>
      </trkpt>
      <trkpt lat="43.93323" lon="1.87416">
        <ele>193</ele>
        <time>2022-10-12T10:26:00Z</time>
      </trkpt>
      <trkpt lat="43.93322" lon="1.87413">
        <ele>193</ele>
        <time>2022-10-12T10:26:01Z</time>
      </trkpt>
      <trkpt lat="43.93321" lon="1.87411">
        <ele>193.4</ele>
        <time>2022-10-12T10:26:02Z</time>
      </trkpt>
      <trkpt lat="43.9332" lon="1.87409">
        <ele>193.6</ele>
        <time>2022-10-12T10:26:03Z</time>
      </trkpt>
      <trkpt lat="43.9332" lon="1.87406">
        <ele>193.8</ele>
        <time>2022-10-12T10:26:04Z</time>
      </trkpt>
      <trkpt lat="43.93319" lon="1.87404">
        <ele>194</ele>
        <time>2022-10-12T10:26:05Z</time>
      </trkpt>
      <trkpt lat="43.93318" lon="1.87402">
        <ele>194.2</ele>
        <time>2022-10-12T10:26:06Z</time>
      </trkpt>
      <trkpt lat="43.93318" lon="1.87398">
        <ele>194.6</ele>
        <time>2022-10-12T10:26:07Z</time>
      </trkpt>
      <trkpt lat="43.93318" lon="1.87396">
        <ele>194.6</ele>
        <time>2022-10-12T10:26:08Z</time>
      </trkpt>
      <trkpt lat="43.93318" lon="1.87394">
        <ele>194.8</ele>
        <time>2022-10-12T10:26:09Z</time>
      </trkpt>
      <trkpt lat="43.93318" lon="1.87392">
        <ele>195</ele>
        <time>2022-10-12T10:26:10Z</time>
      </trkpt>
      <trkpt lat="43.93318" lon="1.87392">
        <ele>195.4</ele>
        <time>2022-10-12T10:26:11Z</time>
      </trkpt>
      <trkpt lat="43.93317" lon="1.87389">
        <ele>195.6</ele>
        <time>2022-10-12T10:26:12Z</time>
      </trkpt>
      <trkpt lat="43.93317" lon="1.87388">
        <ele>195.8</ele>
        <time>2022-10-12T10:26:13Z</time>
      </trkpt>
      <trkpt lat="43.93317" lon="1.87388">
        <ele>196.2</ele>
        <time>2022-10-12T10:26:14Z</time>
      </trkpt>
      <trkpt lat="43.93316" lon="1.87385">
        <ele>196.4</ele>
        <time>2022-10-12T10:26:15Z</time>
      </trkpt>
      <trkpt lat="43.93316" lon="1.87383">
        <ele>196.8</ele>
        <time>2022-10-12T10:26:16Z</time>
      </trkpt>
      <trkpt lat="43.93316" lon="1.87381">
        <ele>197</ele>
        <time>2022-10-12T10:26:17Z</time>
      </trkpt>
      <trkpt lat="43.93316" lon="1.87379">
        <ele>197.2</ele>
        <time>2022-10-12T10:26:18Z</time>
      </trkpt>
      <trkpt lat="43.93316" lon="1.87377">
        <ele>197.2</ele>
        <time>2022-10-12T10:26:19Z</time>
      </trkpt>
      <trkpt lat="43.93316" lon="1.87375">
        <ele>197.8</ele>
        <time>2022-10-12T10:26:20Z</time>
      </trkpt>
      <trkpt lat="43.93317" lon="1.87373">
        <ele>198</ele>
        <time>2022-10-12T10:26:21Z</time>
      </trkpt>
      <trkpt lat="43.93317" lon="1.87371">
        <ele>198.4</ele>
        <time>2022-10-12T10:26:22Z</time>
      </trkpt>
      <trkpt lat="43.93317" lon="1.87369">
        <ele>198.8</ele>
        <time>2022-10-12T10:26:23Z</time>
      </trkpt>
      <trkpt lat="43.93317" lon="1.87366">
        <ele>199</ele>
        <time>2022-10-12T10:26:24Z</time>
      </trkpt>
      <trkpt lat="43.93317" lon="1.87364">
        <ele>199.2</ele>
        <time>2022-10-12T10:26:25Z</time>
      </trkpt>
      <trkpt lat="43.93318" lon="1.87362">
        <ele>199.4</ele>
        <time>2022-10-12T10:26:26Z</time>
      </trkpt>
      <trkpt lat="43.93319" lon="1.8736">
        <ele>200</ele>
        <time>2022-10-12T10:26:27Z</time>
      </trkpt>
      <trkpt lat="43.93319" lon="1.87358">
        <ele>200.2</ele>
        <time>2022-10-12T10:26:28Z</time>
      </trkpt>
      <trkpt lat="43.9332" lon="1.87355">
        <ele>200.6</ele>
        <time>2022-10-12T10:26:29Z</time>
      </trkpt>
      <trkpt lat="43.93319" lon="1.87353">
        <ele>200.6</ele>
        <time>2022-10-12T10:26:30Z</time>
      </trkpt>
      <trkpt lat="43.93319" lon="1.87351">
        <ele>201</ele>
        <time>2022-10-12T10:26:31Z</time>
      </trkpt>
      <trkpt lat="43.9332" lon="1.87349">
        <ele>201.2</ele>
        <time>2022-10-12T10:26:32Z</time>
      </trkpt>
      <trkpt lat="43.9332" lon="1.87346">
        <ele>201.4</ele>
        <time>2022-10-12T10:26:33Z</time>
      </trkpt>
      <trkpt lat="43.93321" lon="1.87343">
        <ele>201.8</ele>
        <time>2022-10-12T10:26:34Z</time>
      </trkpt>
      <trkpt lat="43.93322" lon="1.87341">
        <ele>202</ele>
        <time>2022-10-12T10:26:35Z</time>
      </trkpt>
      <trkpt lat="43.93322" lon="1.87338">
        <ele>202</ele>
        <time>2022-10-12T10:26:36Z</time>
      </trkpt>
      <trkpt lat="43.93322" lon="1.87334">
        <ele>202.2</ele>
        <time>2022-10-12T10:26:37Z</time>
      </trkpt>
      <trkpt lat="43.93323" lon="1.8733">
        <ele>202.2</ele>
        <time>2022-10-12T10:26:38Z</time>
      </trkpt>
      <trkpt lat="43.93323" lon="1.87326">
        <ele>202.4</ele>
        <time>2022-10-12T10:26:39Z</time>
      </trkpt>
      <trkpt lat="43.93323" lon="1.87324">
        <ele>202.4</ele>
        <time>2022-10-12T10:26:40Z</time>
      </trkpt>
      <trkpt lat="43.93323" lon="1.87321">
        <ele>202.8</ele>
        <time>2022-10-12T10:26:41Z</time>
      </trkpt>
      <trkpt lat="43.93323" lon="1.87318">
        <ele>202.8</ele>
        <time>2022-10-12T10:26:42Z</time>
      </trkpt>
      <trkpt lat="43.93324" lon="1.87315">
        <ele>203</ele>
        <time>2022-10-12T10:26:43Z</time>
      </trkpt>
      <trkpt lat="43.93324" lon="1.87311">
        <ele>203</ele>
        <time>2022-10-12T10:26:44Z</time>
      </trkpt>
      <trkpt lat="43.93325" lon="1.87306">
        <ele>203.2</ele>
        <time>2022-10-12T10:26:45Z</time>
      </trkpt>
      <trkpt lat="43.93325" lon="1.87303">
        <ele>203.4</ele>
        <time>2022-10-12T10:26:46Z</time>
      </trkpt>
      <trkpt lat="43.93325" lon="1.87299">
        <ele>203.4</ele>
        <time>2022-10-12T10:26:47Z</time>
      </trkpt>
      <trkpt lat="43.93325" lon="1.87296">
        <ele>203.6</ele>
        <time>2022-10-12T10:26:48Z</time>
      </trkpt>
      <trkpt lat="43.93326" lon="1.87292">
        <ele>203.6</ele>
        <time>2022-10-12T10:26:49Z</time>
      </trkpt>
      <trkpt lat="43.93326" lon="1.8729">
        <ele>203.8</ele>
        <time>2022-10-12T10:26:50Z</time>
      </trkpt>
      <trkpt lat="43.93327" lon="1.87286">
        <ele>203.8</ele>
        <time>2022-10-12T10:26:51Z</time>
      </trkpt>
      <trkpt lat="43.93326" lon="1.87281">
        <ele>204</ele>
        <time>2022-10-12T10:26:52Z</time>
      </trkpt>
      <trkpt lat="43.93326" lon="1.87277">
        <ele>204</ele>
        <time>2022-10-12T10:26:53Z</time>
      </trkpt>
      <trkpt lat="43.93325" lon="1.87273">
        <ele>204.2</ele>
        <time>2022-10-12T10:26:54Z</time>
      </trkpt>
      <trkpt lat="43.93326" lon="1.87268">
        <ele>204.2</ele>
        <time>2022-10-12T10:26:55Z</time>
      </trkpt>
      <trkpt lat="43.93326" lon="1.87263">
        <ele>204.4</ele>
        <time>2022-10-12T10:26:56Z</time>
      </trkpt>
      <trkpt lat="43.93326" lon="1.87258">
        <ele>204.4</ele>
        <time>2022-10-12T10:26:57Z</time>
      </trkpt>
      <trkpt lat="43.93325" lon="1.87254">
        <ele>204.6</ele>
        <time>2022-10-12T10:26:58Z</time>
      </trkpt>
      <trkpt lat="43.93326" lon="1.8725">
        <ele>204.6</ele>
        <time>2022-10-12T10:26:59Z</time>
      </trkpt>
      <trkpt lat="43.93325" lon="1.87245">
        <ele>204.8</ele>
        <time>2022-10-12T10:27:00Z</time>
      </trkpt>
      <trkpt lat="43.93323" lon="1.87242">
        <ele>204.8</ele>
        <time>2022-10-12T10:27:01Z</time>
      </trkpt>
      <trkpt lat="43.93322" lon="1.87239">
        <ele>204.8</ele>
        <time>2022-10-12T10:27:02Z</time>
      </trkpt>
      <trkpt lat="43.93321" lon="1.87235">
        <ele>204.8</ele>
        <time>2022-10-12T10:27:03Z</time>
      </trkpt>
      <trkpt lat="43.9332" lon="1.87231">
        <ele>204.8</ele>
        <time>2022-10-12T10:27:04Z</time>
      </trkpt>
      <trkpt lat="43.93319" lon="1.87228">
        <ele>205</ele>
        <time>2022-10-12T10:27:05Z</time>
      </trkpt>
      <trkpt lat="43.93319" lon="1.87224">
        <ele>205</ele>
        <time>2022-10-12T10:27:06Z</time>
      </trkpt>
      <trkpt lat="43.93319" lon="1.87222">
        <ele>205.2</ele>
        <time>2022-10-12T10:27:07Z</time>
      </trkpt>
      <trkpt lat="43.93321" lon="1.87218">
        <ele>205.2</ele>
        <time>2022-10-12T10:27:08Z</time>
      </trkpt>
      <trkpt lat="43.93321" lon="1.87216">
        <ele>205.2</ele>
        <time>2022-10-12T10:27:09Z</time>
      </trkpt>
      <trkpt lat="43.9332" lon="1.87213">
        <ele>205.4</ele>
        <time>2022-10-12T10:27:10Z</time>
      </trkpt>
      <trkpt lat="43.9332" lon="1.8721">
        <ele>205.4</ele>
        <time>2022-10-12T10:27:11Z</time>
      </trkpt>
      <trkpt lat="43.93319" lon="1.87207">
        <ele>205.4</ele>
        <time>2022-10-12T10:27:12Z</time>
      </trkpt>
      <trkpt lat="43.93319" lon="1.87203">
        <ele>205.6</ele>
        <time>2022-10-12T10:27:13Z</time>
      </trkpt>
      <trkpt lat="43.93318" lon="1.872">
        <ele>205.8</ele>
        <time>2022-10-12T10:27:14Z</time>
      </trkpt>
      <trkpt lat="43.93318" lon="1.87191">
        <ele>206.2</ele>
        <time>2022-10-12T10:27:17Z</time>
      </trkpt>
      <trkpt lat="43.93318" lon="1.87188">
        <ele>206.2</ele>
        <time>2022-10-12T10:27:18Z</time>
      </trkpt>
      <trkpt lat="43.93318" lon="1.87171">
        <ele>206.8</ele>
        <time>2022-10-12T10:27:23Z</time>
      </trkpt>
      <trkpt lat="43.93318" lon="1.87167">
        <ele>207</ele>
        <time>2022-10-12T10:27:24Z</time>
      </trkpt>
      <trkpt lat="43.93317" lon="1.8716">
        <ele>207.6</ele>
        <time>2022-10-12T10:27:26Z</time>
      </trkpt>
      <trkpt lat="43.93317" lon="1.87156">
        <ele>207.6</ele>
        <time>2022-10-12T10:27:27Z</time>
      </trkpt>
      <trkpt lat="43.93316" lon="1.87152">
        <ele>208</ele>
        <time>2022-10-12T10:27:28Z</time>
      </trkpt>
      <trkpt lat="43.93316" lon="1.87152">
        <ele>208.2</ele>
        <time>2022-10-12T10:27:29Z</time>
      </trkpt>
      <trkpt lat="43.93316" lon="1.87145">
        <ele>208.2</ele>
        <time>2022-10-12T10:27:30Z</time>
      </trkpt>
      <trkpt lat="43.93315" lon="1.87142">
        <ele>208.4</ele>
        <time>2022-10-12T10:27:31Z</time>
      </trkpt>
      <trkpt lat="43.93315" lon="1.87142">
        <ele>208.4</ele>
        <time>2022-10-12T10:27:32Z</time>
      </trkpt>
      <trkpt lat="43.93314" lon="1.87135">
        <ele>208.6</ele>
        <time>2022-10-12T10:27:33Z</time>
      </trkpt>
      <trkpt lat="43.93314" lon="1.87132">
        <ele>208.8</ele>
        <time>2022-10-12T10:27:34Z</time>
      </trkpt>
      <trkpt lat="43.93313" lon="1.87129">
        <ele>209</ele>
        <time>2022-10-12T10:27:35Z</time>
      </trkpt>
      <trkpt lat="43.93313" lon="1.87125">
        <ele>209</ele>
        <time>2022-10-12T10:27:36Z</time>
      </trkpt>
      <trkpt lat="43.93313" lon="1.87122">
        <ele>209.2</ele>
        <time>2022-10-12T10:27:37Z</time>
      </trkpt>
      <trkpt lat="43.93312" lon="1.87118">
        <ele>209.2</ele>
        <time>2022-10-12T10:27:38Z</time>
      </trkpt>
      <trkpt lat="43.93312" lon="1.87115">
        <ele>209.4</ele>
        <time>2022-10-12T10:27:39Z</time>
      </trkpt>
      <trkpt lat="43.93311" lon="1.87112">
        <ele>209.6</ele>
        <time>2022-10-12T10:27:40Z</time>
      </trkpt>
      <trkpt lat="43.93311" lon="1.87108">
        <ele>209.6</ele>
        <time>2022-10-12T10:27:41Z</time>
      </trkpt>
      <trkpt lat="43.9331" lon="1.87105">
        <ele>209.8</ele>
        <time>2022-10-12T10:27:42Z</time>
      </trkpt>
      <trkpt lat="43.9331" lon="1.87101">
        <ele>210</ele>
        <time>2022-10-12T10:27:43Z</time>
      </trkpt>
      <trkpt lat="43.9331" lon="1.87098">
        <ele>210.2</ele>
        <time>2022-10-12T10:27:44Z</time>
      </trkpt>
      <trkpt lat="43.9331" lon="1.87095">
        <ele>210.4</ele>
        <time>2022-10-12T10:27:45Z</time>
      </trkpt>
      <trkpt lat="43.93309" lon="1.87091">
        <ele>210.4</ele>
        <time>2022-10-12T10:27:46Z</time>
      </trkpt>
      <trkpt lat="43.93309" lon="1.87088">
        <ele>210.6</ele>
        <time>2022-10-12T10:27:47Z</time>
      </trkpt>
      <trkpt lat="43.93309" lon="1.87085">
        <ele>210.6</ele>
        <time>2022-10-12T10:27:48Z</time>
      </trkpt>
      <trkpt lat="43.93308" lon="1.87082">
        <ele>210.8</ele>
        <time>2022-10-12T10:27:49Z</time>
      </trkpt>
      <trkpt lat="43.93308" lon="1.87079">
        <ele>210.8</ele>
        <time>2022-10-12T10:27:50Z</time>
      </trkpt>
      <trkpt lat="43.93307" lon="1.87076">
        <ele>211</ele>
        <time>2022-10-12T10:27:51Z</time>
      </trkpt>
      <trkpt lat="43.93307" lon="1.87073">
        <ele>211.2</ele>
        <time>2022-10-12T10:27:52Z</time>
      </trkpt>
      <trkpt lat="43.93308" lon="1.8707">
        <ele>211.4</ele>
        <time>2022-10-12T10:27:53Z</time>
      </trkpt>
      <trkpt lat="43.93307" lon="1.87067">
        <ele>211.6</ele>
        <time>2022-10-12T10:27:54Z</time>
      </trkpt>
      <trkpt lat="43.93307" lon="1.87065">
        <ele>211.8</ele>
        <time>2022-10-12T10:27:55Z</time>
      </trkpt>
      <trkpt lat="43.93307" lon="1.87062">
        <ele>212</ele>
        <time>2022-10-12T10:27:56Z</time>
      </trkpt>
      <trkpt lat="43.93307" lon="1.87059">
        <ele>212</ele>
        <time>2022-10-12T10:27:57Z</time>
      </trkpt>
      <trkpt lat="43.93307" lon="1.87057">
        <ele>212.4</ele>
        <time>2022-10-12T10:27:58Z</time>
      </trkpt>
      <trkpt lat="43.93307" lon="1.87055">
        <ele>212.4</ele>
        <time>2022-10-12T10:27:59Z</time>
      </trkpt>
      <trkpt lat="43.93306" lon="1.87052">
        <ele>212.6</ele>
        <time>2022-10-12T10:28:00Z</time>
      </trkpt>
      <trkpt lat="43.93306" lon="1.8705">
        <ele>213</ele>
        <time>2022-10-12T10:28:01Z</time>
      </trkpt>
      <trkpt lat="43.93306" lon="1.87047">
        <ele>213.2</ele>
        <time>2022-10-12T10:28:02Z</time>
      </trkpt>
      <trkpt lat="43.93306" lon="1.87044">
        <ele>213.4</ele>
        <time>2022-10-12T10:28:03Z</time>
      </trkpt>
      <trkpt lat="43.93306" lon="1.87041">
        <ele>213.6</ele>
        <time>2022-10-12T10:28:04Z</time>
      </trkpt>
      <trkpt lat="43.93306" lon="1.87039">
        <ele>214</ele>
        <time>2022-10-12T10:28:05Z</time>
      </trkpt>
      <trkpt lat="43.93306" lon="1.87037">
        <ele>214.2</ele>
        <time>2022-10-12T10:28:06Z</time>
      </trkpt>
      <trkpt lat="43.93306" lon="1.87035">
        <ele>214.6</ele>
        <time>2022-10-12T10:28:07Z</time>
      </trkpt>
      <trkpt lat="43.93306" lon="1.87032">
        <ele>214.8</ele>
        <time>2022-10-12T10:28:08Z</time>
      </trkpt>
      <trkpt lat="43.93306" lon="1.8703">
        <ele>215</ele>
        <time>2022-10-12T10:28:09Z</time>
      </trkpt>
      <trkpt lat="43.93306" lon="1.87027">
        <ele>215.2</ele>
        <time>2022-10-12T10:28:10Z</time>
      </trkpt>
      <trkpt lat="43.93306" lon="1.87024">
        <ele>215.4</ele>
        <time>2022-10-12T10:28:11Z</time>
      </trkpt>
      <trkpt lat="43.93307" lon="1.87022">
        <ele>215.6</ele>
        <time>2022-10-12T10:28:12Z</time>
      </trkpt>
      <trkpt lat="43.93307" lon="1.87019">
        <ele>215.6</ele>
        <time>2022-10-12T10:28:13Z</time>
      </trkpt>
      <trkpt lat="43.93307" lon="1.87017">
        <ele>215.8</ele>
        <time>2022-10-12T10:28:14Z</time>
      </trkpt>
      <trkpt lat="43.93307" lon="1.87014">
        <ele>216</ele>
        <time>2022-10-12T10:28:15Z</time>
      </trkpt>
      <trkpt lat="43.93307" lon="1.87012">
        <ele>216.2</ele>
        <time>2022-10-12T10:28:16Z</time>
      </trkpt>
      <trkpt lat="43.93307" lon="1.87009">
        <ele>216.4</ele>
        <time>2022-10-12T10:28:17Z</time>
      </trkpt>
      <trkpt lat="43.93307" lon="1.87007">
        <ele>216.4</ele>
        <time>2022-10-12T10:28:18Z</time>
      </trkpt>
      <trkpt lat="43.93307" lon="1.87004">
        <ele>216.8</ele>
        <time>2022-10-12T10:28:19Z</time>
      </trkpt>
      <trkpt lat="43.93308" lon="1.87002">
        <ele>216.8</ele>
        <time>2022-10-12T10:28:20Z</time>
      </trkpt>
      <trkpt lat="43.93308" lon="1.86999">
        <ele>217</ele>
        <time>2022-10-12T10:28:21Z</time>
      </trkpt>
      <trkpt lat="43.93308" lon="1.86997">
        <ele>217.2</ele>
        <time>2022-10-12T10:28:22Z</time>
      </trkpt>
      <trkpt lat="43.93309" lon="1.86994">
        <ele>217.4</ele>
        <time>2022-10-12T10:28:23Z</time>
      </trkpt>
      <trkpt lat="43.93309" lon="1.86991">
        <ele>217.6</ele>
        <time>2022-10-12T10:28:24Z</time>
      </trkpt>
      <trkpt lat="43.93309" lon="1.86989">
        <ele>217.6</ele>
        <time>2022-10-12T10:28:25Z</time>
      </trkpt>
      <trkpt lat="43.93309" lon="1.86986">
        <ele>217.6</ele>
        <time>2022-10-12T10:28:26Z</time>
      </trkpt>
      <trkpt lat="43.93308" lon="1.86984">
        <ele>217.8</ele>
        <time>2022-10-12T10:28:27Z</time>
      </trkpt>
      <trkpt lat="43.93308" lon="1.86981">
        <ele>218.2</ele>
        <time>2022-10-12T10:28:28Z</time>
      </trkpt>
      <trkpt lat="43.93309" lon="1.86978">
        <ele>218.2</ele>
        <time>2022-10-12T10:28:29Z</time>
      </trkpt>
      <trkpt lat="43.93309" lon="1.86976">
        <ele>218.4</ele>
        <time>2022-10-12T10:28:30Z</time>
      </trkpt>
      <trkpt lat="43.93309" lon="1.86973">
        <ele>218.6</ele>
        <time>2022-10-12T10:28:31Z</time>
      </trkpt>
      <trkpt lat="43.93309" lon="1.86971">
        <ele>218.8</ele>
        <time>2022-10-12T10:28:32Z</time>
      </trkpt>
      <trkpt lat="43.93309" lon="1.86969">
        <ele>219</ele>
        <time>2022-10-12T10:28:33Z</time>
      </trkpt>
      <trkpt lat="43.93309" lon="1.86966">
        <ele>219</ele>
        <time>2022-10-12T10:28:34Z</time>
      </trkpt>
      <trkpt lat="43.93309" lon="1.86964">
        <ele>219.6</ele>
        <time>2022-10-12T10:28:35Z</time>
      </trkpt>
      <trkpt lat="43.93309" lon="1.86961">
        <ele>219.6</ele>
        <time>2022-10-12T10:28:36Z</time>
      </trkpt>
      <trkpt lat="43.93309" lon="1.86959">
        <ele>219.8</ele>
        <time>2022-10-12T10:28:37Z</time>
      </trkpt>
      <trkpt lat="43.93309" lon="1.86956">
        <ele>220</ele>
        <time>2022-10-12T10:28:38Z</time>
      </trkpt>
      <trkpt lat="43.93309" lon="1.86954">
        <ele>220.2</ele>
        <time>2022-10-12T10:28:39Z</time>
      </trkpt>
      <trkpt lat="43.93309" lon="1.86952">
        <ele>220.4</ele>
        <time>2022-10-12T10:28:40Z</time>
      </trkpt>
      <trkpt lat="43.93309" lon="1.8695">
        <ele>220.6</ele>
        <time>2022-10-12T10:28:41Z</time>
      </trkpt>
      <trkpt lat="43.93308" lon="1.86948">
        <ele>220.8</ele>
        <time>2022-10-12T10:28:42Z</time>
      </trkpt>
      <trkpt lat="43.93309" lon="1.86945">
        <ele>221</ele>
        <time>2022-10-12T10:28:43Z</time>
      </trkpt>
      <trkpt lat="43.93309" lon="1.86943">
        <ele>221.4</ele>
        <time>2022-10-12T10:28:44Z</time>
      </trkpt>
      <trkpt lat="43.93309" lon="1.8694">
        <ele>221.6</ele>
        <time>2022-10-12T10:28:45Z</time>
      </trkpt>
      <trkpt lat="43.93309" lon="1.86938">
        <ele>221.8</ele>
        <time>2022-10-12T10:28:46Z</time>
      </trkpt>
      <trkpt lat="43.9331" lon="1.86935">
        <ele>221.8</ele>
        <time>2022-10-12T10:28:47Z</time>
      </trkpt>
      <trkpt lat="43.9331" lon="1.86932">
        <ele>222</ele>
        <time>2022-10-12T10:28:48Z</time>
      </trkpt>
      <trkpt lat="43.9331" lon="1.8693">
        <ele>222.4</ele>
        <time>2022-10-12T10:28:49Z</time>
      </trkpt>
      <trkpt lat="43.9331" lon="1.86928">
        <ele>222.6</ele>
        <time>2022-10-12T10:28:50Z</time>
      </trkpt>
      <trkpt lat="43.9331" lon="1.86925">
        <ele>223.2</ele>
        <time>2022-10-12T10:28:51Z</time>
      </trkpt>
      <trkpt lat="43.9331" lon="1.86923">
        <ele>223.2</ele>
        <time>2022-10-12T10:28:52Z</time>
      </trkpt>
      <trkpt lat="43.93311" lon="1.8692">
        <ele>223.8</ele>
        <time>2022-10-12T10:28:53Z</time>
      </trkpt>
      <trkpt lat="43.93311" lon="1.86918">
        <ele>223.6</ele>
        <time>2022-10-12T10:28:54Z</time>
      </trkpt>
      <trkpt lat="43.93311" lon="1.86915">
        <ele>224</ele>
        <time>2022-10-12T10:28:55Z</time>
      </trkpt>
      <trkpt lat="43.93311" lon="1.86913">
        <ele>224.4</ele>
        <time>2022-10-12T10:28:56Z</time>
      </trkpt>
      <trkpt lat="43.93311" lon="1.8691">
        <ele>224.4</ele>
        <time>2022-10-12T10:28:57Z</time>
      </trkpt>
      <trkpt lat="43.93311" lon="1.86908">
        <ele>224.4</ele>
        <time>2022-10-12T10:28:58Z</time>
      </trkpt>
      <trkpt lat="43.9331" lon="1.86906">
        <ele>224.6</ele>
        <time>2022-10-12T10:28:59Z</time>
      </trkpt>
      <trkpt lat="43.9331" lon="1.86903">
        <ele>225.4</ele>
        <time>2022-10-12T10:29:00Z</time>
      </trkpt>
      <trkpt lat="43.93309" lon="1.86901">
        <ele>225.6</ele>
        <time>2022-10-12T10:29:01Z</time>
      </trkpt>
      <trkpt lat="43.93309" lon="1.86899">
        <ele>225.8</ele>
        <time>2022-10-12T10:29:02Z</time>
      </trkpt>
      <trkpt lat="43.93309" lon="1.86897">
        <ele>225.8</ele>
        <time>2022-10-12T10:29:03Z</time>
      </trkpt>
      <trkpt lat="43.93308" lon="1.86894">
        <ele>226</ele>
        <time>2022-10-12T10:29:04Z</time>
      </trkpt>
      <trkpt lat="43.93308" lon="1.86893">
        <ele>226.2</ele>
        <time>2022-10-12T10:29:05Z</time>
      </trkpt>
      <trkpt lat="43.93307" lon="1.86891">
        <ele>226.2</ele>
        <time>2022-10-12T10:29:06Z</time>
      </trkpt>
      <trkpt lat="43.93305" lon="1.8689">
        <ele>226.4</ele>
        <time>2022-10-12T10:29:07Z</time>
      </trkpt>
      <trkpt lat="43.93304" lon="1.86888">
        <ele>226.4</ele>
        <time>2022-10-12T10:29:08Z</time>
      </trkpt>
      <trkpt lat="43.93303" lon="1.86886">
        <ele>226.8</ele>
        <time>2022-10-12T10:29:09Z</time>
      </trkpt>
      <trkpt lat="43.93301" lon="1.86884">
        <ele>227</ele>
        <time>2022-10-12T10:29:10Z</time>
      </trkpt>
      <trkpt lat="43.933" lon="1.86881">
        <ele>227.2</ele>
        <time>2022-10-12T10:29:11Z</time>
      </trkpt>
      <trkpt lat="43.93299" lon="1.86878">
        <ele>227.4</ele>
        <time>2022-10-12T10:29:12Z</time>
      </trkpt>
      <trkpt lat="43.93299" lon="1.86875">
        <ele>227.4</ele>
        <time>2022-10-12T10:29:13Z</time>
      </trkpt>
      <trkpt lat="43.93299" lon="1.86871">
        <ele>227.6</ele>
        <time>2022-10-12T10:29:14Z</time>
      </trkpt>
      <trkpt lat="43.93299" lon="1.86868">
        <ele>227.8</ele>
        <time>2022-10-12T10:29:15Z</time>
      </trkpt>
      <trkpt lat="43.933" lon="1.86865">
        <ele>227.8</ele>
        <time>2022-10-12T10:29:16Z</time>
      </trkpt>
      <trkpt lat="43.93299" lon="1.86861">
        <ele>227.8</ele>
        <time>2022-10-12T10:29:17Z</time>
      </trkpt>
      <trkpt lat="43.933" lon="1.86858">
        <ele>228</ele>
        <time>2022-10-12T10:29:18Z</time>
      </trkpt>
      <trkpt lat="43.933" lon="1.86855">
        <ele>228</ele>
        <time>2022-10-12T10:29:19Z</time>
      </trkpt>
      <trkpt lat="43.933" lon="1.86851">
        <ele>228</ele>
        <time>2022-10-12T10:29:20Z</time>
      </trkpt>
      <trkpt lat="43.933" lon="1.86849">
        <ele>228.2</ele>
        <time>2022-10-12T10:29:21Z</time>
      </trkpt>
      <trkpt lat="43.933" lon="1.86845">
        <ele>228.2</ele>
        <time>2022-10-12T10:29:22Z</time>
      </trkpt>
      <trkpt lat="43.933" lon="1.86842">
        <ele>228.6</ele>
        <time>2022-10-12T10:29:23Z</time>
      </trkpt>
      <trkpt lat="43.933" lon="1.86839">
        <ele>228.6</ele>
        <time>2022-10-12T10:29:24Z</time>
      </trkpt>
      <trkpt lat="43.933" lon="1.86836">
        <ele>228.8</ele>
        <time>2022-10-12T10:29:25Z</time>
      </trkpt>
      <trkpt lat="43.933" lon="1.86832">
        <ele>229</ele>
        <time>2022-10-12T10:29:26Z</time>
      </trkpt>
      <trkpt lat="43.933" lon="1.86829">
        <ele>229</ele>
        <time>2022-10-12T10:29:27Z</time>
      </trkpt>
      <trkpt lat="43.93301" lon="1.86825">
        <ele>229.2</ele>
        <time>2022-10-12T10:29:28Z</time>
      </trkpt>
      <trkpt lat="43.93302" lon="1.86822">
        <ele>229.4</ele>
        <time>2022-10-12T10:29:29Z</time>
      </trkpt>
      <trkpt lat="43.93302" lon="1.86818">
        <ele>229.6</ele>
        <time>2022-10-12T10:29:30Z</time>
      </trkpt>
      <trkpt lat="43.93302" lon="1.86815">
        <ele>229.6</ele>
        <time>2022-10-12T10:29:31Z</time>
      </trkpt>
      <trkpt lat="43.93302" lon="1.86811">
        <ele>229.8</ele>
        <time>2022-10-12T10:29:32Z</time>
      </trkpt>
      <trkpt lat="43.93303" lon="1.86808">
        <ele>229.8</ele>
        <time>2022-10-12T10:29:33Z</time>
      </trkpt>
      <trkpt lat="43.93302" lon="1.86804">
        <ele>230</ele>
        <time>2022-10-12T10:29:34Z</time>
      </trkpt>
      <trkpt lat="43.93302" lon="1.86801">
        <ele>230.2</ele>
        <time>2022-10-12T10:29:35Z</time>
      </trkpt>
      <trkpt lat="43.93301" lon="1.86797">
        <ele>230.4</ele>
        <time>2022-10-12T10:29:36Z</time>
      </trkpt>
      <trkpt lat="43.933" lon="1.86794">
        <ele>230.4</ele>
        <time>2022-10-12T10:29:37Z</time>
      </trkpt>
      <trkpt lat="43.93301" lon="1.8679">
        <ele>230.4</ele>
        <time>2022-10-12T10:29:38Z</time>
      </trkpt>
      <trkpt lat="43.933" lon="1.86787">
        <ele>230.6</ele>
        <time>2022-10-12T10:29:39Z</time>
      </trkpt>
      <trkpt lat="43.933" lon="1.86783">
        <ele>230.8</ele>
        <time>2022-10-12T10:29:40Z</time>
      </trkpt>
      <trkpt lat="43.933" lon="1.86779">
        <ele>231</ele>
        <time>2022-10-12T10:29:41Z</time>
      </trkpt>
      <trkpt lat="43.93299" lon="1.86776">
        <ele>231</ele>
        <time>2022-10-12T10:29:42Z</time>
      </trkpt>
      <trkpt lat="43.93299" lon="1.86772">
        <ele>231.2</ele>
        <time>2022-10-12T10:29:43Z</time>
      </trkpt>
      <trkpt lat="43.93299" lon="1.86768">
        <ele>231.2</ele>
        <time>2022-10-12T10:29:44Z</time>
      </trkpt>
      <trkpt lat="43.933" lon="1.86764">
        <ele>231.4</ele>
        <time>2022-10-12T10:29:45Z</time>
      </trkpt>
      <trkpt lat="43.93301" lon="1.86761">
        <ele>231.4</ele>
        <time>2022-10-12T10:29:46Z</time>
      </trkpt>
      <trkpt lat="43.933" lon="1.86757">
        <ele>231.6</ele>
        <time>2022-10-12T10:29:47Z</time>
      </trkpt>
      <trkpt lat="43.933" lon="1.86753">
        <ele>231.8</ele>
        <time>2022-10-12T10:29:48Z</time>
      </trkpt>
      <trkpt lat="43.93299" lon="1.86749">
        <ele>231.8</ele>
        <time>2022-10-12T10:29:49Z</time>
      </trkpt>
      <trkpt lat="43.93299" lon="1.86745">
        <ele>232</ele>
        <time>2022-10-12T10:29:50Z</time>
      </trkpt>
      <trkpt lat="43.93299" lon="1.8674">
        <ele>232</ele>
        <time>2022-10-12T10:29:51Z</time>
      </trkpt>
      <trkpt lat="43.93299" lon="1.86736">
        <ele>232</ele>
        <time>2022-10-12T10:29:52Z</time>
      </trkpt>
      <trkpt lat="43.93299" lon="1.86731">
        <ele>232</ele>
        <time>2022-10-12T10:29:53Z</time>
      </trkpt>
      <trkpt lat="43.93298" lon="1.86726">
        <ele>232.2</ele>
        <time>2022-10-12T10:29:54Z</time>
      </trkpt>
      <trkpt lat="43.93298" lon="1.86722">
        <ele>232.2</ele>
        <time>2022-10-12T10:29:55Z</time>
      </trkpt>
      <trkpt lat="43.93298" lon="1.86718">
        <ele>232.2</ele>
        <time>2022-10-12T10:29:56Z</time>
      </trkpt>
      <trkpt lat="43.93297" lon="1.86713">
        <ele>232.2</ele>
        <time>2022-10-12T10:29:57Z</time>
      </trkpt>
      <trkpt lat="43.93297" lon="1.86709">
        <ele>232.2</ele>
        <time>2022-10-12T10:29:58Z</time>
      </trkpt>
      <trkpt lat="43.93296" lon="1.86705">
        <ele>232.4</ele>
        <time>2022-10-12T10:29:59Z</time>
      </trkpt>
      <trkpt lat="43.93295" lon="1.86701">
        <ele>232.4</ele>
        <time>2022-10-12T10:30:00Z</time>
      </trkpt>
      <trkpt lat="43.93294" lon="1.86697">
        <ele>232.4</ele>
        <time>2022-10-12T10:30:01Z</time>
      </trkpt>
      <trkpt lat="43.93293" lon="1.86692">
        <ele>232.4</ele>
        <time>2022-10-12T10:30:02Z</time>
      </trkpt>
      <trkpt lat="43.93291" lon="1.86681">
        <ele>232.8</ele>
        <time>2022-10-12T10:30:05Z</time>
      </trkpt>
      <trkpt lat="43.93291" lon="1.86678">
        <ele>233</ele>
        <time>2022-10-12T10:30:06Z</time>
      </trkpt>
      <trkpt lat="43.93293" lon="1.86676">
        <ele>233.2</ele>
        <time>2022-10-12T10:30:07Z</time>
      </trkpt>
      <trkpt lat="43.93295" lon="1.86674">
        <ele>233.4</ele>
        <time>2022-10-12T10:30:08Z</time>
      </trkpt>
      <trkpt lat="43.93302" lon="1.86668">
        <ele>234</ele>
        <time>2022-10-12T10:30:11Z</time>
      </trkpt>
      <trkpt lat="43.93305" lon="1.86666">
        <ele>234</ele>
        <time>2022-10-12T10:30:12Z</time>
      </trkpt>
      <trkpt lat="43.9331" lon="1.86664">
        <ele>234</ele>
        <time>2022-10-12T10:30:14Z</time>
      </trkpt>
      <trkpt lat="43.93314" lon="1.86663">
        <ele>234</ele>
        <time>2022-10-12T10:30:15Z</time>
      </trkpt>
      <trkpt lat="43.9332" lon="1.86658">
        <ele>234</ele>
        <time>2022-10-12T10:30:17Z</time>
      </trkpt>
      <trkpt lat="43.93324" lon="1.86655">
        <ele>233.8</ele>
        <time>2022-10-12T10:30:18Z</time>
      </trkpt>
      <trkpt lat="43.93331" lon="1.86648">
        <ele>233.2</ele>
        <time>2022-10-12T10:30:20Z</time>
      </trkpt>
      <trkpt lat="43.93334" lon="1.86645">
        <ele>233</ele>
        <time>2022-10-12T10:30:21Z</time>
      </trkpt>
      <trkpt lat="43.93341" lon="1.86637">
        <ele>232.2</ele>
        <time>2022-10-12T10:30:23Z</time>
      </trkpt>
      <trkpt lat="43.93344" lon="1.86633">
        <ele>231.8</ele>
        <time>2022-10-12T10:30:24Z</time>
      </trkpt>
      <trkpt lat="43.93348" lon="1.86627">
        <ele>231.4</ele>
        <time>2022-10-12T10:30:25Z</time>
      </trkpt>
      <trkpt lat="43.9335" lon="1.86623">
        <ele>230.6</ele>
        <time>2022-10-12T10:30:26Z</time>
      </trkpt>
      <trkpt lat="43.93355" lon="1.86619">
        <ele>229.8</ele>
        <time>2022-10-12T10:30:27Z</time>
      </trkpt>
      <trkpt lat="43.93359" lon="1.86615">
        <ele>229.6</ele>
        <time>2022-10-12T10:30:28Z</time>
      </trkpt>
      <trkpt lat="43.93363" lon="1.86609">
        <ele>228.8</ele>
        <time>2022-10-12T10:30:29Z</time>
      </trkpt>
      <trkpt lat="43.9337" lon="1.86604">
        <ele>228.4</ele>
        <time>2022-10-12T10:30:30Z</time>
      </trkpt>
      <trkpt lat="43.93391" lon="1.8658">
        <ele>227</ele>
        <time>2022-10-12T10:30:34Z</time>
      </trkpt>
      <trkpt lat="43.934" lon="1.86568">
        <ele>226.2</ele>
        <time>2022-10-12T10:30:36Z</time>
      </trkpt>
      <trkpt lat="43.93404" lon="1.86562">
        <ele>225.8</ele>
        <time>2022-10-12T10:30:37Z</time>
      </trkpt>
      <trkpt lat="43.93408" lon="1.86557">
        <ele>225.4</ele>
        <time>2022-10-12T10:30:38Z</time>
      </trkpt>
      <trkpt lat="43.9341" lon="1.86554">
        <ele>225.4</ele>
        <time>2022-10-12T10:30:39Z</time>
      </trkpt>
      <trkpt lat="43.93413" lon="1.8655">
        <ele>225.2</ele>
        <time>2022-10-12T10:30:40Z</time>
      </trkpt>
      <trkpt lat="43.93413" lon="1.8655">
        <ele>225.2</ele>
        <time>2022-10-12T10:30:41Z</time>
      </trkpt>
      <trkpt lat="43.93415" lon="1.86544">
        <ele>225.2</ele>
        <time>2022-10-12T10:30:42Z</time>
      </trkpt>
      <trkpt lat="43.93421" lon="1.86534">
        <ele>225.2</ele>
        <time>2022-10-12T10:30:44Z</time>
      </trkpt>
      <trkpt lat="43.93423" lon="1.86528">
        <ele>225.4</ele>
        <time>2022-10-12T10:30:45Z</time>
      </trkpt>
      <trkpt lat="43.93425" lon="1.86525">
        <ele>225.4</ele>
        <time>2022-10-12T10:30:46Z</time>
      </trkpt>
      <trkpt lat="43.93427" lon="1.86521">
        <ele>225.8</ele>
        <time>2022-10-12T10:30:47Z</time>
      </trkpt>
      <trkpt lat="43.93429" lon="1.86519">
        <ele>226</ele>
        <time>2022-10-12T10:30:48Z</time>
      </trkpt>
      <trkpt lat="43.9343" lon="1.86516">
        <ele>226.2</ele>
        <time>2022-10-12T10:30:49Z</time>
      </trkpt>
      <trkpt lat="43.93432" lon="1.86513">
        <ele>226.8</ele>
        <time>2022-10-12T10:30:50Z</time>
      </trkpt>
      <trkpt lat="43.93433" lon="1.8651">
        <ele>227.4</ele>
        <time>2022-10-12T10:30:51Z</time>
      </trkpt>
      <trkpt lat="43.93434" lon="1.86507">
        <ele>228.2</ele>
        <time>2022-10-12T10:30:52Z</time>
      </trkpt>
      <trkpt lat="43.93436" lon="1.86505">
        <ele>229.4</ele>
        <time>2022-10-12T10:30:55Z</time>
      </trkpt>
      <trkpt lat="43.93443" lon="1.86511">
        <ele>230.6</ele>
        <time>2022-10-12T10:30:58Z</time>
      </trkpt>
      <trkpt lat="43.93446" lon="1.8651">
        <ele>230.8</ele>
        <time>2022-10-12T10:30:59Z</time>
      </trkpt>
      <trkpt lat="43.93448" lon="1.86509">
        <ele>230.8</ele>
        <time>2022-10-12T10:31:00Z</time>
      </trkpt>
      <trkpt lat="43.9345" lon="1.86508">
        <ele>231</ele>
        <time>2022-10-12T10:31:01Z</time>
      </trkpt>
      <trkpt lat="43.93453" lon="1.86508">
        <ele>231</ele>
        <time>2022-10-12T10:31:02Z</time>
      </trkpt>
      <trkpt lat="43.93456" lon="1.86506">
        <ele>231.2</ele>
        <time>2022-10-12T10:31:03Z</time>
      </trkpt>
      <trkpt lat="43.93459" lon="1.86505">
        <ele>231.2</ele>
        <time>2022-10-12T10:31:04Z</time>
      </trkpt>
      <trkpt lat="43.93461" lon="1.86504">
        <ele>231.2</ele>
        <time>2022-10-12T10:31:05Z</time>
      </trkpt>
      <trkpt lat="43.93464" lon="1.86503">
        <ele>231</ele>
        <time>2022-10-12T10:31:06Z</time>
      </trkpt>
      <trkpt lat="43.93464" lon="1.86503">
        <ele>231.2</ele>
        <time>2022-10-12T10:31:07Z</time>
      </trkpt>
      <trkpt lat="43.93469" lon="1.86501">
        <ele>231.2</ele>
        <time>2022-10-12T10:31:08Z</time>
      </trkpt>
      <trkpt lat="43.93471" lon="1.865">
        <ele>231.2</ele>
        <time>2022-10-12T10:31:09Z</time>
      </trkpt>
      <trkpt lat="43.93471" lon="1.865">
        <ele>231.4</ele>
        <time>2022-10-12T10:31:10Z</time>
      </trkpt>
      <trkpt lat="43.93475" lon="1.865">
        <ele>231.4</ele>
        <time>2022-10-12T10:31:11Z</time>
      </trkpt>
      <trkpt lat="43.93477" lon="1.86501">
        <ele>231.4</ele>
        <time>2022-10-12T10:31:12Z</time>
      </trkpt>
      <trkpt lat="43.9348" lon="1.865">
        <ele>231.4</ele>
        <time>2022-10-12T10:31:13Z</time>
      </trkpt>
      <trkpt lat="43.93483" lon="1.86501">
        <ele>231.6</ele>
        <time>2022-10-12T10:31:14Z</time>
      </trkpt>
      <trkpt lat="43.93486" lon="1.865">
        <ele>231.6</ele>
        <time>2022-10-12T10:31:15Z</time>
      </trkpt>
      <trkpt lat="43.93489" lon="1.865">
        <ele>232</ele>
        <time>2022-10-12T10:31:16Z</time>
      </trkpt>
      <trkpt lat="43.93492" lon="1.86499">
        <ele>232.4</ele>
        <time>2022-10-12T10:31:17Z</time>
      </trkpt>
      <trkpt lat="43.93496" lon="1.86498">
        <ele>232.6</ele>
        <time>2022-10-12T10:31:18Z</time>
      </trkpt>
      <trkpt lat="43.935" lon="1.86498">
        <ele>232.8</ele>
        <time>2022-10-12T10:31:19Z</time>
      </trkpt>
      <trkpt lat="43.93503" lon="1.86499">
        <ele>232.8</ele>
        <time>2022-10-12T10:31:20Z</time>
      </trkpt>
      <trkpt lat="43.93507" lon="1.86497">
        <ele>233</ele>
        <time>2022-10-12T10:31:21Z</time>
      </trkpt>
      <trkpt lat="43.9351" lon="1.86496">
        <ele>233.4</ele>
        <time>2022-10-12T10:31:22Z</time>
      </trkpt>
      <trkpt lat="43.93516" lon="1.86493">
        <ele>233.6</ele>
        <time>2022-10-12T10:31:23Z</time>
      </trkpt>
      <trkpt lat="43.93518" lon="1.8649">
        <ele>233.8</ele>
        <time>2022-10-12T10:31:24Z</time>
      </trkpt>
      <trkpt lat="43.93519" lon="1.86486">
        <ele>234</ele>
        <time>2022-10-12T10:31:25Z</time>
      </trkpt>
      <trkpt lat="43.93518" lon="1.86483">
        <ele>234.2</ele>
        <time>2022-10-12T10:31:26Z</time>
      </trkpt>
      <trkpt lat="43.9352" lon="1.86479">
        <ele>234.4</ele>
        <time>2022-10-12T10:31:27Z</time>
      </trkpt>
      <trkpt lat="43.9352" lon="1.86475">
        <ele>234.8</ele>
        <time>2022-10-12T10:31:28Z</time>
      </trkpt>
      <trkpt lat="43.93521" lon="1.86471">
        <ele>235</ele>
        <time>2022-10-12T10:31:29Z</time>
      </trkpt>
      <trkpt lat="43.93521" lon="1.86467">
        <ele>235.2</ele>
        <time>2022-10-12T10:31:30Z</time>
      </trkpt>
      <trkpt lat="43.9352" lon="1.86462">
        <ele>235.6</ele>
        <time>2022-10-12T10:31:31Z</time>
      </trkpt>
      <trkpt lat="43.9352" lon="1.86459">
        <ele>235.6</ele>
        <time>2022-10-12T10:31:32Z</time>
      </trkpt>
      <trkpt lat="43.9352" lon="1.86459">
        <ele>235.8</ele>
        <time>2022-10-12T10:31:33Z</time>
      </trkpt>
      <trkpt lat="43.93518" lon="1.86452">
        <ele>235.8</ele>
        <time>2022-10-12T10:31:34Z</time>
      </trkpt>
      <trkpt lat="43.93516" lon="1.86446">
        <ele>236</ele>
        <time>2022-10-12T10:31:35Z</time>
      </trkpt>
      <trkpt lat="43.93514" lon="1.86442">
        <ele>236.2</ele>
        <time>2022-10-12T10:31:36Z</time>
      </trkpt>
      <trkpt lat="43.93513" lon="1.86439">
        <ele>236.4</ele>
        <time>2022-10-12T10:31:37Z</time>
      </trkpt>
      <trkpt lat="43.93513" lon="1.86434">
        <ele>236.6</ele>
        <time>2022-10-12T10:31:38Z</time>
      </trkpt>
      <trkpt lat="43.93511" lon="1.8643">
        <ele>236.8</ele>
        <time>2022-10-12T10:31:39Z</time>
      </trkpt>
      <trkpt lat="43.9351" lon="1.86427">
        <ele>237</ele>
        <time>2022-10-12T10:31:40Z</time>
      </trkpt>
      <trkpt lat="43.93508" lon="1.86424">
        <ele>237.2</ele>
        <time>2022-10-12T10:31:41Z</time>
      </trkpt>
      <trkpt lat="43.93507" lon="1.86422">
        <ele>237.4</ele>
        <time>2022-10-12T10:31:42Z</time>
      </trkpt>
      <trkpt lat="43.93506" lon="1.86419">
        <ele>237.6</ele>
        <time>2022-10-12T10:31:43Z</time>
      </trkpt>
      <trkpt lat="43.93504" lon="1.86416">
        <ele>237.6</ele>
        <time>2022-10-12T10:31:44Z</time>
      </trkpt>
      <trkpt lat="43.93503" lon="1.86414">
        <ele>237.6</ele>
        <time>2022-10-12T10:31:45Z</time>
      </trkpt>
      <trkpt lat="43.93501" lon="1.86411">
        <ele>237.8</ele>
        <time>2022-10-12T10:31:46Z</time>
      </trkpt>
      <trkpt lat="43.935" lon="1.86408">
        <ele>238</ele>
        <time>2022-10-12T10:31:47Z</time>
      </trkpt>
      <trkpt lat="43.93499" lon="1.86404">
        <ele>238</ele>
        <time>2022-10-12T10:31:48Z</time>
      </trkpt>
      <trkpt lat="43.93498" lon="1.86401">
        <ele>238.2</ele>
        <time>2022-10-12T10:31:49Z</time>
      </trkpt>
      <trkpt lat="43.93497" lon="1.86398">
        <ele>238.4</ele>
        <time>2022-10-12T10:31:50Z</time>
      </trkpt>
      <trkpt lat="43.93496" lon="1.86396">
        <ele>238.6</ele>
        <time>2022-10-12T10:31:51Z</time>
      </trkpt>
      <trkpt lat="43.93495" lon="1.86392">
        <ele>238.6</ele>
        <time>2022-10-12T10:31:52Z</time>
      </trkpt>
      <trkpt lat="43.93494" lon="1.8639">
        <ele>238.8</ele>
        <time>2022-10-12T10:31:53Z</time>
      </trkpt>
      <trkpt lat="43.93494" lon="1.86386">
        <ele>239</ele>
        <time>2022-10-12T10:31:54Z</time>
      </trkpt>
      <trkpt lat="43.93494" lon="1.86383">
        <ele>239.2</ele>
        <time>2022-10-12T10:31:55Z</time>
      </trkpt>
      <trkpt lat="43.93493" lon="1.8638">
        <ele>239.6</ele>
        <time>2022-10-12T10:31:56Z</time>
      </trkpt>
      <trkpt lat="43.93493" lon="1.86377">
        <ele>239.6</ele>
        <time>2022-10-12T10:31:57Z</time>
      </trkpt>
      <trkpt lat="43.93493" lon="1.86374">
        <ele>239.8</ele>
        <time>2022-10-12T10:31:58Z</time>
      </trkpt>
      <trkpt lat="43.93492" lon="1.86371">
        <ele>239.8</ele>
        <time>2022-10-12T10:31:59Z</time>
      </trkpt>
      <trkpt lat="43.93492" lon="1.86368">
        <ele>240</ele>
        <time>2022-10-12T10:32:00Z</time>
      </trkpt>
      <trkpt lat="43.93491" lon="1.86364">
        <ele>240</ele>
        <time>2022-10-12T10:32:01Z</time>
      </trkpt>
      <trkpt lat="43.93489" lon="1.86361">
        <ele>240</ele>
        <time>2022-10-12T10:32:02Z</time>
      </trkpt>
      <trkpt lat="43.93488" lon="1.86358">
        <ele>240.4</ele>
        <time>2022-10-12T10:32:03Z</time>
      </trkpt>
      <trkpt lat="43.93488" lon="1.86358">
        <ele>240.4</ele>
        <time>2022-10-12T10:32:04Z</time>
      </trkpt>
      <trkpt lat="43.93488" lon="1.86351">
        <ele>240.6</ele>
        <time>2022-10-12T10:32:05Z</time>
      </trkpt>
      <trkpt lat="43.93487" lon="1.86347">
        <ele>240.6</ele>
        <time>2022-10-12T10:32:06Z</time>
      </trkpt>
      <trkpt lat="43.93487" lon="1.86343">
        <ele>240.8</ele>
        <time>2022-10-12T10:32:07Z</time>
      </trkpt>
      <trkpt lat="43.93487" lon="1.86339">
        <ele>240.8</ele>
        <time>2022-10-12T10:32:08Z</time>
      </trkpt>
      <trkpt lat="43.93487" lon="1.86335">
        <ele>241</ele>
        <time>2022-10-12T10:32:09Z</time>
      </trkpt>
      <trkpt lat="43.93486" lon="1.86331">
        <ele>241.2</ele>
        <time>2022-10-12T10:32:10Z</time>
      </trkpt>
      <trkpt lat="43.93485" lon="1.86327">
        <ele>241.4</ele>
        <time>2022-10-12T10:32:11Z</time>
      </trkpt>
      <trkpt lat="43.93485" lon="1.86323">
        <ele>241.6</ele>
        <time>2022-10-12T10:32:12Z</time>
      </trkpt>
      <trkpt lat="43.93485" lon="1.86318">
        <ele>241.6</ele>
        <time>2022-10-12T10:32:13Z</time>
      </trkpt>
      <trkpt lat="43.93485" lon="1.86313">
        <ele>242</ele>
        <time>2022-10-12T10:32:14Z</time>
      </trkpt>
      <trkpt lat="43.93483" lon="1.86309">
        <ele>242</ele>
        <time>2022-10-12T10:32:15Z</time>
      </trkpt>
      <trkpt lat="43.93482" lon="1.86304">
        <ele>242.2</ele>
        <time>2022-10-12T10:32:16Z</time>
      </trkpt>
      <trkpt lat="43.93482" lon="1.863">
        <ele>242.4</ele>
        <time>2022-10-12T10:32:17Z</time>
      </trkpt>
      <trkpt lat="43.93481" lon="1.86296">
        <ele>242.4</ele>
        <time>2022-10-12T10:32:18Z</time>
      </trkpt>
      <trkpt lat="43.9348" lon="1.86292">
        <ele>242.6</ele>
        <time>2022-10-12T10:32:19Z</time>
      </trkpt>
      <trkpt lat="43.93479" lon="1.86288">
        <ele>242.6</ele>
        <time>2022-10-12T10:32:20Z</time>
      </trkpt>
      <trkpt lat="43.93477" lon="1.86284">
        <ele>242.8</ele>
        <time>2022-10-12T10:32:21Z</time>
      </trkpt>
      <trkpt lat="43.93477" lon="1.86281">
        <ele>243</ele>
        <time>2022-10-12T10:32:22Z</time>
      </trkpt>
      <trkpt lat="43.93475" lon="1.86278">
        <ele>243</ele>
        <time>2022-10-12T10:32:23Z</time>
      </trkpt>
      <trkpt lat="43.93475" lon="1.86274">
        <ele>243.2</ele>
        <time>2022-10-12T10:32:24Z</time>
      </trkpt>
      <trkpt lat="43.93475" lon="1.8627">
        <ele>243.2</ele>
        <time>2022-10-12T10:32:25Z</time>
      </trkpt>
      <trkpt lat="43.93475" lon="1.86266">
        <ele>243.4</ele>
        <time>2022-10-12T10:32:26Z</time>
      </trkpt>
      <trkpt lat="43.93474" lon="1.86264">
        <ele>243.4</ele>
        <time>2022-10-12T10:32:27Z</time>
      </trkpt>
      <trkpt lat="43.93474" lon="1.86261">
        <ele>243.6</ele>
        <time>2022-10-12T10:32:28Z</time>
      </trkpt>
      <trkpt lat="43.93474" lon="1.86258">
        <ele>243.8</ele>
        <time>2022-10-12T10:32:29Z</time>
      </trkpt>
      <trkpt lat="43.93475" lon="1.86255">
        <ele>244</ele>
        <time>2022-10-12T10:32:30Z</time>
      </trkpt>
      <trkpt lat="43.93476" lon="1.8625">
        <ele>244.2</ele>
        <time>2022-10-12T10:32:31Z</time>
      </trkpt>
      <trkpt lat="43.93475" lon="1.86248">
        <ele>244.4</ele>
        <time>2022-10-12T10:32:32Z</time>
      </trkpt>
      <trkpt lat="43.93472" lon="1.86246">
        <ele>244.4</ele>
        <time>2022-10-12T10:32:33Z</time>
      </trkpt>
      <trkpt lat="43.93471" lon="1.86243">
        <ele>244.6</ele>
        <time>2022-10-12T10:32:34Z</time>
      </trkpt>
      <trkpt lat="43.9347" lon="1.86241">
        <ele>244.8</ele>
        <time>2022-10-12T10:32:35Z</time>
      </trkpt>
      <trkpt lat="43.93469" lon="1.86238">
        <ele>244.8</ele>
        <time>2022-10-12T10:32:36Z</time>
      </trkpt>
      <trkpt lat="43.93468" lon="1.86235">
        <ele>245</ele>
        <time>2022-10-12T10:32:37Z</time>
      </trkpt>
      <trkpt lat="43.93467" lon="1.86232">
        <ele>245.2</ele>
        <time>2022-10-12T10:32:38Z</time>
      </trkpt>
      <trkpt lat="43.93467" lon="1.8623">
        <ele>245.4</ele>
        <time>2022-10-12T10:32:39Z</time>
      </trkpt>
      <trkpt lat="43.93466" lon="1.86228">
        <ele>245.6</ele>
        <time>2022-10-12T10:32:40Z</time>
      </trkpt>
      <trkpt lat="43.93465" lon="1.86226">
        <ele>246</ele>
        <time>2022-10-12T10:32:41Z</time>
      </trkpt>
      <trkpt lat="43.93465" lon="1.86224">
        <ele>246</ele>
        <time>2022-10-12T10:32:42Z</time>
      </trkpt>
      <trkpt lat="43.93465" lon="1.86222">
        <ele>246</ele>
        <time>2022-10-12T10:32:43Z</time>
      </trkpt>
      <trkpt lat="43.93464" lon="1.8622">
        <ele>246.6</ele>
        <time>2022-10-12T10:32:44Z</time>
      </trkpt>
      <trkpt lat="43.93463" lon="1.86218">
        <ele>246.8</ele>
        <time>2022-10-12T10:32:45Z</time>
      </trkpt>
      <trkpt lat="43.93462" lon="1.86215">
        <ele>247</ele>
        <time>2022-10-12T10:32:46Z</time>
      </trkpt>
      <trkpt lat="43.93461" lon="1.86214">
        <ele>247.2</ele>
        <time>2022-10-12T10:32:47Z</time>
      </trkpt>
      <trkpt lat="43.93459" lon="1.8621">
        <ele>247.4</ele>
        <time>2022-10-12T10:32:48Z</time>
      </trkpt>
      <trkpt lat="43.93458" lon="1.86207">
        <ele>247.4</ele>
        <time>2022-10-12T10:32:49Z</time>
      </trkpt>
      <trkpt lat="43.93458" lon="1.86204">
        <ele>247.8</ele>
        <time>2022-10-12T10:32:50Z</time>
      </trkpt>
      <trkpt lat="43.93458" lon="1.86202">
        <ele>248.2</ele>
        <time>2022-10-12T10:32:51Z</time>
      </trkpt>
      <trkpt lat="43.93457" lon="1.862">
        <ele>248.4</ele>
        <time>2022-10-12T10:32:52Z</time>
      </trkpt>
      <trkpt lat="43.93457" lon="1.86197">
        <ele>248.6</ele>
        <time>2022-10-12T10:32:53Z</time>
      </trkpt>
      <trkpt lat="43.93456" lon="1.86194">
        <ele>248.8</ele>
        <time>2022-10-12T10:32:54Z</time>
      </trkpt>
      <trkpt lat="43.93456" lon="1.86191">
        <ele>249.2</ele>
        <time>2022-10-12T10:32:55Z</time>
      </trkpt>
      <trkpt lat="43.93457" lon="1.86188">
        <ele>249.4</ele>
        <time>2022-10-12T10:32:56Z</time>
      </trkpt>
      <trkpt lat="43.93456" lon="1.86183">
        <ele>249.6</ele>
        <time>2022-10-12T10:32:57Z</time>
      </trkpt>
      <trkpt lat="43.93455" lon="1.86179">
        <ele>249.8</ele>
        <time>2022-10-12T10:32:58Z</time>
      </trkpt>
      <trkpt lat="43.93454" lon="1.86175">
        <ele>250.4</ele>
        <time>2022-10-12T10:32:59Z</time>
      </trkpt>
      <trkpt lat="43.93452" lon="1.86171">
        <ele>250.6</ele>
        <time>2022-10-12T10:33:00Z</time>
      </trkpt>
      <trkpt lat="43.93451" lon="1.86168">
        <ele>250.8</ele>
        <time>2022-10-12T10:33:01Z</time>
      </trkpt>
      <trkpt lat="43.93451" lon="1.86163">
        <ele>250.8</ele>
        <time>2022-10-12T10:33:02Z</time>
      </trkpt>
      <trkpt lat="43.9345" lon="1.8616">
        <ele>251</ele>
        <time>2022-10-12T10:33:03Z</time>
      </trkpt>
      <trkpt lat="43.93448" lon="1.86157">
        <ele>251</ele>
        <time>2022-10-12T10:33:04Z</time>
      </trkpt>
      <trkpt lat="43.93446" lon="1.86152">
        <ele>251.2</ele>
        <time>2022-10-12T10:33:05Z</time>
      </trkpt>
      <trkpt lat="43.93446" lon="1.86149">
        <ele>251.4</ele>
        <time>2022-10-12T10:33:06Z</time>
      </trkpt>
      <trkpt lat="43.93445" lon="1.86146">
        <ele>251.6</ele>
        <time>2022-10-12T10:33:07Z</time>
      </trkpt>
      <trkpt lat="43.93444" lon="1.86142">
        <ele>251.6</ele>
        <time>2022-10-12T10:33:08Z</time>
      </trkpt>
      <trkpt lat="43.93443" lon="1.86139">
        <ele>251.8</ele>
        <time>2022-10-12T10:33:09Z</time>
      </trkpt>
      <trkpt lat="43.93442" lon="1.86136">
        <ele>252</ele>
        <time>2022-10-12T10:33:10Z</time>
      </trkpt>
      <trkpt lat="43.93442" lon="1.86132">
        <ele>252.2</ele>
        <time>2022-10-12T10:33:11Z</time>
      </trkpt>
      <trkpt lat="43.93443" lon="1.86128">
        <ele>252.2</ele>
        <time>2022-10-12T10:33:12Z</time>
      </trkpt>
      <trkpt lat="43.93442" lon="1.86126">
        <ele>252.4</ele>
        <time>2022-10-12T10:33:13Z</time>
      </trkpt>
      <trkpt lat="43.9344" lon="1.86123">
        <ele>252.4</ele>
        <time>2022-10-12T10:33:14Z</time>
      </trkpt>
      <trkpt lat="43.93439" lon="1.86118">
        <ele>252.4</ele>
        <time>2022-10-12T10:33:15Z</time>
      </trkpt>
      <trkpt lat="43.93437" lon="1.86115">
        <ele>252.6</ele>
        <time>2022-10-12T10:33:16Z</time>
      </trkpt>
      <trkpt lat="43.93436" lon="1.86112">
        <ele>252.8</ele>
        <time>2022-10-12T10:33:17Z</time>
      </trkpt>
      <trkpt lat="43.93435" lon="1.86109">
        <ele>252.8</ele>
        <time>2022-10-12T10:33:18Z</time>
      </trkpt>
      <trkpt lat="43.93435" lon="1.86106">
        <ele>253</ele>
        <time>2022-10-12T10:33:19Z</time>
      </trkpt>
      <trkpt lat="43.93435" lon="1.86103">
        <ele>253.4</ele>
        <time>2022-10-12T10:33:20Z</time>
      </trkpt>
      <trkpt lat="43.93435" lon="1.861">
        <ele>253.4</ele>
        <time>2022-10-12T10:33:21Z</time>
      </trkpt>
      <trkpt lat="43.93435" lon="1.86097">
        <ele>253.6</ele>
        <time>2022-10-12T10:33:22Z</time>
      </trkpt>
      <trkpt lat="43.93436" lon="1.86094">
        <ele>254</ele>
        <time>2022-10-12T10:33:23Z</time>
      </trkpt>
      <trkpt lat="43.93435" lon="1.86091">
        <ele>254</ele>
        <time>2022-10-12T10:33:24Z</time>
      </trkpt>
      <trkpt lat="43.93434" lon="1.86086">
        <ele>254.4</ele>
        <time>2022-10-12T10:33:25Z</time>
      </trkpt>
      <trkpt lat="43.93433" lon="1.86083">
        <ele>254.4</ele>
        <time>2022-10-12T10:33:26Z</time>
      </trkpt>
      <trkpt lat="43.93433" lon="1.86079">
        <ele>254.4</ele>
        <time>2022-10-12T10:33:27Z</time>
      </trkpt>
      <trkpt lat="43.93433" lon="1.86077">
        <ele>254.6</ele>
        <time>2022-10-12T10:33:28Z</time>
      </trkpt>
      <trkpt lat="43.93433" lon="1.86074">
        <ele>254.6</ele>
        <time>2022-10-12T10:33:29Z</time>
      </trkpt>
      <trkpt lat="43.93434" lon="1.86071">
        <ele>254.8</ele>
        <time>2022-10-12T10:33:30Z</time>
      </trkpt>
      <trkpt lat="43.93433" lon="1.86068">
        <ele>254.8</ele>
        <time>2022-10-12T10:33:31Z</time>
      </trkpt>
      <trkpt lat="43.93433" lon="1.86065">
        <ele>255</ele>
        <time>2022-10-12T10:33:32Z</time>
      </trkpt>
      <trkpt lat="43.93432" lon="1.86062">
        <ele>255</ele>
        <time>2022-10-12T10:33:33Z</time>
      </trkpt>
      <trkpt lat="43.93432" lon="1.86058">
        <ele>255.2</ele>
        <time>2022-10-12T10:33:34Z</time>
      </trkpt>
      <trkpt lat="43.93432" lon="1.86056">
        <ele>255.2</ele>
        <time>2022-10-12T10:33:35Z</time>
      </trkpt>
      <trkpt lat="43.93432" lon="1.86053">
        <ele>255.6</ele>
        <time>2022-10-12T10:33:36Z</time>
      </trkpt>
      <trkpt lat="43.93431" lon="1.86051">
        <ele>255.6</ele>
        <time>2022-10-12T10:33:37Z</time>
      </trkpt>
      <trkpt lat="43.93431" lon="1.86048">
        <ele>255.8</ele>
        <time>2022-10-12T10:33:38Z</time>
      </trkpt>
      <trkpt lat="43.9343" lon="1.86044">
        <ele>256</ele>
        <time>2022-10-12T10:33:39Z</time>
      </trkpt>
      <trkpt lat="43.9343" lon="1.86041">
        <ele>256</ele>
        <time>2022-10-12T10:33:40Z</time>
      </trkpt>
      <trkpt lat="43.9343" lon="1.86038">
        <ele>256.2</ele>
        <time>2022-10-12T10:33:41Z</time>
      </trkpt>
      <trkpt lat="43.93429" lon="1.86035">
        <ele>256.2</ele>
        <time>2022-10-12T10:33:42Z</time>
      </trkpt>
      <trkpt lat="43.93428" lon="1.86033">
        <ele>256.6</ele>
        <time>2022-10-12T10:33:43Z</time>
      </trkpt>
      <trkpt lat="43.93427" lon="1.8603">
        <ele>256.6</ele>
        <time>2022-10-12T10:33:44Z</time>
      </trkpt>
      <trkpt lat="43.93427" lon="1.86027">
        <ele>257</ele>
        <time>2022-10-12T10:33:45Z</time>
      </trkpt>
      <trkpt lat="43.93426" lon="1.86025">
        <ele>257</ele>
        <time>2022-10-12T10:33:46Z</time>
      </trkpt>
      <trkpt lat="43.93426" lon="1.86023">
        <ele>257.4</ele>
        <time>2022-10-12T10:33:47Z</time>
      </trkpt>
      <trkpt lat="43.93426" lon="1.86021">
        <ele>257.6</ele>
        <time>2022-10-12T10:33:48Z</time>
      </trkpt>
      <trkpt lat="43.93426" lon="1.86018">
        <ele>257.8</ele>
        <time>2022-10-12T10:33:49Z</time>
      </trkpt>
      <trkpt lat="43.93425" lon="1.86015">
        <ele>258.2</ele>
        <time>2022-10-12T10:33:50Z</time>
      </trkpt>
      <trkpt lat="43.93425" lon="1.86012">
        <ele>258.2</ele>
        <time>2022-10-12T10:33:51Z</time>
      </trkpt>
      <trkpt lat="43.93424" lon="1.86009">
        <ele>258.2</ele>
        <time>2022-10-12T10:33:52Z</time>
      </trkpt>
      <trkpt lat="43.93422" lon="1.86004">
        <ele>258.4</ele>
        <time>2022-10-12T10:33:53Z</time>
      </trkpt>
      <trkpt lat="43.9342" lon="1.85999">
        <ele>258.4</ele>
        <time>2022-10-12T10:33:54Z</time>
      </trkpt>
      <trkpt lat="43.93417" lon="1.85993">
        <ele>258.4</ele>
        <time>2022-10-12T10:33:55Z</time>
      </trkpt>
      <trkpt lat="43.93414" lon="1.85985">
        <ele>258.4</ele>
        <time>2022-10-12T10:33:56Z</time>
      </trkpt>
      <trkpt lat="43.93411" lon="1.85979">
        <ele>258.4</ele>
        <time>2022-10-12T10:33:57Z</time>
      </trkpt>
      <trkpt lat="43.93409" lon="1.85974">
        <ele>258.4</ele>
        <time>2022-10-12T10:33:58Z</time>
      </trkpt>
      <trkpt lat="43.93407" lon="1.85969">
        <ele>258.4</ele>
        <time>2022-10-12T10:33:59Z</time>
      </trkpt>
      <trkpt lat="43.93404" lon="1.85963">
        <ele>258.4</ele>
        <time>2022-10-12T10:34:00Z</time>
      </trkpt>
      <trkpt lat="43.93402" lon="1.85958">
        <ele>258.4</ele>
        <time>2022-10-12T10:34:01Z</time>
      </trkpt>
      <trkpt lat="43.934" lon="1.85955">
        <ele>258.4</ele>
        <time>2022-10-12T10:34:02Z</time>
      </trkpt>
      <trkpt lat="43.93398" lon="1.85951">
        <ele>258.2</ele>
        <time>2022-10-12T10:34:03Z</time>
      </trkpt>
      <trkpt lat="43.93396" lon="1.85947">
        <ele>258.2</ele>
        <time>2022-10-12T10:34:04Z</time>
      </trkpt>
      <trkpt lat="43.93393" lon="1.85943">
        <ele>258</ele>
        <time>2022-10-12T10:34:05Z</time>
      </trkpt>
      <trkpt lat="43.93389" lon="1.85938">
        <ele>257.8</ele>
        <time>2022-10-12T10:34:06Z</time>
      </trkpt>
      <trkpt lat="43.93385" lon="1.85934">
        <ele>257.8</ele>
        <time>2022-10-12T10:34:07Z</time>
      </trkpt>
      <trkpt lat="43.93382" lon="1.85931">
        <ele>257.6</ele>
        <time>2022-10-12T10:34:08Z</time>
      </trkpt>
      <trkpt lat="43.9338" lon="1.85927">
        <ele>257.8</ele>
        <time>2022-10-12T10:34:09Z</time>
      </trkpt>
      <trkpt lat="43.93377" lon="1.85923">
        <ele>257.8</ele>
        <time>2022-10-12T10:34:10Z</time>
      </trkpt>
      <trkpt lat="43.93375" lon="1.8592">
        <ele>258</ele>
        <time>2022-10-12T10:34:11Z</time>
      </trkpt>
      <trkpt lat="43.93373" lon="1.85916">
        <ele>258</ele>
        <time>2022-10-12T10:34:12Z</time>
      </trkpt>
      <trkpt lat="43.93363" lon="1.85905">
        <ele>258.4</ele>
        <time>2022-10-12T10:34:15Z</time>
      </trkpt>
      <trkpt lat="43.93355" lon="1.85892">
        <ele>258.4</ele>
        <time>2022-10-12T10:34:18Z</time>
      </trkpt>
      <trkpt lat="43.93349" lon="1.85879">
        <ele>258.4</ele>
        <time>2022-10-12T10:34:20Z</time>
      </trkpt>
      <trkpt lat="43.93343" lon="1.85866">
        <ele>258.6</ele>
        <time>2022-10-12T10:34:23Z</time>
      </trkpt>
      <trkpt lat="43.93336" lon="1.85854">
        <ele>258.6</ele>
        <time>2022-10-12T10:34:24Z</time>
      </trkpt>
      <trkpt lat="43.93332" lon="1.85851">
        <ele>258.6</ele>
        <time>2022-10-12T10:34:25Z</time>
      </trkpt>
      <trkpt lat="43.9333" lon="1.85847">
        <ele>258.6</ele>
        <time>2022-10-12T10:34:26Z</time>
      </trkpt>
      <trkpt lat="43.93324" lon="1.85832">
        <ele>258.6</ele>
        <time>2022-10-12T10:34:28Z</time>
      </trkpt>
      <trkpt lat="43.9332" lon="1.85826">
        <ele>258.6</ele>
        <time>2022-10-12T10:34:29Z</time>
      </trkpt>
      <trkpt lat="43.93317" lon="1.85819">
        <ele>258.6</ele>
        <time>2022-10-12T10:34:30Z</time>
      </trkpt>
      <trkpt lat="43.93315" lon="1.85814">
        <ele>258.6</ele>
        <time>2022-10-12T10:34:31Z</time>
      </trkpt>
      <trkpt lat="43.93314" lon="1.85809">
        <ele>258.6</ele>
        <time>2022-10-12T10:34:32Z</time>
      </trkpt>
      <trkpt lat="43.93315" lon="1.85804">
        <ele>258.6</ele>
        <time>2022-10-12T10:34:33Z</time>
      </trkpt>
      <trkpt lat="43.93315" lon="1.85798">
        <ele>258.6</ele>
        <time>2022-10-12T10:34:34Z</time>
      </trkpt>
      <trkpt lat="43.93315" lon="1.85791">
        <ele>258.8</ele>
        <time>2022-10-12T10:34:35Z</time>
      </trkpt>
      <trkpt lat="43.93316" lon="1.85784">
        <ele>259</ele>
        <time>2022-10-12T10:34:36Z</time>
      </trkpt>
      <trkpt lat="43.93314" lon="1.85779">
        <ele>259.2</ele>
        <time>2022-10-12T10:34:37Z</time>
      </trkpt>
      <trkpt lat="43.93313" lon="1.85774">
        <ele>259.4</ele>
        <time>2022-10-12T10:34:38Z</time>
      </trkpt>
      <trkpt lat="43.93311" lon="1.85768">
        <ele>259.6</ele>
        <time>2022-10-12T10:34:39Z</time>
      </trkpt>
      <trkpt lat="43.93311" lon="1.85758">
        <ele>259.6</ele>
        <time>2022-10-12T10:34:41Z</time>
      </trkpt>
      <trkpt lat="43.93309" lon="1.8575">
        <ele>259.8</ele>
        <time>2022-10-12T10:34:42Z</time>
      </trkpt>
      <trkpt lat="43.93306" lon="1.85746">
        <ele>259.8</ele>
        <time>2022-10-12T10:34:43Z</time>
      </trkpt>
      <trkpt lat="43.93304" lon="1.85742">
        <ele>259.8</ele>
        <time>2022-10-12T10:34:44Z</time>
      </trkpt>
      <trkpt lat="43.93303" lon="1.85737">
        <ele>260</ele>
        <time>2022-10-12T10:34:45Z</time>
      </trkpt>
      <trkpt lat="43.93302" lon="1.85733">
        <ele>260</ele>
        <time>2022-10-12T10:34:46Z</time>
      </trkpt>
      <trkpt lat="43.933" lon="1.85728">
        <ele>260.2</ele>
        <time>2022-10-12T10:34:47Z</time>
      </trkpt>
      <trkpt lat="43.93301" lon="1.85723">
        <ele>260.4</ele>
        <time>2022-10-12T10:34:48Z</time>
      </trkpt>
      <trkpt lat="43.933" lon="1.85718">
        <ele>260.6</ele>
        <time>2022-10-12T10:34:49Z</time>
      </trkpt>
      <trkpt lat="43.93298" lon="1.85714">
        <ele>260.6</ele>
        <time>2022-10-12T10:34:50Z</time>
      </trkpt>
      <trkpt lat="43.93297" lon="1.85703">
        <ele>261.4</ele>
        <time>2022-10-12T10:34:52Z</time>
      </trkpt>
      <trkpt lat="43.93298" lon="1.85697">
        <ele>261.4</ele>
        <time>2022-10-12T10:34:53Z</time>
      </trkpt>
      <trkpt lat="43.93298" lon="1.8569">
        <ele>261.6</ele>
        <time>2022-10-12T10:34:54Z</time>
      </trkpt>
      <trkpt lat="43.93297" lon="1.85684">
        <ele>261.6</ele>
        <time>2022-10-12T10:34:55Z</time>
      </trkpt>
      <trkpt lat="43.93299" lon="1.85675">
        <ele>262.2</ele>
        <time>2022-10-12T10:34:57Z</time>
      </trkpt>
      <trkpt lat="43.93297" lon="1.85671">
        <ele>262.4</ele>
        <time>2022-10-12T10:34:58Z</time>
      </trkpt>
      <trkpt lat="43.93295" lon="1.85667">
        <ele>262.8</ele>
        <time>2022-10-12T10:34:59Z</time>
      </trkpt>
      <trkpt lat="43.93293" lon="1.85662">
        <ele>262.8</ele>
        <time>2022-10-12T10:35:00Z</time>
      </trkpt>
      <trkpt lat="43.93291" lon="1.85656">
        <ele>263</ele>
        <time>2022-10-12T10:35:01Z</time>
      </trkpt>
      <trkpt lat="43.9329" lon="1.85651">
        <ele>263.2</ele>
        <time>2022-10-12T10:35:02Z</time>
      </trkpt>
      <trkpt lat="43.9329" lon="1.85647">
        <ele>263.4</ele>
        <time>2022-10-12T10:35:03Z</time>
      </trkpt>
      <trkpt lat="43.9329" lon="1.85643">
        <ele>263.4</ele>
        <time>2022-10-12T10:35:04Z</time>
      </trkpt>
      <trkpt lat="43.93289" lon="1.85638">
        <ele>263.6</ele>
        <time>2022-10-12T10:35:05Z</time>
      </trkpt>
      <trkpt lat="43.93288" lon="1.85633">
        <ele>263.8</ele>
        <time>2022-10-12T10:35:06Z</time>
      </trkpt>
      <trkpt lat="43.93286" lon="1.85628">
        <ele>264</ele>
        <time>2022-10-12T10:35:07Z</time>
      </trkpt>
      <trkpt lat="43.93285" lon="1.85626">
        <ele>264.4</ele>
        <time>2022-10-12T10:35:08Z</time>
      </trkpt>
      <trkpt lat="43.93284" lon="1.85622">
        <ele>264.6</ele>
        <time>2022-10-12T10:35:09Z</time>
      </trkpt>
      <trkpt lat="43.93283" lon="1.85619">
        <ele>265</ele>
        <time>2022-10-12T10:35:10Z</time>
      </trkpt>
      <trkpt lat="43.93282" lon="1.85615">
        <ele>265.2</ele>
        <time>2022-10-12T10:35:11Z</time>
      </trkpt>
      <trkpt lat="43.9328" lon="1.8561">
        <ele>265.2</ele>
        <time>2022-10-12T10:35:12Z</time>
      </trkpt>
      <trkpt lat="43.93279" lon="1.85604">
        <ele>265.4</ele>
        <time>2022-10-12T10:35:13Z</time>
      </trkpt>
      <trkpt lat="43.93276" lon="1.85599">
        <ele>265.6</ele>
        <time>2022-10-12T10:35:14Z</time>
      </trkpt>
      <trkpt lat="43.93274" lon="1.85593">
        <ele>265.6</ele>
        <time>2022-10-12T10:35:15Z</time>
      </trkpt>
      <trkpt lat="43.93274" lon="1.85589">
        <ele>265.8</ele>
        <time>2022-10-12T10:35:16Z</time>
      </trkpt>
      <trkpt lat="43.93273" lon="1.85583">
        <ele>265.8</ele>
        <time>2022-10-12T10:35:17Z</time>
      </trkpt>
      <trkpt lat="43.9327" lon="1.85576">
        <ele>265.8</ele>
        <time>2022-10-12T10:35:18Z</time>
      </trkpt>
      <trkpt lat="43.93266" lon="1.85572">
        <ele>265.8</ele>
        <time>2022-10-12T10:35:19Z</time>
      </trkpt>
      <trkpt lat="43.93263" lon="1.85569">
        <ele>265.8</ele>
        <time>2022-10-12T10:35:20Z</time>
      </trkpt>
      <trkpt lat="43.93259" lon="1.85565">
        <ele>265.8</ele>
        <time>2022-10-12T10:35:21Z</time>
      </trkpt>
      <trkpt lat="43.93256" lon="1.85561">
        <ele>265.8</ele>
        <time>2022-10-12T10:35:22Z</time>
      </trkpt>
      <trkpt lat="43.93255" lon="1.85557">
        <ele>265.8</ele>
        <time>2022-10-12T10:35:23Z</time>
      </trkpt>
      <trkpt lat="43.93256" lon="1.85554">
        <ele>265.8</ele>
        <time>2022-10-12T10:35:24Z</time>
      </trkpt>
      <trkpt lat="43.93258" lon="1.8555">
        <ele>265.8</ele>
        <time>2022-10-12T10:35:25Z</time>
      </trkpt>
      <trkpt lat="43.93261" lon="1.85544">
        <ele>265.8</ele>
        <time>2022-10-12T10:35:26Z</time>
      </trkpt>
      <trkpt lat="43.93265" lon="1.85537">
        <ele>265.8</ele>
        <time>2022-10-12T10:35:27Z</time>
      </trkpt>
      <trkpt lat="43.93269" lon="1.85532">
        <ele>265.8</ele>
        <time>2022-10-12T10:35:28Z</time>
      </trkpt>
      <trkpt lat="43.93273" lon="1.85526">
        <ele>265.6</ele>
        <time>2022-10-12T10:35:29Z</time>
      </trkpt>
      <trkpt lat="43.93277" lon="1.85521">
        <ele>265.6</ele>
        <time>2022-10-12T10:35:30Z</time>
      </trkpt>
      <trkpt lat="43.93281" lon="1.85515">
        <ele>265.4</ele>
        <time>2022-10-12T10:35:31Z</time>
      </trkpt>
      <trkpt lat="43.93284" lon="1.85509">
        <ele>265.4</ele>
        <time>2022-10-12T10:35:32Z</time>
      </trkpt>
      <trkpt lat="43.93287" lon="1.85504">
        <ele>265.2</ele>
        <time>2022-10-12T10:35:33Z</time>
      </trkpt>
      <trkpt lat="43.9329" lon="1.85498">
        <ele>265</ele>
        <time>2022-10-12T10:35:34Z</time>
      </trkpt>
      <trkpt lat="43.93293" lon="1.85493">
        <ele>264.6</ele>
        <time>2022-10-12T10:35:35Z</time>
      </trkpt>
      <trkpt lat="43.93298" lon="1.85488">
        <ele>264.2</ele>
        <time>2022-10-12T10:35:36Z</time>
      </trkpt>
      <trkpt lat="43.93301" lon="1.85484">
        <ele>264.2</ele>
        <time>2022-10-12T10:35:37Z</time>
      </trkpt>
      <trkpt lat="43.93304" lon="1.8548">
        <ele>263.8</ele>
        <time>2022-10-12T10:35:38Z</time>
      </trkpt>
      <trkpt lat="43.93306" lon="1.85476">
        <ele>263.6</ele>
        <time>2022-10-12T10:35:39Z</time>
      </trkpt>
      <trkpt lat="43.93309" lon="1.85471">
        <ele>262.8</ele>
        <time>2022-10-12T10:35:40Z</time>
      </trkpt>
      <trkpt lat="43.93312" lon="1.85464">
        <ele>262.6</ele>
        <time>2022-10-12T10:35:41Z</time>
      </trkpt>
      <trkpt lat="43.93313" lon="1.85457">
        <ele>262</ele>
        <time>2022-10-12T10:35:42Z</time>
      </trkpt>
      <trkpt lat="43.93314" lon="1.85449">
        <ele>261.4</ele>
        <time>2022-10-12T10:35:43Z</time>
      </trkpt>
      <trkpt lat="43.93315" lon="1.8544">
        <ele>260.6</ele>
        <time>2022-10-12T10:35:44Z</time>
      </trkpt>
      <trkpt lat="43.93316" lon="1.85431">
        <ele>260.2</ele>
        <time>2022-10-12T10:35:45Z</time>
      </trkpt>
      <trkpt lat="43.93319" lon="1.85422">
        <ele>259.2</ele>
        <time>2022-10-12T10:35:46Z</time>
      </trkpt>
      <trkpt lat="43.93323" lon="1.85414">
        <ele>258.8</ele>
        <time>2022-10-12T10:35:47Z</time>
      </trkpt>
      <trkpt lat="43.93328" lon="1.85405">
        <ele>258.2</ele>
        <time>2022-10-12T10:35:48Z</time>
      </trkpt>
      <trkpt lat="43.93331" lon="1.85398">
        <ele>256.8</ele>
        <time>2022-10-12T10:35:49Z</time>
      </trkpt>
      <trkpt lat="43.93336" lon="1.85389">
        <ele>256.4</ele>
        <time>2022-10-12T10:35:50Z</time>
      </trkpt>
      <trkpt lat="43.93342" lon="1.85381">
        <ele>255.6</ele>
        <time>2022-10-12T10:35:51Z</time>
      </trkpt>
      <trkpt lat="43.93348" lon="1.85371">
        <ele>255.2</ele>
        <time>2022-10-12T10:35:52Z</time>
      </trkpt>
      <trkpt lat="43.93353" lon="1.85359">
        <ele>254.8</ele>
        <time>2022-10-12T10:35:53Z</time>
      </trkpt>
      <trkpt lat="43.93356" lon="1.85347">
        <ele>254.4</ele>
        <time>2022-10-12T10:35:54Z</time>
      </trkpt>
      <trkpt lat="43.93357" lon="1.8534">
        <ele>254.2</ele>
        <time>2022-10-12T10:35:55Z</time>
      </trkpt>
      <trkpt lat="43.93358" lon="1.85337">
        <ele>254</ele>
        <time>2022-10-12T10:35:56Z</time>
      </trkpt>
      <trkpt lat="43.93359" lon="1.85334">
        <ele>254</ele>
        <time>2022-10-12T10:35:57Z</time>
      </trkpt>
      <trkpt lat="43.9336" lon="1.85332">
        <ele>254</ele>
        <time>2022-10-12T10:35:58Z</time>
      </trkpt>
      <trkpt lat="43.93362" lon="1.85331">
        <ele>254</ele>
        <time>2022-10-12T10:35:59Z</time>
      </trkpt>
      <trkpt lat="43.93365" lon="1.8533">
        <ele>254</ele>
        <time>2022-10-12T10:36:00Z</time>
      </trkpt>
      <trkpt lat="43.93366" lon="1.85327">
        <ele>254</ele>
        <time>2022-10-12T10:36:01Z</time>
      </trkpt>
      <trkpt lat="43.93375" lon="1.85322">
        <ele>254.4</ele>
        <time>2022-10-12T10:36:04Z</time>
      </trkpt>
      <trkpt lat="43.93386" lon="1.85315">
        <ele>254.4</ele>
        <time>2022-10-12T10:36:06Z</time>
      </trkpt>
      <trkpt lat="43.93392" lon="1.85311">
        <ele>254.4</ele>
        <time>2022-10-12T10:36:07Z</time>
      </trkpt>
      <trkpt lat="43.93396" lon="1.85308">
        <ele>254.4</ele>
        <time>2022-10-12T10:36:08Z</time>
      </trkpt>
      <trkpt lat="43.934" lon="1.85305">
        <ele>254.4</ele>
        <time>2022-10-12T10:36:09Z</time>
      </trkpt>
      <trkpt lat="43.93405" lon="1.85302">
        <ele>254.4</ele>
        <time>2022-10-12T10:36:10Z</time>
      </trkpt>
      <trkpt lat="43.93408" lon="1.85296">
        <ele>254.4</ele>
        <time>2022-10-12T10:36:11Z</time>
      </trkpt>
      <trkpt lat="43.9341" lon="1.85291">
        <ele>254.2</ele>
        <time>2022-10-12T10:36:12Z</time>
      </trkpt>
      <trkpt lat="43.93412" lon="1.85286">
        <ele>254.2</ele>
        <time>2022-10-12T10:36:13Z</time>
      </trkpt>
      <trkpt lat="43.93416" lon="1.85284">
        <ele>254.4</ele>
        <time>2022-10-12T10:36:14Z</time>
      </trkpt>
      <trkpt lat="43.93419" lon="1.8528">
        <ele>254.4</ele>
        <time>2022-10-12T10:36:15Z</time>
      </trkpt>
      <trkpt lat="43.93422" lon="1.85276">
        <ele>254.2</ele>
        <time>2022-10-12T10:36:16Z</time>
      </trkpt>
      <trkpt lat="43.93424" lon="1.85274">
        <ele>254.4</ele>
        <time>2022-10-12T10:36:17Z</time>
      </trkpt>
      <trkpt lat="43.93426" lon="1.85272">
        <ele>254.4</ele>
        <time>2022-10-12T10:36:18Z</time>
      </trkpt>
      <trkpt lat="43.93429" lon="1.85269">
        <ele>254.6</ele>
        <time>2022-10-12T10:36:19Z</time>
      </trkpt>
      <trkpt lat="43.9344" lon="1.85258">
        <ele>254.8</ele>
        <time>2022-10-12T10:36:23Z</time>
      </trkpt>
      <trkpt lat="43.93442" lon="1.85256">
        <ele>254.8</ele>
        <time>2022-10-12T10:36:24Z</time>
      </trkpt>
      <trkpt lat="43.93444" lon="1.85252">
        <ele>254.8</ele>
        <time>2022-10-12T10:36:25Z</time>
      </trkpt>
      <trkpt lat="43.93448" lon="1.85244">
        <ele>254.8</ele>
        <time>2022-10-12T10:36:27Z</time>
      </trkpt>
      <trkpt lat="43.93449" lon="1.85241">
        <ele>255</ele>
        <time>2022-10-12T10:36:28Z</time>
      </trkpt>
      <trkpt lat="43.93449" lon="1.85237">
        <ele>255</ele>
        <time>2022-10-12T10:36:29Z</time>
      </trkpt>
      <trkpt lat="43.93449" lon="1.85234">
        <ele>255.4</ele>
        <time>2022-10-12T10:36:30Z</time>
      </trkpt>
      <trkpt lat="43.93449" lon="1.85231">
        <ele>255.8</ele>
        <time>2022-10-12T10:36:31Z</time>
      </trkpt>
      <trkpt lat="43.9345" lon="1.85228">
        <ele>256.2</ele>
        <time>2022-10-12T10:36:32Z</time>
      </trkpt>
      <trkpt lat="43.93451" lon="1.85222">
        <ele>257.2</ele>
        <time>2022-10-12T10:36:34Z</time>
      </trkpt>
      <trkpt lat="43.93452" lon="1.8522">
        <ele>257.6</ele>
        <time>2022-10-12T10:36:35Z</time>
      </trkpt>
      <trkpt lat="43.93454" lon="1.85219">
        <ele>258</ele>
        <time>2022-10-12T10:36:36Z</time>
      </trkpt>
      <trkpt lat="43.93462" lon="1.85213">
        <ele>258.2</ele>
        <time>2022-10-12T10:36:39Z</time>
      </trkpt>
      <trkpt lat="43.93467" lon="1.85209">
        <ele>258.2</ele>
        <time>2022-10-12T10:36:40Z</time>
      </trkpt>
      <trkpt lat="43.93472" lon="1.85202">
        <ele>258.2</ele>
        <time>2022-10-12T10:36:41Z</time>
      </trkpt>
      <trkpt lat="43.93477" lon="1.85197">
        <ele>258.2</ele>
        <time>2022-10-12T10:36:42Z</time>
      </trkpt>
      <trkpt lat="43.93484" lon="1.85191">
        <ele>258.2</ele>
        <time>2022-10-12T10:36:43Z</time>
      </trkpt>
      <trkpt lat="43.93489" lon="1.85186">
        <ele>257.6</ele>
        <time>2022-10-12T10:36:44Z</time>
      </trkpt>
      <trkpt lat="43.93494" lon="1.85181">
        <ele>257.4</ele>
        <time>2022-10-12T10:36:45Z</time>
      </trkpt>
      <trkpt lat="43.93499" lon="1.85177">
        <ele>257</ele>
        <time>2022-10-12T10:36:46Z</time>
      </trkpt>
      <trkpt lat="43.93505" lon="1.85173">
        <ele>256.6</ele>
        <time>2022-10-12T10:36:47Z</time>
      </trkpt>
      <trkpt lat="43.93513" lon="1.85167">
        <ele>256.2</ele>
        <time>2022-10-12T10:36:48Z</time>
      </trkpt>
      <trkpt lat="43.93523" lon="1.8516">
        <ele>255.8</ele>
        <time>2022-10-12T10:36:49Z</time>
      </trkpt>
      <trkpt lat="43.93529" lon="1.85156">
        <ele>255.4</ele>
        <time>2022-10-12T10:36:50Z</time>
      </trkpt>
      <trkpt lat="43.93534" lon="1.85153">
        <ele>255.2</ele>
        <time>2022-10-12T10:36:51Z</time>
      </trkpt>
      <trkpt lat="43.9354" lon="1.85148">
        <ele>255.2</ele>
        <time>2022-10-12T10:36:52Z</time>
      </trkpt>
      <trkpt lat="43.9355" lon="1.85138">
        <ele>255</ele>
        <time>2022-10-12T10:36:54Z</time>
      </trkpt>
      <trkpt lat="43.93555" lon="1.85136">
        <ele>254.8</ele>
        <time>2022-10-12T10:36:55Z</time>
      </trkpt>
      <trkpt lat="43.93562" lon="1.85133">
        <ele>254.6</ele>
        <time>2022-10-12T10:36:56Z</time>
      </trkpt>
      <trkpt lat="43.93573" lon="1.85133">
        <ele>253.6</ele>
        <time>2022-10-12T10:36:58Z</time>
      </trkpt>
      <trkpt lat="43.93583" lon="1.85132">
        <ele>253.4</ele>
        <time>2022-10-12T10:36:59Z</time>
      </trkpt>
      <trkpt lat="43.93593" lon="1.85131">
        <ele>252.8</ele>
        <time>2022-10-12T10:37:00Z</time>
      </trkpt>
      <trkpt lat="43.936" lon="1.85133">
        <ele>252.6</ele>
        <time>2022-10-12T10:37:01Z</time>
      </trkpt>
      <trkpt lat="43.93605" lon="1.85137">
        <ele>252.4</ele>
        <time>2022-10-12T10:37:02Z</time>
      </trkpt>
      <trkpt lat="43.9361" lon="1.85141">
        <ele>252.2</ele>
        <time>2022-10-12T10:37:03Z</time>
      </trkpt>
      <trkpt lat="43.93614" lon="1.85145">
        <ele>252</ele>
        <time>2022-10-12T10:37:04Z</time>
      </trkpt>
      <trkpt lat="43.9362" lon="1.8515">
        <ele>251.8</ele>
        <time>2022-10-12T10:37:05Z</time>
      </trkpt>
      <trkpt lat="43.93624" lon="1.85153">
        <ele>251.4</ele>
        <time>2022-10-12T10:37:06Z</time>
      </trkpt>
      <trkpt lat="43.93627" lon="1.85156">
        <ele>251.2</ele>
        <time>2022-10-12T10:37:07Z</time>
      </trkpt>
      <trkpt lat="43.93631" lon="1.85158">
        <ele>251.2</ele>
        <time>2022-10-12T10:37:08Z</time>
      </trkpt>
      <trkpt lat="43.93634" lon="1.85161">
        <ele>251.2</ele>
        <time>2022-10-12T10:37:09Z</time>
      </trkpt>
      <trkpt lat="43.93636" lon="1.85164">
        <ele>251.2</ele>
        <time>2022-10-12T10:37:10Z</time>
      </trkpt>
      <trkpt lat="43.93639" lon="1.85167">
        <ele>251.2</ele>
        <time>2022-10-12T10:37:11Z</time>
      </trkpt>
      <trkpt lat="43.93643" lon="1.8517">
        <ele>251.2</ele>
        <time>2022-10-12T10:37:12Z</time>
      </trkpt>
      <trkpt lat="43.93647" lon="1.85171">
        <ele>251.2</ele>
        <time>2022-10-12T10:37:13Z</time>
      </trkpt>
      <trkpt lat="43.93649" lon="1.85173">
        <ele>251.4</ele>
        <time>2022-10-12T10:37:14Z</time>
      </trkpt>
      <trkpt lat="43.9365" lon="1.85175">
        <ele>251.4</ele>
        <time>2022-10-12T10:37:15Z</time>
      </trkpt>
      <trkpt lat="43.93651" lon="1.85177">
        <ele>251.4</ele>
        <time>2022-10-12T10:37:16Z</time>
      </trkpt>
      <trkpt lat="43.93652" lon="1.85179">
        <ele>251.6</ele>
        <time>2022-10-12T10:37:17Z</time>
      </trkpt>
      <trkpt lat="43.93652" lon="1.85184">
        <ele>251.6</ele>
        <time>2022-10-12T10:37:18Z</time>
      </trkpt>
      <trkpt lat="43.93655" lon="1.85193">
        <ele>252.2</ele>
        <time>2022-10-12T10:37:21Z</time>
      </trkpt>
      <trkpt lat="43.9366" lon="1.85209">
        <ele>252.4</ele>
        <time>2022-10-12T10:37:24Z</time>
      </trkpt>
      <trkpt lat="43.93661" lon="1.85214">
        <ele>252.2</ele>
        <time>2022-10-12T10:37:25Z</time>
      </trkpt>
      <trkpt lat="43.93669" lon="1.85235">
        <ele>252.2</ele>
        <time>2022-10-12T10:37:29Z</time>
      </trkpt>
      <trkpt lat="43.93672" lon="1.85241">
        <ele>252.2</ele>
        <time>2022-10-12T10:37:30Z</time>
      </trkpt>
      <trkpt lat="43.93674" lon="1.85245">
        <ele>252.2</ele>
        <time>2022-10-12T10:37:31Z</time>
      </trkpt>
      <trkpt lat="43.93676" lon="1.8525">
        <ele>252.2</ele>
        <time>2022-10-12T10:37:32Z</time>
      </trkpt>
      <trkpt lat="43.93679" lon="1.85254">
        <ele>252.2</ele>
        <time>2022-10-12T10:37:33Z</time>
      </trkpt>
      <trkpt lat="43.93682" lon="1.85257">
        <ele>252.2</ele>
        <time>2022-10-12T10:37:34Z</time>
      </trkpt>
      <trkpt lat="43.93684" lon="1.8526">
        <ele>252.2</ele>
        <time>2022-10-12T10:37:35Z</time>
      </trkpt>
      <trkpt lat="43.93687" lon="1.85262">
        <ele>252.4</ele>
        <time>2022-10-12T10:37:36Z</time>
      </trkpt>
      <trkpt lat="43.937" lon="1.85273">
        <ele>252.8</ele>
        <time>2022-10-12T10:37:40Z</time>
      </trkpt>
      <trkpt lat="43.93703" lon="1.85274">
        <ele>252.8</ele>
        <time>2022-10-12T10:37:41Z</time>
      </trkpt>
      <trkpt lat="43.93706" lon="1.85275">
        <ele>252.8</ele>
        <time>2022-10-12T10:37:42Z</time>
      </trkpt>
      <trkpt lat="43.93709" lon="1.85275">
        <ele>253.2</ele>
        <time>2022-10-12T10:37:43Z</time>
      </trkpt>
      <trkpt lat="43.93712" lon="1.85274">
        <ele>253.4</ele>
        <time>2022-10-12T10:37:44Z</time>
      </trkpt>
      <trkpt lat="43.93716" lon="1.85272">
        <ele>253.8</ele>
        <time>2022-10-12T10:37:45Z</time>
      </trkpt>
      <trkpt lat="43.93719" lon="1.8527">
        <ele>254.4</ele>
        <time>2022-10-12T10:37:46Z</time>
      </trkpt>
      <trkpt lat="43.93722" lon="1.85267">
        <ele>254.6</ele>
        <time>2022-10-12T10:37:47Z</time>
      </trkpt>
      <trkpt lat="43.93725" lon="1.85264">
        <ele>254.8</ele>
        <time>2022-10-12T10:37:48Z</time>
      </trkpt>
      <trkpt lat="43.93728" lon="1.85262">
        <ele>254.8</ele>
        <time>2022-10-12T10:37:49Z</time>
      </trkpt>
      <trkpt lat="43.93731" lon="1.8526">
        <ele>255.2</ele>
        <time>2022-10-12T10:37:50Z</time>
      </trkpt>
      <trkpt lat="43.93734" lon="1.85258">
        <ele>255.4</ele>
        <time>2022-10-12T10:37:51Z</time>
      </trkpt>
      <trkpt lat="43.93737" lon="1.85256">
        <ele>255.8</ele>
        <time>2022-10-12T10:37:52Z</time>
      </trkpt>
      <trkpt lat="43.9374" lon="1.85254">
        <ele>256.2</ele>
        <time>2022-10-12T10:37:53Z</time>
      </trkpt>
      <trkpt lat="43.93744" lon="1.85252">
        <ele>256.2</ele>
        <time>2022-10-12T10:37:54Z</time>
      </trkpt>
      <trkpt lat="43.93747" lon="1.85251">
        <ele>256.4</ele>
        <time>2022-10-12T10:37:55Z</time>
      </trkpt>
      <trkpt lat="43.9375" lon="1.8525">
        <ele>256.4</ele>
        <time>2022-10-12T10:37:56Z</time>
      </trkpt>
      <trkpt lat="43.93753" lon="1.85249">
        <ele>256.6</ele>
        <time>2022-10-12T10:37:57Z</time>
      </trkpt>
      <trkpt lat="43.93757" lon="1.85248">
        <ele>256.8</ele>
        <time>2022-10-12T10:37:58Z</time>
      </trkpt>
      <trkpt lat="43.9376" lon="1.85248">
        <ele>257</ele>
        <time>2022-10-12T10:37:59Z</time>
      </trkpt>
      <trkpt lat="43.93763" lon="1.85248">
        <ele>257</ele>
        <time>2022-10-12T10:38:00Z</time>
      </trkpt>
      <trkpt lat="43.93766" lon="1.85248">
        <ele>257.2</ele>
        <time>2022-10-12T10:38:01Z</time>
      </trkpt>
      <trkpt lat="43.9377" lon="1.85248">
        <ele>257.2</ele>
        <time>2022-10-12T10:38:02Z</time>
      </trkpt>
      <trkpt lat="43.93773" lon="1.85248">
        <ele>257.4</ele>
        <time>2022-10-12T10:38:03Z</time>
      </trkpt>
      <trkpt lat="43.93776" lon="1.85248">
        <ele>257.6</ele>
        <time>2022-10-12T10:38:04Z</time>
      </trkpt>
      <trkpt lat="43.9378" lon="1.85247">
        <ele>257.6</ele>
        <time>2022-10-12T10:38:05Z</time>
      </trkpt>
      <trkpt lat="43.93784" lon="1.85247">
        <ele>257.6</ele>
        <time>2022-10-12T10:38:06Z</time>
      </trkpt>
      <trkpt lat="43.93787" lon="1.85247">
        <ele>257.8</ele>
        <time>2022-10-12T10:38:07Z</time>
      </trkpt>
      <trkpt lat="43.93791" lon="1.85248">
        <ele>257.8</ele>
        <time>2022-10-12T10:38:08Z</time>
      </trkpt>
      <trkpt lat="43.93794" lon="1.85248">
        <ele>257.8</ele>
        <time>2022-10-12T10:38:09Z</time>
      </trkpt>
      <trkpt lat="43.93798" lon="1.85248">
        <ele>257.8</ele>
        <time>2022-10-12T10:38:10Z</time>
      </trkpt>
      <trkpt lat="43.93802" lon="1.85247">
        <ele>258</ele>
        <time>2022-10-12T10:38:11Z</time>
      </trkpt>
      <trkpt lat="43.93805" lon="1.85248">
        <ele>258</ele>
        <time>2022-10-12T10:38:12Z</time>
      </trkpt>
      <trkpt lat="43.93808" lon="1.85247">
        <ele>258.2</ele>
        <time>2022-10-12T10:38:13Z</time>
      </trkpt>
      <trkpt lat="43.93811" lon="1.85247">
        <ele>258.2</ele>
        <time>2022-10-12T10:38:14Z</time>
      </trkpt>
      <trkpt lat="43.93815" lon="1.85247">
        <ele>258.2</ele>
        <time>2022-10-12T10:38:15Z</time>
      </trkpt>
      <trkpt lat="43.93819" lon="1.85247">
        <ele>258.2</ele>
        <time>2022-10-12T10:38:16Z</time>
      </trkpt>
      <trkpt lat="43.93823" lon="1.85247">
        <ele>258.2</ele>
        <time>2022-10-12T10:38:17Z</time>
      </trkpt>
      <trkpt lat="43.93826" lon="1.85248">
        <ele>258.2</ele>
        <time>2022-10-12T10:38:18Z</time>
      </trkpt>
      <trkpt lat="43.93829" lon="1.85249">
        <ele>258.4</ele>
        <time>2022-10-12T10:38:19Z</time>
      </trkpt>
      <trkpt lat="43.93832" lon="1.85249">
        <ele>258.4</ele>
        <time>2022-10-12T10:38:20Z</time>
      </trkpt>
      <trkpt lat="43.93836" lon="1.8525">
        <ele>258.4</ele>
        <time>2022-10-12T10:38:21Z</time>
      </trkpt>
      <trkpt lat="43.93839" lon="1.85251">
        <ele>258.6</ele>
        <time>2022-10-12T10:38:22Z</time>
      </trkpt>
      <trkpt lat="43.93842" lon="1.85252">
        <ele>258.8</ele>
        <time>2022-10-12T10:38:23Z</time>
      </trkpt>
      <trkpt lat="43.93844" lon="1.85252">
        <ele>259</ele>
        <time>2022-10-12T10:38:24Z</time>
      </trkpt>
      <trkpt lat="43.9385" lon="1.85254">
        <ele>259.4</ele>
        <time>2022-10-12T10:38:26Z</time>
      </trkpt>
      <trkpt lat="43.9386" lon="1.85254">
        <ele>259.8</ele>
        <time>2022-10-12T10:38:29Z</time>
      </trkpt>
      <trkpt lat="43.93864" lon="1.85254">
        <ele>259.8</ele>
        <time>2022-10-12T10:38:30Z</time>
      </trkpt>
      <trkpt lat="43.93868" lon="1.85253">
        <ele>260</ele>
        <time>2022-10-12T10:38:31Z</time>
      </trkpt>
      <trkpt lat="43.93871" lon="1.85252">
        <ele>260</ele>
        <time>2022-10-12T10:38:32Z</time>
      </trkpt>
      <trkpt lat="43.93875" lon="1.8525">
        <ele>260.2</ele>
        <time>2022-10-12T10:38:33Z</time>
      </trkpt>
      <trkpt lat="43.93878" lon="1.85248">
        <ele>260.4</ele>
        <time>2022-10-12T10:38:34Z</time>
      </trkpt>
      <trkpt lat="43.9388" lon="1.85245">
        <ele>260.4</ele>
        <time>2022-10-12T10:38:35Z</time>
      </trkpt>
      <trkpt lat="43.93884" lon="1.85242">
        <ele>260.6</ele>
        <time>2022-10-12T10:38:36Z</time>
      </trkpt>
      <trkpt lat="43.93887" lon="1.8524">
        <ele>260.6</ele>
        <time>2022-10-12T10:38:37Z</time>
      </trkpt>
      <trkpt lat="43.9389" lon="1.85237">
        <ele>261</ele>
        <time>2022-10-12T10:38:38Z</time>
      </trkpt>
      <trkpt lat="43.93894" lon="1.85235">
        <ele>261</ele>
        <time>2022-10-12T10:38:39Z</time>
      </trkpt>
      <trkpt lat="43.93897" lon="1.85232">
        <ele>261.2</ele>
        <time>2022-10-12T10:38:40Z</time>
      </trkpt>
      <trkpt lat="43.93899" lon="1.85228">
        <ele>261.4</ele>
        <time>2022-10-12T10:38:41Z</time>
      </trkpt>
      <trkpt lat="43.93903" lon="1.85225">
        <ele>261.6</ele>
        <time>2022-10-12T10:38:42Z</time>
      </trkpt>
      <trkpt lat="43.93906" lon="1.85223">
        <ele>261.6</ele>
        <time>2022-10-12T10:38:43Z</time>
      </trkpt>
      <trkpt lat="43.93909" lon="1.85221">
        <ele>261.8</ele>
        <time>2022-10-12T10:38:44Z</time>
      </trkpt>
      <trkpt lat="43.93913" lon="1.8522">
        <ele>262</ele>
        <time>2022-10-12T10:38:45Z</time>
      </trkpt>
      <trkpt lat="43.93916" lon="1.85219">
        <ele>262</ele>
        <time>2022-10-12T10:38:46Z</time>
      </trkpt>
      <trkpt lat="43.93919" lon="1.85217">
        <ele>262</ele>
        <time>2022-10-12T10:38:47Z</time>
      </trkpt>
      <trkpt lat="43.93922" lon="1.85216">
        <ele>262.2</ele>
        <time>2022-10-12T10:38:48Z</time>
      </trkpt>
      <trkpt lat="43.93926" lon="1.85215">
        <ele>262.4</ele>
        <time>2022-10-12T10:38:49Z</time>
      </trkpt>
      <trkpt lat="43.93929" lon="1.85215">
        <ele>262.4</ele>
        <time>2022-10-12T10:38:50Z</time>
      </trkpt>
      <trkpt lat="43.93932" lon="1.85214">
        <ele>262.6</ele>
        <time>2022-10-12T10:38:51Z</time>
      </trkpt>
      <trkpt lat="43.93936" lon="1.85214">
        <ele>262.8</ele>
        <time>2022-10-12T10:38:52Z</time>
      </trkpt>
      <trkpt lat="43.9394" lon="1.85214">
        <ele>262.8</ele>
        <time>2022-10-12T10:38:53Z</time>
      </trkpt>
      <trkpt lat="43.93944" lon="1.85214">
        <ele>262.8</ele>
        <time>2022-10-12T10:38:54Z</time>
      </trkpt>
      <trkpt lat="43.93948" lon="1.85213">
        <ele>262.6</ele>
        <time>2022-10-12T10:38:55Z</time>
      </trkpt>
      <trkpt lat="43.93952" lon="1.85213">
        <ele>262.8</ele>
        <time>2022-10-12T10:38:56Z</time>
      </trkpt>
      <trkpt lat="43.93956" lon="1.85212">
        <ele>262.8</ele>
        <time>2022-10-12T10:38:57Z</time>
      </trkpt>
      <trkpt lat="43.93959" lon="1.85212">
        <ele>262.8</ele>
        <time>2022-10-12T10:38:58Z</time>
      </trkpt>
      <trkpt lat="43.93963" lon="1.85211">
        <ele>262.8</ele>
        <time>2022-10-12T10:38:59Z</time>
      </trkpt>
      <trkpt lat="43.93967" lon="1.8521">
        <ele>262.8</ele>
        <time>2022-10-12T10:39:00Z</time>
      </trkpt>
      <trkpt lat="43.93971" lon="1.8521">
        <ele>262.8</ele>
        <time>2022-10-12T10:39:01Z</time>
      </trkpt>
      <trkpt lat="43.93975" lon="1.8521">
        <ele>262.8</ele>
        <time>2022-10-12T10:39:02Z</time>
      </trkpt>
      <trkpt lat="43.93978" lon="1.85209">
        <ele>263</ele>
        <time>2022-10-12T10:39:03Z</time>
      </trkpt>
      <trkpt lat="43.93982" lon="1.85209">
        <ele>263</ele>
        <time>2022-10-12T10:39:04Z</time>
      </trkpt>
      <trkpt lat="43.93986" lon="1.85208">
        <ele>263</ele>
        <time>2022-10-12T10:39:05Z</time>
      </trkpt>
      <trkpt lat="43.93992" lon="1.85207">
        <ele>263.2</ele>
        <time>2022-10-12T10:39:07Z</time>
      </trkpt>
      <trkpt lat="43.93996" lon="1.85206">
        <ele>263.4</ele>
        <time>2022-10-12T10:39:08Z</time>
      </trkpt>
      <trkpt lat="43.94011" lon="1.85199">
        <ele>263.6</ele>
        <time>2022-10-12T10:39:13Z</time>
      </trkpt>
      <trkpt lat="43.94017" lon="1.85196">
        <ele>264</ele>
        <time>2022-10-12T10:39:15Z</time>
      </trkpt>
      <trkpt lat="43.94023" lon="1.85194">
        <ele>264.2</ele>
        <time>2022-10-12T10:39:17Z</time>
      </trkpt>
      <trkpt lat="43.94026" lon="1.85194">
        <ele>264.4</ele>
        <time>2022-10-12T10:39:18Z</time>
      </trkpt>
      <trkpt lat="43.94028" lon="1.85193">
        <ele>264.6</ele>
        <time>2022-10-12T10:39:19Z</time>
      </trkpt>
      <trkpt lat="43.9403" lon="1.85193">
        <ele>264.8</ele>
        <time>2022-10-12T10:39:20Z</time>
      </trkpt>
      <trkpt lat="43.94032" lon="1.85192">
        <ele>264.8</ele>
        <time>2022-10-12T10:39:21Z</time>
      </trkpt>
      <trkpt lat="43.94035" lon="1.85192">
        <ele>265</ele>
        <time>2022-10-12T10:39:22Z</time>
      </trkpt>
      <trkpt lat="43.94039" lon="1.85191">
        <ele>265</ele>
        <time>2022-10-12T10:39:23Z</time>
      </trkpt>
      <trkpt lat="43.94042" lon="1.85191">
        <ele>265.4</ele>
        <time>2022-10-12T10:39:24Z</time>
      </trkpt>
      <trkpt lat="43.94044" lon="1.85192">
        <ele>265.6</ele>
        <time>2022-10-12T10:39:25Z</time>
      </trkpt>
      <trkpt lat="43.94046" lon="1.85193">
        <ele>266</ele>
        <time>2022-10-12T10:39:26Z</time>
      </trkpt>
      <trkpt lat="43.94047" lon="1.85194">
        <ele>266.2</ele>
        <time>2022-10-12T10:39:27Z</time>
      </trkpt>
      <trkpt lat="43.94049" lon="1.85196">
        <ele>266.8</ele>
        <time>2022-10-12T10:39:28Z</time>
      </trkpt>
      <trkpt lat="43.94051" lon="1.85198">
        <ele>267</ele>
        <time>2022-10-12T10:39:29Z</time>
      </trkpt>
      <trkpt lat="43.94053" lon="1.85201">
        <ele>267</ele>
        <time>2022-10-12T10:39:30Z</time>
      </trkpt>
      <trkpt lat="43.94056" lon="1.85205">
        <ele>267.2</ele>
        <time>2022-10-12T10:39:31Z</time>
      </trkpt>
      <trkpt lat="43.94059" lon="1.85208">
        <ele>267.2</ele>
        <time>2022-10-12T10:39:32Z</time>
      </trkpt>
      <trkpt lat="43.94062" lon="1.85212">
        <ele>267.2</ele>
        <time>2022-10-12T10:39:33Z</time>
      </trkpt>
      <trkpt lat="43.94065" lon="1.85216">
        <ele>267.4</ele>
        <time>2022-10-12T10:39:34Z</time>
      </trkpt>
      <trkpt lat="43.94068" lon="1.8522">
        <ele>267.2</ele>
        <time>2022-10-12T10:39:35Z</time>
      </trkpt>
      <trkpt lat="43.94071" lon="1.85225">
        <ele>267</ele>
        <time>2022-10-12T10:39:36Z</time>
      </trkpt>
      <trkpt lat="43.94075" lon="1.85229">
        <ele>266.6</ele>
        <time>2022-10-12T10:39:37Z</time>
      </trkpt>
      <trkpt lat="43.9408" lon="1.85235">
        <ele>266</ele>
        <time>2022-10-12T10:39:38Z</time>
      </trkpt>
      <trkpt lat="43.94085" lon="1.8524">
        <ele>265.8</ele>
        <time>2022-10-12T10:39:39Z</time>
      </trkpt>
      <trkpt lat="43.9409" lon="1.85245">
        <ele>265.4</ele>
        <time>2022-10-12T10:39:40Z</time>
      </trkpt>
      <trkpt lat="43.94094" lon="1.8525">
        <ele>265</ele>
        <time>2022-10-12T10:39:41Z</time>
      </trkpt>
      <trkpt lat="43.94098" lon="1.85254">
        <ele>264.2</ele>
        <time>2022-10-12T10:39:42Z</time>
      </trkpt>
      <trkpt lat="43.94102" lon="1.85258">
        <ele>264</ele>
        <time>2022-10-12T10:39:43Z</time>
      </trkpt>
      <trkpt lat="43.94105" lon="1.85263">
        <ele>263.6</ele>
        <time>2022-10-12T10:39:44Z</time>
      </trkpt>
      <trkpt lat="43.94107" lon="1.8527">
        <ele>262.2</ele>
        <time>2022-10-12T10:39:45Z</time>
      </trkpt>
      <trkpt lat="43.94107" lon="1.85286">
        <ele>261.4</ele>
        <time>2022-10-12T10:39:47Z</time>
      </trkpt>
      <trkpt lat="43.94107" lon="1.85297">
        <ele>261.2</ele>
        <time>2022-10-12T10:39:48Z</time>
      </trkpt>
      <trkpt lat="43.94106" lon="1.85308">
        <ele>260.8</ele>
        <time>2022-10-12T10:39:49Z</time>
      </trkpt>
      <trkpt lat="43.94105" lon="1.85321">
        <ele>260.6</ele>
        <time>2022-10-12T10:39:50Z</time>
      </trkpt>
      <trkpt lat="43.94105" lon="1.85333">
        <ele>259.6</ele>
        <time>2022-10-12T10:39:51Z</time>
      </trkpt>
      <trkpt lat="43.94104" lon="1.85347">
        <ele>258.6</ele>
        <time>2022-10-12T10:39:52Z</time>
      </trkpt>
      <trkpt lat="43.94101" lon="1.85374">
        <ele>257.4</ele>
        <time>2022-10-12T10:39:54Z</time>
      </trkpt>
      <trkpt lat="43.94101" lon="1.85374">
        <ele>256.8</ele>
        <time>2022-10-12T10:39:55Z</time>
      </trkpt>
      <trkpt lat="43.94096" lon="1.854">
        <ele>255.8</ele>
        <time>2022-10-12T10:39:56Z</time>
      </trkpt>
      <trkpt lat="43.94092" lon="1.85412">
        <ele>255.2</ele>
        <time>2022-10-12T10:39:57Z</time>
      </trkpt>
      <trkpt lat="43.94087" lon="1.85423">
        <ele>253.8</ele>
        <time>2022-10-12T10:39:58Z</time>
      </trkpt>
      <trkpt lat="43.94082" lon="1.85434">
        <ele>252.8</ele>
        <time>2022-10-12T10:39:59Z</time>
      </trkpt>
      <trkpt lat="43.94077" lon="1.85444">
        <ele>252.6</ele>
        <time>2022-10-12T10:40:00Z</time>
      </trkpt>
      <trkpt lat="43.94066" lon="1.85464">
        <ele>251.4</ele>
        <time>2022-10-12T10:40:02Z</time>
      </trkpt>
      <trkpt lat="43.94055" lon="1.85485">
        <ele>250.2</ele>
        <time>2022-10-12T10:40:04Z</time>
      </trkpt>
      <trkpt lat="43.94043" lon="1.85506">
        <ele>249.4</ele>
        <time>2022-10-12T10:40:06Z</time>
      </trkpt>
      <trkpt lat="43.94037" lon="1.85518">
        <ele>248.4</ele>
        <time>2022-10-12T10:40:07Z</time>
      </trkpt>
      <trkpt lat="43.9402" lon="1.85558">
        <ele>247</ele>
        <time>2022-10-12T10:40:10Z</time>
      </trkpt>
      <trkpt lat="43.94007" lon="1.85586">
        <ele>245.4</ele>
        <time>2022-10-12T10:40:12Z</time>
      </trkpt>
      <trkpt lat="43.93991" lon="1.85613">
        <ele>243.8</ele>
        <time>2022-10-12T10:40:14Z</time>
      </trkpt>
      <trkpt lat="43.93982" lon="1.85626">
        <ele>242.6</ele>
        <time>2022-10-12T10:40:15Z</time>
      </trkpt>
      <trkpt lat="43.93975" lon="1.85638">
        <ele>242</ele>
        <time>2022-10-12T10:40:16Z</time>
      </trkpt>
      <trkpt lat="43.93968" lon="1.85649">
        <ele>241</ele>
        <time>2022-10-12T10:40:17Z</time>
      </trkpt>
      <trkpt lat="43.93962" lon="1.85659">
        <ele>240.2</ele>
        <time>2022-10-12T10:40:18Z</time>
      </trkpt>
      <trkpt lat="43.93957" lon="1.85669">
        <ele>238.8</ele>
        <time>2022-10-12T10:40:19Z</time>
      </trkpt>
      <trkpt lat="43.93953" lon="1.85681">
        <ele>238</ele>
        <time>2022-10-12T10:40:20Z</time>
      </trkpt>
      <trkpt lat="43.9395" lon="1.85693">
        <ele>236</ele>
        <time>2022-10-12T10:40:21Z</time>
      </trkpt>
      <trkpt lat="43.93947" lon="1.85705">
        <ele>235.2</ele>
        <time>2022-10-12T10:40:22Z</time>
      </trkpt>
      <trkpt lat="43.93945" lon="1.85717">
        <ele>234.2</ele>
        <time>2022-10-12T10:40:23Z</time>
      </trkpt>
      <trkpt lat="43.93944" lon="1.85728">
        <ele>232.6</ele>
        <time>2022-10-12T10:40:24Z</time>
      </trkpt>
      <trkpt lat="43.93944" lon="1.85738">
        <ele>232</ele>
        <time>2022-10-12T10:40:25Z</time>
      </trkpt>
      <trkpt lat="43.93944" lon="1.85746">
        <ele>230.4</ele>
        <time>2022-10-12T10:40:26Z</time>
      </trkpt>
      <trkpt lat="43.93945" lon="1.85752">
        <ele>229.8</ele>
        <time>2022-10-12T10:40:27Z</time>
      </trkpt>
      <trkpt lat="43.93948" lon="1.85756">
        <ele>228.2</ele>
        <time>2022-10-12T10:40:28Z</time>
      </trkpt>
      <trkpt lat="43.93952" lon="1.85759">
        <ele>227.8</ele>
        <time>2022-10-12T10:40:29Z</time>
      </trkpt>
      <trkpt lat="43.93958" lon="1.8576">
        <ele>227</ele>
        <time>2022-10-12T10:40:30Z</time>
      </trkpt>
      <trkpt lat="43.93965" lon="1.85762">
        <ele>226</ele>
        <time>2022-10-12T10:40:31Z</time>
      </trkpt>
      <trkpt lat="43.93972" lon="1.85763">
        <ele>225.6</ele>
        <time>2022-10-12T10:40:32Z</time>
      </trkpt>
      <trkpt lat="43.93981" lon="1.85766">
        <ele>225</ele>
        <time>2022-10-12T10:40:33Z</time>
      </trkpt>
      <trkpt lat="43.93989" lon="1.85769">
        <ele>224.6</ele>
        <time>2022-10-12T10:40:34Z</time>
      </trkpt>
      <trkpt lat="43.93997" lon="1.85772">
        <ele>223.6</ele>
        <time>2022-10-12T10:40:35Z</time>
      </trkpt>
      <trkpt lat="43.94005" lon="1.85776">
        <ele>223</ele>
        <time>2022-10-12T10:40:36Z</time>
      </trkpt>
      <trkpt lat="43.94012" lon="1.85778">
        <ele>222.6</ele>
        <time>2022-10-12T10:40:37Z</time>
      </trkpt>
      <trkpt lat="43.94028" lon="1.8578">
        <ele>220.4</ele>
        <time>2022-10-12T10:40:39Z</time>
      </trkpt>
      <trkpt lat="43.94037" lon="1.8578">
        <ele>219.2</ele>
        <time>2022-10-12T10:40:40Z</time>
      </trkpt>
      <trkpt lat="43.94057" lon="1.85778">
        <ele>217.2</ele>
        <time>2022-10-12T10:40:42Z</time>
      </trkpt>
      <trkpt lat="43.94067" lon="1.85777">
        <ele>216.4</ele>
        <time>2022-10-12T10:40:43Z</time>
      </trkpt>
      <trkpt lat="43.94078" lon="1.85778">
        <ele>215.6</ele>
        <time>2022-10-12T10:40:44Z</time>
      </trkpt>
      <trkpt lat="43.94098" lon="1.85787">
        <ele>214.6</ele>
        <time>2022-10-12T10:40:46Z</time>
      </trkpt>
      <trkpt lat="43.94106" lon="1.85794">
        <ele>213</ele>
        <time>2022-10-12T10:40:47Z</time>
      </trkpt>
      <trkpt lat="43.94114" lon="1.85803">
        <ele>212.4</ele>
        <time>2022-10-12T10:40:48Z</time>
      </trkpt>
      <trkpt lat="43.94118" lon="1.85809">
        <ele>211.6</ele>
        <time>2022-10-12T10:40:49Z</time>
      </trkpt>
      <trkpt lat="43.94121" lon="1.85814">
        <ele>210.8</ele>
        <time>2022-10-12T10:40:50Z</time>
      </trkpt>
      <trkpt lat="43.9412" lon="1.85819">
        <ele>209.6</ele>
        <time>2022-10-12T10:40:51Z</time>
      </trkpt>
      <trkpt lat="43.94119" lon="1.85824">
        <ele>209</ele>
        <time>2022-10-12T10:40:52Z</time>
      </trkpt>
      <trkpt lat="43.94116" lon="1.85828">
        <ele>208</ele>
        <time>2022-10-12T10:40:53Z</time>
      </trkpt>
      <trkpt lat="43.94116" lon="1.85828">
        <ele>207.8</ele>
        <time>2022-10-12T10:40:54Z</time>
      </trkpt>
      <trkpt lat="43.94109" lon="1.85844">
        <ele>207.2</ele>
        <time>2022-10-12T10:40:57Z</time>
      </trkpt>
      <trkpt lat="43.94101" lon="1.85863">
        <ele>207</ele>
        <time>2022-10-12T10:41:01Z</time>
      </trkpt>
      <trkpt lat="43.94099" lon="1.85867">
        <ele>207</ele>
        <time>2022-10-12T10:41:02Z</time>
      </trkpt>
      <trkpt lat="43.94094" lon="1.85876">
        <ele>206.8</ele>
        <time>2022-10-12T10:41:04Z</time>
      </trkpt>
      <trkpt lat="43.94092" lon="1.8588">
        <ele>206.8</ele>
        <time>2022-10-12T10:41:05Z</time>
      </trkpt>
      <trkpt lat="43.9409" lon="1.85884">
        <ele>206.8</ele>
        <time>2022-10-12T10:41:06Z</time>
      </trkpt>
      <trkpt lat="43.94082" lon="1.85903">
        <ele>206.8</ele>
        <time>2022-10-12T10:41:10Z</time>
      </trkpt>
      <trkpt lat="43.94077" lon="1.85912">
        <ele>206.6</ele>
        <time>2022-10-12T10:41:12Z</time>
      </trkpt>
      <trkpt lat="43.94068" lon="1.85929">
        <ele>206.6</ele>
        <time>2022-10-12T10:41:16Z</time>
      </trkpt>
      <trkpt lat="43.94066" lon="1.85938">
        <ele>206.6</ele>
        <time>2022-10-12T10:41:18Z</time>
      </trkpt>
      <trkpt lat="43.94067" lon="1.85942">
        <ele>206.6</ele>
        <time>2022-10-12T10:41:19Z</time>
      </trkpt>
      <trkpt lat="43.94068" lon="1.85943">
        <ele>206.6</ele>
        <time>2022-10-12T10:41:20Z</time>
      </trkpt>
      <trkpt lat="43.9407" lon="1.85942">
        <ele>206.6</ele>
        <time>2022-10-12T10:41:21Z</time>
      </trkpt>
      <trkpt lat="43.9407" lon="1.8594">
        <ele>206.6</ele>
        <time>2022-10-12T10:41:22Z</time>
      </trkpt>
      <trkpt lat="43.94071" lon="1.85938">
        <ele>206.6</ele>
        <time>2022-10-12T10:41:23Z</time>
      </trkpt>
      <trkpt lat="43.94071" lon="1.85937">
        <ele>206.6</ele>
        <time>2022-10-12T10:41:24Z</time>
      </trkpt>
      <trkpt lat="43.94072" lon="1.85936">
        <ele>206.6</ele>
        <time>2022-10-12T10:41:25Z</time>
      </trkpt>
      <trkpt lat="43.94073" lon="1.85935">
        <ele>206.8</ele>
        <time>2022-10-12T10:41:26Z</time>
      </trkpt>
      <trkpt lat="43.94074" lon="1.85934">
        <ele>206.8</ele>
        <time>2022-10-12T10:41:27Z</time>
      </trkpt>
      <trkpt lat="43.94075" lon="1.85933">
        <ele>207</ele>
        <time>2022-10-12T10:41:28Z</time>
      </trkpt>
      <trkpt lat="43.94077" lon="1.85932">
        <ele>207.2</ele>
        <time>2022-10-12T10:41:29Z</time>
      </trkpt>
      <trkpt lat="43.94078" lon="1.85932">
        <ele>207.4</ele>
        <time>2022-10-12T10:41:30Z</time>
      </trkpt>
      <trkpt lat="43.94083" lon="1.85928">
        <ele>208.2</ele>
        <time>2022-10-12T10:41:34Z</time>
      </trkpt>
      <trkpt lat="43.94086" lon="1.85927">
        <ele>208.4</ele>
        <time>2022-10-12T10:41:36Z</time>
      </trkpt>
      <trkpt lat="43.9409" lon="1.85926">
        <ele>209</ele>
        <time>2022-10-12T10:41:39Z</time>
      </trkpt>
      <trkpt lat="43.94091" lon="1.85926">
        <ele>209</ele>
        <time>2022-10-12T10:41:40Z</time>
      </trkpt>
      <trkpt lat="43.94092" lon="1.85927">
        <ele>209.4</ele>
        <time>2022-10-12T10:41:41Z</time>
      </trkpt>
      <trkpt lat="43.94093" lon="1.85928">
        <ele>209.6</ele>
        <time>2022-10-12T10:41:42Z</time>
      </trkpt>
      <trkpt lat="43.94094" lon="1.85928">
        <ele>209.8</ele>
        <time>2022-10-12T10:41:43Z</time>
      </trkpt>
      <trkpt lat="43.94096" lon="1.85929">
        <ele>210</ele>
        <time>2022-10-12T10:41:44Z</time>
      </trkpt>
      <trkpt lat="43.94097" lon="1.8593">
        <ele>210.2</ele>
        <time>2022-10-12T10:41:45Z</time>
      </trkpt>
      <trkpt lat="43.94098" lon="1.85931">
        <ele>210.4</ele>
        <time>2022-10-12T10:41:46Z</time>
      </trkpt>
      <trkpt lat="43.94099" lon="1.85932">
        <ele>210.6</ele>
        <time>2022-10-12T10:41:47Z</time>
      </trkpt>
      <trkpt lat="43.941" lon="1.85932">
        <ele>210.8</ele>
        <time>2022-10-12T10:41:48Z</time>
      </trkpt>
      <trkpt lat="43.94101" lon="1.85933">
        <ele>211</ele>
        <time>2022-10-12T10:41:49Z</time>
      </trkpt>
      <trkpt lat="43.94103" lon="1.85934">
        <ele>211.2</ele>
        <time>2022-10-12T10:41:50Z</time>
      </trkpt>
      <trkpt lat="43.94104" lon="1.85934">
        <ele>211.6</ele>
        <time>2022-10-12T10:41:51Z</time>
      </trkpt>
      <trkpt lat="43.94105" lon="1.85935">
        <ele>211.6</ele>
        <time>2022-10-12T10:41:52Z</time>
      </trkpt>
      <trkpt lat="43.94107" lon="1.85936">
        <ele>211.8</ele>
        <time>2022-10-12T10:41:53Z</time>
      </trkpt>
      <trkpt lat="43.94108" lon="1.85936">
        <ele>211.8</ele>
        <time>2022-10-12T10:41:54Z</time>
      </trkpt>
      <trkpt lat="43.94109" lon="1.85937">
        <ele>212</ele>
        <time>2022-10-12T10:41:55Z</time>
      </trkpt>
      <trkpt lat="43.9411" lon="1.85937">
        <ele>212.2</ele>
        <time>2022-10-12T10:41:56Z</time>
      </trkpt>
      <trkpt lat="43.94111" lon="1.85938">
        <ele>212.4</ele>
        <time>2022-10-12T10:41:57Z</time>
      </trkpt>
      <trkpt lat="43.94113" lon="1.85938">
        <ele>212.6</ele>
        <time>2022-10-12T10:41:58Z</time>
      </trkpt>
      <trkpt lat="43.94114" lon="1.85939">
        <ele>212.8</ele>
        <time>2022-10-12T10:41:59Z</time>
      </trkpt>
      <trkpt lat="43.94115" lon="1.85939">
        <ele>213</ele>
        <time>2022-10-12T10:42:00Z</time>
      </trkpt>
      <trkpt lat="43.94117" lon="1.8594">
        <ele>213</ele>
        <time>2022-10-12T10:42:01Z</time>
      </trkpt>
      <trkpt lat="43.94118" lon="1.8594">
        <ele>213.4</ele>
        <time>2022-10-12T10:42:02Z</time>
      </trkpt>
      <trkpt lat="43.94119" lon="1.85941">
        <ele>213.6</ele>
        <time>2022-10-12T10:42:03Z</time>
      </trkpt>
      <trkpt lat="43.9412" lon="1.85941">
        <ele>213.8</ele>
        <time>2022-10-12T10:42:04Z</time>
      </trkpt>
      <trkpt lat="43.94122" lon="1.85941">
        <ele>214</ele>
        <time>2022-10-12T10:42:05Z</time>
      </trkpt>
      <trkpt lat="43.94123" lon="1.85941">
        <ele>214.2</ele>
        <time>2022-10-12T10:42:06Z</time>
      </trkpt>
      <trkpt lat="43.94124" lon="1.85941">
        <ele>214.4</ele>
        <time>2022-10-12T10:42:07Z</time>
      </trkpt>
      <trkpt lat="43.94125" lon="1.85942">
        <ele>214.6</ele>
        <time>2022-10-12T10:42:08Z</time>
      </trkpt>
      <trkpt lat="43.94126" lon="1.85942">
        <ele>214.8</ele>
        <time>2022-10-12T10:42:09Z</time>
      </trkpt>
      <trkpt lat="43.94128" lon="1.85943">
        <ele>215</ele>
        <time>2022-10-12T10:42:10Z</time>
      </trkpt>
      <trkpt lat="43.94129" lon="1.85943">
        <ele>215.2</ele>
        <time>2022-10-12T10:42:11Z</time>
      </trkpt>
      <trkpt lat="43.9413" lon="1.85944">
        <ele>215.4</ele>
        <time>2022-10-12T10:42:12Z</time>
      </trkpt>
      <trkpt lat="43.94132" lon="1.85944">
        <ele>215.6</ele>
        <time>2022-10-12T10:42:13Z</time>
      </trkpt>
      <trkpt lat="43.94133" lon="1.85944">
        <ele>215.6</ele>
        <time>2022-10-12T10:42:14Z</time>
      </trkpt>
      <trkpt lat="43.94135" lon="1.85944">
        <ele>215.8</ele>
        <time>2022-10-12T10:42:15Z</time>
      </trkpt>
      <trkpt lat="43.94136" lon="1.85944">
        <ele>216</ele>
        <time>2022-10-12T10:42:16Z</time>
      </trkpt>
      <trkpt lat="43.94137" lon="1.85944">
        <ele>216</ele>
        <time>2022-10-12T10:42:17Z</time>
      </trkpt>
      <trkpt lat="43.94139" lon="1.85944">
        <ele>216.4</ele>
        <time>2022-10-12T10:42:18Z</time>
      </trkpt>
      <trkpt lat="43.9414" lon="1.85945">
        <ele>216.4</ele>
        <time>2022-10-12T10:42:19Z</time>
      </trkpt>
      <trkpt lat="43.94142" lon="1.85945">
        <ele>216.6</ele>
        <time>2022-10-12T10:42:20Z</time>
      </trkpt>
      <trkpt lat="43.94143" lon="1.85944">
        <ele>216.8</ele>
        <time>2022-10-12T10:42:21Z</time>
      </trkpt>
      <trkpt lat="43.94144" lon="1.85944">
        <ele>217</ele>
        <time>2022-10-12T10:42:22Z</time>
      </trkpt>
      <trkpt lat="43.94145" lon="1.85943">
        <ele>217</ele>
        <time>2022-10-12T10:42:23Z</time>
      </trkpt>
      <trkpt lat="43.94146" lon="1.85942">
        <ele>217.2</ele>
        <time>2022-10-12T10:42:24Z</time>
      </trkpt>
      <trkpt lat="43.94147" lon="1.85941">
        <ele>217.2</ele>
        <time>2022-10-12T10:42:25Z</time>
      </trkpt>
      <trkpt lat="43.94148" lon="1.8594">
        <ele>217.4</ele>
        <time>2022-10-12T10:42:26Z</time>
      </trkpt>
      <trkpt lat="43.94149" lon="1.85938">
        <ele>217.4</ele>
        <time>2022-10-12T10:42:27Z</time>
      </trkpt>
      <trkpt lat="43.9415" lon="1.85937">
        <ele>217.6</ele>
        <time>2022-10-12T10:42:28Z</time>
      </trkpt>
      <trkpt lat="43.94151" lon="1.85936">
        <ele>217.8</ele>
        <time>2022-10-12T10:42:29Z</time>
      </trkpt>
      <trkpt lat="43.94151" lon="1.85935">
        <ele>218</ele>
        <time>2022-10-12T10:42:30Z</time>
      </trkpt>
      <trkpt lat="43.94153" lon="1.85934">
        <ele>218.2</ele>
        <time>2022-10-12T10:42:31Z</time>
      </trkpt>
      <trkpt lat="43.94154" lon="1.85933">
        <ele>218.4</ele>
        <time>2022-10-12T10:42:32Z</time>
      </trkpt>
      <trkpt lat="43.94155" lon="1.85931">
        <ele>218.6</ele>
        <time>2022-10-12T10:42:33Z</time>
      </trkpt>
      <trkpt lat="43.94156" lon="1.8593">
        <ele>218.8</ele>
        <time>2022-10-12T10:42:34Z</time>
      </trkpt>
      <trkpt lat="43.94156" lon="1.8593">
        <ele>219</ele>
        <time>2022-10-12T10:42:35Z</time>
      </trkpt>
      <trkpt lat="43.94157" lon="1.85928">
        <ele>219.2</ele>
        <time>2022-10-12T10:42:36Z</time>
      </trkpt>
      <trkpt lat="43.94158" lon="1.85927">
        <ele>219.4</ele>
        <time>2022-10-12T10:42:37Z</time>
      </trkpt>
      <trkpt lat="43.94159" lon="1.85926">
        <ele>219.8</ele>
        <time>2022-10-12T10:42:38Z</time>
      </trkpt>
      <trkpt lat="43.9416" lon="1.85925">
        <ele>220</ele>
        <time>2022-10-12T10:42:39Z</time>
      </trkpt>
      <trkpt lat="43.94161" lon="1.85924">
        <ele>220.2</ele>
        <time>2022-10-12T10:42:40Z</time>
      </trkpt>
      <trkpt lat="43.94162" lon="1.85923">
        <ele>220.4</ele>
        <time>2022-10-12T10:42:41Z</time>
      </trkpt>
      <trkpt lat="43.94163" lon="1.85922">
        <ele>220.6</ele>
        <time>2022-10-12T10:42:42Z</time>
      </trkpt>
      <trkpt lat="43.94164" lon="1.85921">
        <ele>220.8</ele>
        <time>2022-10-12T10:42:43Z</time>
      </trkpt>
      <trkpt lat="43.94165" lon="1.85921">
        <ele>221</ele>
        <time>2022-10-12T10:42:44Z</time>
      </trkpt>
      <trkpt lat="43.94166" lon="1.8592">
        <ele>221.4</ele>
        <time>2022-10-12T10:42:45Z</time>
      </trkpt>
      <trkpt lat="43.94167" lon="1.85919">
        <ele>221.6</ele>
        <time>2022-10-12T10:42:46Z</time>
      </trkpt>
      <trkpt lat="43.94168" lon="1.85918">
        <ele>221.8</ele>
        <time>2022-10-12T10:42:47Z</time>
      </trkpt>
      <trkpt lat="43.94169" lon="1.85917">
        <ele>222</ele>
        <time>2022-10-12T10:42:48Z</time>
      </trkpt>
      <trkpt lat="43.9417" lon="1.85916">
        <ele>222.2</ele>
        <time>2022-10-12T10:42:49Z</time>
      </trkpt>
      <trkpt lat="43.94171" lon="1.85916">
        <ele>222.2</ele>
        <time>2022-10-12T10:42:50Z</time>
      </trkpt>
      <trkpt lat="43.94173" lon="1.85915">
        <ele>222.4</ele>
        <time>2022-10-12T10:42:51Z</time>
      </trkpt>
      <trkpt lat="43.94174" lon="1.85914">
        <ele>222.6</ele>
        <time>2022-10-12T10:42:52Z</time>
      </trkpt>
      <trkpt lat="43.94175" lon="1.85914">
        <ele>223</ele>
        <time>2022-10-12T10:42:53Z</time>
      </trkpt>
      <trkpt lat="43.94176" lon="1.85913">
        <ele>223</ele>
        <time>2022-10-12T10:42:54Z</time>
      </trkpt>
      <trkpt lat="43.94177" lon="1.85913">
        <ele>223.2</ele>
        <time>2022-10-12T10:42:55Z</time>
      </trkpt>
      <trkpt lat="43.94179" lon="1.85912">
        <ele>223.2</ele>
        <time>2022-10-12T10:42:56Z</time>
      </trkpt>
      <trkpt lat="43.9418" lon="1.85912">
        <ele>223.4</ele>
        <time>2022-10-12T10:42:57Z</time>
      </trkpt>
      <trkpt lat="43.94182" lon="1.85911">
        <ele>223.6</ele>
        <time>2022-10-12T10:42:58Z</time>
      </trkpt>
      <trkpt lat="43.94183" lon="1.85911">
        <ele>224</ele>
        <time>2022-10-12T10:42:59Z</time>
      </trkpt>
      <trkpt lat="43.94185" lon="1.85911">
        <ele>224</ele>
        <time>2022-10-12T10:43:00Z</time>
      </trkpt>
      <trkpt lat="43.94186" lon="1.85912">
        <ele>224.2</ele>
        <time>2022-10-12T10:43:01Z</time>
      </trkpt>
      <trkpt lat="43.94187" lon="1.85911">
        <ele>224.4</ele>
        <time>2022-10-12T10:43:02Z</time>
      </trkpt>
      <trkpt lat="43.94189" lon="1.85911">
        <ele>224.6</ele>
        <time>2022-10-12T10:43:03Z</time>
      </trkpt>
      <trkpt lat="43.9419" lon="1.85911">
        <ele>225</ele>
        <time>2022-10-12T10:43:04Z</time>
      </trkpt>
      <trkpt lat="43.94191" lon="1.85911">
        <ele>225</ele>
        <time>2022-10-12T10:43:05Z</time>
      </trkpt>
      <trkpt lat="43.94192" lon="1.85911">
        <ele>225.2</ele>
        <time>2022-10-12T10:43:06Z</time>
      </trkpt>
      <trkpt lat="43.94193" lon="1.85911">
        <ele>225.4</ele>
        <time>2022-10-12T10:43:07Z</time>
      </trkpt>
      <trkpt lat="43.94195" lon="1.85911">
        <ele>225.6</ele>
        <time>2022-10-12T10:43:08Z</time>
      </trkpt>
      <trkpt lat="43.94196" lon="1.85911">
        <ele>225.8</ele>
        <time>2022-10-12T10:43:09Z</time>
      </trkpt>
      <trkpt lat="43.94197" lon="1.85912">
        <ele>226</ele>
        <time>2022-10-12T10:43:10Z</time>
      </trkpt>
      <trkpt lat="43.94198" lon="1.85912">
        <ele>226.4</ele>
        <time>2022-10-12T10:43:11Z</time>
      </trkpt>
      <trkpt lat="43.94199" lon="1.85913">
        <ele>226.4</ele>
        <time>2022-10-12T10:43:12Z</time>
      </trkpt>
      <trkpt lat="43.942" lon="1.85913">
        <ele>226.6</ele>
        <time>2022-10-12T10:43:13Z</time>
      </trkpt>
      <trkpt lat="43.94201" lon="1.85913">
        <ele>226.6</ele>
        <time>2022-10-12T10:43:14Z</time>
      </trkpt>
      <trkpt lat="43.94202" lon="1.85914">
        <ele>227</ele>
        <time>2022-10-12T10:43:15Z</time>
      </trkpt>
      <trkpt lat="43.94204" lon="1.85914">
        <ele>227.2</ele>
        <time>2022-10-12T10:43:16Z</time>
      </trkpt>
      <trkpt lat="43.94205" lon="1.85914">
        <ele>227.4</ele>
        <time>2022-10-12T10:43:17Z</time>
      </trkpt>
      <trkpt lat="43.94206" lon="1.85914">
        <ele>227.6</ele>
        <time>2022-10-12T10:43:18Z</time>
      </trkpt>
      <trkpt lat="43.94207" lon="1.85914">
        <ele>227.8</ele>
        <time>2022-10-12T10:43:19Z</time>
      </trkpt>
      <trkpt lat="43.94208" lon="1.85914">
        <ele>227.8</ele>
        <time>2022-10-12T10:43:20Z</time>
      </trkpt>
      <trkpt lat="43.94209" lon="1.85914">
        <ele>228</ele>
        <time>2022-10-12T10:43:21Z</time>
      </trkpt>
      <trkpt lat="43.94211" lon="1.85913">
        <ele>228.2</ele>
        <time>2022-10-12T10:43:22Z</time>
      </trkpt>
      <trkpt lat="43.94212" lon="1.85912">
        <ele>228.2</ele>
        <time>2022-10-12T10:43:23Z</time>
      </trkpt>
      <trkpt lat="43.94213" lon="1.85911">
        <ele>228.2</ele>
        <time>2022-10-12T10:43:24Z</time>
      </trkpt>
      <trkpt lat="43.94214" lon="1.8591">
        <ele>228.4</ele>
        <time>2022-10-12T10:43:25Z</time>
      </trkpt>
      <trkpt lat="43.94216" lon="1.85909">
        <ele>228.6</ele>
        <time>2022-10-12T10:43:26Z</time>
      </trkpt>
      <trkpt lat="43.94217" lon="1.85909">
        <ele>228.8</ele>
        <time>2022-10-12T10:43:27Z</time>
      </trkpt>
      <trkpt lat="43.94218" lon="1.85908">
        <ele>229</ele>
        <time>2022-10-12T10:43:28Z</time>
      </trkpt>
      <trkpt lat="43.94219" lon="1.85907">
        <ele>229.2</ele>
        <time>2022-10-12T10:43:29Z</time>
      </trkpt>
      <trkpt lat="43.9422" lon="1.85906">
        <ele>229.4</ele>
        <time>2022-10-12T10:43:30Z</time>
      </trkpt>
      <trkpt lat="43.94221" lon="1.85905">
        <ele>229.6</ele>
        <time>2022-10-12T10:43:31Z</time>
      </trkpt>
      <trkpt lat="43.94223" lon="1.85904">
        <ele>229.6</ele>
        <time>2022-10-12T10:43:32Z</time>
      </trkpt>
      <trkpt lat="43.94224" lon="1.85904">
        <ele>229.8</ele>
        <time>2022-10-12T10:43:33Z</time>
      </trkpt>
      <trkpt lat="43.94226" lon="1.85903">
        <ele>230</ele>
        <time>2022-10-12T10:43:34Z</time>
      </trkpt>
      <trkpt lat="43.94228" lon="1.85903">
        <ele>230.2</ele>
        <time>2022-10-12T10:43:35Z</time>
      </trkpt>
      <trkpt lat="43.94229" lon="1.85903">
        <ele>230.2</ele>
        <time>2022-10-12T10:43:36Z</time>
      </trkpt>
      <trkpt lat="43.94231" lon="1.85903">
        <ele>230.4</ele>
        <time>2022-10-12T10:43:37Z</time>
      </trkpt>
      <trkpt lat="43.94233" lon="1.85904">
        <ele>230.6</ele>
        <time>2022-10-12T10:43:38Z</time>
      </trkpt>
      <trkpt lat="43.94235" lon="1.85904">
        <ele>230.6</ele>
        <time>2022-10-12T10:43:39Z</time>
      </trkpt>
      <trkpt lat="43.94236" lon="1.85905">
        <ele>230.8</ele>
        <time>2022-10-12T10:43:40Z</time>
      </trkpt>
      <trkpt lat="43.94238" lon="1.85905">
        <ele>230.8</ele>
        <time>2022-10-12T10:43:41Z</time>
      </trkpt>
      <trkpt lat="43.94239" lon="1.85905">
        <ele>231</ele>
        <time>2022-10-12T10:43:42Z</time>
      </trkpt>
      <trkpt lat="43.94241" lon="1.85905">
        <ele>231.2</ele>
        <time>2022-10-12T10:43:43Z</time>
      </trkpt>
      <trkpt lat="43.94243" lon="1.85905">
        <ele>231.2</ele>
        <time>2022-10-12T10:43:44Z</time>
      </trkpt>
      <trkpt lat="43.94245" lon="1.85905">
        <ele>231.4</ele>
        <time>2022-10-12T10:43:45Z</time>
      </trkpt>
      <trkpt lat="43.94247" lon="1.85906">
        <ele>231.2</ele>
        <time>2022-10-12T10:43:46Z</time>
      </trkpt>
      <trkpt lat="43.94249" lon="1.85906">
        <ele>231.4</ele>
        <time>2022-10-12T10:43:47Z</time>
      </trkpt>
      <trkpt lat="43.9425" lon="1.85906">
        <ele>231.4</ele>
        <time>2022-10-12T10:43:48Z</time>
      </trkpt>
      <trkpt lat="43.94252" lon="1.85906">
        <ele>231.8</ele>
        <time>2022-10-12T10:43:49Z</time>
      </trkpt>
      <trkpt lat="43.94254" lon="1.85906">
        <ele>231.6</ele>
        <time>2022-10-12T10:43:50Z</time>
      </trkpt>
      <trkpt lat="43.94256" lon="1.85906">
        <ele>231.8</ele>
        <time>2022-10-12T10:43:51Z</time>
      </trkpt>
      <trkpt lat="43.94257" lon="1.85907">
        <ele>232</ele>
        <time>2022-10-12T10:43:52Z</time>
      </trkpt>
      <trkpt lat="43.94259" lon="1.85907">
        <ele>232</ele>
        <time>2022-10-12T10:43:53Z</time>
      </trkpt>
      <trkpt lat="43.9426" lon="1.85907">
        <ele>232</ele>
        <time>2022-10-12T10:43:54Z</time>
      </trkpt>
      <trkpt lat="43.94262" lon="1.85907">
        <ele>232.2</ele>
        <time>2022-10-12T10:43:55Z</time>
      </trkpt>
      <trkpt lat="43.94263" lon="1.85906">
        <ele>232.2</ele>
        <time>2022-10-12T10:43:56Z</time>
      </trkpt>
      <trkpt lat="43.94266" lon="1.85906">
        <ele>232.6</ele>
        <time>2022-10-12T10:43:57Z</time>
      </trkpt>
      <trkpt lat="43.94267" lon="1.85906">
        <ele>232.6</ele>
        <time>2022-10-12T10:43:58Z</time>
      </trkpt>
      <trkpt lat="43.94269" lon="1.85906">
        <ele>232.8</ele>
        <time>2022-10-12T10:43:59Z</time>
      </trkpt>
      <trkpt lat="43.9427" lon="1.85907">
        <ele>233</ele>
        <time>2022-10-12T10:44:00Z</time>
      </trkpt>
      <trkpt lat="43.94272" lon="1.85907">
        <ele>233</ele>
        <time>2022-10-12T10:44:01Z</time>
      </trkpt>
      <trkpt lat="43.94274" lon="1.85907">
        <ele>233.2</ele>
        <time>2022-10-12T10:44:02Z</time>
      </trkpt>
      <trkpt lat="43.94275" lon="1.85907">
        <ele>233.2</ele>
        <time>2022-10-12T10:44:03Z</time>
      </trkpt>
      <trkpt lat="43.94277" lon="1.85907">
        <ele>233.4</ele>
        <time>2022-10-12T10:44:04Z</time>
      </trkpt>
      <trkpt lat="43.94278" lon="1.85907">
        <ele>233.6</ele>
        <time>2022-10-12T10:44:05Z</time>
      </trkpt>
      <trkpt lat="43.9428" lon="1.85907">
        <ele>233.8</ele>
        <time>2022-10-12T10:44:06Z</time>
      </trkpt>
      <trkpt lat="43.94281" lon="1.85908">
        <ele>233.8</ele>
        <time>2022-10-12T10:44:07Z</time>
      </trkpt>
      <trkpt lat="43.94283" lon="1.85908">
        <ele>234</ele>
        <time>2022-10-12T10:44:08Z</time>
      </trkpt>
      <trkpt lat="43.94284" lon="1.85908">
        <ele>234</ele>
        <time>2022-10-12T10:44:09Z</time>
      </trkpt>
      <trkpt lat="43.94286" lon="1.85908">
        <ele>234.2</ele>
        <time>2022-10-12T10:44:10Z</time>
      </trkpt>
      <trkpt lat="43.94287" lon="1.85908">
        <ele>234.4</ele>
        <time>2022-10-12T10:44:11Z</time>
      </trkpt>
      <trkpt lat="43.94289" lon="1.85908">
        <ele>234.8</ele>
        <time>2022-10-12T10:44:12Z</time>
      </trkpt>
      <trkpt lat="43.94291" lon="1.85908">
        <ele>235</ele>
        <time>2022-10-12T10:44:13Z</time>
      </trkpt>
      <trkpt lat="43.94292" lon="1.85908">
        <ele>235</ele>
        <time>2022-10-12T10:44:14Z</time>
      </trkpt>
      <trkpt lat="43.94294" lon="1.85908">
        <ele>235.4</ele>
        <time>2022-10-12T10:44:15Z</time>
      </trkpt>
      <trkpt lat="43.94295" lon="1.85909">
        <ele>235.4</ele>
        <time>2022-10-12T10:44:16Z</time>
      </trkpt>
      <trkpt lat="43.94297" lon="1.85909">
        <ele>235.8</ele>
        <time>2022-10-12T10:44:17Z</time>
      </trkpt>
      <trkpt lat="43.94298" lon="1.85909">
        <ele>236</ele>
        <time>2022-10-12T10:44:18Z</time>
      </trkpt>
      <trkpt lat="43.94299" lon="1.85909">
        <ele>236.2</ele>
        <time>2022-10-12T10:44:19Z</time>
      </trkpt>
      <trkpt lat="43.94301" lon="1.85909">
        <ele>236.4</ele>
        <time>2022-10-12T10:44:20Z</time>
      </trkpt>
      <trkpt lat="43.94302" lon="1.85909">
        <ele>236.8</ele>
        <time>2022-10-12T10:44:21Z</time>
      </trkpt>
      <trkpt lat="43.94304" lon="1.85909">
        <ele>237.4</ele>
        <time>2022-10-12T10:44:22Z</time>
      </trkpt>
      <trkpt lat="43.94305" lon="1.85909">
        <ele>237.6</ele>
        <time>2022-10-12T10:44:23Z</time>
      </trkpt>
      <trkpt lat="43.94307" lon="1.8591">
        <ele>238</ele>
        <time>2022-10-12T10:44:24Z</time>
      </trkpt>
      <trkpt lat="43.94308" lon="1.8591">
        <ele>238.2</ele>
        <time>2022-10-12T10:44:25Z</time>
      </trkpt>
      <trkpt lat="43.9431" lon="1.8591">
        <ele>238.6</ele>
        <time>2022-10-12T10:44:26Z</time>
      </trkpt>
      <trkpt lat="43.94311" lon="1.8591">
        <ele>238.8</ele>
        <time>2022-10-12T10:44:27Z</time>
      </trkpt>
      <trkpt lat="43.94313" lon="1.85911">
        <ele>239</ele>
        <time>2022-10-12T10:44:28Z</time>
      </trkpt>
      <trkpt lat="43.94314" lon="1.85911">
        <ele>239.4</ele>
        <time>2022-10-12T10:44:29Z</time>
      </trkpt>
      <trkpt lat="43.94316" lon="1.85911">
        <ele>239.6</ele>
        <time>2022-10-12T10:44:30Z</time>
      </trkpt>
      <trkpt lat="43.94317" lon="1.85912">
        <ele>239.8</ele>
        <time>2022-10-12T10:44:31Z</time>
      </trkpt>
      <trkpt lat="43.94319" lon="1.85912">
        <ele>240</ele>
        <time>2022-10-12T10:44:32Z</time>
      </trkpt>
      <trkpt lat="43.9432" lon="1.85912">
        <ele>240.4</ele>
        <time>2022-10-12T10:44:33Z</time>
      </trkpt>
      <trkpt lat="43.94322" lon="1.85912">
        <ele>240.4</ele>
        <time>2022-10-12T10:44:34Z</time>
      </trkpt>
      <trkpt lat="43.94323" lon="1.85912">
        <ele>240.8</ele>
        <time>2022-10-12T10:44:35Z</time>
      </trkpt>
      <trkpt lat="43.94324" lon="1.85912">
        <ele>241</ele>
        <time>2022-10-12T10:44:36Z</time>
      </trkpt>
      <trkpt lat="43.94326" lon="1.85912">
        <ele>241.2</ele>
        <time>2022-10-12T10:44:37Z</time>
      </trkpt>
      <trkpt lat="43.94327" lon="1.85912">
        <ele>241.8</ele>
        <time>2022-10-12T10:44:38Z</time>
      </trkpt>
      <trkpt lat="43.94328" lon="1.85912">
        <ele>242</ele>
        <time>2022-10-12T10:44:39Z</time>
      </trkpt>
      <trkpt lat="43.94329" lon="1.85912">
        <ele>242.2</ele>
        <time>2022-10-12T10:44:40Z</time>
      </trkpt>
      <trkpt lat="43.94331" lon="1.85912">
        <ele>242.2</ele>
        <time>2022-10-12T10:44:41Z</time>
      </trkpt>
      <trkpt lat="43.94332" lon="1.85911">
        <ele>242.4</ele>
        <time>2022-10-12T10:44:42Z</time>
      </trkpt>
      <trkpt lat="43.94333" lon="1.85911">
        <ele>242.6</ele>
        <time>2022-10-12T10:44:43Z</time>
      </trkpt>
      <trkpt lat="43.94335" lon="1.8591">
        <ele>242.8</ele>
        <time>2022-10-12T10:44:44Z</time>
      </trkpt>
      <trkpt lat="43.94336" lon="1.8591">
        <ele>243.2</ele>
        <time>2022-10-12T10:44:45Z</time>
      </trkpt>
      <trkpt lat="43.94338" lon="1.8591">
        <ele>243.6</ele>
        <time>2022-10-12T10:44:46Z</time>
      </trkpt>
      <trkpt lat="43.94339" lon="1.85909">
        <ele>243.8</ele>
        <time>2022-10-12T10:44:47Z</time>
      </trkpt>
      <trkpt lat="43.9434" lon="1.85909">
        <ele>244</ele>
        <time>2022-10-12T10:44:48Z</time>
      </trkpt>
      <trkpt lat="43.94341" lon="1.85909">
        <ele>244.4</ele>
        <time>2022-10-12T10:44:49Z</time>
      </trkpt>
      <trkpt lat="43.94343" lon="1.85908">
        <ele>244.4</ele>
        <time>2022-10-12T10:44:50Z</time>
      </trkpt>
      <trkpt lat="43.94344" lon="1.85908">
        <ele>244.6</ele>
        <time>2022-10-12T10:44:51Z</time>
      </trkpt>
      <trkpt lat="43.94345" lon="1.85908">
        <ele>244.4</ele>
        <time>2022-10-12T10:44:52Z</time>
      </trkpt>
      <trkpt lat="43.94347" lon="1.85907">
        <ele>244.8</ele>
        <time>2022-10-12T10:44:53Z</time>
      </trkpt>
      <trkpt lat="43.94349" lon="1.85907">
        <ele>245.2</ele>
        <time>2022-10-12T10:44:54Z</time>
      </trkpt>
      <trkpt lat="43.9435" lon="1.85906">
        <ele>245.4</ele>
        <time>2022-10-12T10:44:55Z</time>
      </trkpt>
      <trkpt lat="43.94351" lon="1.85906">
        <ele>245.6</ele>
        <time>2022-10-12T10:44:56Z</time>
      </trkpt>
      <trkpt lat="43.94353" lon="1.85906">
        <ele>245.8</ele>
        <time>2022-10-12T10:44:57Z</time>
      </trkpt>
      <trkpt lat="43.94354" lon="1.85906">
        <ele>246</ele>
        <time>2022-10-12T10:44:58Z</time>
      </trkpt>
      <trkpt lat="43.94355" lon="1.85906">
        <ele>246.4</ele>
        <time>2022-10-12T10:44:59Z</time>
      </trkpt>
      <trkpt lat="43.94357" lon="1.85905">
        <ele>246.8</ele>
        <time>2022-10-12T10:45:00Z</time>
      </trkpt>
      <trkpt lat="43.94359" lon="1.85905">
        <ele>247</ele>
        <time>2022-10-12T10:45:01Z</time>
      </trkpt>
      <trkpt lat="43.94361" lon="1.85904">
        <ele>247.2</ele>
        <time>2022-10-12T10:45:02Z</time>
      </trkpt>
      <trkpt lat="43.94362" lon="1.85904">
        <ele>247.6</ele>
        <time>2022-10-12T10:45:03Z</time>
      </trkpt>
      <trkpt lat="43.94363" lon="1.85904">
        <ele>247.6</ele>
        <time>2022-10-12T10:45:04Z</time>
      </trkpt>
      <trkpt lat="43.94364" lon="1.85903">
        <ele>247.8</ele>
        <time>2022-10-12T10:45:05Z</time>
      </trkpt>
      <trkpt lat="43.94366" lon="1.85903">
        <ele>248</ele>
        <time>2022-10-12T10:45:06Z</time>
      </trkpt>
      <trkpt lat="43.94368" lon="1.85903">
        <ele>248.2</ele>
        <time>2022-10-12T10:45:07Z</time>
      </trkpt>
      <trkpt lat="43.94369" lon="1.85903">
        <ele>248.4</ele>
        <time>2022-10-12T10:45:08Z</time>
      </trkpt>
      <trkpt lat="43.94371" lon="1.85903">
        <ele>248.6</ele>
        <time>2022-10-12T10:45:09Z</time>
      </trkpt>
      <trkpt lat="43.94373" lon="1.85903">
        <ele>248.8</ele>
        <time>2022-10-12T10:45:10Z</time>
      </trkpt>
      <trkpt lat="43.94375" lon="1.85903">
        <ele>249</ele>
        <time>2022-10-12T10:45:11Z</time>
      </trkpt>
      <trkpt lat="43.94376" lon="1.85903">
        <ele>249.4</ele>
        <time>2022-10-12T10:45:12Z</time>
      </trkpt>
      <trkpt lat="43.94377" lon="1.85903">
        <ele>249.6</ele>
        <time>2022-10-12T10:45:13Z</time>
      </trkpt>
      <trkpt lat="43.94379" lon="1.85904">
        <ele>250</ele>
        <time>2022-10-12T10:45:14Z</time>
      </trkpt>
      <trkpt lat="43.9438" lon="1.85904">
        <ele>250.2</ele>
        <time>2022-10-12T10:45:15Z</time>
      </trkpt>
      <trkpt lat="43.94382" lon="1.85904">
        <ele>250.4</ele>
        <time>2022-10-12T10:45:16Z</time>
      </trkpt>
      <trkpt lat="43.94383" lon="1.85904">
        <ele>250.6</ele>
        <time>2022-10-12T10:45:17Z</time>
      </trkpt>
      <trkpt lat="43.94385" lon="1.85905">
        <ele>250.8</ele>
        <time>2022-10-12T10:45:18Z</time>
      </trkpt>
      <trkpt lat="43.94386" lon="1.85906">
        <ele>251</ele>
        <time>2022-10-12T10:45:19Z</time>
      </trkpt>
      <trkpt lat="43.94388" lon="1.85906">
        <ele>251.2</ele>
        <time>2022-10-12T10:45:20Z</time>
      </trkpt>
      <trkpt lat="43.94389" lon="1.85907">
        <ele>251.6</ele>
        <time>2022-10-12T10:45:21Z</time>
      </trkpt>
      <trkpt lat="43.94391" lon="1.85907">
        <ele>251.8</ele>
        <time>2022-10-12T10:45:22Z</time>
      </trkpt>
      <trkpt lat="43.94392" lon="1.85908">
        <ele>252.2</ele>
        <time>2022-10-12T10:45:23Z</time>
      </trkpt>
      <trkpt lat="43.94394" lon="1.85908">
        <ele>252.4</ele>
        <time>2022-10-12T10:45:24Z</time>
      </trkpt>
      <trkpt lat="43.94395" lon="1.85908">
        <ele>252.8</ele>
        <time>2022-10-12T10:45:25Z</time>
      </trkpt>
      <trkpt lat="43.94396" lon="1.85909">
        <ele>253</ele>
        <time>2022-10-12T10:45:26Z</time>
      </trkpt>
      <trkpt lat="43.94397" lon="1.85909">
        <ele>253</ele>
        <time>2022-10-12T10:45:27Z</time>
      </trkpt>
      <trkpt lat="43.94399" lon="1.8591">
        <ele>253.4</ele>
        <time>2022-10-12T10:45:28Z</time>
      </trkpt>
      <trkpt lat="43.944" lon="1.8591">
        <ele>253.6</ele>
        <time>2022-10-12T10:45:29Z</time>
      </trkpt>
      <trkpt lat="43.94402" lon="1.85911">
        <ele>253.8</ele>
        <time>2022-10-12T10:45:30Z</time>
      </trkpt>
      <trkpt lat="43.94403" lon="1.85911">
        <ele>253.8</ele>
        <time>2022-10-12T10:45:31Z</time>
      </trkpt>
      <trkpt lat="43.94404" lon="1.85911">
        <ele>254</ele>
        <time>2022-10-12T10:45:32Z</time>
      </trkpt>
      <trkpt lat="43.94406" lon="1.85911">
        <ele>254.2</ele>
        <time>2022-10-12T10:45:33Z</time>
      </trkpt>
      <trkpt lat="43.94407" lon="1.85911">
        <ele>254.4</ele>
        <time>2022-10-12T10:45:34Z</time>
      </trkpt>
      <trkpt lat="43.94409" lon="1.85911">
        <ele>254.6</ele>
        <time>2022-10-12T10:45:35Z</time>
      </trkpt>
      <trkpt lat="43.9441" lon="1.85911">
        <ele>255</ele>
        <time>2022-10-12T10:45:36Z</time>
      </trkpt>
      <trkpt lat="43.94411" lon="1.8591">
        <ele>255.4</ele>
        <time>2022-10-12T10:45:37Z</time>
      </trkpt>
      <trkpt lat="43.94412" lon="1.8591">
        <ele>255.8</ele>
        <time>2022-10-12T10:45:38Z</time>
      </trkpt>
      <trkpt lat="43.94414" lon="1.85909">
        <ele>256</ele>
        <time>2022-10-12T10:45:39Z</time>
      </trkpt>
      <trkpt lat="43.94415" lon="1.85909">
        <ele>256.2</ele>
        <time>2022-10-12T10:45:40Z</time>
      </trkpt>
      <trkpt lat="43.94417" lon="1.85909">
        <ele>256.6</ele>
        <time>2022-10-12T10:45:41Z</time>
      </trkpt>
      <trkpt lat="43.94418" lon="1.85908">
        <ele>257.2</ele>
        <time>2022-10-12T10:45:42Z</time>
      </trkpt>
      <trkpt lat="43.94419" lon="1.85908">
        <ele>257.4</ele>
        <time>2022-10-12T10:45:43Z</time>
      </trkpt>
      <trkpt lat="43.94421" lon="1.85908">
        <ele>257.8</ele>
        <time>2022-10-12T10:45:44Z</time>
      </trkpt>
      <trkpt lat="43.94422" lon="1.85908">
        <ele>258</ele>
        <time>2022-10-12T10:45:45Z</time>
      </trkpt>
      <trkpt lat="43.94423" lon="1.85907">
        <ele>258.4</ele>
        <time>2022-10-12T10:45:46Z</time>
      </trkpt>
      <trkpt lat="43.94425" lon="1.85907">
        <ele>258.6</ele>
        <time>2022-10-12T10:45:47Z</time>
      </trkpt>
      <trkpt lat="43.94426" lon="1.85907">
        <ele>259.2</ele>
        <time>2022-10-12T10:45:48Z</time>
      </trkpt>
      <trkpt lat="43.94428" lon="1.85907">
        <ele>259.6</ele>
        <time>2022-10-12T10:45:49Z</time>
      </trkpt>
      <trkpt lat="43.94429" lon="1.85907">
        <ele>259.8</ele>
        <time>2022-10-12T10:45:50Z</time>
      </trkpt>
      <trkpt lat="43.94431" lon="1.85907">
        <ele>260</ele>
        <time>2022-10-12T10:45:51Z</time>
      </trkpt>
      <trkpt lat="43.94433" lon="1.85907">
        <ele>260.4</ele>
        <time>2022-10-12T10:45:52Z</time>
      </trkpt>
      <trkpt lat="43.94435" lon="1.85907">
        <ele>261</ele>
        <time>2022-10-12T10:45:53Z</time>
      </trkpt>
      <trkpt lat="43.94436" lon="1.85907">
        <ele>261</ele>
        <time>2022-10-12T10:45:54Z</time>
      </trkpt>
      <trkpt lat="43.94438" lon="1.85907">
        <ele>261.4</ele>
        <time>2022-10-12T10:45:55Z</time>
      </trkpt>
      <trkpt lat="43.94439" lon="1.85907">
        <ele>261.6</ele>
        <time>2022-10-12T10:45:56Z</time>
      </trkpt>
      <trkpt lat="43.94441" lon="1.85907">
        <ele>261.8</ele>
        <time>2022-10-12T10:45:57Z</time>
      </trkpt>
      <trkpt lat="43.94442" lon="1.85907">
        <ele>262.2</ele>
        <time>2022-10-12T10:45:58Z</time>
      </trkpt>
      <trkpt lat="43.94444" lon="1.85907">
        <ele>262.4</ele>
        <time>2022-10-12T10:45:59Z</time>
      </trkpt>
      <trkpt lat="43.94445" lon="1.85907">
        <ele>262.8</ele>
        <time>2022-10-12T10:46:00Z</time>
      </trkpt>
      <trkpt lat="43.94447" lon="1.85907">
        <ele>263</ele>
        <time>2022-10-12T10:46:01Z</time>
      </trkpt>
      <trkpt lat="43.94448" lon="1.85907">
        <ele>263.2</ele>
        <time>2022-10-12T10:46:02Z</time>
      </trkpt>
      <trkpt lat="43.94449" lon="1.85907">
        <ele>263.4</ele>
        <time>2022-10-12T10:46:03Z</time>
      </trkpt>
      <trkpt lat="43.94451" lon="1.85908">
        <ele>263.6</ele>
        <time>2022-10-12T10:46:04Z</time>
      </trkpt>
      <trkpt lat="43.94453" lon="1.85908">
        <ele>263.8</ele>
        <time>2022-10-12T10:46:05Z</time>
      </trkpt>
      <trkpt lat="43.94454" lon="1.85909">
        <ele>264</ele>
        <time>2022-10-12T10:46:06Z</time>
      </trkpt>
      <trkpt lat="43.94456" lon="1.85909">
        <ele>264.2</ele>
        <time>2022-10-12T10:46:07Z</time>
      </trkpt>
      <trkpt lat="43.94457" lon="1.8591">
        <ele>264.2</ele>
        <time>2022-10-12T10:46:08Z</time>
      </trkpt>
      <trkpt lat="43.94459" lon="1.85911">
        <ele>264.4</ele>
        <time>2022-10-12T10:46:09Z</time>
      </trkpt>
      <trkpt lat="43.94461" lon="1.85912">
        <ele>264.4</ele>
        <time>2022-10-12T10:46:10Z</time>
      </trkpt>
      <trkpt lat="43.94462" lon="1.85913">
        <ele>264.6</ele>
        <time>2022-10-12T10:46:11Z</time>
      </trkpt>
      <trkpt lat="43.94464" lon="1.85915">
        <ele>264.6</ele>
        <time>2022-10-12T10:46:12Z</time>
      </trkpt>
      <trkpt lat="43.94466" lon="1.85917">
        <ele>264.6</ele>
        <time>2022-10-12T10:46:13Z</time>
      </trkpt>
      <trkpt lat="43.94468" lon="1.8592">
        <ele>264.6</ele>
        <time>2022-10-12T10:46:14Z</time>
      </trkpt>
      <trkpt lat="43.94471" lon="1.85923">
        <ele>264.6</ele>
        <time>2022-10-12T10:46:15Z</time>
      </trkpt>
      <trkpt lat="43.94473" lon="1.85926">
        <ele>264.6</ele>
        <time>2022-10-12T10:46:16Z</time>
      </trkpt>
      <trkpt lat="43.94476" lon="1.8593">
        <ele>264.6</ele>
        <time>2022-10-12T10:46:17Z</time>
      </trkpt>
      <trkpt lat="43.94478" lon="1.85933">
        <ele>264.6</ele>
        <time>2022-10-12T10:46:18Z</time>
      </trkpt>
      <trkpt lat="43.94481" lon="1.85937">
        <ele>264.6</ele>
        <time>2022-10-12T10:46:19Z</time>
      </trkpt>
      <trkpt lat="43.94484" lon="1.85942">
        <ele>264.6</ele>
        <time>2022-10-12T10:46:20Z</time>
      </trkpt>
      <trkpt lat="43.94487" lon="1.85946">
        <ele>264.6</ele>
        <time>2022-10-12T10:46:21Z</time>
      </trkpt>
      <trkpt lat="43.9449" lon="1.85952">
        <ele>264.6</ele>
        <time>2022-10-12T10:46:22Z</time>
      </trkpt>
      <trkpt lat="43.94493" lon="1.85957">
        <ele>264.4</ele>
        <time>2022-10-12T10:46:23Z</time>
      </trkpt>
      <trkpt lat="43.94497" lon="1.85963">
        <ele>264.2</ele>
        <time>2022-10-12T10:46:24Z</time>
      </trkpt>
      <trkpt lat="43.945" lon="1.85968">
        <ele>264.2</ele>
        <time>2022-10-12T10:46:25Z</time>
      </trkpt>
      <trkpt lat="43.94503" lon="1.85974">
        <ele>264</ele>
        <time>2022-10-12T10:46:26Z</time>
      </trkpt>
      <trkpt lat="43.94507" lon="1.85979">
        <ele>263.8</ele>
        <time>2022-10-12T10:46:27Z</time>
      </trkpt>
      <trkpt lat="43.94511" lon="1.85984">
        <ele>263.8</ele>
        <time>2022-10-12T10:46:28Z</time>
      </trkpt>
      <trkpt lat="43.94515" lon="1.85989">
        <ele>263.8</ele>
        <time>2022-10-12T10:46:29Z</time>
      </trkpt>
      <trkpt lat="43.94519" lon="1.85993">
        <ele>263.6</ele>
        <time>2022-10-12T10:46:30Z</time>
      </trkpt>
      <trkpt lat="43.94523" lon="1.85996">
        <ele>263.6</ele>
        <time>2022-10-12T10:46:31Z</time>
      </trkpt>
      <trkpt lat="43.94525" lon="1.86">
        <ele>263.4</ele>
        <time>2022-10-12T10:46:32Z</time>
      </trkpt>
      <trkpt lat="43.94528" lon="1.86003">
        <ele>263.2</ele>
        <time>2022-10-12T10:46:33Z</time>
      </trkpt>
      <trkpt lat="43.9453" lon="1.86006">
        <ele>263.2</ele>
        <time>2022-10-12T10:46:34Z</time>
      </trkpt>
      <trkpt lat="43.94532" lon="1.86008">
        <ele>263</ele>
        <time>2022-10-12T10:46:35Z</time>
      </trkpt>
      <trkpt lat="43.94534" lon="1.8601">
        <ele>263</ele>
        <time>2022-10-12T10:46:36Z</time>
      </trkpt>
      <trkpt lat="43.94536" lon="1.86011">
        <ele>262.8</ele>
        <time>2022-10-12T10:46:37Z</time>
      </trkpt>
      <trkpt lat="43.94538" lon="1.86012">
        <ele>262.8</ele>
        <time>2022-10-12T10:46:38Z</time>
      </trkpt>
      <trkpt lat="43.9454" lon="1.86013">
        <ele>262.8</ele>
        <time>2022-10-12T10:46:39Z</time>
      </trkpt>
      <trkpt lat="43.94545" lon="1.86016">
        <ele>262.8</ele>
        <time>2022-10-12T10:46:41Z</time>
      </trkpt>
      <trkpt lat="43.94548" lon="1.86018">
        <ele>262.8</ele>
        <time>2022-10-12T10:46:42Z</time>
      </trkpt>
      <trkpt lat="43.9455" lon="1.86019">
        <ele>262.8</ele>
        <time>2022-10-12T10:46:43Z</time>
      </trkpt>
      <trkpt lat="43.94552" lon="1.8602">
        <ele>262.8</ele>
        <time>2022-10-12T10:46:44Z</time>
      </trkpt>
      <trkpt lat="43.94555" lon="1.86021">
        <ele>263</ele>
        <time>2022-10-12T10:46:45Z</time>
      </trkpt>
      <trkpt lat="43.94559" lon="1.86024">
        <ele>263</ele>
        <time>2022-10-12T10:46:47Z</time>
      </trkpt>
      <trkpt lat="43.94578" lon="1.86035">
        <ele>264</ele>
        <time>2022-10-12T10:46:55Z</time>
      </trkpt>
      <trkpt lat="43.94585" lon="1.86039">
        <ele>264.4</ele>
        <time>2022-10-12T10:46:58Z</time>
      </trkpt>
      <trkpt lat="43.9459" lon="1.86042">
        <ele>264.6</ele>
        <time>2022-10-12T10:47:00Z</time>
      </trkpt>
      <trkpt lat="43.94592" lon="1.86044">
        <ele>264.8</ele>
        <time>2022-10-12T10:47:01Z</time>
      </trkpt>
      <trkpt lat="43.946" lon="1.86048">
        <ele>265.6</ele>
        <time>2022-10-12T10:47:04Z</time>
      </trkpt>
      <trkpt lat="43.94602" lon="1.86049">
        <ele>265.6</ele>
        <time>2022-10-12T10:47:05Z</time>
      </trkpt>
      <trkpt lat="43.9461" lon="1.86052">
        <ele>266.2</ele>
        <time>2022-10-12T10:47:08Z</time>
      </trkpt>
      <trkpt lat="43.94612" lon="1.86053">
        <ele>266.6</ele>
        <time>2022-10-12T10:47:09Z</time>
      </trkpt>
      <trkpt lat="43.94615" lon="1.86054">
        <ele>266.6</ele>
        <time>2022-10-12T10:47:10Z</time>
      </trkpt>
      <trkpt lat="43.94617" lon="1.86055">
        <ele>266.8</ele>
        <time>2022-10-12T10:47:11Z</time>
      </trkpt>
      <trkpt lat="43.9462" lon="1.86056">
        <ele>266.8</ele>
        <time>2022-10-12T10:47:12Z</time>
      </trkpt>
      <trkpt lat="43.94623" lon="1.86057">
        <ele>267</ele>
        <time>2022-10-12T10:47:13Z</time>
      </trkpt>
      <trkpt lat="43.94625" lon="1.86058">
        <ele>267.2</ele>
        <time>2022-10-12T10:47:14Z</time>
      </trkpt>
      <trkpt lat="43.94628" lon="1.86059">
        <ele>267.2</ele>
        <time>2022-10-12T10:47:15Z</time>
      </trkpt>
      <trkpt lat="43.94631" lon="1.8606">
        <ele>267.4</ele>
        <time>2022-10-12T10:47:16Z</time>
      </trkpt>
      <trkpt lat="43.94631" lon="1.8606">
        <ele>267.4</ele>
        <time>2022-10-12T10:47:17Z</time>
      </trkpt>
      <trkpt lat="43.94637" lon="1.86062">
        <ele>267.6</ele>
        <time>2022-10-12T10:47:18Z</time>
      </trkpt>
      <trkpt lat="43.9464" lon="1.86062">
        <ele>267.6</ele>
        <time>2022-10-12T10:47:19Z</time>
      </trkpt>
      <trkpt lat="43.9464" lon="1.86062">
        <ele>267.6</ele>
        <time>2022-10-12T10:47:20Z</time>
      </trkpt>
      <trkpt lat="43.94647" lon="1.86063">
        <ele>267.6</ele>
        <time>2022-10-12T10:47:21Z</time>
      </trkpt>
      <trkpt lat="43.94651" lon="1.86064">
        <ele>267.8</ele>
        <time>2022-10-12T10:47:22Z</time>
      </trkpt>
      <trkpt lat="43.94654" lon="1.86065">
        <ele>267.8</ele>
        <time>2022-10-12T10:47:23Z</time>
      </trkpt>
      <trkpt lat="43.94658" lon="1.86066">
        <ele>267.8</ele>
        <time>2022-10-12T10:47:24Z</time>
      </trkpt>
      <trkpt lat="43.94661" lon="1.86067">
        <ele>267.8</ele>
        <time>2022-10-12T10:47:25Z</time>
      </trkpt>
      <trkpt lat="43.94665" lon="1.86067">
        <ele>267.8</ele>
        <time>2022-10-12T10:47:26Z</time>
      </trkpt>
      <trkpt lat="43.94669" lon="1.86068">
        <ele>267.8</ele>
        <time>2022-10-12T10:47:27Z</time>
      </trkpt>
      <trkpt lat="43.94673" lon="1.86069">
        <ele>268</ele>
        <time>2022-10-12T10:47:28Z</time>
      </trkpt>
      <trkpt lat="43.94676" lon="1.8607">
        <ele>268</ele>
        <time>2022-10-12T10:47:29Z</time>
      </trkpt>
      <trkpt lat="43.9468" lon="1.8607">
        <ele>268</ele>
        <time>2022-10-12T10:47:30Z</time>
      </trkpt>
      <trkpt lat="43.94685" lon="1.86071">
        <ele>268</ele>
        <time>2022-10-12T10:47:31Z</time>
      </trkpt>
      <trkpt lat="43.94689" lon="1.86072">
        <ele>268</ele>
        <time>2022-10-12T10:47:32Z</time>
      </trkpt>
      <trkpt lat="43.94694" lon="1.86073">
        <ele>268</ele>
        <time>2022-10-12T10:47:33Z</time>
      </trkpt>
      <trkpt lat="43.94718" lon="1.86077">
        <ele>267.8</ele>
        <time>2022-10-12T10:47:38Z</time>
      </trkpt>
      <trkpt lat="43.94722" lon="1.86078">
        <ele>267.8</ele>
        <time>2022-10-12T10:47:39Z</time>
      </trkpt>
      <trkpt lat="43.94727" lon="1.86079">
        <ele>267.8</ele>
        <time>2022-10-12T10:47:40Z</time>
      </trkpt>
      <trkpt lat="43.94731" lon="1.8608">
        <ele>267.8</ele>
        <time>2022-10-12T10:47:41Z</time>
      </trkpt>
      <trkpt lat="43.94736" lon="1.86082">
        <ele>267.8</ele>
        <time>2022-10-12T10:47:42Z</time>
      </trkpt>
      <trkpt lat="43.94741" lon="1.86084">
        <ele>267.6</ele>
        <time>2022-10-12T10:47:43Z</time>
      </trkpt>
      <trkpt lat="43.94753" lon="1.8609">
        <ele>267.6</ele>
        <time>2022-10-12T10:47:46Z</time>
      </trkpt>
      <trkpt lat="43.94787" lon="1.8612">
        <ele>267.2</ele>
        <time>2022-10-12T10:47:54Z</time>
      </trkpt>
      <trkpt lat="43.94791" lon="1.86125">
        <ele>267.2</ele>
        <time>2022-10-12T10:47:55Z</time>
      </trkpt>
      <trkpt lat="43.94795" lon="1.86129">
        <ele>267.2</ele>
        <time>2022-10-12T10:47:56Z</time>
      </trkpt>
      <trkpt lat="43.948" lon="1.86134">
        <ele>267</ele>
        <time>2022-10-12T10:47:57Z</time>
      </trkpt>
      <trkpt lat="43.94827" lon="1.8616">
        <ele>266.2</ele>
        <time>2022-10-12T10:48:03Z</time>
      </trkpt>
      <trkpt lat="43.94837" lon="1.8617">
        <ele>266</ele>
        <time>2022-10-12T10:48:05Z</time>
      </trkpt>
      <trkpt lat="43.9486" lon="1.86191">
        <ele>265.4</ele>
        <time>2022-10-12T10:48:09Z</time>
      </trkpt>
      <trkpt lat="43.94881" lon="1.86214">
        <ele>265</ele>
        <time>2022-10-12T10:48:13Z</time>
      </trkpt>
      <trkpt lat="43.94894" lon="1.86234">
        <ele>264.4</ele>
        <time>2022-10-12T10:48:16Z</time>
      </trkpt>
      <trkpt lat="43.949" lon="1.86248">
        <ele>264</ele>
        <time>2022-10-12T10:48:18Z</time>
      </trkpt>
      <trkpt lat="43.94903" lon="1.86257">
        <ele>263.8</ele>
        <time>2022-10-12T10:48:19Z</time>
      </trkpt>
      <trkpt lat="43.94913" lon="1.86282">
        <ele>263</ele>
        <time>2022-10-12T10:48:22Z</time>
      </trkpt>
      <trkpt lat="43.94919" lon="1.86298">
        <ele>262.6</ele>
        <time>2022-10-12T10:48:24Z</time>
      </trkpt>
      <trkpt lat="43.94933" lon="1.86331">
        <ele>262</ele>
        <time>2022-10-12T10:48:28Z</time>
      </trkpt>
      <trkpt lat="43.94943" lon="1.86356">
        <ele>261</ele>
        <time>2022-10-12T10:48:31Z</time>
      </trkpt>
      <trkpt lat="43.94953" lon="1.86381">
        <ele>260.2</ele>
        <time>2022-10-12T10:48:34Z</time>
      </trkpt>
      <trkpt lat="43.94956" lon="1.86389">
        <ele>260</ele>
        <time>2022-10-12T10:48:35Z</time>
      </trkpt>
      <trkpt lat="43.94958" lon="1.86396">
        <ele>260</ele>
        <time>2022-10-12T10:48:36Z</time>
      </trkpt>
      <trkpt lat="43.94961" lon="1.86404">
        <ele>259.8</ele>
        <time>2022-10-12T10:48:37Z</time>
      </trkpt>
      <trkpt lat="43.94964" lon="1.86411">
        <ele>259.6</ele>
        <time>2022-10-12T10:48:38Z</time>
      </trkpt>
      <trkpt lat="43.94967" lon="1.86418">
        <ele>259.4</ele>
        <time>2022-10-12T10:48:39Z</time>
      </trkpt>
      <trkpt lat="43.94967" lon="1.86418">
        <ele>259.2</ele>
        <time>2022-10-12T10:48:40Z</time>
      </trkpt>
      <trkpt lat="43.94972" lon="1.86431">
        <ele>259.2</ele>
        <time>2022-10-12T10:48:41Z</time>
      </trkpt>
      <trkpt lat="43.94975" lon="1.86437">
        <ele>259.2</ele>
        <time>2022-10-12T10:48:42Z</time>
      </trkpt>
      <trkpt lat="43.9498" lon="1.86451">
        <ele>259</ele>
        <time>2022-10-12T10:48:44Z</time>
      </trkpt>
      <trkpt lat="43.9498" lon="1.86451">
        <ele>259.2</ele>
        <time>2022-10-12T10:48:45Z</time>
      </trkpt>
      <trkpt lat="43.94987" lon="1.86464">
        <ele>259.2</ele>
        <time>2022-10-12T10:48:46Z</time>
      </trkpt>
      <trkpt lat="43.94991" lon="1.8647">
        <ele>259.2</ele>
        <time>2022-10-12T10:48:47Z</time>
      </trkpt>
      <trkpt lat="43.94994" lon="1.86476">
        <ele>259.2</ele>
        <time>2022-10-12T10:48:48Z</time>
      </trkpt>
      <trkpt lat="43.94998" lon="1.86481">
        <ele>259.4</ele>
        <time>2022-10-12T10:48:49Z</time>
      </trkpt>
      <trkpt lat="43.95006" lon="1.8649">
        <ele>259.4</ele>
        <time>2022-10-12T10:48:51Z</time>
      </trkpt>
      <trkpt lat="43.95043" lon="1.86523">
        <ele>260.2</ele>
        <time>2022-10-12T10:48:59Z</time>
      </trkpt>
      <trkpt lat="43.95053" lon="1.8653">
        <ele>260.4</ele>
        <time>2022-10-12T10:49:01Z</time>
      </trkpt>
      <trkpt lat="43.95062" lon="1.86538">
        <ele>260.6</ele>
        <time>2022-10-12T10:49:03Z</time>
      </trkpt>
      <trkpt lat="43.95067" lon="1.86542">
        <ele>260.8</ele>
        <time>2022-10-12T10:49:04Z</time>
      </trkpt>
      <trkpt lat="43.95072" lon="1.86546">
        <ele>260.8</ele>
        <time>2022-10-12T10:49:05Z</time>
      </trkpt>
      <trkpt lat="43.95076" lon="1.8655">
        <ele>260.8</ele>
        <time>2022-10-12T10:49:06Z</time>
      </trkpt>
      <trkpt lat="43.9508" lon="1.86554">
        <ele>261</ele>
        <time>2022-10-12T10:49:07Z</time>
      </trkpt>
      <trkpt lat="43.95084" lon="1.86558">
        <ele>261.2</ele>
        <time>2022-10-12T10:49:08Z</time>
      </trkpt>
      <trkpt lat="43.95088" lon="1.86562">
        <ele>261.4</ele>
        <time>2022-10-12T10:49:09Z</time>
      </trkpt>
      <trkpt lat="43.95091" lon="1.86565">
        <ele>261.8</ele>
        <time>2022-10-12T10:49:10Z</time>
      </trkpt>
      <trkpt lat="43.95094" lon="1.86568">
        <ele>262</ele>
        <time>2022-10-12T10:49:11Z</time>
      </trkpt>
      <trkpt lat="43.95097" lon="1.86571">
        <ele>262.4</ele>
        <time>2022-10-12T10:49:12Z</time>
      </trkpt>
      <trkpt lat="43.951" lon="1.86574">
        <ele>262.4</ele>
        <time>2022-10-12T10:49:13Z</time>
      </trkpt>
      <trkpt lat="43.95103" lon="1.86577">
        <ele>262.6</ele>
        <time>2022-10-12T10:49:14Z</time>
      </trkpt>
      <trkpt lat="43.95105" lon="1.8658">
        <ele>263</ele>
        <time>2022-10-12T10:49:15Z</time>
      </trkpt>
      <trkpt lat="43.95108" lon="1.86583">
        <ele>263.4</ele>
        <time>2022-10-12T10:49:16Z</time>
      </trkpt>
      <trkpt lat="43.95111" lon="1.86586">
        <ele>263.6</ele>
        <time>2022-10-12T10:49:17Z</time>
      </trkpt>
      <trkpt lat="43.95113" lon="1.86589">
        <ele>263.8</ele>
        <time>2022-10-12T10:49:18Z</time>
      </trkpt>
      <trkpt lat="43.95115" lon="1.86591">
        <ele>264</ele>
        <time>2022-10-12T10:49:19Z</time>
      </trkpt>
      <trkpt lat="43.95116" lon="1.86594">
        <ele>264.2</ele>
        <time>2022-10-12T10:49:20Z</time>
      </trkpt>
      <trkpt lat="43.95118" lon="1.86597">
        <ele>264.4</ele>
        <time>2022-10-12T10:49:21Z</time>
      </trkpt>
      <trkpt lat="43.9512" lon="1.866">
        <ele>264.6</ele>
        <time>2022-10-12T10:49:22Z</time>
      </trkpt>
      <trkpt lat="43.95122" lon="1.86603">
        <ele>265</ele>
        <time>2022-10-12T10:49:23Z</time>
      </trkpt>
      <trkpt lat="43.95123" lon="1.86606">
        <ele>265.2</ele>
        <time>2022-10-12T10:49:24Z</time>
      </trkpt>
      <trkpt lat="43.95126" lon="1.86608">
        <ele>265.6</ele>
        <time>2022-10-12T10:49:25Z</time>
      </trkpt>
      <trkpt lat="43.95128" lon="1.86611">
        <ele>266</ele>
        <time>2022-10-12T10:49:26Z</time>
      </trkpt>
      <trkpt lat="43.9513" lon="1.86614">
        <ele>266.2</ele>
        <time>2022-10-12T10:49:27Z</time>
      </trkpt>
      <trkpt lat="43.95132" lon="1.86616">
        <ele>266.4</ele>
        <time>2022-10-12T10:49:28Z</time>
      </trkpt>
      <trkpt lat="43.95133" lon="1.86619">
        <ele>266.6</ele>
        <time>2022-10-12T10:49:29Z</time>
      </trkpt>
      <trkpt lat="43.95135" lon="1.86622">
        <ele>267</ele>
        <time>2022-10-12T10:49:30Z</time>
      </trkpt>
      <trkpt lat="43.95137" lon="1.86625">
        <ele>267</ele>
        <time>2022-10-12T10:49:31Z</time>
      </trkpt>
      <trkpt lat="43.95139" lon="1.86627">
        <ele>267.4</ele>
        <time>2022-10-12T10:49:32Z</time>
      </trkpt>
      <trkpt lat="43.9514" lon="1.8663">
        <ele>267.6</ele>
        <time>2022-10-12T10:49:33Z</time>
      </trkpt>
      <trkpt lat="43.95142" lon="1.86632">
        <ele>267.8</ele>
        <time>2022-10-12T10:49:34Z</time>
      </trkpt>
      <trkpt lat="43.95144" lon="1.86634">
        <ele>268.2</ele>
        <time>2022-10-12T10:49:35Z</time>
      </trkpt>
      <trkpt lat="43.95145" lon="1.86637">
        <ele>268.4</ele>
        <time>2022-10-12T10:49:36Z</time>
      </trkpt>
      <trkpt lat="43.95147" lon="1.86639">
        <ele>269</ele>
        <time>2022-10-12T10:49:37Z</time>
      </trkpt>
      <trkpt lat="43.95148" lon="1.86642">
        <ele>269.2</ele>
        <time>2022-10-12T10:49:38Z</time>
      </trkpt>
      <trkpt lat="43.95149" lon="1.86644">
        <ele>269.6</ele>
        <time>2022-10-12T10:49:39Z</time>
      </trkpt>
      <trkpt lat="43.9515" lon="1.86647">
        <ele>269.8</ele>
        <time>2022-10-12T10:49:40Z</time>
      </trkpt>
      <trkpt lat="43.95152" lon="1.8665">
        <ele>270.2</ele>
        <time>2022-10-12T10:49:41Z</time>
      </trkpt>
      <trkpt lat="43.95154" lon="1.86652">
        <ele>270.4</ele>
        <time>2022-10-12T10:49:42Z</time>
      </trkpt>
      <trkpt lat="43.95155" lon="1.86655">
        <ele>270.4</ele>
        <time>2022-10-12T10:49:43Z</time>
      </trkpt>
      <trkpt lat="43.95157" lon="1.86657">
        <ele>270.6</ele>
        <time>2022-10-12T10:49:44Z</time>
      </trkpt>
      <trkpt lat="43.95159" lon="1.8666">
        <ele>270.8</ele>
        <time>2022-10-12T10:49:45Z</time>
      </trkpt>
      <trkpt lat="43.9516" lon="1.86663">
        <ele>271</ele>
        <time>2022-10-12T10:49:46Z</time>
      </trkpt>
      <trkpt lat="43.95161" lon="1.86666">
        <ele>271.2</ele>
        <time>2022-10-12T10:49:47Z</time>
      </trkpt>
      <trkpt lat="43.95163" lon="1.86668">
        <ele>271.4</ele>
        <time>2022-10-12T10:49:48Z</time>
      </trkpt>
      <trkpt lat="43.95165" lon="1.8667">
        <ele>271.4</ele>
        <time>2022-10-12T10:49:49Z</time>
      </trkpt>
      <trkpt lat="43.95167" lon="1.86673">
        <ele>271.6</ele>
        <time>2022-10-12T10:49:50Z</time>
      </trkpt>
      <trkpt lat="43.95168" lon="1.86676">
        <ele>271.8</ele>
        <time>2022-10-12T10:49:51Z</time>
      </trkpt>
      <trkpt lat="43.9517" lon="1.86679">
        <ele>271.8</ele>
        <time>2022-10-12T10:49:52Z</time>
      </trkpt>
      <trkpt lat="43.95172" lon="1.86682">
        <ele>272</ele>
        <time>2022-10-12T10:49:53Z</time>
      </trkpt>
      <trkpt lat="43.95174" lon="1.86685">
        <ele>272.2</ele>
        <time>2022-10-12T10:49:54Z</time>
      </trkpt>
      <trkpt lat="43.95176" lon="1.86689">
        <ele>272.4</ele>
        <time>2022-10-12T10:49:55Z</time>
      </trkpt>
      <trkpt lat="43.95179" lon="1.86692">
        <ele>272.6</ele>
        <time>2022-10-12T10:49:56Z</time>
      </trkpt>
      <trkpt lat="43.95181" lon="1.86696">
        <ele>272.8</ele>
        <time>2022-10-12T10:49:57Z</time>
      </trkpt>
      <trkpt lat="43.95183" lon="1.867">
        <ele>273</ele>
        <time>2022-10-12T10:49:58Z</time>
      </trkpt>
      <trkpt lat="43.95186" lon="1.86704">
        <ele>273.2</ele>
        <time>2022-10-12T10:49:59Z</time>
      </trkpt>
      <trkpt lat="43.95188" lon="1.86708">
        <ele>273.4</ele>
        <time>2022-10-12T10:50:00Z</time>
      </trkpt>
      <trkpt lat="43.9519" lon="1.86712">
        <ele>273.4</ele>
        <time>2022-10-12T10:50:01Z</time>
      </trkpt>
      <trkpt lat="43.95193" lon="1.86716">
        <ele>273.4</ele>
        <time>2022-10-12T10:50:02Z</time>
      </trkpt>
      <trkpt lat="43.95195" lon="1.8672">
        <ele>273.4</ele>
        <time>2022-10-12T10:50:03Z</time>
      </trkpt>
      <trkpt lat="43.95198" lon="1.86724">
        <ele>273.6</ele>
        <time>2022-10-12T10:50:04Z</time>
      </trkpt>
      <trkpt lat="43.952" lon="1.86728">
        <ele>273.6</ele>
        <time>2022-10-12T10:50:05Z</time>
      </trkpt>
      <trkpt lat="43.95203" lon="1.86733">
        <ele>273.6</ele>
        <time>2022-10-12T10:50:06Z</time>
      </trkpt>
      <trkpt lat="43.95205" lon="1.86737">
        <ele>273.6</ele>
        <time>2022-10-12T10:50:07Z</time>
      </trkpt>
      <trkpt lat="43.95208" lon="1.86741">
        <ele>273.6</ele>
        <time>2022-10-12T10:50:08Z</time>
      </trkpt>
      <trkpt lat="43.95211" lon="1.86745">
        <ele>273.8</ele>
        <time>2022-10-12T10:50:09Z</time>
      </trkpt>
      <trkpt lat="43.95213" lon="1.8675">
        <ele>273.8</ele>
        <time>2022-10-12T10:50:10Z</time>
      </trkpt>
      <trkpt lat="43.95216" lon="1.86755">
        <ele>273.8</ele>
        <time>2022-10-12T10:50:11Z</time>
      </trkpt>
      <trkpt lat="43.95218" lon="1.86759">
        <ele>274</ele>
        <time>2022-10-12T10:50:12Z</time>
      </trkpt>
      <trkpt lat="43.95221" lon="1.86764">
        <ele>274</ele>
        <time>2022-10-12T10:50:13Z</time>
      </trkpt>
      <trkpt lat="43.95224" lon="1.86769">
        <ele>274</ele>
        <time>2022-10-12T10:50:14Z</time>
      </trkpt>
      <trkpt lat="43.95226" lon="1.86774">
        <ele>274</ele>
        <time>2022-10-12T10:50:15Z</time>
      </trkpt>
      <trkpt lat="43.95229" lon="1.86779">
        <ele>274</ele>
        <time>2022-10-12T10:50:16Z</time>
      </trkpt>
      <trkpt lat="43.95231" lon="1.86784">
        <ele>274</ele>
        <time>2022-10-12T10:50:17Z</time>
      </trkpt>
      <trkpt lat="43.95234" lon="1.86788">
        <ele>274.2</ele>
        <time>2022-10-12T10:50:18Z</time>
      </trkpt>
      <trkpt lat="43.95237" lon="1.86794">
        <ele>274.2</ele>
        <time>2022-10-12T10:50:19Z</time>
      </trkpt>
      <trkpt lat="43.95249" lon="1.8682">
        <ele>274.4</ele>
        <time>2022-10-12T10:50:24Z</time>
      </trkpt>
      <trkpt lat="43.95263" lon="1.86847">
        <ele>274.8</ele>
        <time>2022-10-12T10:50:29Z</time>
      </trkpt>
      <trkpt lat="43.95272" lon="1.86861">
        <ele>274.8</ele>
        <time>2022-10-12T10:50:32Z</time>
      </trkpt>
      <trkpt lat="43.95275" lon="1.86867">
        <ele>274.8</ele>
        <time>2022-10-12T10:50:33Z</time>
      </trkpt>
      <trkpt lat="43.95277" lon="1.86872">
        <ele>274.8</ele>
        <time>2022-10-12T10:50:34Z</time>
      </trkpt>
      <trkpt lat="43.9528" lon="1.86877">
        <ele>275</ele>
        <time>2022-10-12T10:50:35Z</time>
      </trkpt>
      <trkpt lat="43.95283" lon="1.86882">
        <ele>275</ele>
        <time>2022-10-12T10:50:36Z</time>
      </trkpt>
      <trkpt lat="43.95285" lon="1.86885">
        <ele>275</ele>
        <time>2022-10-12T10:50:37Z</time>
      </trkpt>
      <trkpt lat="43.95287" lon="1.86889">
        <ele>275.2</ele>
        <time>2022-10-12T10:50:38Z</time>
      </trkpt>
      <trkpt lat="43.95289" lon="1.86892">
        <ele>275.4</ele>
        <time>2022-10-12T10:50:39Z</time>
      </trkpt>
      <trkpt lat="43.95291" lon="1.86894">
        <ele>275.4</ele>
        <time>2022-10-12T10:50:40Z</time>
      </trkpt>
      <trkpt lat="43.95293" lon="1.86897">
        <ele>275.4</ele>
        <time>2022-10-12T10:50:41Z</time>
      </trkpt>
      <trkpt lat="43.95294" lon="1.86899">
        <ele>275.6</ele>
        <time>2022-10-12T10:50:42Z</time>
      </trkpt>
      <trkpt lat="43.95296" lon="1.86901">
        <ele>275.6</ele>
        <time>2022-10-12T10:50:43Z</time>
      </trkpt>
      <trkpt lat="43.95297" lon="1.86903">
        <ele>275.6</ele>
        <time>2022-10-12T10:50:44Z</time>
      </trkpt>
      <trkpt lat="43.95299" lon="1.86905">
        <ele>275.6</ele>
        <time>2022-10-12T10:50:45Z</time>
      </trkpt>
      <trkpt lat="43.95301" lon="1.86907">
        <ele>275.8</ele>
        <time>2022-10-12T10:50:46Z</time>
      </trkpt>
      <trkpt lat="43.95303" lon="1.86909">
        <ele>275.8</ele>
        <time>2022-10-12T10:50:47Z</time>
      </trkpt>
      <trkpt lat="43.95313" lon="1.86922">
        <ele>276</ele>
        <time>2022-10-12T10:50:52Z</time>
      </trkpt>
      <trkpt lat="43.95332" lon="1.86939">
        <ele>276.6</ele>
        <time>2022-10-12T10:50:59Z</time>
      </trkpt>
      <trkpt lat="43.95334" lon="1.86941">
        <ele>276.6</ele>
        <time>2022-10-12T10:51:00Z</time>
      </trkpt>
      <trkpt lat="43.95337" lon="1.86941">
        <ele>276.6</ele>
        <time>2022-10-12T10:51:01Z</time>
      </trkpt>
      <trkpt lat="43.95339" lon="1.8694">
        <ele>276.6</ele>
        <time>2022-10-12T10:51:02Z</time>
      </trkpt>
      <trkpt lat="43.95339" lon="1.8694">
        <ele>276.8</ele>
        <time>2022-10-12T10:51:03Z</time>
      </trkpt>
      <trkpt lat="43.95339" lon="1.86931">
        <ele>276.8</ele>
        <time>2022-10-12T10:51:05Z</time>
      </trkpt>
      <trkpt lat="43.95338" lon="1.86929">
        <ele>276.8</ele>
        <time>2022-10-12T10:51:06Z</time>
      </trkpt>
      <trkpt lat="43.95336" lon="1.86927">
        <ele>277</ele>
        <time>2022-10-12T10:51:07Z</time>
      </trkpt>
      <trkpt lat="43.95331" lon="1.86925">
        <ele>277</ele>
        <time>2022-10-12T10:51:09Z</time>
      </trkpt>
      <trkpt lat="43.95328" lon="1.86924">
        <ele>277</ele>
        <time>2022-10-12T10:51:10Z</time>
      </trkpt>
      <trkpt lat="43.95328" lon="1.86924">
        <ele>277</ele>
        <time>2022-10-12T10:51:11Z</time>
      </trkpt>
      <trkpt lat="43.95324" lon="1.8692">
        <ele>277</ele>
        <time>2022-10-12T10:51:12Z</time>
      </trkpt>
      <trkpt lat="43.95322" lon="1.86917">
        <ele>277</ele>
        <time>2022-10-12T10:51:13Z</time>
      </trkpt>
      <trkpt lat="43.9532" lon="1.86914">
        <ele>277</ele>
        <time>2022-10-12T10:51:14Z</time>
      </trkpt>
      <trkpt lat="43.95318" lon="1.86911">
        <ele>277</ele>
        <time>2022-10-12T10:51:15Z</time>
      </trkpt>
      <trkpt lat="43.95317" lon="1.86909">
        <ele>277</ele>
        <time>2022-10-12T10:51:16Z</time>
      </trkpt>
      <trkpt lat="43.95316" lon="1.86904">
        <ele>276.8</ele>
        <time>2022-10-12T10:51:18Z</time>
      </trkpt>
      <trkpt lat="43.95317" lon="1.86903">
        <ele>276.8</ele>
        <time>2022-10-12T10:51:19Z</time>
      </trkpt>
      <trkpt lat="43.95317" lon="1.86903">
        <ele>276.6</ele>
        <time>2022-10-12T10:51:20Z</time>
      </trkpt>
      <trkpt lat="43.95315" lon="1.86903">
        <ele>276.2</ele>
        <time>2022-10-12T10:52:58Z</time>
      </trkpt>
      <trkpt lat="43.95315" lon="1.86905">
        <ele>276.2</ele>
        <time>2022-10-12T10:52:59Z</time>
      </trkpt>
      <trkpt lat="43.95316" lon="1.86907">
        <ele>276</ele>
        <time>2022-10-12T10:53:00Z</time>
      </trkpt>
      <trkpt lat="43.95317" lon="1.86909">
        <ele>276</ele>
        <time>2022-10-12T10:53:01Z</time>
      </trkpt>
      <trkpt lat="43.95319" lon="1.86912">
        <ele>276</ele>
        <time>2022-10-12T10:53:02Z</time>
      </trkpt>
      <trkpt lat="43.9532" lon="1.86914">
        <ele>276</ele>
        <time>2022-10-12T10:53:03Z</time>
      </trkpt>
      <trkpt lat="43.95321" lon="1.86918">
        <ele>276</ele>
        <time>2022-10-12T10:53:04Z</time>
      </trkpt>
      <trkpt lat="43.95324" lon="1.86924">
        <ele>276.2</ele>
        <time>2022-10-12T10:53:06Z</time>
      </trkpt>
      <trkpt lat="43.95326" lon="1.86927">
        <ele>276.2</ele>
        <time>2022-10-12T10:53:07Z</time>
      </trkpt>
      <trkpt lat="43.95328" lon="1.86929">
        <ele>276.2</ele>
        <time>2022-10-12T10:53:08Z</time>
      </trkpt>
      <trkpt lat="43.95333" lon="1.86933">
        <ele>276.2</ele>
        <time>2022-10-12T10:53:10Z</time>
      </trkpt>
      <trkpt lat="43.95336" lon="1.86939">
        <ele>276.2</ele>
        <time>2022-10-12T10:53:12Z</time>
      </trkpt>
      <trkpt lat="43.95339" lon="1.86946">
        <ele>276.6</ele>
        <time>2022-10-12T10:53:14Z</time>
      </trkpt>
      <trkpt lat="43.9534" lon="1.8695">
        <ele>276.6</ele>
        <time>2022-10-12T10:53:15Z</time>
      </trkpt>
      <trkpt lat="43.95343" lon="1.86953">
        <ele>276.6</ele>
        <time>2022-10-12T10:53:16Z</time>
      </trkpt>
      <trkpt lat="43.95349" lon="1.86959">
        <ele>276.8</ele>
        <time>2022-10-12T10:53:18Z</time>
      </trkpt>
      <trkpt lat="43.95352" lon="1.86961">
        <ele>276.8</ele>
        <time>2022-10-12T10:53:19Z</time>
      </trkpt>
      <trkpt lat="43.95355" lon="1.86964">
        <ele>276.8</ele>
        <time>2022-10-12T10:53:20Z</time>
      </trkpt>
      <trkpt lat="43.95358" lon="1.86967">
        <ele>276.8</ele>
        <time>2022-10-12T10:53:21Z</time>
      </trkpt>
      <trkpt lat="43.95364" lon="1.86973">
        <ele>276.8</ele>
        <time>2022-10-12T10:53:23Z</time>
      </trkpt>
      <trkpt lat="43.95383" lon="1.86992">
        <ele>277.2</ele>
        <time>2022-10-12T10:53:29Z</time>
      </trkpt>
      <trkpt lat="43.95387" lon="1.86995">
        <ele>277.4</ele>
        <time>2022-10-12T10:53:30Z</time>
      </trkpt>
      <trkpt lat="43.9539" lon="1.86998">
        <ele>277.4</ele>
        <time>2022-10-12T10:53:31Z</time>
      </trkpt>
      <trkpt lat="43.95407" lon="1.87014">
        <ele>277.8</ele>
        <time>2022-10-12T10:53:36Z</time>
      </trkpt>
      <trkpt lat="43.95414" lon="1.87021">
        <ele>277.8</ele>
        <time>2022-10-12T10:53:38Z</time>
      </trkpt>
      <trkpt lat="43.95418" lon="1.87032">
        <ele>277.8</ele>
        <time>2022-10-12T10:53:40Z</time>
      </trkpt>
      <trkpt lat="43.95419" lon="1.87037">
        <ele>278</ele>
        <time>2022-10-12T10:53:41Z</time>
      </trkpt>
      <trkpt lat="43.95419" lon="1.87043">
        <ele>278</ele>
        <time>2022-10-12T10:53:42Z</time>
      </trkpt>
      <trkpt lat="43.95419" lon="1.87049">
        <ele>278</ele>
        <time>2022-10-12T10:53:43Z</time>
      </trkpt>
      <trkpt lat="43.95418" lon="1.87055">
        <ele>278</ele>
        <time>2022-10-12T10:53:44Z</time>
      </trkpt>
      <trkpt lat="43.95417" lon="1.87061">
        <ele>278.2</ele>
        <time>2022-10-12T10:53:45Z</time>
      </trkpt>
      <trkpt lat="43.95416" lon="1.87066">
        <ele>278.4</ele>
        <time>2022-10-12T10:53:46Z</time>
      </trkpt>
      <trkpt lat="43.95415" lon="1.87072">
        <ele>278.4</ele>
        <time>2022-10-12T10:53:47Z</time>
      </trkpt>
      <trkpt lat="43.9541" lon="1.87094">
        <ele>279.2</ele>
        <time>2022-10-12T10:53:51Z</time>
      </trkpt>
      <trkpt lat="43.95408" lon="1.87104">
        <ele>279.4</ele>
        <time>2022-10-12T10:53:53Z</time>
      </trkpt>
      <trkpt lat="43.95404" lon="1.87126">
        <ele>279.8</ele>
        <time>2022-10-12T10:53:57Z</time>
      </trkpt>
      <trkpt lat="43.95403" lon="1.87132">
        <ele>279.8</ele>
        <time>2022-10-12T10:53:58Z</time>
      </trkpt>
      <trkpt lat="43.954" lon="1.87148">
        <ele>280.4</ele>
        <time>2022-10-12T10:54:01Z</time>
      </trkpt>
      <trkpt lat="43.95399" lon="1.87153">
        <ele>280.6</ele>
        <time>2022-10-12T10:54:02Z</time>
      </trkpt>
      <trkpt lat="43.95398" lon="1.87158">
        <ele>280.6</ele>
        <time>2022-10-12T10:54:03Z</time>
      </trkpt>
      <trkpt lat="43.95397" lon="1.87164">
        <ele>280.8</ele>
        <time>2022-10-12T10:54:04Z</time>
      </trkpt>
      <trkpt lat="43.95396" lon="1.87169">
        <ele>280.8</ele>
        <time>2022-10-12T10:54:05Z</time>
      </trkpt>
      <trkpt lat="43.95395" lon="1.87174">
        <ele>281.2</ele>
        <time>2022-10-12T10:54:06Z</time>
      </trkpt>
      <trkpt lat="43.95394" lon="1.8718">
        <ele>281.4</ele>
        <time>2022-10-12T10:54:07Z</time>
      </trkpt>
      <trkpt lat="43.95393" lon="1.87185">
        <ele>281.4</ele>
        <time>2022-10-12T10:54:08Z</time>
      </trkpt>
      <trkpt lat="43.95392" lon="1.8719">
        <ele>281.6</ele>
        <time>2022-10-12T10:54:09Z</time>
      </trkpt>
      <trkpt lat="43.9539" lon="1.87196">
        <ele>281.6</ele>
        <time>2022-10-12T10:54:10Z</time>
      </trkpt>
      <trkpt lat="43.95389" lon="1.87201">
        <ele>281.8</ele>
        <time>2022-10-12T10:54:11Z</time>
      </trkpt>
      <trkpt lat="43.95388" lon="1.87206">
        <ele>281.8</ele>
        <time>2022-10-12T10:54:12Z</time>
      </trkpt>
      <trkpt lat="43.95387" lon="1.87212">
        <ele>281.8</ele>
        <time>2022-10-12T10:54:13Z</time>
      </trkpt>
      <trkpt lat="43.95385" lon="1.87217">
        <ele>281.8</ele>
        <time>2022-10-12T10:54:14Z</time>
      </trkpt>
      <trkpt lat="43.95384" lon="1.87222">
        <ele>282.2</ele>
        <time>2022-10-12T10:54:15Z</time>
      </trkpt>
      <trkpt lat="43.95383" lon="1.87227">
        <ele>282.4</ele>
        <time>2022-10-12T10:54:16Z</time>
      </trkpt>
      <trkpt lat="43.95382" lon="1.87232">
        <ele>282.4</ele>
        <time>2022-10-12T10:54:17Z</time>
      </trkpt>
      <trkpt lat="43.95381" lon="1.87237">
        <ele>282.6</ele>
        <time>2022-10-12T10:54:18Z</time>
      </trkpt>
      <trkpt lat="43.9538" lon="1.87242">
        <ele>282.8</ele>
        <time>2022-10-12T10:54:19Z</time>
      </trkpt>
      <trkpt lat="43.95379" lon="1.87248">
        <ele>283</ele>
        <time>2022-10-12T10:54:20Z</time>
      </trkpt>
      <trkpt lat="43.95378" lon="1.87253">
        <ele>283.2</ele>
        <time>2022-10-12T10:54:21Z</time>
      </trkpt>
      <trkpt lat="43.95377" lon="1.87258">
        <ele>283.4</ele>
        <time>2022-10-12T10:54:22Z</time>
      </trkpt>
      <trkpt lat="43.95376" lon="1.87264">
        <ele>283.4</ele>
        <time>2022-10-12T10:54:23Z</time>
      </trkpt>
      <trkpt lat="43.95375" lon="1.87269">
        <ele>283.6</ele>
        <time>2022-10-12T10:54:24Z</time>
      </trkpt>
      <trkpt lat="43.95374" lon="1.87274">
        <ele>283.8</ele>
        <time>2022-10-12T10:54:25Z</time>
      </trkpt>
      <trkpt lat="43.95373" lon="1.87279">
        <ele>283.8</ele>
        <time>2022-10-12T10:54:26Z</time>
      </trkpt>
      <trkpt lat="43.95373" lon="1.87285">
        <ele>284</ele>
        <time>2022-10-12T10:54:27Z</time>
      </trkpt>
      <trkpt lat="43.95373" lon="1.8729">
        <ele>284.2</ele>
        <time>2022-10-12T10:54:28Z</time>
      </trkpt>
      <trkpt lat="43.95374" lon="1.87296">
        <ele>284.4</ele>
        <time>2022-10-12T10:54:29Z</time>
      </trkpt>
      <trkpt lat="43.95375" lon="1.87301">
        <ele>284.4</ele>
        <time>2022-10-12T10:54:30Z</time>
      </trkpt>
      <trkpt lat="43.95376" lon="1.87306">
        <ele>284.6</ele>
        <time>2022-10-12T10:54:31Z</time>
      </trkpt>
      <trkpt lat="43.95378" lon="1.87311">
        <ele>284.8</ele>
        <time>2022-10-12T10:54:32Z</time>
      </trkpt>
      <trkpt lat="43.9538" lon="1.87315">
        <ele>285</ele>
        <time>2022-10-12T10:54:33Z</time>
      </trkpt>
      <trkpt lat="43.95382" lon="1.8732">
        <ele>285.2</ele>
        <time>2022-10-12T10:54:34Z</time>
      </trkpt>
      <trkpt lat="43.95385" lon="1.87324">
        <ele>285</ele>
        <time>2022-10-12T10:54:35Z</time>
      </trkpt>
      <trkpt lat="43.95387" lon="1.87329">
        <ele>285.2</ele>
        <time>2022-10-12T10:54:36Z</time>
      </trkpt>
      <trkpt lat="43.9539" lon="1.87333">
        <ele>285.4</ele>
        <time>2022-10-12T10:54:37Z</time>
      </trkpt>
      <trkpt lat="43.95392" lon="1.87337">
        <ele>285.4</ele>
        <time>2022-10-12T10:54:38Z</time>
      </trkpt>
      <trkpt lat="43.95395" lon="1.87341">
        <ele>285.6</ele>
        <time>2022-10-12T10:54:39Z</time>
      </trkpt>
      <trkpt lat="43.95397" lon="1.87345">
        <ele>285.8</ele>
        <time>2022-10-12T10:54:40Z</time>
      </trkpt>
      <trkpt lat="43.95399" lon="1.87349">
        <ele>286</ele>
        <time>2022-10-12T10:54:41Z</time>
      </trkpt>
      <trkpt lat="43.95401" lon="1.87353">
        <ele>285.8</ele>
        <time>2022-10-12T10:54:42Z</time>
      </trkpt>
      <trkpt lat="43.95403" lon="1.87357">
        <ele>286</ele>
        <time>2022-10-12T10:54:43Z</time>
      </trkpt>
      <trkpt lat="43.95406" lon="1.87361">
        <ele>286</ele>
        <time>2022-10-12T10:54:44Z</time>
      </trkpt>
      <trkpt lat="43.95408" lon="1.87364">
        <ele>286.4</ele>
        <time>2022-10-12T10:54:45Z</time>
      </trkpt>
      <trkpt lat="43.95411" lon="1.87368">
        <ele>286.4</ele>
        <time>2022-10-12T10:54:46Z</time>
      </trkpt>
      <trkpt lat="43.95413" lon="1.87372">
        <ele>286.6</ele>
        <time>2022-10-12T10:54:47Z</time>
      </trkpt>
      <trkpt lat="43.95416" lon="1.87376">
        <ele>286.8</ele>
        <time>2022-10-12T10:54:48Z</time>
      </trkpt>
      <trkpt lat="43.95418" lon="1.8738">
        <ele>286.8</ele>
        <time>2022-10-12T10:54:49Z</time>
      </trkpt>
      <trkpt lat="43.9542" lon="1.87384">
        <ele>287</ele>
        <time>2022-10-12T10:54:50Z</time>
      </trkpt>
      <trkpt lat="43.95422" lon="1.87388">
        <ele>287.2</ele>
        <time>2022-10-12T10:54:51Z</time>
      </trkpt>
      <trkpt lat="43.95424" lon="1.87393">
        <ele>287.4</ele>
        <time>2022-10-12T10:54:52Z</time>
      </trkpt>
      <trkpt lat="43.95423" lon="1.87397">
        <ele>287.4</ele>
        <time>2022-10-12T10:54:53Z</time>
      </trkpt>
      <trkpt lat="43.95421" lon="1.874">
        <ele>287.6</ele>
        <time>2022-10-12T10:54:54Z</time>
      </trkpt>
      <trkpt lat="43.95419" lon="1.87404">
        <ele>287.8</ele>
        <time>2022-10-12T10:54:55Z</time>
      </trkpt>
      <trkpt lat="43.95416" lon="1.87408">
        <ele>287.8</ele>
        <time>2022-10-12T10:54:56Z</time>
      </trkpt>
      <trkpt lat="43.95414" lon="1.87412">
        <ele>288</ele>
        <time>2022-10-12T10:54:57Z</time>
      </trkpt>
      <trkpt lat="43.95412" lon="1.87416">
        <ele>288</ele>
        <time>2022-10-12T10:54:58Z</time>
      </trkpt>
      <trkpt lat="43.95409" lon="1.8742">
        <ele>288.2</ele>
        <time>2022-10-12T10:54:59Z</time>
      </trkpt>
      <trkpt lat="43.95405" lon="1.87424">
        <ele>288.2</ele>
        <time>2022-10-12T10:55:00Z</time>
      </trkpt>
      <trkpt lat="43.95402" lon="1.87428">
        <ele>288.2</ele>
        <time>2022-10-12T10:55:01Z</time>
      </trkpt>
      <trkpt lat="43.95398" lon="1.87432">
        <ele>288.2</ele>
        <time>2022-10-12T10:55:02Z</time>
      </trkpt>
      <trkpt lat="43.95398" lon="1.87432">
        <ele>288.4</ele>
        <time>2022-10-12T10:55:03Z</time>
      </trkpt>
      <trkpt lat="43.95392" lon="1.8744">
        <ele>288.4</ele>
        <time>2022-10-12T10:55:04Z</time>
      </trkpt>
      <trkpt lat="43.95388" lon="1.87446">
        <ele>288.4</ele>
        <time>2022-10-12T10:55:05Z</time>
      </trkpt>
      <trkpt lat="43.95385" lon="1.87451">
        <ele>288.2</ele>
        <time>2022-10-12T10:55:06Z</time>
      </trkpt>
      <trkpt lat="43.95381" lon="1.87456">
        <ele>288.2</ele>
        <time>2022-10-12T10:55:07Z</time>
      </trkpt>
      <trkpt lat="43.95378" lon="1.87461">
        <ele>288.2</ele>
        <time>2022-10-12T10:55:08Z</time>
      </trkpt>
      <trkpt lat="43.95374" lon="1.87467">
        <ele>288.2</ele>
        <time>2022-10-12T10:55:09Z</time>
      </trkpt>
      <trkpt lat="43.9537" lon="1.87472">
        <ele>288</ele>
        <time>2022-10-12T10:55:10Z</time>
      </trkpt>
      <trkpt lat="43.95366" lon="1.87477">
        <ele>288</ele>
        <time>2022-10-12T10:55:11Z</time>
      </trkpt>
      <trkpt lat="43.95341" lon="1.87512">
        <ele>287</ele>
        <time>2022-10-12T10:55:17Z</time>
      </trkpt>
      <trkpt lat="43.95337" lon="1.87518">
        <ele>287</ele>
        <time>2022-10-12T10:55:18Z</time>
      </trkpt>
      <trkpt lat="43.95333" lon="1.87524">
        <ele>286.8</ele>
        <time>2022-10-12T10:55:19Z</time>
      </trkpt>
      <trkpt lat="43.95324" lon="1.87536">
        <ele>286.6</ele>
        <time>2022-10-12T10:55:21Z</time>
      </trkpt>
      <trkpt lat="43.9532" lon="1.87541">
        <ele>286.4</ele>
        <time>2022-10-12T10:55:22Z</time>
      </trkpt>
      <trkpt lat="43.95315" lon="1.87547">
        <ele>286.2</ele>
        <time>2022-10-12T10:55:23Z</time>
      </trkpt>
      <trkpt lat="43.95311" lon="1.87552">
        <ele>285.8</ele>
        <time>2022-10-12T10:55:24Z</time>
      </trkpt>
      <trkpt lat="43.95307" lon="1.87558">
        <ele>285.4</ele>
        <time>2022-10-12T10:55:25Z</time>
      </trkpt>
      <trkpt lat="43.95303" lon="1.87562">
        <ele>285.2</ele>
        <time>2022-10-12T10:55:26Z</time>
      </trkpt>
      <trkpt lat="43.953" lon="1.87566">
        <ele>285</ele>
        <time>2022-10-12T10:55:27Z</time>
      </trkpt>
      <trkpt lat="43.95298" lon="1.87569">
        <ele>284.8</ele>
        <time>2022-10-12T10:55:28Z</time>
      </trkpt>
      <trkpt lat="43.95296" lon="1.87572">
        <ele>284.4</ele>
        <time>2022-10-12T10:55:29Z</time>
      </trkpt>
      <trkpt lat="43.95296" lon="1.87575">
        <ele>284.4</ele>
        <time>2022-10-12T10:55:30Z</time>
      </trkpt>
      <trkpt lat="43.95297" lon="1.87579">
        <ele>284.2</ele>
        <time>2022-10-12T10:55:31Z</time>
      </trkpt>
      <trkpt lat="43.95298" lon="1.87582">
        <ele>284</ele>
        <time>2022-10-12T10:55:32Z</time>
      </trkpt>
      <trkpt lat="43.95301" lon="1.87589">
        <ele>283.8</ele>
        <time>2022-10-12T10:55:34Z</time>
      </trkpt>
      <trkpt lat="43.953" lon="1.87595">
        <ele>283.6</ele>
        <time>2022-10-12T10:55:35Z</time>
      </trkpt>
      <trkpt lat="43.95298" lon="1.876">
        <ele>283.6</ele>
        <time>2022-10-12T10:55:36Z</time>
      </trkpt>
      <trkpt lat="43.95295" lon="1.87605">
        <ele>283.6</ele>
        <time>2022-10-12T10:55:37Z</time>
      </trkpt>
      <trkpt lat="43.95291" lon="1.87608">
        <ele>283.4</ele>
        <time>2022-10-12T10:55:38Z</time>
      </trkpt>
      <trkpt lat="43.95287" lon="1.87611">
        <ele>283.4</ele>
        <time>2022-10-12T10:55:39Z</time>
      </trkpt>
      <trkpt lat="43.95283" lon="1.87615">
        <ele>283.4</ele>
        <time>2022-10-12T10:55:40Z</time>
      </trkpt>
      <trkpt lat="43.95279" lon="1.8762">
        <ele>283.2</ele>
        <time>2022-10-12T10:55:41Z</time>
      </trkpt>
      <trkpt lat="43.95272" lon="1.87629">
        <ele>283.2</ele>
        <time>2022-10-12T10:55:43Z</time>
      </trkpt>
      <trkpt lat="43.95266" lon="1.87638">
        <ele>283</ele>
        <time>2022-10-12T10:55:45Z</time>
      </trkpt>
      <trkpt lat="43.95263" lon="1.87643">
        <ele>283</ele>
        <time>2022-10-12T10:55:46Z</time>
      </trkpt>
      <trkpt lat="43.95261" lon="1.87649">
        <ele>283</ele>
        <time>2022-10-12T10:55:47Z</time>
      </trkpt>
      <trkpt lat="43.95262" lon="1.87655">
        <ele>283</ele>
        <time>2022-10-12T10:55:48Z</time>
      </trkpt>
      <trkpt lat="43.95263" lon="1.87659">
        <ele>283</ele>
        <time>2022-10-12T10:55:49Z</time>
      </trkpt>
      <trkpt lat="43.95268" lon="1.87667">
        <ele>283</ele>
        <time>2022-10-12T10:55:51Z</time>
      </trkpt>
      <trkpt lat="43.95276" lon="1.8768">
        <ele>282.4</ele>
        <time>2022-10-12T10:55:54Z</time>
      </trkpt>
      <trkpt lat="43.95279" lon="1.87685">
        <ele>282.2</ele>
        <time>2022-10-12T10:55:55Z</time>
      </trkpt>
      <trkpt lat="43.95286" lon="1.87697">
        <ele>281.8</ele>
        <time>2022-10-12T10:55:57Z</time>
      </trkpt>
      <trkpt lat="43.95294" lon="1.87711">
        <ele>281</ele>
        <time>2022-10-12T10:55:59Z</time>
      </trkpt>
      <trkpt lat="43.95298" lon="1.87717">
        <ele>279.4</ele>
        <time>2022-10-12T10:56:00Z</time>
      </trkpt>
      <trkpt lat="43.95302" lon="1.87723">
        <ele>277.8</ele>
        <time>2022-10-12T10:56:01Z</time>
      </trkpt>
      <trkpt lat="43.95306" lon="1.87728">
        <ele>277.2</ele>
        <time>2022-10-12T10:56:02Z</time>
      </trkpt>
      <trkpt lat="43.95309" lon="1.87734">
        <ele>276</ele>
        <time>2022-10-12T10:56:03Z</time>
      </trkpt>
      <trkpt lat="43.95312" lon="1.8774">
        <ele>275.8</ele>
        <time>2022-10-12T10:56:04Z</time>
      </trkpt>
      <trkpt lat="43.95319" lon="1.87752">
        <ele>274.4</ele>
        <time>2022-10-12T10:56:06Z</time>
      </trkpt>
      <trkpt lat="43.95323" lon="1.87758">
        <ele>273.2</ele>
        <time>2022-10-12T10:56:07Z</time>
      </trkpt>
      <trkpt lat="43.95331" lon="1.87772">
        <ele>271.4</ele>
        <time>2022-10-12T10:56:09Z</time>
      </trkpt>
      <trkpt lat="43.9534" lon="1.87787">
        <ele>270.4</ele>
        <time>2022-10-12T10:56:11Z</time>
      </trkpt>
      <trkpt lat="43.9535" lon="1.87804">
        <ele>269.8</ele>
        <time>2022-10-12T10:56:13Z</time>
      </trkpt>
      <trkpt lat="43.95355" lon="1.87813">
        <ele>269.2</ele>
        <time>2022-10-12T10:56:14Z</time>
      </trkpt>
      <trkpt lat="43.95366" lon="1.87831">
        <ele>268</ele>
        <time>2022-10-12T10:56:16Z</time>
      </trkpt>
      <trkpt lat="43.95371" lon="1.8784">
        <ele>267.4</ele>
        <time>2022-10-12T10:56:17Z</time>
      </trkpt>
      <trkpt lat="43.95376" lon="1.87849">
        <ele>266.6</ele>
        <time>2022-10-12T10:56:18Z</time>
      </trkpt>
      <trkpt lat="43.9538" lon="1.87857">
        <ele>265.4</ele>
        <time>2022-10-12T10:56:19Z</time>
      </trkpt>
      <trkpt lat="43.9539" lon="1.87875">
        <ele>264.2</ele>
        <time>2022-10-12T10:56:21Z</time>
      </trkpt>
      <trkpt lat="43.954" lon="1.87892">
        <ele>263.2</ele>
        <time>2022-10-12T10:56:23Z</time>
      </trkpt>
      <trkpt lat="43.95416" lon="1.87918">
        <ele>262</ele>
        <time>2022-10-12T10:56:26Z</time>
      </trkpt>
      <trkpt lat="43.95421" lon="1.87927">
        <ele>261.4</ele>
        <time>2022-10-12T10:56:27Z</time>
      </trkpt>
      <trkpt lat="43.95427" lon="1.87935">
        <ele>260.4</ele>
        <time>2022-10-12T10:56:28Z</time>
      </trkpt>
      <trkpt lat="43.95432" lon="1.87942">
        <ele>260</ele>
        <time>2022-10-12T10:56:29Z</time>
      </trkpt>
      <trkpt lat="43.95436" lon="1.8795">
        <ele>259.4</ele>
        <time>2022-10-12T10:56:30Z</time>
      </trkpt>
      <trkpt lat="43.9544" lon="1.87957">
        <ele>259.2</ele>
        <time>2022-10-12T10:56:31Z</time>
      </trkpt>
      <trkpt lat="43.95445" lon="1.87965">
        <ele>258</ele>
        <time>2022-10-12T10:56:32Z</time>
      </trkpt>
      <trkpt lat="43.95449" lon="1.87972">
        <ele>257.6</ele>
        <time>2022-10-12T10:56:33Z</time>
      </trkpt>
      <trkpt lat="43.95454" lon="1.8798">
        <ele>257</ele>
        <time>2022-10-12T10:56:34Z</time>
      </trkpt>
      <trkpt lat="43.95458" lon="1.87988">
        <ele>256.8</ele>
        <time>2022-10-12T10:56:35Z</time>
      </trkpt>
      <trkpt lat="43.95462" lon="1.87995">
        <ele>256.6</ele>
        <time>2022-10-12T10:56:36Z</time>
      </trkpt>
      <trkpt lat="43.95466" lon="1.88002">
        <ele>255.2</ele>
        <time>2022-10-12T10:56:37Z</time>
      </trkpt>
      <trkpt lat="43.9547" lon="1.88009">
        <ele>254.6</ele>
        <time>2022-10-12T10:56:38Z</time>
      </trkpt>
      <trkpt lat="43.95475" lon="1.88017">
        <ele>253.4</ele>
        <time>2022-10-12T10:56:39Z</time>
      </trkpt>
      <trkpt lat="43.9548" lon="1.88025">
        <ele>252.4</ele>
        <time>2022-10-12T10:56:40Z</time>
      </trkpt>
      <trkpt lat="43.95486" lon="1.88032">
        <ele>251.2</ele>
        <time>2022-10-12T10:56:41Z</time>
      </trkpt>
      <trkpt lat="43.95492" lon="1.8804">
        <ele>250</ele>
        <time>2022-10-12T10:56:42Z</time>
      </trkpt>
      <trkpt lat="43.95497" lon="1.88049">
        <ele>249.2</ele>
        <time>2022-10-12T10:56:43Z</time>
      </trkpt>
      <trkpt lat="43.95501" lon="1.88057">
        <ele>248</ele>
        <time>2022-10-12T10:56:44Z</time>
      </trkpt>
      <trkpt lat="43.95506" lon="1.88064">
        <ele>247.2</ele>
        <time>2022-10-12T10:56:45Z</time>
      </trkpt>
      <trkpt lat="43.95509" lon="1.8807">
        <ele>245.8</ele>
        <time>2022-10-12T10:56:46Z</time>
      </trkpt>
      <trkpt lat="43.95513" lon="1.88074">
        <ele>245.2</ele>
        <time>2022-10-12T10:56:47Z</time>
      </trkpt>
      <trkpt lat="43.95515" lon="1.88077">
        <ele>243.4</ele>
        <time>2022-10-12T10:56:48Z</time>
      </trkpt>
      <trkpt lat="43.95517" lon="1.88077">
        <ele>242.6</ele>
        <time>2022-10-12T10:56:49Z</time>
      </trkpt>
      <trkpt lat="43.95519" lon="1.88076">
        <ele>241.2</ele>
        <time>2022-10-12T10:56:50Z</time>
      </trkpt>
      <trkpt lat="43.95521" lon="1.88074">
        <ele>240</ele>
        <time>2022-10-12T10:56:51Z</time>
      </trkpt>
      <trkpt lat="43.95525" lon="1.88065">
        <ele>239</ele>
        <time>2022-10-12T10:56:53Z</time>
      </trkpt>
      <trkpt lat="43.95528" lon="1.88059">
        <ele>238.6</ele>
        <time>2022-10-12T10:56:54Z</time>
      </trkpt>
      <trkpt lat="43.95535" lon="1.88044">
        <ele>238</ele>
        <time>2022-10-12T10:56:56Z</time>
      </trkpt>
      <trkpt lat="43.95538" lon="1.88037">
        <ele>237.6</ele>
        <time>2022-10-12T10:56:57Z</time>
      </trkpt>
      <trkpt lat="43.95541" lon="1.8803">
        <ele>236.6</ele>
        <time>2022-10-12T10:56:58Z</time>
      </trkpt>
      <trkpt lat="43.95544" lon="1.88025">
        <ele>236.2</ele>
        <time>2022-10-12T10:56:59Z</time>
      </trkpt>
      <trkpt lat="43.95547" lon="1.88024">
        <ele>235</ele>
        <time>2022-10-12T10:57:00Z</time>
      </trkpt>
      <trkpt lat="43.9555" lon="1.88025">
        <ele>234.6</ele>
        <time>2022-10-12T10:57:01Z</time>
      </trkpt>
      <trkpt lat="43.95552" lon="1.88029">
        <ele>233.8</ele>
        <time>2022-10-12T10:57:02Z</time>
      </trkpt>
      <trkpt lat="43.95553" lon="1.88033">
        <ele>233.2</ele>
        <time>2022-10-12T10:57:03Z</time>
      </trkpt>
      <trkpt lat="43.95553" lon="1.88038">
        <ele>232.4</ele>
        <time>2022-10-12T10:57:04Z</time>
      </trkpt>
      <trkpt lat="43.95552" lon="1.88043">
        <ele>231.8</ele>
        <time>2022-10-12T10:57:05Z</time>
      </trkpt>
      <trkpt lat="43.95552" lon="1.8805">
        <ele>230.8</ele>
        <time>2022-10-12T10:57:06Z</time>
      </trkpt>
      <trkpt lat="43.95551" lon="1.88056">
        <ele>229.8</ele>
        <time>2022-10-12T10:57:07Z</time>
      </trkpt>
      <trkpt lat="43.9555" lon="1.88062">
        <ele>229</ele>
        <time>2022-10-12T10:57:08Z</time>
      </trkpt>
      <trkpt lat="43.95551" lon="1.88068">
        <ele>228</ele>
        <time>2022-10-12T10:57:09Z</time>
      </trkpt>
      <trkpt lat="43.95551" lon="1.88074">
        <ele>227.6</ele>
        <time>2022-10-12T10:57:10Z</time>
      </trkpt>
      <trkpt lat="43.9555" lon="1.8808">
        <ele>227</ele>
        <time>2022-10-12T10:57:11Z</time>
      </trkpt>
      <trkpt lat="43.95549" lon="1.88085">
        <ele>226.6</ele>
        <time>2022-10-12T10:57:12Z</time>
      </trkpt>
      <trkpt lat="43.95548" lon="1.8809">
        <ele>226</ele>
        <time>2022-10-12T10:57:13Z</time>
      </trkpt>
      <trkpt lat="43.95546" lon="1.88096">
        <ele>225.4</ele>
        <time>2022-10-12T10:57:14Z</time>
      </trkpt>
      <trkpt lat="43.95544" lon="1.88103">
        <ele>225.4</ele>
        <time>2022-10-12T10:57:15Z</time>
      </trkpt>
      <trkpt lat="43.9554" lon="1.88117">
        <ele>224.6</ele>
        <time>2022-10-12T10:57:17Z</time>
      </trkpt>
      <trkpt lat="43.95538" lon="1.88125">
        <ele>224.2</ele>
        <time>2022-10-12T10:57:18Z</time>
      </trkpt>
      <trkpt lat="43.95535" lon="1.88141">
        <ele>223.6</ele>
        <time>2022-10-12T10:57:20Z</time>
      </trkpt>
      <trkpt lat="43.9553" lon="1.88158">
        <ele>223</ele>
        <time>2022-10-12T10:57:22Z</time>
      </trkpt>
      <trkpt lat="43.95529" lon="1.88166">
        <ele>222.4</ele>
        <time>2022-10-12T10:57:23Z</time>
      </trkpt>
      <trkpt lat="43.95531" lon="1.88175">
        <ele>222</ele>
        <time>2022-10-12T10:57:24Z</time>
      </trkpt>
      <trkpt lat="43.95532" lon="1.88184">
        <ele>221.8</ele>
        <time>2022-10-12T10:57:25Z</time>
      </trkpt>
      <trkpt lat="43.95534" lon="1.88193">
        <ele>221.6</ele>
        <time>2022-10-12T10:57:26Z</time>
      </trkpt>
      <trkpt lat="43.95535" lon="1.88204">
        <ele>221.2</ele>
        <time>2022-10-12T10:57:27Z</time>
      </trkpt>
      <trkpt lat="43.95536" lon="1.88212">
        <ele>221.2</ele>
        <time>2022-10-12T10:57:28Z</time>
      </trkpt>
      <trkpt lat="43.95536" lon="1.8822">
        <ele>220.8</ele>
        <time>2022-10-12T10:57:29Z</time>
      </trkpt>
      <trkpt lat="43.95534" lon="1.88227">
        <ele>220.4</ele>
        <time>2022-10-12T10:57:30Z</time>
      </trkpt>
      <trkpt lat="43.95533" lon="1.88234">
        <ele>220.4</ele>
        <time>2022-10-12T10:57:31Z</time>
      </trkpt>
      <trkpt lat="43.95535" lon="1.8824">
        <ele>220.2</ele>
        <time>2022-10-12T10:57:32Z</time>
      </trkpt>
      <trkpt lat="43.95536" lon="1.88246">
        <ele>220</ele>
        <time>2022-10-12T10:57:33Z</time>
      </trkpt>
      <trkpt lat="43.95537" lon="1.88251">
        <ele>220</ele>
        <time>2022-10-12T10:57:34Z</time>
      </trkpt>
      <trkpt lat="43.95539" lon="1.88255">
        <ele>220</ele>
        <time>2022-10-12T10:57:35Z</time>
      </trkpt>
      <trkpt lat="43.95539" lon="1.88258">
        <ele>219.8</ele>
        <time>2022-10-12T10:57:36Z</time>
      </trkpt>
      <trkpt lat="43.9554" lon="1.88261">
        <ele>219.6</ele>
        <time>2022-10-12T10:57:37Z</time>
      </trkpt>
      <trkpt lat="43.95541" lon="1.88264">
        <ele>219.6</ele>
        <time>2022-10-12T10:57:38Z</time>
      </trkpt>
      <trkpt lat="43.95541" lon="1.88267">
        <ele>219.4</ele>
        <time>2022-10-12T10:57:39Z</time>
      </trkpt>
      <trkpt lat="43.95541" lon="1.8827">
        <ele>219.4</ele>
        <time>2022-10-12T10:57:40Z</time>
      </trkpt>
      <trkpt lat="43.95541" lon="1.88271">
        <ele>219.4</ele>
        <time>2022-10-12T10:57:41Z</time>
      </trkpt>
      <trkpt lat="43.9554" lon="1.88274">
        <ele>219.4</ele>
        <time>2022-10-12T10:57:42Z</time>
      </trkpt>
      <trkpt lat="43.95539" lon="1.88276">
        <ele>219.6</ele>
        <time>2022-10-12T10:57:43Z</time>
      </trkpt>
      <trkpt lat="43.95538" lon="1.88279">
        <ele>219.6</ele>
        <time>2022-10-12T10:57:44Z</time>
      </trkpt>
      <trkpt lat="43.95537" lon="1.88282">
        <ele>219.6</ele>
        <time>2022-10-12T10:57:45Z</time>
      </trkpt>
      <trkpt lat="43.95535" lon="1.88289">
        <ele>219.8</ele>
        <time>2022-10-12T10:57:47Z</time>
      </trkpt>
      <trkpt lat="43.95534" lon="1.88292">
        <ele>220</ele>
        <time>2022-10-12T10:57:48Z</time>
      </trkpt>
      <trkpt lat="43.95533" lon="1.88294">
        <ele>220</ele>
        <time>2022-10-12T10:57:49Z</time>
      </trkpt>
      <trkpt lat="43.95532" lon="1.88297">
        <ele>220</ele>
        <time>2022-10-12T10:57:50Z</time>
      </trkpt>
      <trkpt lat="43.95531" lon="1.88302">
        <ele>220.6</ele>
        <time>2022-10-12T10:57:52Z</time>
      </trkpt>
      <trkpt lat="43.95522" lon="1.8832">
        <ele>221.4</ele>
        <time>2022-10-12T10:57:57Z</time>
      </trkpt>
      <trkpt lat="43.95511" lon="1.88339">
        <ele>221.4</ele>
        <time>2022-10-12T10:58:01Z</time>
      </trkpt>
      <trkpt lat="43.95506" lon="1.88351">
        <ele>221.2</ele>
        <time>2022-10-12T10:58:03Z</time>
      </trkpt>
      <trkpt lat="43.95482" lon="1.88388">
        <ele>220.8</ele>
        <time>2022-10-12T10:58:08Z</time>
      </trkpt>
      <trkpt lat="43.95478" lon="1.88398">
        <ele>220.6</ele>
        <time>2022-10-12T10:58:09Z</time>
      </trkpt>
      <trkpt lat="43.95475" lon="1.88409">
        <ele>220</ele>
        <time>2022-10-12T10:58:10Z</time>
      </trkpt>
      <trkpt lat="43.95472" lon="1.88421">
        <ele>219.4</ele>
        <time>2022-10-12T10:58:11Z</time>
      </trkpt>
      <trkpt lat="43.95469" lon="1.88431">
        <ele>219.2</ele>
        <time>2022-10-12T10:58:12Z</time>
      </trkpt>
      <trkpt lat="43.95467" lon="1.88439">
        <ele>218.8</ele>
        <time>2022-10-12T10:58:13Z</time>
      </trkpt>
      <trkpt lat="43.95465" lon="1.88446">
        <ele>218.6</ele>
        <time>2022-10-12T10:58:14Z</time>
      </trkpt>
      <trkpt lat="43.95463" lon="1.88452">
        <ele>218.2</ele>
        <time>2022-10-12T10:58:15Z</time>
      </trkpt>
      <trkpt lat="43.9546" lon="1.88457">
        <ele>218.2</ele>
        <time>2022-10-12T10:58:16Z</time>
      </trkpt>
      <trkpt lat="43.95457" lon="1.88462">
        <ele>218</ele>
        <time>2022-10-12T10:58:17Z</time>
      </trkpt>
      <trkpt lat="43.95453" lon="1.88466">
        <ele>218</ele>
        <time>2022-10-12T10:58:18Z</time>
      </trkpt>
      <trkpt lat="43.95446" lon="1.88478">
        <ele>218</ele>
        <time>2022-10-12T10:58:21Z</time>
      </trkpt>
      <trkpt lat="43.95444" lon="1.88483">
        <ele>218.2</ele>
        <time>2022-10-12T10:58:22Z</time>
      </trkpt>
      <trkpt lat="43.95441" lon="1.88492">
        <ele>218.8</ele>
        <time>2022-10-12T10:58:24Z</time>
      </trkpt>
      <trkpt lat="43.95438" lon="1.88502">
        <ele>219.2</ele>
        <time>2022-10-12T10:58:26Z</time>
      </trkpt>
      <trkpt lat="43.95437" lon="1.88508">
        <ele>219.4</ele>
        <time>2022-10-12T10:58:27Z</time>
      </trkpt>
      <trkpt lat="43.95435" lon="1.88512">
        <ele>219.6</ele>
        <time>2022-10-12T10:58:28Z</time>
      </trkpt>
      <trkpt lat="43.95434" lon="1.88517">
        <ele>220.2</ele>
        <time>2022-10-12T10:58:29Z</time>
      </trkpt>
      <trkpt lat="43.95433" lon="1.88521">
        <ele>220.4</ele>
        <time>2022-10-12T10:58:30Z</time>
      </trkpt>
      <trkpt lat="43.95431" lon="1.88525">
        <ele>221</ele>
        <time>2022-10-12T10:58:31Z</time>
      </trkpt>
      <trkpt lat="43.95431" lon="1.88528">
        <ele>221</ele>
        <time>2022-10-12T10:58:32Z</time>
      </trkpt>
      <trkpt lat="43.9543" lon="1.88532">
        <ele>221.4</ele>
        <time>2022-10-12T10:58:33Z</time>
      </trkpt>
      <trkpt lat="43.95426" lon="1.88544">
        <ele>222.6</ele>
        <time>2022-10-12T10:58:36Z</time>
      </trkpt>
      <trkpt lat="43.95423" lon="1.88555">
        <ele>222.8</ele>
        <time>2022-10-12T10:58:38Z</time>
      </trkpt>
      <trkpt lat="43.95422" lon="1.88561">
        <ele>222.8</ele>
        <time>2022-10-12T10:58:39Z</time>
      </trkpt>
      <trkpt lat="43.9542" lon="1.88567">
        <ele>222.8</ele>
        <time>2022-10-12T10:58:40Z</time>
      </trkpt>
      <trkpt lat="43.95419" lon="1.88573">
        <ele>222.8</ele>
        <time>2022-10-12T10:58:41Z</time>
      </trkpt>
      <trkpt lat="43.95418" lon="1.88578">
        <ele>222.8</ele>
        <time>2022-10-12T10:58:42Z</time>
      </trkpt>
      <trkpt lat="43.95416" lon="1.88584">
        <ele>222.8</ele>
        <time>2022-10-12T10:58:43Z</time>
      </trkpt>
      <trkpt lat="43.95412" lon="1.88589">
        <ele>222.8</ele>
        <time>2022-10-12T10:58:44Z</time>
      </trkpt>
      <trkpt lat="43.95408" lon="1.88595">
        <ele>222.6</ele>
        <time>2022-10-12T10:58:45Z</time>
      </trkpt>
      <trkpt lat="43.95404" lon="1.88602">
        <ele>222.6</ele>
        <time>2022-10-12T10:58:46Z</time>
      </trkpt>
      <trkpt lat="43.95401" lon="1.88608">
        <ele>222.4</ele>
        <time>2022-10-12T10:58:47Z</time>
      </trkpt>
      <trkpt lat="43.95398" lon="1.88616">
        <ele>222.4</ele>
        <time>2022-10-12T10:58:48Z</time>
      </trkpt>
      <trkpt lat="43.95396" lon="1.88624">
        <ele>222.2</ele>
        <time>2022-10-12T10:58:49Z</time>
      </trkpt>
      <trkpt lat="43.95393" lon="1.88632">
        <ele>222.2</ele>
        <time>2022-10-12T10:58:50Z</time>
      </trkpt>
      <trkpt lat="43.9539" lon="1.8864">
        <ele>222</ele>
        <time>2022-10-12T10:58:51Z</time>
      </trkpt>
      <trkpt lat="43.95387" lon="1.88648">
        <ele>221.8</ele>
        <time>2022-10-12T10:58:52Z</time>
      </trkpt>
      <trkpt lat="43.95384" lon="1.88655">
        <ele>221.6</ele>
        <time>2022-10-12T10:58:53Z</time>
      </trkpt>
      <trkpt lat="43.9538" lon="1.88662">
        <ele>221.2</ele>
        <time>2022-10-12T10:58:54Z</time>
      </trkpt>
      <trkpt lat="43.95366" lon="1.88681">
        <ele>220.8</ele>
        <time>2022-10-12T10:58:57Z</time>
      </trkpt>
      <trkpt lat="43.95362" lon="1.88686">
        <ele>220.6</ele>
        <time>2022-10-12T10:58:58Z</time>
      </trkpt>
      <trkpt lat="43.95357" lon="1.88692">
        <ele>220.4</ele>
        <time>2022-10-12T10:58:59Z</time>
      </trkpt>
      <trkpt lat="43.95354" lon="1.88697">
        <ele>220</ele>
        <time>2022-10-12T10:59:00Z</time>
      </trkpt>
      <trkpt lat="43.9535" lon="1.88702">
        <ele>219.2</ele>
        <time>2022-10-12T10:59:01Z</time>
      </trkpt>
      <trkpt lat="43.95347" lon="1.88704">
        <ele>219</ele>
        <time>2022-10-12T10:59:02Z</time>
      </trkpt>
      <trkpt lat="43.95344" lon="1.88705">
        <ele>218.4</ele>
        <time>2022-10-12T10:59:03Z</time>
      </trkpt>
      <trkpt lat="43.95341" lon="1.88704">
        <ele>217.8</ele>
        <time>2022-10-12T10:59:04Z</time>
      </trkpt>
      <trkpt lat="43.95336" lon="1.887">
        <ele>216.8</ele>
        <time>2022-10-12T10:59:05Z</time>
      </trkpt>
      <trkpt lat="43.9533" lon="1.88696">
        <ele>216.4</ele>
        <time>2022-10-12T10:59:06Z</time>
      </trkpt>
      <trkpt lat="43.95323" lon="1.88691">
        <ele>215.6</ele>
        <time>2022-10-12T10:59:07Z</time>
      </trkpt>
      <trkpt lat="43.95315" lon="1.88687">
        <ele>215.4</ele>
        <time>2022-10-12T10:59:08Z</time>
      </trkpt>
      <trkpt lat="43.95308" lon="1.88685">
        <ele>215</ele>
        <time>2022-10-12T10:59:09Z</time>
      </trkpt>
      <trkpt lat="43.953" lon="1.88684">
        <ele>213.4</ele>
        <time>2022-10-12T10:59:10Z</time>
      </trkpt>
      <trkpt lat="43.95293" lon="1.88686">
        <ele>212.6</ele>
        <time>2022-10-12T10:59:11Z</time>
      </trkpt>
      <trkpt lat="43.95287" lon="1.88689">
        <ele>211.4</ele>
        <time>2022-10-12T10:59:12Z</time>
      </trkpt>
      <trkpt lat="43.95281" lon="1.88694">
        <ele>211</ele>
        <time>2022-10-12T10:59:13Z</time>
      </trkpt>
      <trkpt lat="43.95276" lon="1.88699">
        <ele>210.4</ele>
        <time>2022-10-12T10:59:14Z</time>
      </trkpt>
      <trkpt lat="43.9527" lon="1.88705">
        <ele>209.4</ele>
        <time>2022-10-12T10:59:15Z</time>
      </trkpt>
      <trkpt lat="43.95264" lon="1.88711">
        <ele>208.6</ele>
        <time>2022-10-12T10:59:16Z</time>
      </trkpt>
      <trkpt lat="43.9526" lon="1.88718">
        <ele>207.6</ele>
        <time>2022-10-12T10:59:17Z</time>
      </trkpt>
      <trkpt lat="43.95256" lon="1.88725">
        <ele>207.4</ele>
        <time>2022-10-12T10:59:18Z</time>
      </trkpt>
      <trkpt lat="43.95251" lon="1.88732">
        <ele>207</ele>
        <time>2022-10-12T10:59:19Z</time>
      </trkpt>
      <trkpt lat="43.95243" lon="1.88746">
        <ele>206.6</ele>
        <time>2022-10-12T10:59:21Z</time>
      </trkpt>
      <trkpt lat="43.95239" lon="1.88754">
        <ele>206.4</ele>
        <time>2022-10-12T10:59:22Z</time>
      </trkpt>
      <trkpt lat="43.95234" lon="1.8877">
        <ele>205.2</ele>
        <time>2022-10-12T10:59:24Z</time>
      </trkpt>
      <trkpt lat="43.95232" lon="1.88779">
        <ele>205.2</ele>
        <time>2022-10-12T10:59:25Z</time>
      </trkpt>
      <trkpt lat="43.95231" lon="1.88787">
        <ele>204.8</ele>
        <time>2022-10-12T10:59:26Z</time>
      </trkpt>
      <trkpt lat="43.9523" lon="1.88796">
        <ele>204.6</ele>
        <time>2022-10-12T10:59:27Z</time>
      </trkpt>
      <trkpt lat="43.95229" lon="1.88804">
        <ele>204.4</ele>
        <time>2022-10-12T10:59:28Z</time>
      </trkpt>
      <trkpt lat="43.95227" lon="1.88812">
        <ele>204.2</ele>
        <time>2022-10-12T10:59:29Z</time>
      </trkpt>
      <trkpt lat="43.95226" lon="1.8882">
        <ele>203.6</ele>
        <time>2022-10-12T10:59:30Z</time>
      </trkpt>
      <trkpt lat="43.95222" lon="1.88844">
        <ele>202.8</ele>
        <time>2022-10-12T10:59:33Z</time>
      </trkpt>
      <trkpt lat="43.95221" lon="1.88851">
        <ele>202.6</ele>
        <time>2022-10-12T10:59:34Z</time>
      </trkpt>
      <trkpt lat="43.95219" lon="1.88859">
        <ele>202.4</ele>
        <time>2022-10-12T10:59:35Z</time>
      </trkpt>
      <trkpt lat="43.95217" lon="1.88866">
        <ele>202.2</ele>
        <time>2022-10-12T10:59:36Z</time>
      </trkpt>
      <trkpt lat="43.95215" lon="1.88873">
        <ele>202</ele>
        <time>2022-10-12T10:59:37Z</time>
      </trkpt>
      <trkpt lat="43.95213" lon="1.8888">
        <ele>202</ele>
        <time>2022-10-12T10:59:38Z</time>
      </trkpt>
      <trkpt lat="43.95209" lon="1.88895">
        <ele>201.8</ele>
        <time>2022-10-12T10:59:40Z</time>
      </trkpt>
      <trkpt lat="43.95202" lon="1.88917">
        <ele>201</ele>
        <time>2022-10-12T10:59:43Z</time>
      </trkpt>
      <trkpt lat="43.95187" lon="1.88947">
        <ele>200.6</ele>
        <time>2022-10-12T10:59:47Z</time>
      </trkpt>
      <trkpt lat="43.95179" lon="1.88962">
        <ele>200.4</ele>
        <time>2022-10-12T10:59:49Z</time>
      </trkpt>
      <trkpt lat="43.95168" lon="1.89006">
        <ele>199.8</ele>
        <time>2022-10-12T10:59:54Z</time>
      </trkpt>
      <trkpt lat="43.95166" lon="1.89015">
        <ele>199.6</ele>
        <time>2022-10-12T10:59:55Z</time>
      </trkpt>
      <trkpt lat="43.95155" lon="1.89038">
        <ele>199.4</ele>
        <time>2022-10-12T10:59:58Z</time>
      </trkpt>
      <trkpt lat="43.95152" lon="1.89046">
        <ele>199.4</ele>
        <time>2022-10-12T10:59:59Z</time>
      </trkpt>
      <trkpt lat="43.9515" lon="1.89054">
        <ele>199.2</ele>
        <time>2022-10-12T11:00:00Z</time>
      </trkpt>
      <trkpt lat="43.95149" lon="1.89063">
        <ele>199.2</ele>
        <time>2022-10-12T11:00:01Z</time>
      </trkpt>
      <trkpt lat="43.95147" lon="1.89081">
        <ele>199</ele>
        <time>2022-10-12T11:00:03Z</time>
      </trkpt>
      <trkpt lat="43.95143" lon="1.89108">
        <ele>198.6</ele>
        <time>2022-10-12T11:00:06Z</time>
      </trkpt>
      <trkpt lat="43.95138" lon="1.89155">
        <ele>198.2</ele>
        <time>2022-10-12T11:00:11Z</time>
      </trkpt>
      <trkpt lat="43.95135" lon="1.89183">
        <ele>197.8</ele>
        <time>2022-10-12T11:00:14Z</time>
      </trkpt>
      <trkpt lat="43.95134" lon="1.89192">
        <ele>197.8</ele>
        <time>2022-10-12T11:00:15Z</time>
      </trkpt>
      <trkpt lat="43.95133" lon="1.89201">
        <ele>197.6</ele>
        <time>2022-10-12T11:00:16Z</time>
      </trkpt>
      <trkpt lat="43.95131" lon="1.8921">
        <ele>197.4</ele>
        <time>2022-10-12T11:00:17Z</time>
      </trkpt>
      <trkpt lat="43.95127" lon="1.89237">
        <ele>197</ele>
        <time>2022-10-12T11:00:20Z</time>
      </trkpt>
      <trkpt lat="43.95123" lon="1.89263">
        <ele>196.6</ele>
        <time>2022-10-12T11:00:23Z</time>
      </trkpt>
      <trkpt lat="43.95121" lon="1.89281">
        <ele>196.2</ele>
        <time>2022-10-12T11:00:25Z</time>
      </trkpt>
      <trkpt lat="43.95121" lon="1.8929">
        <ele>196.2</ele>
        <time>2022-10-12T11:00:26Z</time>
      </trkpt>
      <trkpt lat="43.95124" lon="1.89299">
        <ele>196</ele>
        <time>2022-10-12T11:00:27Z</time>
      </trkpt>
      <trkpt lat="43.95127" lon="1.89307">
        <ele>195.6</ele>
        <time>2022-10-12T11:00:28Z</time>
      </trkpt>
      <trkpt lat="43.95131" lon="1.89313">
        <ele>195.8</ele>
        <time>2022-10-12T11:00:29Z</time>
      </trkpt>
      <trkpt lat="43.95136" lon="1.8932">
        <ele>195.4</ele>
        <time>2022-10-12T11:00:30Z</time>
      </trkpt>
      <trkpt lat="43.95142" lon="1.89325">
        <ele>195.4</ele>
        <time>2022-10-12T11:00:31Z</time>
      </trkpt>
      <trkpt lat="43.95147" lon="1.89331">
        <ele>195.2</ele>
        <time>2022-10-12T11:00:32Z</time>
      </trkpt>
      <trkpt lat="43.95152" lon="1.89336">
        <ele>195.2</ele>
        <time>2022-10-12T11:00:33Z</time>
      </trkpt>
      <trkpt lat="43.95158" lon="1.8934">
        <ele>195</ele>
        <time>2022-10-12T11:00:34Z</time>
      </trkpt>
      <trkpt lat="43.95163" lon="1.89344">
        <ele>194.8</ele>
        <time>2022-10-12T11:00:35Z</time>
      </trkpt>
      <trkpt lat="43.95168" lon="1.89347">
        <ele>194.8</ele>
        <time>2022-10-12T11:00:36Z</time>
      </trkpt>
      <trkpt lat="43.95174" lon="1.89348">
        <ele>194.8</ele>
        <time>2022-10-12T11:00:37Z</time>
      </trkpt>
      <trkpt lat="43.95179" lon="1.89349">
        <ele>194.8</ele>
        <time>2022-10-12T11:00:38Z</time>
      </trkpt>
      <trkpt lat="43.95184" lon="1.8935">
        <ele>194.6</ele>
        <time>2022-10-12T11:00:39Z</time>
      </trkpt>
      <trkpt lat="43.95189" lon="1.89351">
        <ele>194.6</ele>
        <time>2022-10-12T11:00:40Z</time>
      </trkpt>
      <trkpt lat="43.95194" lon="1.89352">
        <ele>194.6</ele>
        <time>2022-10-12T11:00:41Z</time>
      </trkpt>
      <trkpt lat="43.95209" lon="1.89361">
        <ele>194.6</ele>
        <time>2022-10-12T11:00:44Z</time>
      </trkpt>
      <trkpt lat="43.95241" lon="1.89388">
        <ele>195.6</ele>
        <time>2022-10-12T11:00:51Z</time>
      </trkpt>
      <trkpt lat="43.95245" lon="1.89392">
        <ele>195.6</ele>
        <time>2022-10-12T11:00:52Z</time>
      </trkpt>
      <trkpt lat="43.9525" lon="1.89395">
        <ele>195.8</ele>
        <time>2022-10-12T11:00:53Z</time>
      </trkpt>
      <trkpt lat="43.95254" lon="1.89399">
        <ele>196</ele>
        <time>2022-10-12T11:00:54Z</time>
      </trkpt>
      <trkpt lat="43.95257" lon="1.89403">
        <ele>196.2</ele>
        <time>2022-10-12T11:00:55Z</time>
      </trkpt>
      <trkpt lat="43.95258" lon="1.89409">
        <ele>196.4</ele>
        <time>2022-10-12T11:00:56Z</time>
      </trkpt>
      <trkpt lat="43.95259" lon="1.89414">
        <ele>196.4</ele>
        <time>2022-10-12T11:00:57Z</time>
      </trkpt>
      <trkpt lat="43.9526" lon="1.89418">
        <ele>196.6</ele>
        <time>2022-10-12T11:00:58Z</time>
      </trkpt>
      <trkpt lat="43.95261" lon="1.89423">
        <ele>196.8</ele>
        <time>2022-10-12T11:00:59Z</time>
      </trkpt>
      <trkpt lat="43.95261" lon="1.89427">
        <ele>197</ele>
        <time>2022-10-12T11:01:00Z</time>
      </trkpt>
      <trkpt lat="43.95261" lon="1.8943">
        <ele>197</ele>
        <time>2022-10-12T11:01:01Z</time>
      </trkpt>
      <trkpt lat="43.95261" lon="1.89434">
        <ele>197.2</ele>
        <time>2022-10-12T11:01:02Z</time>
      </trkpt>
      <trkpt lat="43.95261" lon="1.89436">
        <ele>197.2</ele>
        <time>2022-10-12T11:01:03Z</time>
      </trkpt>
      <trkpt lat="43.95261" lon="1.89439">
        <ele>197.4</ele>
        <time>2022-10-12T11:01:04Z</time>
      </trkpt>
      <trkpt lat="43.95261" lon="1.89443">
        <ele>197.6</ele>
        <time>2022-10-12T11:01:05Z</time>
      </trkpt>
      <trkpt lat="43.95261" lon="1.89445">
        <ele>197.8</ele>
        <time>2022-10-12T11:01:06Z</time>
      </trkpt>
      <trkpt lat="43.95261" lon="1.89448">
        <ele>197.8</ele>
        <time>2022-10-12T11:01:07Z</time>
      </trkpt>
      <trkpt lat="43.95261" lon="1.89452">
        <ele>197.8</ele>
        <time>2022-10-12T11:01:08Z</time>
      </trkpt>
      <trkpt lat="43.95261" lon="1.89456">
        <ele>198.2</ele>
        <time>2022-10-12T11:01:10Z</time>
      </trkpt>
      <trkpt lat="43.95261" lon="1.89457">
        <ele>198.2</ele>
        <time>2022-10-12T11:01:11Z</time>
      </trkpt>
      <trkpt lat="43.95261" lon="1.89459">
        <ele>198.4</ele>
        <time>2022-10-12T11:01:12Z</time>
      </trkpt>
      <trkpt lat="43.95261" lon="1.89461">
        <ele>198.6</ele>
        <time>2022-10-12T11:01:13Z</time>
      </trkpt>
      <trkpt lat="43.95261" lon="1.89462">
        <ele>198.8</ele>
        <time>2022-10-12T11:01:14Z</time>
      </trkpt>
      <trkpt lat="43.95261" lon="1.89464">
        <ele>199</ele>
        <time>2022-10-12T11:01:15Z</time>
      </trkpt>
      <trkpt lat="43.95261" lon="1.89464">
        <ele>199.2</ele>
        <time>2022-10-12T11:01:16Z</time>
      </trkpt>
      <trkpt lat="43.95261" lon="1.89467">
        <ele>199.2</ele>
        <time>2022-10-12T11:01:17Z</time>
      </trkpt>
      <trkpt lat="43.95262" lon="1.89469">
        <ele>199.4</ele>
        <time>2022-10-12T11:01:18Z</time>
      </trkpt>
      <trkpt lat="43.95262" lon="1.89471">
        <ele>199.4</ele>
        <time>2022-10-12T11:01:19Z</time>
      </trkpt>
      <trkpt lat="43.95262" lon="1.89473">
        <ele>199.6</ele>
        <time>2022-10-12T11:01:20Z</time>
      </trkpt>
      <trkpt lat="43.95263" lon="1.89474">
        <ele>199.8</ele>
        <time>2022-10-12T11:01:21Z</time>
      </trkpt>
      <trkpt lat="43.95263" lon="1.89476">
        <ele>199.8</ele>
        <time>2022-10-12T11:01:22Z</time>
      </trkpt>
      <trkpt lat="43.95263" lon="1.89478">
        <ele>200</ele>
        <time>2022-10-12T11:01:23Z</time>
      </trkpt>
      <trkpt lat="43.95264" lon="1.8948">
        <ele>200.2</ele>
        <time>2022-10-12T11:01:24Z</time>
      </trkpt>
      <trkpt lat="43.95264" lon="1.89481">
        <ele>200.2</ele>
        <time>2022-10-12T11:01:25Z</time>
      </trkpt>
      <trkpt lat="43.95265" lon="1.89483">
        <ele>200.4</ele>
        <time>2022-10-12T11:01:26Z</time>
      </trkpt>
      <trkpt lat="43.95265" lon="1.89485">
        <ele>200.6</ele>
        <time>2022-10-12T11:01:27Z</time>
      </trkpt>
      <trkpt lat="43.95265" lon="1.89486">
        <ele>200.6</ele>
        <time>2022-10-12T11:01:28Z</time>
      </trkpt>
      <trkpt lat="43.95266" lon="1.89488">
        <ele>200.8</ele>
        <time>2022-10-12T11:01:29Z</time>
      </trkpt>
      <trkpt lat="43.95267" lon="1.89489">
        <ele>200.8</ele>
        <time>2022-10-12T11:01:30Z</time>
      </trkpt>
      <trkpt lat="43.95267" lon="1.89491">
        <ele>201</ele>
        <time>2022-10-12T11:01:31Z</time>
      </trkpt>
      <trkpt lat="43.95268" lon="1.89492">
        <ele>201</ele>
        <time>2022-10-12T11:01:32Z</time>
      </trkpt>
      <trkpt lat="43.95269" lon="1.89494">
        <ele>201.2</ele>
        <time>2022-10-12T11:01:33Z</time>
      </trkpt>
      <trkpt lat="43.95269" lon="1.89496">
        <ele>201.2</ele>
        <time>2022-10-12T11:01:34Z</time>
      </trkpt>
      <trkpt lat="43.9527" lon="1.89497">
        <ele>201.4</ele>
        <time>2022-10-12T11:01:35Z</time>
      </trkpt>
      <trkpt lat="43.9527" lon="1.89499">
        <ele>201.6</ele>
        <time>2022-10-12T11:01:36Z</time>
      </trkpt>
      <trkpt lat="43.95271" lon="1.89501">
        <ele>201.6</ele>
        <time>2022-10-12T11:01:37Z</time>
      </trkpt>
      <trkpt lat="43.95272" lon="1.89503">
        <ele>201.8</ele>
        <time>2022-10-12T11:01:38Z</time>
      </trkpt>
      <trkpt lat="43.95273" lon="1.89505">
        <ele>202</ele>
        <time>2022-10-12T11:01:39Z</time>
      </trkpt>
      <trkpt lat="43.95273" lon="1.89506">
        <ele>202</ele>
        <time>2022-10-12T11:01:40Z</time>
      </trkpt>
      <trkpt lat="43.95274" lon="1.89507">
        <ele>202.2</ele>
        <time>2022-10-12T11:01:41Z</time>
      </trkpt>
      <trkpt lat="43.95274" lon="1.89509">
        <ele>202.2</ele>
        <time>2022-10-12T11:01:42Z</time>
      </trkpt>
      <trkpt lat="43.95275" lon="1.89511">
        <ele>202.2</ele>
        <time>2022-10-12T11:01:43Z</time>
      </trkpt>
      <trkpt lat="43.95275" lon="1.89512">
        <ele>202.2</ele>
        <time>2022-10-12T11:01:44Z</time>
      </trkpt>
      <trkpt lat="43.95276" lon="1.89513">
        <ele>202.4</ele>
        <time>2022-10-12T11:01:45Z</time>
      </trkpt>
      <trkpt lat="43.95276" lon="1.89515">
        <ele>202.6</ele>
        <time>2022-10-12T11:01:46Z</time>
      </trkpt>
      <trkpt lat="43.95277" lon="1.89516">
        <ele>202.8</ele>
        <time>2022-10-12T11:01:47Z</time>
      </trkpt>
      <trkpt lat="43.95278" lon="1.89517">
        <ele>202.8</ele>
        <time>2022-10-12T11:01:48Z</time>
      </trkpt>
      <trkpt lat="43.95278" lon="1.89519">
        <ele>203</ele>
        <time>2022-10-12T11:01:49Z</time>
      </trkpt>
      <trkpt lat="43.95279" lon="1.8952">
        <ele>203</ele>
        <time>2022-10-12T11:01:50Z</time>
      </trkpt>
      <trkpt lat="43.95279" lon="1.89522">
        <ele>203.2</ele>
        <time>2022-10-12T11:01:51Z</time>
      </trkpt>
      <trkpt lat="43.9528" lon="1.89524">
        <ele>203.4</ele>
        <time>2022-10-12T11:01:52Z</time>
      </trkpt>
      <trkpt lat="43.9528" lon="1.89526">
        <ele>203.4</ele>
        <time>2022-10-12T11:01:53Z</time>
      </trkpt>
      <trkpt lat="43.95281" lon="1.89527">
        <ele>203.4</ele>
        <time>2022-10-12T11:01:54Z</time>
      </trkpt>
      <trkpt lat="43.95281" lon="1.89529">
        <ele>203.6</ele>
        <time>2022-10-12T11:01:55Z</time>
      </trkpt>
      <trkpt lat="43.95282" lon="1.8953">
        <ele>203.8</ele>
        <time>2022-10-12T11:01:56Z</time>
      </trkpt>
      <trkpt lat="43.95282" lon="1.89532">
        <ele>204</ele>
        <time>2022-10-12T11:01:57Z</time>
      </trkpt>
      <trkpt lat="43.95283" lon="1.89533">
        <ele>204.2</ele>
        <time>2022-10-12T11:01:58Z</time>
      </trkpt>
      <trkpt lat="43.95283" lon="1.89535">
        <ele>204.6</ele>
        <time>2022-10-12T11:01:59Z</time>
      </trkpt>
      <trkpt lat="43.95284" lon="1.89536">
        <ele>204.6</ele>
        <time>2022-10-12T11:02:00Z</time>
      </trkpt>
      <trkpt lat="43.95284" lon="1.89538">
        <ele>204.8</ele>
        <time>2022-10-12T11:02:01Z</time>
      </trkpt>
      <trkpt lat="43.95285" lon="1.89539">
        <ele>205</ele>
        <time>2022-10-12T11:02:02Z</time>
      </trkpt>
      <trkpt lat="43.95285" lon="1.8954">
        <ele>205</ele>
        <time>2022-10-12T11:02:03Z</time>
      </trkpt>
      <trkpt lat="43.95286" lon="1.89541">
        <ele>205.2</ele>
        <time>2022-10-12T11:02:04Z</time>
      </trkpt>
      <trkpt lat="43.95286" lon="1.89542">
        <ele>205.2</ele>
        <time>2022-10-12T11:02:05Z</time>
      </trkpt>
      <trkpt lat="43.95287" lon="1.89543">
        <ele>205.6</ele>
        <time>2022-10-12T11:02:06Z</time>
      </trkpt>
      <trkpt lat="43.95288" lon="1.89545">
        <ele>205.8</ele>
        <time>2022-10-12T11:02:07Z</time>
      </trkpt>
      <trkpt lat="43.95288" lon="1.89546">
        <ele>206</ele>
        <time>2022-10-12T11:02:08Z</time>
      </trkpt>
      <trkpt lat="43.95289" lon="1.89548">
        <ele>206</ele>
        <time>2022-10-12T11:02:09Z</time>
      </trkpt>
      <trkpt lat="43.9529" lon="1.8955">
        <ele>206.2</ele>
        <time>2022-10-12T11:02:10Z</time>
      </trkpt>
      <trkpt lat="43.9529" lon="1.89551">
        <ele>206.2</ele>
        <time>2022-10-12T11:02:11Z</time>
      </trkpt>
      <trkpt lat="43.95291" lon="1.89552">
        <ele>206.4</ele>
        <time>2022-10-12T11:02:12Z</time>
      </trkpt>
      <trkpt lat="43.95292" lon="1.89553">
        <ele>206.6</ele>
        <time>2022-10-12T11:02:13Z</time>
      </trkpt>
      <trkpt lat="43.95293" lon="1.89555">
        <ele>206.8</ele>
        <time>2022-10-12T11:02:14Z</time>
      </trkpt>
      <trkpt lat="43.95293" lon="1.89556">
        <ele>207</ele>
        <time>2022-10-12T11:02:15Z</time>
      </trkpt>
      <trkpt lat="43.95294" lon="1.89557">
        <ele>207.2</ele>
        <time>2022-10-12T11:02:16Z</time>
      </trkpt>
      <trkpt lat="43.95295" lon="1.89558">
        <ele>207.6</ele>
        <time>2022-10-12T11:02:17Z</time>
      </trkpt>
      <trkpt lat="43.95296" lon="1.89559">
        <ele>207.8</ele>
        <time>2022-10-12T11:02:18Z</time>
      </trkpt>
      <trkpt lat="43.95296" lon="1.89561">
        <ele>208</ele>
        <time>2022-10-12T11:02:19Z</time>
      </trkpt>
      <trkpt lat="43.95297" lon="1.89562">
        <ele>208.4</ele>
        <time>2022-10-12T11:02:20Z</time>
      </trkpt>
      <trkpt lat="43.95298" lon="1.89563">
        <ele>208.4</ele>
        <time>2022-10-12T11:02:21Z</time>
      </trkpt>
      <trkpt lat="43.95299" lon="1.89564">
        <ele>208.8</ele>
        <time>2022-10-12T11:02:22Z</time>
      </trkpt>
      <trkpt lat="43.95299" lon="1.89565">
        <ele>209</ele>
        <time>2022-10-12T11:02:23Z</time>
      </trkpt>
      <trkpt lat="43.953" lon="1.89566">
        <ele>209.2</ele>
        <time>2022-10-12T11:02:24Z</time>
      </trkpt>
      <trkpt lat="43.95301" lon="1.89567">
        <ele>209.6</ele>
        <time>2022-10-12T11:02:25Z</time>
      </trkpt>
      <trkpt lat="43.95302" lon="1.89568">
        <ele>209.8</ele>
        <time>2022-10-12T11:02:26Z</time>
      </trkpt>
      <trkpt lat="43.95302" lon="1.89569">
        <ele>210</ele>
        <time>2022-10-12T11:02:27Z</time>
      </trkpt>
      <trkpt lat="43.95303" lon="1.89571">
        <ele>210.2</ele>
        <time>2022-10-12T11:02:28Z</time>
      </trkpt>
      <trkpt lat="43.95304" lon="1.89572">
        <ele>210.4</ele>
        <time>2022-10-12T11:02:29Z</time>
      </trkpt>
      <trkpt lat="43.95305" lon="1.89573">
        <ele>210.6</ele>
        <time>2022-10-12T11:02:30Z</time>
      </trkpt>
      <trkpt lat="43.95305" lon="1.89574">
        <ele>210.8</ele>
        <time>2022-10-12T11:02:31Z</time>
      </trkpt>
      <trkpt lat="43.95306" lon="1.89575">
        <ele>211</ele>
        <time>2022-10-12T11:02:32Z</time>
      </trkpt>
      <trkpt lat="43.95307" lon="1.89575">
        <ele>211.2</ele>
        <time>2022-10-12T11:02:33Z</time>
      </trkpt>
      <trkpt lat="43.95308" lon="1.89576">
        <ele>211.4</ele>
        <time>2022-10-12T11:02:34Z</time>
      </trkpt>
      <trkpt lat="43.95309" lon="1.89577">
        <ele>211.8</ele>
        <time>2022-10-12T11:02:35Z</time>
      </trkpt>
      <trkpt lat="43.9531" lon="1.89578">
        <ele>212.2</ele>
        <time>2022-10-12T11:02:36Z</time>
      </trkpt>
      <trkpt lat="43.95312" lon="1.89579">
        <ele>212.4</ele>
        <time>2022-10-12T11:02:37Z</time>
      </trkpt>
      <trkpt lat="43.95313" lon="1.89579">
        <ele>212.8</ele>
        <time>2022-10-12T11:02:38Z</time>
      </trkpt>
      <trkpt lat="43.95314" lon="1.8958">
        <ele>213</ele>
        <time>2022-10-12T11:02:39Z</time>
      </trkpt>
      <trkpt lat="43.95315" lon="1.89581">
        <ele>213.4</ele>
        <time>2022-10-12T11:02:40Z</time>
      </trkpt>
      <trkpt lat="43.95316" lon="1.89581">
        <ele>213.6</ele>
        <time>2022-10-12T11:02:41Z</time>
      </trkpt>
      <trkpt lat="43.95318" lon="1.89582">
        <ele>213.8</ele>
        <time>2022-10-12T11:02:42Z</time>
      </trkpt>
      <trkpt lat="43.95318" lon="1.89583">
        <ele>214</ele>
        <time>2022-10-12T11:02:43Z</time>
      </trkpt>
      <trkpt lat="43.95319" lon="1.89583">
        <ele>214.4</ele>
        <time>2022-10-12T11:02:44Z</time>
      </trkpt>
      <trkpt lat="43.9532" lon="1.89584">
        <ele>214.6</ele>
        <time>2022-10-12T11:02:45Z</time>
      </trkpt>
      <trkpt lat="43.95321" lon="1.89585">
        <ele>214.6</ele>
        <time>2022-10-12T11:02:46Z</time>
      </trkpt>
      <trkpt lat="43.95322" lon="1.89586">
        <ele>214.8</ele>
        <time>2022-10-12T11:02:47Z</time>
      </trkpt>
      <trkpt lat="43.95323" lon="1.89586">
        <ele>215</ele>
        <time>2022-10-12T11:02:48Z</time>
      </trkpt>
      <trkpt lat="43.95325" lon="1.89587">
        <ele>215</ele>
        <time>2022-10-12T11:02:49Z</time>
      </trkpt>
      <trkpt lat="43.95326" lon="1.89588">
        <ele>215.2</ele>
        <time>2022-10-12T11:02:50Z</time>
      </trkpt>
      <trkpt lat="43.95326" lon="1.89589">
        <ele>215.6</ele>
        <time>2022-10-12T11:02:51Z</time>
      </trkpt>
      <trkpt lat="43.95327" lon="1.8959">
        <ele>215.8</ele>
        <time>2022-10-12T11:02:52Z</time>
      </trkpt>
      <trkpt lat="43.95328" lon="1.8959">
        <ele>216</ele>
        <time>2022-10-12T11:02:53Z</time>
      </trkpt>
      <trkpt lat="43.95329" lon="1.89591">
        <ele>216.4</ele>
        <time>2022-10-12T11:02:54Z</time>
      </trkpt>
      <trkpt lat="43.95329" lon="1.89592">
        <ele>216.4</ele>
        <time>2022-10-12T11:02:55Z</time>
      </trkpt>
      <trkpt lat="43.9533" lon="1.89593">
        <ele>216.8</ele>
        <time>2022-10-12T11:02:56Z</time>
      </trkpt>
      <trkpt lat="43.95331" lon="1.89595">
        <ele>216.8</ele>
        <time>2022-10-12T11:02:57Z</time>
      </trkpt>
      <trkpt lat="43.95331" lon="1.89596">
        <ele>217</ele>
        <time>2022-10-12T11:02:58Z</time>
      </trkpt>
      <trkpt lat="43.95332" lon="1.89597">
        <ele>217.2</ele>
        <time>2022-10-12T11:02:59Z</time>
      </trkpt>
      <trkpt lat="43.95333" lon="1.89598">
        <ele>217.2</ele>
        <time>2022-10-12T11:03:00Z</time>
      </trkpt>
      <trkpt lat="43.95333" lon="1.89599">
        <ele>217.4</ele>
        <time>2022-10-12T11:03:01Z</time>
      </trkpt>
      <trkpt lat="43.95334" lon="1.896">
        <ele>217.6</ele>
        <time>2022-10-12T11:03:02Z</time>
      </trkpt>
      <trkpt lat="43.95335" lon="1.89602">
        <ele>217.8</ele>
        <time>2022-10-12T11:03:03Z</time>
      </trkpt>
      <trkpt lat="43.95335" lon="1.89603">
        <ele>218</ele>
        <time>2022-10-12T11:03:04Z</time>
      </trkpt>
      <trkpt lat="43.95336" lon="1.89604">
        <ele>218.2</ele>
        <time>2022-10-12T11:03:05Z</time>
      </trkpt>
      <trkpt lat="43.95337" lon="1.89604">
        <ele>218.4</ele>
        <time>2022-10-12T11:03:06Z</time>
      </trkpt>
      <trkpt lat="43.95337" lon="1.89605">
        <ele>218.8</ele>
        <time>2022-10-12T11:03:07Z</time>
      </trkpt>
      <trkpt lat="43.95338" lon="1.89606">
        <ele>218.8</ele>
        <time>2022-10-12T11:03:08Z</time>
      </trkpt>
      <trkpt lat="43.95338" lon="1.89607">
        <ele>219</ele>
        <time>2022-10-12T11:03:09Z</time>
      </trkpt>
      <trkpt lat="43.95339" lon="1.89607">
        <ele>219.2</ele>
        <time>2022-10-12T11:03:10Z</time>
      </trkpt>
      <trkpt lat="43.95339" lon="1.89608">
        <ele>219.4</ele>
        <time>2022-10-12T11:03:11Z</time>
      </trkpt>
      <trkpt lat="43.9534" lon="1.89609">
        <ele>219.8</ele>
        <time>2022-10-12T11:03:12Z</time>
      </trkpt>
      <trkpt lat="43.9534" lon="1.8961">
        <ele>219.8</ele>
        <time>2022-10-12T11:03:13Z</time>
      </trkpt>
      <trkpt lat="43.95341" lon="1.89611">
        <ele>220</ele>
        <time>2022-10-12T11:03:14Z</time>
      </trkpt>
      <trkpt lat="43.95341" lon="1.89612">
        <ele>220.2</ele>
        <time>2022-10-12T11:03:15Z</time>
      </trkpt>
      <trkpt lat="43.95342" lon="1.89613">
        <ele>220.8</ele>
        <time>2022-10-12T11:03:16Z</time>
      </trkpt>
      <trkpt lat="43.95343" lon="1.89614">
        <ele>221</ele>
        <time>2022-10-12T11:03:17Z</time>
      </trkpt>
      <trkpt lat="43.95343" lon="1.89615">
        <ele>221.2</ele>
        <time>2022-10-12T11:03:18Z</time>
      </trkpt>
      <trkpt lat="43.95344" lon="1.89616">
        <ele>221.6</ele>
        <time>2022-10-12T11:03:19Z</time>
      </trkpt>
      <trkpt lat="43.95344" lon="1.89617">
        <ele>221.6</ele>
        <time>2022-10-12T11:03:20Z</time>
      </trkpt>
      <trkpt lat="43.95344" lon="1.89618">
        <ele>221.8</ele>
        <time>2022-10-12T11:03:21Z</time>
      </trkpt>
      <trkpt lat="43.95345" lon="1.8962">
        <ele>221.8</ele>
        <time>2022-10-12T11:03:22Z</time>
      </trkpt>
      <trkpt lat="43.95346" lon="1.89621">
        <ele>222</ele>
        <time>2022-10-12T11:03:23Z</time>
      </trkpt>
      <trkpt lat="43.95346" lon="1.89622">
        <ele>222.2</ele>
        <time>2022-10-12T11:03:24Z</time>
      </trkpt>
      <trkpt lat="43.95347" lon="1.89623">
        <ele>222.4</ele>
        <time>2022-10-12T11:03:25Z</time>
      </trkpt>
      <trkpt lat="43.95348" lon="1.89625">
        <ele>222.6</ele>
        <time>2022-10-12T11:03:26Z</time>
      </trkpt>
      <trkpt lat="43.95348" lon="1.89626">
        <ele>223</ele>
        <time>2022-10-12T11:03:27Z</time>
      </trkpt>
      <trkpt lat="43.95349" lon="1.89627">
        <ele>223.4</ele>
        <time>2022-10-12T11:03:28Z</time>
      </trkpt>
      <trkpt lat="43.95349" lon="1.89628">
        <ele>223.6</ele>
        <time>2022-10-12T11:03:29Z</time>
      </trkpt>
      <trkpt lat="43.9535" lon="1.89629">
        <ele>224</ele>
        <time>2022-10-12T11:03:30Z</time>
      </trkpt>
      <trkpt lat="43.9535" lon="1.89631">
        <ele>224.2</ele>
        <time>2022-10-12T11:03:31Z</time>
      </trkpt>
      <trkpt lat="43.95351" lon="1.89633">
        <ele>224.8</ele>
        <time>2022-10-12T11:03:32Z</time>
      </trkpt>
      <trkpt lat="43.95351" lon="1.89634">
        <ele>225.2</ele>
        <time>2022-10-12T11:03:33Z</time>
      </trkpt>
      <trkpt lat="43.95352" lon="1.89635">
        <ele>225.2</ele>
        <time>2022-10-12T11:03:34Z</time>
      </trkpt>
      <trkpt lat="43.95352" lon="1.89637">
        <ele>225.6</ele>
        <time>2022-10-12T11:03:35Z</time>
      </trkpt>
      <trkpt lat="43.95352" lon="1.89638">
        <ele>225.8</ele>
        <time>2022-10-12T11:03:36Z</time>
      </trkpt>
      <trkpt lat="43.95352" lon="1.8964">
        <ele>226.2</ele>
        <time>2022-10-12T11:03:37Z</time>
      </trkpt>
      <trkpt lat="43.95352" lon="1.89643">
        <ele>226.2</ele>
        <time>2022-10-12T11:03:38Z</time>
      </trkpt>
      <trkpt lat="43.95352" lon="1.89645">
        <ele>226.4</ele>
        <time>2022-10-12T11:03:39Z</time>
      </trkpt>
      <trkpt lat="43.95353" lon="1.89646">
        <ele>226.4</ele>
        <time>2022-10-12T11:03:40Z</time>
      </trkpt>
      <trkpt lat="43.95353" lon="1.89647">
        <ele>226.8</ele>
        <time>2022-10-12T11:03:41Z</time>
      </trkpt>
      <trkpt lat="43.95354" lon="1.89649">
        <ele>227</ele>
        <time>2022-10-12T11:03:42Z</time>
      </trkpt>
      <trkpt lat="43.95355" lon="1.8965">
        <ele>227</ele>
        <time>2022-10-12T11:03:43Z</time>
      </trkpt>
      <trkpt lat="43.95356" lon="1.89652">
        <ele>227.2</ele>
        <time>2022-10-12T11:03:44Z</time>
      </trkpt>
      <trkpt lat="43.95357" lon="1.89653">
        <ele>227.2</ele>
        <time>2022-10-12T11:03:45Z</time>
      </trkpt>
      <trkpt lat="43.95358" lon="1.89655">
        <ele>227.2</ele>
        <time>2022-10-12T11:03:46Z</time>
      </trkpt>
      <trkpt lat="43.95358" lon="1.89657">
        <ele>227.2</ele>
        <time>2022-10-12T11:03:47Z</time>
      </trkpt>
      <trkpt lat="43.95359" lon="1.89659">
        <ele>227.4</ele>
        <time>2022-10-12T11:03:48Z</time>
      </trkpt>
      <trkpt lat="43.9536" lon="1.89661">
        <ele>227.4</ele>
        <time>2022-10-12T11:03:49Z</time>
      </trkpt>
      <trkpt lat="43.9536" lon="1.89663">
        <ele>227.6</ele>
        <time>2022-10-12T11:03:50Z</time>
      </trkpt>
      <trkpt lat="43.95361" lon="1.89665">
        <ele>227.6</ele>
        <time>2022-10-12T11:03:51Z</time>
      </trkpt>
      <trkpt lat="43.95361" lon="1.89667">
        <ele>227.6</ele>
        <time>2022-10-12T11:03:52Z</time>
      </trkpt>
      <trkpt lat="43.95362" lon="1.89669">
        <ele>227.8</ele>
        <time>2022-10-12T11:03:53Z</time>
      </trkpt>
      <trkpt lat="43.95362" lon="1.8967">
        <ele>227.8</ele>
        <time>2022-10-12T11:03:54Z</time>
      </trkpt>
      <trkpt lat="43.95363" lon="1.89673">
        <ele>228</ele>
        <time>2022-10-12T11:03:55Z</time>
      </trkpt>
      <trkpt lat="43.95363" lon="1.89674">
        <ele>228</ele>
        <time>2022-10-12T11:03:56Z</time>
      </trkpt>
      <trkpt lat="43.95364" lon="1.89676">
        <ele>228</ele>
        <time>2022-10-12T11:03:57Z</time>
      </trkpt>
      <trkpt lat="43.95365" lon="1.89678">
        <ele>228</ele>
        <time>2022-10-12T11:03:58Z</time>
      </trkpt>
      <trkpt lat="43.95366" lon="1.89681">
        <ele>228.2</ele>
        <time>2022-10-12T11:03:59Z</time>
      </trkpt>
      <trkpt lat="43.95367" lon="1.89682">
        <ele>228.2</ele>
        <time>2022-10-12T11:04:00Z</time>
      </trkpt>
      <trkpt lat="43.95368" lon="1.89684">
        <ele>228.2</ele>
        <time>2022-10-12T11:04:01Z</time>
      </trkpt>
      <trkpt lat="43.95368" lon="1.89686">
        <ele>228.2</ele>
        <time>2022-10-12T11:04:02Z</time>
      </trkpt>
      <trkpt lat="43.95369" lon="1.89688">
        <ele>228.4</ele>
        <time>2022-10-12T11:04:03Z</time>
      </trkpt>
      <trkpt lat="43.9537" lon="1.8969">
        <ele>228.4</ele>
        <time>2022-10-12T11:04:04Z</time>
      </trkpt>
      <trkpt lat="43.95371" lon="1.89692">
        <ele>228.6</ele>
        <time>2022-10-12T11:04:05Z</time>
      </trkpt>
      <trkpt lat="43.95371" lon="1.89694">
        <ele>228.6</ele>
        <time>2022-10-12T11:04:06Z</time>
      </trkpt>
      <trkpt lat="43.95372" lon="1.89696">
        <ele>228.6</ele>
        <time>2022-10-12T11:04:07Z</time>
      </trkpt>
      <trkpt lat="43.95373" lon="1.89698">
        <ele>228.8</ele>
        <time>2022-10-12T11:04:08Z</time>
      </trkpt>
      <trkpt lat="43.95374" lon="1.89701">
        <ele>228.8</ele>
        <time>2022-10-12T11:04:09Z</time>
      </trkpt>
      <trkpt lat="43.95375" lon="1.89704">
        <ele>229.2</ele>
        <time>2022-10-12T11:04:11Z</time>
      </trkpt>
      <trkpt lat="43.95376" lon="1.89708">
        <ele>229.2</ele>
        <time>2022-10-12T11:04:13Z</time>
      </trkpt>
      <trkpt lat="43.95377" lon="1.8971">
        <ele>229.2</ele>
        <time>2022-10-12T11:04:14Z</time>
      </trkpt>
      <trkpt lat="43.95377" lon="1.89712">
        <ele>229.4</ele>
        <time>2022-10-12T11:04:15Z</time>
      </trkpt>
      <trkpt lat="43.9538" lon="1.89718">
        <ele>230</ele>
        <time>2022-10-12T11:04:18Z</time>
      </trkpt>
      <trkpt lat="43.9538" lon="1.8972">
        <ele>230.2</ele>
        <time>2022-10-12T11:04:19Z</time>
      </trkpt>
      <trkpt lat="43.95382" lon="1.89724">
        <ele>230.4</ele>
        <time>2022-10-12T11:04:21Z</time>
      </trkpt>
      <trkpt lat="43.95383" lon="1.89728">
        <ele>230.6</ele>
        <time>2022-10-12T11:04:23Z</time>
      </trkpt>
      <trkpt lat="43.95385" lon="1.89732">
        <ele>231</ele>
        <time>2022-10-12T11:04:25Z</time>
      </trkpt>
      <trkpt lat="43.95385" lon="1.89733">
        <ele>231</ele>
        <time>2022-10-12T11:04:26Z</time>
      </trkpt>
      <trkpt lat="43.95386" lon="1.89735">
        <ele>231.2</ele>
        <time>2022-10-12T11:04:27Z</time>
      </trkpt>
      <trkpt lat="43.95387" lon="1.89737">
        <ele>231.2</ele>
        <time>2022-10-12T11:04:28Z</time>
      </trkpt>
      <trkpt lat="43.95388" lon="1.89739">
        <ele>231.4</ele>
        <time>2022-10-12T11:04:29Z</time>
      </trkpt>
      <trkpt lat="43.95389" lon="1.89741">
        <ele>231.4</ele>
        <time>2022-10-12T11:04:30Z</time>
      </trkpt>
      <trkpt lat="43.95389" lon="1.89742">
        <ele>231.6</ele>
        <time>2022-10-12T11:04:31Z</time>
      </trkpt>
      <trkpt lat="43.9539" lon="1.89744">
        <ele>232</ele>
        <time>2022-10-12T11:04:32Z</time>
      </trkpt>
      <trkpt lat="43.95391" lon="1.89746">
        <ele>232.2</ele>
        <time>2022-10-12T11:04:33Z</time>
      </trkpt>
      <trkpt lat="43.95392" lon="1.89748">
        <ele>232.2</ele>
        <time>2022-10-12T11:04:34Z</time>
      </trkpt>
      <trkpt lat="43.95392" lon="1.89749">
        <ele>232.4</ele>
        <time>2022-10-12T11:04:35Z</time>
      </trkpt>
      <trkpt lat="43.95393" lon="1.89751">
        <ele>232.6</ele>
        <time>2022-10-12T11:04:36Z</time>
      </trkpt>
      <trkpt lat="43.95393" lon="1.89752">
        <ele>232.6</ele>
        <time>2022-10-12T11:04:37Z</time>
      </trkpt>
      <trkpt lat="43.95394" lon="1.89754">
        <ele>232.8</ele>
        <time>2022-10-12T11:04:38Z</time>
      </trkpt>
      <trkpt lat="43.95395" lon="1.89756">
        <ele>233</ele>
        <time>2022-10-12T11:04:39Z</time>
      </trkpt>
      <trkpt lat="43.95395" lon="1.89758">
        <ele>233.2</ele>
        <time>2022-10-12T11:04:40Z</time>
      </trkpt>
      <trkpt lat="43.95396" lon="1.89759">
        <ele>233.6</ele>
        <time>2022-10-12T11:04:41Z</time>
      </trkpt>
      <trkpt lat="43.95396" lon="1.89761">
        <ele>233.8</ele>
        <time>2022-10-12T11:04:42Z</time>
      </trkpt>
      <trkpt lat="43.95397" lon="1.89763">
        <ele>234</ele>
        <time>2022-10-12T11:04:43Z</time>
      </trkpt>
      <trkpt lat="43.95398" lon="1.89765">
        <ele>234.2</ele>
        <time>2022-10-12T11:04:44Z</time>
      </trkpt>
      <trkpt lat="43.95398" lon="1.89768">
        <ele>234.6</ele>
        <time>2022-10-12T11:04:45Z</time>
      </trkpt>
      <trkpt lat="43.95399" lon="1.89769">
        <ele>234.8</ele>
        <time>2022-10-12T11:04:46Z</time>
      </trkpt>
      <trkpt lat="43.954" lon="1.89771">
        <ele>235</ele>
        <time>2022-10-12T11:04:47Z</time>
      </trkpt>
      <trkpt lat="43.954" lon="1.89773">
        <ele>235.4</ele>
        <time>2022-10-12T11:04:48Z</time>
      </trkpt>
      <trkpt lat="43.95401" lon="1.89775">
        <ele>235.4</ele>
        <time>2022-10-12T11:04:49Z</time>
      </trkpt>
      <trkpt lat="43.95402" lon="1.89776">
        <ele>235.8</ele>
        <time>2022-10-12T11:04:50Z</time>
      </trkpt>
      <trkpt lat="43.95403" lon="1.89778">
        <ele>235.8</ele>
        <time>2022-10-12T11:04:51Z</time>
      </trkpt>
      <trkpt lat="43.95404" lon="1.8978">
        <ele>236.2</ele>
        <time>2022-10-12T11:04:52Z</time>
      </trkpt>
      <trkpt lat="43.95405" lon="1.89782">
        <ele>236.2</ele>
        <time>2022-10-12T11:04:53Z</time>
      </trkpt>
      <trkpt lat="43.95405" lon="1.89784">
        <ele>236.6</ele>
        <time>2022-10-12T11:04:54Z</time>
      </trkpt>
      <trkpt lat="43.95406" lon="1.89786">
        <ele>236.8</ele>
        <time>2022-10-12T11:04:55Z</time>
      </trkpt>
      <trkpt lat="43.95407" lon="1.89787">
        <ele>237.2</ele>
        <time>2022-10-12T11:04:56Z</time>
      </trkpt>
      <trkpt lat="43.95407" lon="1.89789">
        <ele>237.6</ele>
        <time>2022-10-12T11:04:57Z</time>
      </trkpt>
      <trkpt lat="43.95408" lon="1.89791">
        <ele>237.8</ele>
        <time>2022-10-12T11:04:58Z</time>
      </trkpt>
      <trkpt lat="43.95409" lon="1.89793">
        <ele>238</ele>
        <time>2022-10-12T11:04:59Z</time>
      </trkpt>
      <trkpt lat="43.95409" lon="1.89795">
        <ele>238</ele>
        <time>2022-10-12T11:05:00Z</time>
      </trkpt>
      <trkpt lat="43.9541" lon="1.89797">
        <ele>238.2</ele>
        <time>2022-10-12T11:05:01Z</time>
      </trkpt>
      <trkpt lat="43.95411" lon="1.898">
        <ele>238.4</ele>
        <time>2022-10-12T11:05:02Z</time>
      </trkpt>
      <trkpt lat="43.95412" lon="1.89801">
        <ele>238.4</ele>
        <time>2022-10-12T11:05:03Z</time>
      </trkpt>
      <trkpt lat="43.95412" lon="1.89803">
        <ele>239.2</ele>
        <time>2022-10-12T11:05:04Z</time>
      </trkpt>
      <trkpt lat="43.95413" lon="1.89805">
        <ele>239.4</ele>
        <time>2022-10-12T11:05:05Z</time>
      </trkpt>
      <trkpt lat="43.95414" lon="1.89807">
        <ele>239.8</ele>
        <time>2022-10-12T11:05:06Z</time>
      </trkpt>
      <trkpt lat="43.95414" lon="1.89808">
        <ele>239.8</ele>
        <time>2022-10-12T11:05:07Z</time>
      </trkpt>
      <trkpt lat="43.95415" lon="1.8981">
        <ele>240.2</ele>
        <time>2022-10-12T11:05:08Z</time>
      </trkpt>
      <trkpt lat="43.95416" lon="1.89812">
        <ele>240.2</ele>
        <time>2022-10-12T11:05:09Z</time>
      </trkpt>
      <trkpt lat="43.95416" lon="1.89814">
        <ele>240.8</ele>
        <time>2022-10-12T11:05:10Z</time>
      </trkpt>
      <trkpt lat="43.95417" lon="1.89815">
        <ele>241</ele>
        <time>2022-10-12T11:05:11Z</time>
      </trkpt>
      <trkpt lat="43.95417" lon="1.89817">
        <ele>241.4</ele>
        <time>2022-10-12T11:05:12Z</time>
      </trkpt>
      <trkpt lat="43.95418" lon="1.89819">
        <ele>241.6</ele>
        <time>2022-10-12T11:05:13Z</time>
      </trkpt>
      <trkpt lat="43.95418" lon="1.89821">
        <ele>241.6</ele>
        <time>2022-10-12T11:05:14Z</time>
      </trkpt>
      <trkpt lat="43.95419" lon="1.89823">
        <ele>242</ele>
        <time>2022-10-12T11:05:15Z</time>
      </trkpt>
      <trkpt lat="43.9542" lon="1.89824">
        <ele>242</ele>
        <time>2022-10-12T11:05:16Z</time>
      </trkpt>
      <trkpt lat="43.9542" lon="1.89825">
        <ele>242.4</ele>
        <time>2022-10-12T11:05:17Z</time>
      </trkpt>
      <trkpt lat="43.95421" lon="1.89827">
        <ele>242.4</ele>
        <time>2022-10-12T11:05:18Z</time>
      </trkpt>
      <trkpt lat="43.95422" lon="1.89829">
        <ele>242.8</ele>
        <time>2022-10-12T11:05:19Z</time>
      </trkpt>
      <trkpt lat="43.95422" lon="1.89831">
        <ele>243</ele>
        <time>2022-10-12T11:05:20Z</time>
      </trkpt>
      <trkpt lat="43.95422" lon="1.89832">
        <ele>243.2</ele>
        <time>2022-10-12T11:05:21Z</time>
      </trkpt>
      <trkpt lat="43.95423" lon="1.89834">
        <ele>243.6</ele>
        <time>2022-10-12T11:05:22Z</time>
      </trkpt>
      <trkpt lat="43.95424" lon="1.89835">
        <ele>243.6</ele>
        <time>2022-10-12T11:05:23Z</time>
      </trkpt>
      <trkpt lat="43.95424" lon="1.89838">
        <ele>244</ele>
        <time>2022-10-12T11:05:24Z</time>
      </trkpt>
      <trkpt lat="43.95425" lon="1.8984">
        <ele>244.4</ele>
        <time>2022-10-12T11:05:25Z</time>
      </trkpt>
      <trkpt lat="43.95425" lon="1.89841">
        <ele>244.4</ele>
        <time>2022-10-12T11:05:26Z</time>
      </trkpt>
      <trkpt lat="43.95426" lon="1.89843">
        <ele>244.8</ele>
        <time>2022-10-12T11:05:27Z</time>
      </trkpt>
      <trkpt lat="43.95427" lon="1.89844">
        <ele>245.4</ele>
        <time>2022-10-12T11:05:28Z</time>
      </trkpt>
      <trkpt lat="43.95428" lon="1.89846">
        <ele>245.6</ele>
        <time>2022-10-12T11:05:29Z</time>
      </trkpt>
      <trkpt lat="43.95428" lon="1.89848">
        <ele>245.8</ele>
        <time>2022-10-12T11:05:30Z</time>
      </trkpt>
      <trkpt lat="43.95429" lon="1.8985">
        <ele>246.4</ele>
        <time>2022-10-12T11:05:31Z</time>
      </trkpt>
      <trkpt lat="43.9543" lon="1.89852">
        <ele>246.8</ele>
        <time>2022-10-12T11:05:32Z</time>
      </trkpt>
      <trkpt lat="43.95431" lon="1.89853">
        <ele>247.2</ele>
        <time>2022-10-12T11:05:33Z</time>
      </trkpt>
      <trkpt lat="43.95431" lon="1.89855">
        <ele>247.2</ele>
        <time>2022-10-12T11:05:34Z</time>
      </trkpt>
      <trkpt lat="43.95432" lon="1.89858">
        <ele>247.6</ele>
        <time>2022-10-12T11:05:35Z</time>
      </trkpt>
      <trkpt lat="43.95432" lon="1.8986">
        <ele>247.8</ele>
        <time>2022-10-12T11:05:36Z</time>
      </trkpt>
      <trkpt lat="43.95433" lon="1.89862">
        <ele>248</ele>
        <time>2022-10-12T11:05:37Z</time>
      </trkpt>
      <trkpt lat="43.95433" lon="1.89863">
        <ele>248.4</ele>
        <time>2022-10-12T11:05:38Z</time>
      </trkpt>
      <trkpt lat="43.95433" lon="1.89866">
        <ele>248.4</ele>
        <time>2022-10-12T11:05:39Z</time>
      </trkpt>
      <trkpt lat="43.95434" lon="1.89868">
        <ele>248.8</ele>
        <time>2022-10-12T11:05:40Z</time>
      </trkpt>
      <trkpt lat="43.95434" lon="1.8987">
        <ele>248.8</ele>
        <time>2022-10-12T11:05:41Z</time>
      </trkpt>
      <trkpt lat="43.95434" lon="1.89872">
        <ele>249</ele>
        <time>2022-10-12T11:05:42Z</time>
      </trkpt>
      <trkpt lat="43.95434" lon="1.89874">
        <ele>249.2</ele>
        <time>2022-10-12T11:05:43Z</time>
      </trkpt>
      <trkpt lat="43.95434" lon="1.89877">
        <ele>249.4</ele>
        <time>2022-10-12T11:05:44Z</time>
      </trkpt>
      <trkpt lat="43.95435" lon="1.8988">
        <ele>249.6</ele>
        <time>2022-10-12T11:05:45Z</time>
      </trkpt>
      <trkpt lat="43.95435" lon="1.89883">
        <ele>249.6</ele>
        <time>2022-10-12T11:05:46Z</time>
      </trkpt>
      <trkpt lat="43.95435" lon="1.89886">
        <ele>249.8</ele>
        <time>2022-10-12T11:05:47Z</time>
      </trkpt>
      <trkpt lat="43.95436" lon="1.89889">
        <ele>249.8</ele>
        <time>2022-10-12T11:05:48Z</time>
      </trkpt>
      <trkpt lat="43.95437" lon="1.89893">
        <ele>250</ele>
        <time>2022-10-12T11:05:49Z</time>
      </trkpt>
      <trkpt lat="43.95438" lon="1.89897">
        <ele>250</ele>
        <time>2022-10-12T11:05:50Z</time>
      </trkpt>
      <trkpt lat="43.95439" lon="1.899">
        <ele>250.2</ele>
        <time>2022-10-12T11:05:51Z</time>
      </trkpt>
      <trkpt lat="43.95439" lon="1.899">
        <ele>250.2</ele>
        <time>2022-10-12T11:05:52Z</time>
      </trkpt>
      <trkpt lat="43.95443" lon="1.89903">
        <ele>250.4</ele>
        <time>2022-10-12T11:05:53Z</time>
      </trkpt>
      <trkpt lat="43.95446" lon="1.89903">
        <ele>250.4</ele>
        <time>2022-10-12T11:05:54Z</time>
      </trkpt>
      <trkpt lat="43.95448" lon="1.89903">
        <ele>250.4</ele>
        <time>2022-10-12T11:05:55Z</time>
      </trkpt>
      <trkpt lat="43.9545" lon="1.89902">
        <ele>250.6</ele>
        <time>2022-10-12T11:05:56Z</time>
      </trkpt>
      <trkpt lat="43.95452" lon="1.89901">
        <ele>250.6</ele>
        <time>2022-10-12T11:05:57Z</time>
      </trkpt>
      <trkpt lat="43.95454" lon="1.899">
        <ele>250.8</ele>
        <time>2022-10-12T11:05:58Z</time>
      </trkpt>
      <trkpt lat="43.95457" lon="1.89899">
        <ele>250.8</ele>
        <time>2022-10-12T11:05:59Z</time>
      </trkpt>
      <trkpt lat="43.95459" lon="1.89898">
        <ele>251</ele>
        <time>2022-10-12T11:06:00Z</time>
      </trkpt>
      <trkpt lat="43.95462" lon="1.89897">
        <ele>251</ele>
        <time>2022-10-12T11:06:01Z</time>
      </trkpt>
      <trkpt lat="43.95464" lon="1.89895">
        <ele>251.2</ele>
        <time>2022-10-12T11:06:02Z</time>
      </trkpt>
      <trkpt lat="43.95467" lon="1.89894">
        <ele>251.2</ele>
        <time>2022-10-12T11:06:03Z</time>
      </trkpt>
      <trkpt lat="43.95469" lon="1.89893">
        <ele>251.4</ele>
        <time>2022-10-12T11:06:04Z</time>
      </trkpt>
      <trkpt lat="43.95471" lon="1.89892">
        <ele>251.6</ele>
        <time>2022-10-12T11:06:05Z</time>
      </trkpt>
      <trkpt lat="43.95473" lon="1.89892">
        <ele>251.6</ele>
        <time>2022-10-12T11:06:06Z</time>
      </trkpt>
      <trkpt lat="43.95475" lon="1.89892">
        <ele>251.8</ele>
        <time>2022-10-12T11:06:07Z</time>
      </trkpt>
      <trkpt lat="43.95477" lon="1.89893">
        <ele>251.8</ele>
        <time>2022-10-12T11:06:08Z</time>
      </trkpt>
      <trkpt lat="43.95477" lon="1.89893">
        <ele>252</ele>
        <time>2022-10-12T11:06:09Z</time>
      </trkpt>
      <trkpt lat="43.95481" lon="1.89899">
        <ele>252</ele>
        <time>2022-10-12T11:06:10Z</time>
      </trkpt>
      <trkpt lat="43.95482" lon="1.89904">
        <ele>252</ele>
        <time>2022-10-12T11:06:11Z</time>
      </trkpt>
      <trkpt lat="43.95484" lon="1.8991">
        <ele>252</ele>
        <time>2022-10-12T11:06:12Z</time>
      </trkpt>
      <trkpt lat="43.95486" lon="1.89916">
        <ele>252</ele>
        <time>2022-10-12T11:06:13Z</time>
      </trkpt>
      <trkpt lat="43.95488" lon="1.89922">
        <ele>252</ele>
        <time>2022-10-12T11:06:14Z</time>
      </trkpt>
      <trkpt lat="43.95491" lon="1.8993">
        <ele>251.8</ele>
        <time>2022-10-12T11:06:15Z</time>
      </trkpt>
      <trkpt lat="43.95493" lon="1.89936">
        <ele>251.4</ele>
        <time>2022-10-12T11:06:16Z</time>
      </trkpt>
      <trkpt lat="43.95495" lon="1.89943">
        <ele>251.2</ele>
        <time>2022-10-12T11:06:17Z</time>
      </trkpt>
      <trkpt lat="43.95501" lon="1.89957">
        <ele>250</ele>
        <time>2022-10-12T11:06:19Z</time>
      </trkpt>
      <trkpt lat="43.95504" lon="1.89964">
        <ele>249.8</ele>
        <time>2022-10-12T11:06:20Z</time>
      </trkpt>
      <trkpt lat="43.95507" lon="1.89972">
        <ele>249</ele>
        <time>2022-10-12T11:06:21Z</time>
      </trkpt>
      <trkpt lat="43.9551" lon="1.89978">
        <ele>248.8</ele>
        <time>2022-10-12T11:06:22Z</time>
      </trkpt>
      <trkpt lat="43.95513" lon="1.89985">
        <ele>247.6</ele>
        <time>2022-10-12T11:06:23Z</time>
      </trkpt>
      <trkpt lat="43.95516" lon="1.8999">
        <ele>246.8</ele>
        <time>2022-10-12T11:06:24Z</time>
      </trkpt>
      <trkpt lat="43.95518" lon="1.89996">
        <ele>245.8</ele>
        <time>2022-10-12T11:06:25Z</time>
      </trkpt>
      <trkpt lat="43.95521" lon="1.90002">
        <ele>245</ele>
        <time>2022-10-12T11:06:26Z</time>
      </trkpt>
      <trkpt lat="43.95523" lon="1.90008">
        <ele>244.2</ele>
        <time>2022-10-12T11:06:27Z</time>
      </trkpt>
      <trkpt lat="43.95526" lon="1.90013">
        <ele>243.2</ele>
        <time>2022-10-12T11:06:28Z</time>
      </trkpt>
      <trkpt lat="43.95529" lon="1.90018">
        <ele>242.8</ele>
        <time>2022-10-12T11:06:29Z</time>
      </trkpt>
      <trkpt lat="43.95533" lon="1.90022">
        <ele>242</ele>
        <time>2022-10-12T11:06:30Z</time>
      </trkpt>
      <trkpt lat="43.95537" lon="1.90026">
        <ele>241.6</ele>
        <time>2022-10-12T11:06:31Z</time>
      </trkpt>
      <trkpt lat="43.9554" lon="1.9003">
        <ele>241</ele>
        <time>2022-10-12T11:06:32Z</time>
      </trkpt>
      <trkpt lat="43.95543" lon="1.90034">
        <ele>241</ele>
        <time>2022-10-12T11:06:33Z</time>
      </trkpt>
      <trkpt lat="43.95545" lon="1.90039">
        <ele>240</ele>
        <time>2022-10-12T11:06:34Z</time>
      </trkpt>
      <trkpt lat="43.95546" lon="1.90043">
        <ele>238.8</ele>
        <time>2022-10-12T11:06:35Z</time>
      </trkpt>
      <trkpt lat="43.95548" lon="1.90046">
        <ele>238</ele>
        <time>2022-10-12T11:06:36Z</time>
      </trkpt>
      <trkpt lat="43.9555" lon="1.90048">
        <ele>236.6</ele>
        <time>2022-10-12T11:06:37Z</time>
      </trkpt>
      <trkpt lat="43.95553" lon="1.90048">
        <ele>236.2</ele>
        <time>2022-10-12T11:06:38Z</time>
      </trkpt>
      <trkpt lat="43.95556" lon="1.90047">
        <ele>235</ele>
        <time>2022-10-12T11:06:39Z</time>
      </trkpt>
      <trkpt lat="43.95559" lon="1.90048">
        <ele>234.4</ele>
        <time>2022-10-12T11:06:40Z</time>
      </trkpt>
      <trkpt lat="43.9556" lon="1.9005">
        <ele>233.4</ele>
        <time>2022-10-12T11:06:41Z</time>
      </trkpt>
      <trkpt lat="43.95561" lon="1.90053">
        <ele>232.6</ele>
        <time>2022-10-12T11:06:42Z</time>
      </trkpt>
      <trkpt lat="43.9556" lon="1.90055">
        <ele>232.2</ele>
        <time>2022-10-12T11:06:43Z</time>
      </trkpt>
      <trkpt lat="43.95559" lon="1.90056">
        <ele>231</ele>
        <time>2022-10-12T11:06:44Z</time>
      </trkpt>
      <trkpt lat="43.95551" lon="1.90059">
        <ele>229.8</ele>
        <time>2022-10-12T11:06:47Z</time>
      </trkpt>
      <trkpt lat="43.95547" lon="1.90061">
        <ele>229.6</ele>
        <time>2022-10-12T11:06:48Z</time>
      </trkpt>
      <trkpt lat="43.95543" lon="1.90063">
        <ele>229.4</ele>
        <time>2022-10-12T11:06:49Z</time>
      </trkpt>
      <trkpt lat="43.95534" lon="1.90068">
        <ele>228.8</ele>
        <time>2022-10-12T11:06:51Z</time>
      </trkpt>
      <trkpt lat="43.95529" lon="1.90071">
        <ele>228.8</ele>
        <time>2022-10-12T11:06:52Z</time>
      </trkpt>
      <trkpt lat="43.95519" lon="1.9008">
        <ele>228.4</ele>
        <time>2022-10-12T11:06:54Z</time>
      </trkpt>
      <trkpt lat="43.95513" lon="1.90083">
        <ele>227.6</ele>
        <time>2022-10-12T11:06:55Z</time>
      </trkpt>
      <trkpt lat="43.95507" lon="1.90088">
        <ele>227.4</ele>
        <time>2022-10-12T11:06:56Z</time>
      </trkpt>
      <trkpt lat="43.95496" lon="1.90096">
        <ele>226.8</ele>
        <time>2022-10-12T11:06:58Z</time>
      </trkpt>
      <trkpt lat="43.9549" lon="1.90099">
        <ele>226.4</ele>
        <time>2022-10-12T11:06:59Z</time>
      </trkpt>
      <trkpt lat="43.95483" lon="1.90102">
        <ele>226</ele>
        <time>2022-10-12T11:07:00Z</time>
      </trkpt>
      <trkpt lat="43.95477" lon="1.90103">
        <ele>225.8</ele>
        <time>2022-10-12T11:07:01Z</time>
      </trkpt>
      <trkpt lat="43.95471" lon="1.90105">
        <ele>225.2</ele>
        <time>2022-10-12T11:07:02Z</time>
      </trkpt>
      <trkpt lat="43.95465" lon="1.90105">
        <ele>225.2</ele>
        <time>2022-10-12T11:07:03Z</time>
      </trkpt>
      <trkpt lat="43.9546" lon="1.90106">
        <ele>225</ele>
        <time>2022-10-12T11:07:04Z</time>
      </trkpt>
      <trkpt lat="43.95455" lon="1.90107">
        <ele>225</ele>
        <time>2022-10-12T11:07:05Z</time>
      </trkpt>
      <trkpt lat="43.95451" lon="1.90108">
        <ele>224.8</ele>
        <time>2022-10-12T11:07:06Z</time>
      </trkpt>
      <trkpt lat="43.95448" lon="1.9011">
        <ele>224.8</ele>
        <time>2022-10-12T11:07:07Z</time>
      </trkpt>
      <trkpt lat="43.95445" lon="1.90111">
        <ele>224.8</ele>
        <time>2022-10-12T11:07:08Z</time>
      </trkpt>
      <trkpt lat="43.95443" lon="1.90112">
        <ele>224.8</ele>
        <time>2022-10-12T11:07:09Z</time>
      </trkpt>
      <trkpt lat="43.9544" lon="1.90114">
        <ele>225</ele>
        <time>2022-10-12T11:07:10Z</time>
      </trkpt>
      <trkpt lat="43.95439" lon="1.90115">
        <ele>225</ele>
        <time>2022-10-12T11:07:11Z</time>
      </trkpt>
      <trkpt lat="43.95437" lon="1.90119">
        <ele>225.4</ele>
        <time>2022-10-12T11:07:13Z</time>
      </trkpt>
      <trkpt lat="43.95436" lon="1.90121">
        <ele>225.4</ele>
        <time>2022-10-12T11:07:14Z</time>
      </trkpt>
      <trkpt lat="43.95435" lon="1.90125">
        <ele>225.4</ele>
        <time>2022-10-12T11:07:15Z</time>
      </trkpt>
      <trkpt lat="43.95434" lon="1.90127">
        <ele>225.6</ele>
        <time>2022-10-12T11:07:16Z</time>
      </trkpt>
      <trkpt lat="43.95431" lon="1.90134">
        <ele>225.6</ele>
        <time>2022-10-12T11:07:18Z</time>
      </trkpt>
      <trkpt lat="43.95426" lon="1.90141">
        <ele>225.6</ele>
        <time>2022-10-12T11:07:20Z</time>
      </trkpt>
      <trkpt lat="43.95423" lon="1.90145">
        <ele>225.8</ele>
        <time>2022-10-12T11:07:21Z</time>
      </trkpt>
      <trkpt lat="43.95415" lon="1.90155">
        <ele>225.8</ele>
        <time>2022-10-12T11:07:23Z</time>
      </trkpt>
      <trkpt lat="43.95405" lon="1.90167">
        <ele>225.8</ele>
        <time>2022-10-12T11:07:26Z</time>
      </trkpt>
      <trkpt lat="43.95387" lon="1.90189">
        <ele>225.8</ele>
        <time>2022-10-12T11:07:31Z</time>
      </trkpt>
      <trkpt lat="43.95383" lon="1.90193">
        <ele>225.6</ele>
        <time>2022-10-12T11:07:32Z</time>
      </trkpt>
      <trkpt lat="43.95375" lon="1.90202">
        <ele>225.4</ele>
        <time>2022-10-12T11:07:34Z</time>
      </trkpt>
      <trkpt lat="43.95371" lon="1.90208">
        <ele>225.4</ele>
        <time>2022-10-12T11:07:35Z</time>
      </trkpt>
      <trkpt lat="43.95369" lon="1.90211">
        <ele>225.4</ele>
        <time>2022-10-12T11:07:36Z</time>
      </trkpt>
      <trkpt lat="43.95366" lon="1.90214">
        <ele>225.4</ele>
        <time>2022-10-12T11:07:37Z</time>
      </trkpt>
      <trkpt lat="43.95364" lon="1.90216">
        <ele>225.4</ele>
        <time>2022-10-12T11:07:38Z</time>
      </trkpt>
      <trkpt lat="43.95362" lon="1.90219">
        <ele>225.4</ele>
        <time>2022-10-12T11:07:39Z</time>
      </trkpt>
      <trkpt lat="43.95361" lon="1.90222">
        <ele>225.4</ele>
        <time>2022-10-12T11:07:40Z</time>
      </trkpt>
      <trkpt lat="43.95362" lon="1.90227">
        <ele>225.2</ele>
        <time>2022-10-12T11:07:41Z</time>
      </trkpt>
      <trkpt lat="43.9536" lon="1.90235">
        <ele>225.2</ele>
        <time>2022-10-12T11:07:42Z</time>
      </trkpt>
      <trkpt lat="43.9536" lon="1.90242">
        <ele>225.2</ele>
        <time>2022-10-12T11:07:43Z</time>
      </trkpt>
      <trkpt lat="43.95363" lon="1.90249">
        <ele>225.2</ele>
        <time>2022-10-12T11:07:44Z</time>
      </trkpt>
      <trkpt lat="43.95368" lon="1.90255">
        <ele>225.2</ele>
        <time>2022-10-12T11:07:45Z</time>
      </trkpt>
      <trkpt lat="43.95373" lon="1.90262">
        <ele>225</ele>
        <time>2022-10-12T11:07:46Z</time>
      </trkpt>
      <trkpt lat="43.95378" lon="1.90268">
        <ele>225</ele>
        <time>2022-10-12T11:07:47Z</time>
      </trkpt>
      <trkpt lat="43.95382" lon="1.90275">
        <ele>225</ele>
        <time>2022-10-12T11:07:48Z</time>
      </trkpt>
      <trkpt lat="43.95387" lon="1.90285">
        <ele>224.8</ele>
        <time>2022-10-12T11:07:49Z</time>
      </trkpt>
      <trkpt lat="43.95396" lon="1.90304">
        <ele>224</ele>
        <time>2022-10-12T11:07:51Z</time>
      </trkpt>
      <trkpt lat="43.95399" lon="1.90316">
        <ele>222.6</ele>
        <time>2022-10-12T11:07:52Z</time>
      </trkpt>
      <trkpt lat="43.95407" lon="1.90341">
        <ele>221</ele>
        <time>2022-10-12T11:07:54Z</time>
      </trkpt>
      <trkpt lat="43.95411" lon="1.90356">
        <ele>220.4</ele>
        <time>2022-10-12T11:07:55Z</time>
      </trkpt>
      <trkpt lat="43.95413" lon="1.90365">
        <ele>217.4</ele>
        <time>2022-10-12T11:07:56Z</time>
      </trkpt>
      <trkpt lat="43.95414" lon="1.90376">
        <ele>215.6</ele>
        <time>2022-10-12T11:07:57Z</time>
      </trkpt>
      <trkpt lat="43.95414" lon="1.90376">
        <ele>214.6</ele>
        <time>2022-10-12T11:07:58Z</time>
      </trkpt>
      <trkpt lat="43.95413" lon="1.904">
        <ele>213.4</ele>
        <time>2022-10-12T11:07:59Z</time>
      </trkpt>
      <trkpt lat="43.9541" lon="1.90409">
        <ele>212.2</ele>
        <time>2022-10-12T11:08:00Z</time>
      </trkpt>
      <trkpt lat="43.95407" lon="1.9042">
        <ele>210.8</ele>
        <time>2022-10-12T11:08:01Z</time>
      </trkpt>
      <trkpt lat="43.95404" lon="1.90432">
        <ele>210.4</ele>
        <time>2022-10-12T11:08:02Z</time>
      </trkpt>
      <trkpt lat="43.95402" lon="1.90446">
        <ele>209.4</ele>
        <time>2022-10-12T11:08:03Z</time>
      </trkpt>
      <trkpt lat="43.95402" lon="1.90462">
        <ele>209</ele>
        <time>2022-10-12T11:08:04Z</time>
      </trkpt>
      <trkpt lat="43.95403" lon="1.90475">
        <ele>207.6</ele>
        <time>2022-10-12T11:08:05Z</time>
      </trkpt>
      <trkpt lat="43.95406" lon="1.90487">
        <ele>205.6</ele>
        <time>2022-10-12T11:08:06Z</time>
      </trkpt>
      <trkpt lat="43.9541" lon="1.90498">
        <ele>205</ele>
        <time>2022-10-12T11:08:07Z</time>
      </trkpt>
      <trkpt lat="43.95415" lon="1.90508">
        <ele>203.8</ele>
        <time>2022-10-12T11:08:08Z</time>
      </trkpt>
      <trkpt lat="43.9542" lon="1.90516">
        <ele>203.2</ele>
        <time>2022-10-12T11:08:09Z</time>
      </trkpt>
      <trkpt lat="43.95424" lon="1.90523">
        <ele>202.6</ele>
        <time>2022-10-12T11:08:10Z</time>
      </trkpt>
      <trkpt lat="43.95428" lon="1.9053">
        <ele>202.2</ele>
        <time>2022-10-12T11:08:11Z</time>
      </trkpt>
      <trkpt lat="43.95431" lon="1.90536">
        <ele>201.6</ele>
        <time>2022-10-12T11:08:12Z</time>
      </trkpt>
      <trkpt lat="43.95434" lon="1.90541">
        <ele>201.4</ele>
        <time>2022-10-12T11:08:13Z</time>
      </trkpt>
      <trkpt lat="43.95436" lon="1.90544">
        <ele>201.2</ele>
        <time>2022-10-12T11:08:14Z</time>
      </trkpt>
      <trkpt lat="43.95438" lon="1.90548">
        <ele>200.8</ele>
        <time>2022-10-12T11:08:15Z</time>
      </trkpt>
      <trkpt lat="43.9544" lon="1.90551">
        <ele>200.6</ele>
        <time>2022-10-12T11:08:16Z</time>
      </trkpt>
      <trkpt lat="43.95442" lon="1.90553">
        <ele>200.4</ele>
        <time>2022-10-12T11:08:17Z</time>
      </trkpt>
      <trkpt lat="43.95447" lon="1.90557">
        <ele>200.6</ele>
        <time>2022-10-12T11:08:19Z</time>
      </trkpt>
      <trkpt lat="43.9545" lon="1.90558">
        <ele>200.6</ele>
        <time>2022-10-12T11:08:20Z</time>
      </trkpt>
      <trkpt lat="43.95452" lon="1.90559">
        <ele>200.6</ele>
        <time>2022-10-12T11:08:21Z</time>
      </trkpt>
      <trkpt lat="43.95454" lon="1.9056">
        <ele>200.8</ele>
        <time>2022-10-12T11:08:22Z</time>
      </trkpt>
      <trkpt lat="43.95456" lon="1.9056">
        <ele>200.8</ele>
        <time>2022-10-12T11:08:23Z</time>
      </trkpt>
      <trkpt lat="43.95459" lon="1.90561">
        <ele>201.2</ele>
        <time>2022-10-12T11:08:24Z</time>
      </trkpt>
      <trkpt lat="43.95464" lon="1.90559">
        <ele>201.8</ele>
        <time>2022-10-12T11:08:26Z</time>
      </trkpt>
      <trkpt lat="43.95466" lon="1.90558">
        <ele>201.8</ele>
        <time>2022-10-12T11:08:27Z</time>
      </trkpt>
      <trkpt lat="43.95468" lon="1.90556">
        <ele>202.2</ele>
        <time>2022-10-12T11:08:28Z</time>
      </trkpt>
      <trkpt lat="43.95471" lon="1.90555">
        <ele>202.4</ele>
        <time>2022-10-12T11:08:29Z</time>
      </trkpt>
      <trkpt lat="43.95473" lon="1.90554">
        <ele>202.6</ele>
        <time>2022-10-12T11:08:30Z</time>
      </trkpt>
      <trkpt lat="43.95474" lon="1.90554">
        <ele>203.2</ele>
        <time>2022-10-12T11:08:31Z</time>
      </trkpt>
      <trkpt lat="43.95477" lon="1.90554">
        <ele>203.4</ele>
        <time>2022-10-12T11:08:32Z</time>
      </trkpt>
      <trkpt lat="43.95483" lon="1.9055">
        <ele>204</ele>
        <time>2022-10-12T11:08:35Z</time>
      </trkpt>
      <trkpt lat="43.95488" lon="1.90548">
        <ele>204.2</ele>
        <time>2022-10-12T11:08:37Z</time>
      </trkpt>
      <trkpt lat="43.9549" lon="1.90548">
        <ele>204.6</ele>
        <time>2022-10-12T11:08:38Z</time>
      </trkpt>
      <trkpt lat="43.95492" lon="1.90547">
        <ele>204.6</ele>
        <time>2022-10-12T11:08:39Z</time>
      </trkpt>
      <trkpt lat="43.95494" lon="1.90546">
        <ele>205</ele>
        <time>2022-10-12T11:08:40Z</time>
      </trkpt>
      <trkpt lat="43.95496" lon="1.90544">
        <ele>205</ele>
        <time>2022-10-12T11:08:41Z</time>
      </trkpt>
      <trkpt lat="43.95497" lon="1.90543">
        <ele>205.2</ele>
        <time>2022-10-12T11:08:42Z</time>
      </trkpt>
      <trkpt lat="43.95499" lon="1.90542">
        <ele>205.2</ele>
        <time>2022-10-12T11:08:43Z</time>
      </trkpt>
      <trkpt lat="43.95501" lon="1.90541">
        <ele>205.4</ele>
        <time>2022-10-12T11:08:44Z</time>
      </trkpt>
      <trkpt lat="43.95502" lon="1.9054">
        <ele>205.4</ele>
        <time>2022-10-12T11:08:45Z</time>
      </trkpt>
      <trkpt lat="43.95505" lon="1.90539">
        <ele>205.8</ele>
        <time>2022-10-12T11:08:46Z</time>
      </trkpt>
      <trkpt lat="43.95509" lon="1.90537">
        <ele>206.4</ele>
        <time>2022-10-12T11:08:48Z</time>
      </trkpt>
      <trkpt lat="43.95511" lon="1.90536">
        <ele>206.6</ele>
        <time>2022-10-12T11:08:49Z</time>
      </trkpt>
      <trkpt lat="43.95513" lon="1.90534">
        <ele>206.8</ele>
        <time>2022-10-12T11:08:50Z</time>
      </trkpt>
      <trkpt lat="43.95515" lon="1.90533">
        <ele>206.8</ele>
        <time>2022-10-12T11:08:51Z</time>
      </trkpt>
      <trkpt lat="43.95518" lon="1.90531">
        <ele>207</ele>
        <time>2022-10-12T11:08:52Z</time>
      </trkpt>
      <trkpt lat="43.9552" lon="1.90529">
        <ele>207.2</ele>
        <time>2022-10-12T11:08:53Z</time>
      </trkpt>
      <trkpt lat="43.95522" lon="1.90527">
        <ele>207.2</ele>
        <time>2022-10-12T11:08:54Z</time>
      </trkpt>
      <trkpt lat="43.95524" lon="1.90526">
        <ele>207.4</ele>
        <time>2022-10-12T11:08:55Z</time>
      </trkpt>
      <trkpt lat="43.95526" lon="1.90524">
        <ele>207.6</ele>
        <time>2022-10-12T11:08:56Z</time>
      </trkpt>
      <trkpt lat="43.95528" lon="1.90522">
        <ele>207.8</ele>
        <time>2022-10-12T11:08:57Z</time>
      </trkpt>
      <trkpt lat="43.9553" lon="1.9052">
        <ele>208</ele>
        <time>2022-10-12T11:08:58Z</time>
      </trkpt>
      <trkpt lat="43.95532" lon="1.90519">
        <ele>208</ele>
        <time>2022-10-12T11:08:59Z</time>
      </trkpt>
      <trkpt lat="43.95534" lon="1.90517">
        <ele>208</ele>
        <time>2022-10-12T11:09:00Z</time>
      </trkpt>
      <trkpt lat="43.95536" lon="1.90515">
        <ele>208.2</ele>
        <time>2022-10-12T11:09:01Z</time>
      </trkpt>
      <trkpt lat="43.95538" lon="1.90514">
        <ele>208.2</ele>
        <time>2022-10-12T11:09:02Z</time>
      </trkpt>
      <trkpt lat="43.95541" lon="1.90512">
        <ele>208.4</ele>
        <time>2022-10-12T11:09:03Z</time>
      </trkpt>
      <trkpt lat="43.95542" lon="1.90511">
        <ele>208.4</ele>
        <time>2022-10-12T11:09:04Z</time>
      </trkpt>
      <trkpt lat="43.95544" lon="1.90509">
        <ele>208.6</ele>
        <time>2022-10-12T11:09:05Z</time>
      </trkpt>
      <trkpt lat="43.95546" lon="1.90508">
        <ele>208.6</ele>
        <time>2022-10-12T11:09:06Z</time>
      </trkpt>
      <trkpt lat="43.95548" lon="1.90506">
        <ele>208.8</ele>
        <time>2022-10-12T11:09:07Z</time>
      </trkpt>
      <trkpt lat="43.9555" lon="1.90505">
        <ele>208.8</ele>
        <time>2022-10-12T11:09:08Z</time>
      </trkpt>
      <trkpt lat="43.95552" lon="1.90504">
        <ele>209</ele>
        <time>2022-10-12T11:09:09Z</time>
      </trkpt>
      <trkpt lat="43.95554" lon="1.90502">
        <ele>209</ele>
        <time>2022-10-12T11:09:10Z</time>
      </trkpt>
      <trkpt lat="43.95556" lon="1.90501">
        <ele>209.2</ele>
        <time>2022-10-12T11:09:11Z</time>
      </trkpt>
      <trkpt lat="43.95558" lon="1.905">
        <ele>209.6</ele>
        <time>2022-10-12T11:09:12Z</time>
      </trkpt>
      <trkpt lat="43.9556" lon="1.90499">
        <ele>209.6</ele>
        <time>2022-10-12T11:09:13Z</time>
      </trkpt>
      <trkpt lat="43.95562" lon="1.90498">
        <ele>210</ele>
        <time>2022-10-12T11:09:14Z</time>
      </trkpt>
      <trkpt lat="43.95564" lon="1.90497">
        <ele>210</ele>
        <time>2022-10-12T11:09:15Z</time>
      </trkpt>
      <trkpt lat="43.95566" lon="1.90496">
        <ele>210.2</ele>
        <time>2022-10-12T11:09:16Z</time>
      </trkpt>
      <trkpt lat="43.95569" lon="1.90495">
        <ele>210.4</ele>
        <time>2022-10-12T11:09:17Z</time>
      </trkpt>
      <trkpt lat="43.95571" lon="1.90494">
        <ele>210.6</ele>
        <time>2022-10-12T11:09:18Z</time>
      </trkpt>
      <trkpt lat="43.95573" lon="1.90493">
        <ele>210.8</ele>
        <time>2022-10-12T11:09:19Z</time>
      </trkpt>
      <trkpt lat="43.95575" lon="1.90492">
        <ele>210.8</ele>
        <time>2022-10-12T11:09:20Z</time>
      </trkpt>
      <trkpt lat="43.95577" lon="1.90491">
        <ele>211</ele>
        <time>2022-10-12T11:09:21Z</time>
      </trkpt>
      <trkpt lat="43.9558" lon="1.9049">
        <ele>211</ele>
        <time>2022-10-12T11:09:22Z</time>
      </trkpt>
      <trkpt lat="43.95582" lon="1.90489">
        <ele>211.2</ele>
        <time>2022-10-12T11:09:23Z</time>
      </trkpt>
      <trkpt lat="43.95584" lon="1.90488">
        <ele>211.2</ele>
        <time>2022-10-12T11:09:24Z</time>
      </trkpt>
      <trkpt lat="43.95586" lon="1.90487">
        <ele>211.2</ele>
        <time>2022-10-12T11:09:25Z</time>
      </trkpt>
      <trkpt lat="43.95588" lon="1.90487">
        <ele>211.4</ele>
        <time>2022-10-12T11:09:26Z</time>
      </trkpt>
      <trkpt lat="43.95589" lon="1.90487">
        <ele>211.6</ele>
        <time>2022-10-12T11:09:27Z</time>
      </trkpt>
      <trkpt lat="43.9559" lon="1.90487">
        <ele>211.6</ele>
        <time>2022-10-12T11:09:28Z</time>
      </trkpt>
      <trkpt lat="43.95591" lon="1.90487">
        <ele>211.8</ele>
        <time>2022-10-12T11:09:29Z</time>
      </trkpt>
      <trkpt lat="43.95592" lon="1.90487">
        <ele>211.8</ele>
        <time>2022-10-12T11:09:30Z</time>
      </trkpt>
      <trkpt lat="43.95594" lon="1.90488">
        <ele>212</ele>
        <time>2022-10-12T11:09:31Z</time>
      </trkpt>
      <trkpt lat="43.95595" lon="1.90488">
        <ele>212.2</ele>
        <time>2022-10-12T11:09:32Z</time>
      </trkpt>
      <trkpt lat="43.95596" lon="1.90489">
        <ele>212.2</ele>
        <time>2022-10-12T11:09:33Z</time>
      </trkpt>
      <trkpt lat="43.95596" lon="1.90491">
        <ele>212.4</ele>
        <time>2022-10-12T11:09:34Z</time>
      </trkpt>
      <trkpt lat="43.95597" lon="1.90492">
        <ele>212.4</ele>
        <time>2022-10-12T11:09:35Z</time>
      </trkpt>
      <trkpt lat="43.95597" lon="1.90493">
        <ele>212.6</ele>
        <time>2022-10-12T11:09:36Z</time>
      </trkpt>
      <trkpt lat="43.95597" lon="1.90494">
        <ele>212.8</ele>
        <time>2022-10-12T11:09:37Z</time>
      </trkpt>
      <trkpt lat="43.95597" lon="1.90496">
        <ele>213</ele>
        <time>2022-10-12T11:09:38Z</time>
      </trkpt>
      <trkpt lat="43.95598" lon="1.90498">
        <ele>213</ele>
        <time>2022-10-12T11:09:39Z</time>
      </trkpt>
      <trkpt lat="43.95598" lon="1.905">
        <ele>213</ele>
        <time>2022-10-12T11:09:40Z</time>
      </trkpt>
      <trkpt lat="43.95598" lon="1.90502">
        <ele>213.4</ele>
        <time>2022-10-12T11:09:41Z</time>
      </trkpt>
      <trkpt lat="43.95599" lon="1.90504">
        <ele>213.4</ele>
        <time>2022-10-12T11:09:42Z</time>
      </trkpt>
      <trkpt lat="43.95599" lon="1.90505">
        <ele>213.4</ele>
        <time>2022-10-12T11:09:43Z</time>
      </trkpt>
      <trkpt lat="43.95598" lon="1.90507">
        <ele>213.6</ele>
        <time>2022-10-12T11:09:44Z</time>
      </trkpt>
      <trkpt lat="43.95598" lon="1.90509">
        <ele>213.6</ele>
        <time>2022-10-12T11:09:45Z</time>
      </trkpt>
      <trkpt lat="43.95597" lon="1.90511">
        <ele>213.8</ele>
        <time>2022-10-12T11:09:46Z</time>
      </trkpt>
      <trkpt lat="43.95597" lon="1.90513">
        <ele>214</ele>
        <time>2022-10-12T11:09:47Z</time>
      </trkpt>
      <trkpt lat="43.95597" lon="1.90515">
        <ele>214.2</ele>
        <time>2022-10-12T11:09:48Z</time>
      </trkpt>
      <trkpt lat="43.95596" lon="1.90516">
        <ele>214.4</ele>
        <time>2022-10-12T11:09:49Z</time>
      </trkpt>
      <trkpt lat="43.95595" lon="1.90518">
        <ele>214.6</ele>
        <time>2022-10-12T11:09:50Z</time>
      </trkpt>
      <trkpt lat="43.95595" lon="1.9052">
        <ele>214.6</ele>
        <time>2022-10-12T11:09:51Z</time>
      </trkpt>
      <trkpt lat="43.95594" lon="1.90522">
        <ele>215</ele>
        <time>2022-10-12T11:09:52Z</time>
      </trkpt>
      <trkpt lat="43.95594" lon="1.90524">
        <ele>215.2</ele>
        <time>2022-10-12T11:09:53Z</time>
      </trkpt>
      <trkpt lat="43.95593" lon="1.90525">
        <ele>215.2</ele>
        <time>2022-10-12T11:09:54Z</time>
      </trkpt>
      <trkpt lat="43.95593" lon="1.90527">
        <ele>215.4</ele>
        <time>2022-10-12T11:09:55Z</time>
      </trkpt>
      <trkpt lat="43.95592" lon="1.90529">
        <ele>215.6</ele>
        <time>2022-10-12T11:09:56Z</time>
      </trkpt>
      <trkpt lat="43.95592" lon="1.90531">
        <ele>215.8</ele>
        <time>2022-10-12T11:09:57Z</time>
      </trkpt>
      <trkpt lat="43.95591" lon="1.90532">
        <ele>216</ele>
        <time>2022-10-12T11:09:58Z</time>
      </trkpt>
      <trkpt lat="43.95591" lon="1.90534">
        <ele>216.4</ele>
        <time>2022-10-12T11:09:59Z</time>
      </trkpt>
      <trkpt lat="43.9559" lon="1.90535">
        <ele>216.4</ele>
        <time>2022-10-12T11:10:00Z</time>
      </trkpt>
      <trkpt lat="43.95589" lon="1.90537">
        <ele>216.6</ele>
        <time>2022-10-12T11:10:01Z</time>
      </trkpt>
      <trkpt lat="43.95589" lon="1.9054">
        <ele>217</ele>
        <time>2022-10-12T11:10:02Z</time>
      </trkpt>
      <trkpt lat="43.95588" lon="1.90542">
        <ele>217</ele>
        <time>2022-10-12T11:10:03Z</time>
      </trkpt>
      <trkpt lat="43.95588" lon="1.90543">
        <ele>217.2</ele>
        <time>2022-10-12T11:10:04Z</time>
      </trkpt>
      <trkpt lat="43.95588" lon="1.90545">
        <ele>217.2</ele>
        <time>2022-10-12T11:10:05Z</time>
      </trkpt>
      <trkpt lat="43.95588" lon="1.90546">
        <ele>217.4</ele>
        <time>2022-10-12T11:10:06Z</time>
      </trkpt>
      <trkpt lat="43.95587" lon="1.90549">
        <ele>217.6</ele>
        <time>2022-10-12T11:10:07Z</time>
      </trkpt>
      <trkpt lat="43.95587" lon="1.90551">
        <ele>217.8</ele>
        <time>2022-10-12T11:10:08Z</time>
      </trkpt>
      <trkpt lat="43.95587" lon="1.90552">
        <ele>218</ele>
        <time>2022-10-12T11:10:09Z</time>
      </trkpt>
      <trkpt lat="43.95587" lon="1.90554">
        <ele>218.2</ele>
        <time>2022-10-12T11:10:10Z</time>
      </trkpt>
      <trkpt lat="43.95586" lon="1.90555">
        <ele>218.4</ele>
        <time>2022-10-12T11:10:11Z</time>
      </trkpt>
      <trkpt lat="43.95586" lon="1.90558">
        <ele>218.8</ele>
        <time>2022-10-12T11:10:12Z</time>
      </trkpt>
      <trkpt lat="43.95586" lon="1.90559">
        <ele>219</ele>
        <time>2022-10-12T11:10:13Z</time>
      </trkpt>
      <trkpt lat="43.95585" lon="1.90561">
        <ele>219.2</ele>
        <time>2022-10-12T11:10:14Z</time>
      </trkpt>
      <trkpt lat="43.95585" lon="1.90562">
        <ele>219.4</ele>
        <time>2022-10-12T11:10:15Z</time>
      </trkpt>
      <trkpt lat="43.95585" lon="1.90564">
        <ele>219.4</ele>
        <time>2022-10-12T11:10:16Z</time>
      </trkpt>
      <trkpt lat="43.95584" lon="1.90566">
        <ele>219.8</ele>
        <time>2022-10-12T11:10:17Z</time>
      </trkpt>
      <trkpt lat="43.95584" lon="1.90568">
        <ele>220</ele>
        <time>2022-10-12T11:10:18Z</time>
      </trkpt>
      <trkpt lat="43.95584" lon="1.90569">
        <ele>220.2</ele>
        <time>2022-10-12T11:10:19Z</time>
      </trkpt>
      <trkpt lat="43.95584" lon="1.9057">
        <ele>220.4</ele>
        <time>2022-10-12T11:10:20Z</time>
      </trkpt>
      <trkpt lat="43.95584" lon="1.90572">
        <ele>220.4</ele>
        <time>2022-10-12T11:10:21Z</time>
      </trkpt>
      <trkpt lat="43.95584" lon="1.90573">
        <ele>220.6</ele>
        <time>2022-10-12T11:10:22Z</time>
      </trkpt>
      <trkpt lat="43.95584" lon="1.90575">
        <ele>220.6</ele>
        <time>2022-10-12T11:10:23Z</time>
      </trkpt>
      <trkpt lat="43.95584" lon="1.90577">
        <ele>221</ele>
        <time>2022-10-12T11:10:24Z</time>
      </trkpt>
      <trkpt lat="43.95584" lon="1.90578">
        <ele>221.2</ele>
        <time>2022-10-12T11:10:25Z</time>
      </trkpt>
      <trkpt lat="43.95584" lon="1.9058">
        <ele>221.4</ele>
        <time>2022-10-12T11:10:26Z</time>
      </trkpt>
      <trkpt lat="43.95584" lon="1.90583">
        <ele>221.6</ele>
        <time>2022-10-12T11:10:27Z</time>
      </trkpt>
      <trkpt lat="43.95584" lon="1.90585">
        <ele>221.6</ele>
        <time>2022-10-12T11:10:28Z</time>
      </trkpt>
      <trkpt lat="43.95584" lon="1.90587">
        <ele>222</ele>
        <time>2022-10-12T11:10:29Z</time>
      </trkpt>
      <trkpt lat="43.95584" lon="1.90589">
        <ele>222.2</ele>
        <time>2022-10-12T11:10:30Z</time>
      </trkpt>
      <trkpt lat="43.95584" lon="1.90591">
        <ele>222.4</ele>
        <time>2022-10-12T11:10:31Z</time>
      </trkpt>
      <trkpt lat="43.95584" lon="1.90593">
        <ele>222.6</ele>
        <time>2022-10-12T11:10:32Z</time>
      </trkpt>
      <trkpt lat="43.95583" lon="1.90595">
        <ele>222.6</ele>
        <time>2022-10-12T11:10:33Z</time>
      </trkpt>
      <trkpt lat="43.95583" lon="1.90597">
        <ele>223</ele>
        <time>2022-10-12T11:10:34Z</time>
      </trkpt>
      <trkpt lat="43.95582" lon="1.90599">
        <ele>223.4</ele>
        <time>2022-10-12T11:10:35Z</time>
      </trkpt>
      <trkpt lat="43.95581" lon="1.90601">
        <ele>224</ele>
        <time>2022-10-12T11:10:36Z</time>
      </trkpt>
      <trkpt lat="43.9558" lon="1.90603">
        <ele>224.2</ele>
        <time>2022-10-12T11:10:37Z</time>
      </trkpt>
      <trkpt lat="43.95579" lon="1.90605">
        <ele>224.4</ele>
        <time>2022-10-12T11:10:38Z</time>
      </trkpt>
      <trkpt lat="43.95579" lon="1.90608">
        <ele>224.6</ele>
        <time>2022-10-12T11:10:39Z</time>
      </trkpt>
      <trkpt lat="43.95578" lon="1.90609">
        <ele>224.8</ele>
        <time>2022-10-12T11:10:40Z</time>
      </trkpt>
      <trkpt lat="43.95578" lon="1.90611">
        <ele>225</ele>
        <time>2022-10-12T11:10:41Z</time>
      </trkpt>
      <trkpt lat="43.95578" lon="1.90613">
        <ele>225.2</ele>
        <time>2022-10-12T11:10:42Z</time>
      </trkpt>
      <trkpt lat="43.95577" lon="1.90615">
        <ele>225.4</ele>
        <time>2022-10-12T11:10:43Z</time>
      </trkpt>
      <trkpt lat="43.95576" lon="1.90617">
        <ele>225.6</ele>
        <time>2022-10-12T11:10:44Z</time>
      </trkpt>
      <trkpt lat="43.95576" lon="1.90619">
        <ele>226</ele>
        <time>2022-10-12T11:10:45Z</time>
      </trkpt>
      <trkpt lat="43.95574" lon="1.90621">
        <ele>226.2</ele>
        <time>2022-10-12T11:10:46Z</time>
      </trkpt>
      <trkpt lat="43.95573" lon="1.90623">
        <ele>226.4</ele>
        <time>2022-10-12T11:10:47Z</time>
      </trkpt>
      <trkpt lat="43.95572" lon="1.90625">
        <ele>226.6</ele>
        <time>2022-10-12T11:10:48Z</time>
      </trkpt>
      <trkpt lat="43.9557" lon="1.90627">
        <ele>226.6</ele>
        <time>2022-10-12T11:10:49Z</time>
      </trkpt>
      <trkpt lat="43.95569" lon="1.90629">
        <ele>226.8</ele>
        <time>2022-10-12T11:10:50Z</time>
      </trkpt>
      <trkpt lat="43.95567" lon="1.90632">
        <ele>226.8</ele>
        <time>2022-10-12T11:10:51Z</time>
      </trkpt>
      <trkpt lat="43.95566" lon="1.90634">
        <ele>226.8</ele>
        <time>2022-10-12T11:10:52Z</time>
      </trkpt>
      <trkpt lat="43.95564" lon="1.90637">
        <ele>226.8</ele>
        <time>2022-10-12T11:10:53Z</time>
      </trkpt>
      <trkpt lat="43.95562" lon="1.9064">
        <ele>227</ele>
        <time>2022-10-12T11:10:54Z</time>
      </trkpt>
      <trkpt lat="43.9556" lon="1.90642">
        <ele>227</ele>
        <time>2022-10-12T11:10:55Z</time>
      </trkpt>
      <trkpt lat="43.95559" lon="1.90645">
        <ele>227</ele>
        <time>2022-10-12T11:10:56Z</time>
      </trkpt>
      <trkpt lat="43.95557" lon="1.90647">
        <ele>227.2</ele>
        <time>2022-10-12T11:10:57Z</time>
      </trkpt>
      <trkpt lat="43.95556" lon="1.90649">
        <ele>227.2</ele>
        <time>2022-10-12T11:10:58Z</time>
      </trkpt>
      <trkpt lat="43.95554" lon="1.90652">
        <ele>227.2</ele>
        <time>2022-10-12T11:10:59Z</time>
      </trkpt>
      <trkpt lat="43.95552" lon="1.90654">
        <ele>227.2</ele>
        <time>2022-10-12T11:11:00Z</time>
      </trkpt>
      <trkpt lat="43.95551" lon="1.90657">
        <ele>227.4</ele>
        <time>2022-10-12T11:11:01Z</time>
      </trkpt>
      <trkpt lat="43.95549" lon="1.90659">
        <ele>227.4</ele>
        <time>2022-10-12T11:11:02Z</time>
      </trkpt>
      <trkpt lat="43.95547" lon="1.90662">
        <ele>227.4</ele>
        <time>2022-10-12T11:11:03Z</time>
      </trkpt>
      <trkpt lat="43.95546" lon="1.90665">
        <ele>227.6</ele>
        <time>2022-10-12T11:11:04Z</time>
      </trkpt>
      <trkpt lat="43.95545" lon="1.90667">
        <ele>227.8</ele>
        <time>2022-10-12T11:11:05Z</time>
      </trkpt>
      <trkpt lat="43.95545" lon="1.90669">
        <ele>227.8</ele>
        <time>2022-10-12T11:11:06Z</time>
      </trkpt>
      <trkpt lat="43.95544" lon="1.9067">
        <ele>228</ele>
        <time>2022-10-12T11:11:07Z</time>
      </trkpt>
      <trkpt lat="43.95545" lon="1.90672">
        <ele>228</ele>
        <time>2022-10-12T11:11:08Z</time>
      </trkpt>
      <trkpt lat="43.95546" lon="1.90674">
        <ele>228.2</ele>
        <time>2022-10-12T11:11:09Z</time>
      </trkpt>
      <trkpt lat="43.95547" lon="1.90676">
        <ele>228.4</ele>
        <time>2022-10-12T11:11:10Z</time>
      </trkpt>
      <trkpt lat="43.95548" lon="1.90678">
        <ele>228.4</ele>
        <time>2022-10-12T11:11:11Z</time>
      </trkpt>
      <trkpt lat="43.9555" lon="1.90679">
        <ele>228.8</ele>
        <time>2022-10-12T11:11:12Z</time>
      </trkpt>
      <trkpt lat="43.95551" lon="1.9068">
        <ele>229</ele>
        <time>2022-10-12T11:11:13Z</time>
      </trkpt>
      <trkpt lat="43.95552" lon="1.90681">
        <ele>229.2</ele>
        <time>2022-10-12T11:11:14Z</time>
      </trkpt>
      <trkpt lat="43.95554" lon="1.90683">
        <ele>229.4</ele>
        <time>2022-10-12T11:11:15Z</time>
      </trkpt>
      <trkpt lat="43.95555" lon="1.90684">
        <ele>229.4</ele>
        <time>2022-10-12T11:11:16Z</time>
      </trkpt>
      <trkpt lat="43.95557" lon="1.90685">
        <ele>229.6</ele>
        <time>2022-10-12T11:11:17Z</time>
      </trkpt>
      <trkpt lat="43.95558" lon="1.90687">
        <ele>229.8</ele>
        <time>2022-10-12T11:11:18Z</time>
      </trkpt>
      <trkpt lat="43.95559" lon="1.90688">
        <ele>229.8</ele>
        <time>2022-10-12T11:11:19Z</time>
      </trkpt>
      <trkpt lat="43.95561" lon="1.9069">
        <ele>230</ele>
        <time>2022-10-12T11:11:20Z</time>
      </trkpt>
      <trkpt lat="43.95562" lon="1.90691">
        <ele>230.2</ele>
        <time>2022-10-12T11:11:21Z</time>
      </trkpt>
      <trkpt lat="43.95563" lon="1.90692">
        <ele>230.4</ele>
        <time>2022-10-12T11:11:22Z</time>
      </trkpt>
      <trkpt lat="43.95564" lon="1.90693">
        <ele>230.8</ele>
        <time>2022-10-12T11:11:23Z</time>
      </trkpt>
      <trkpt lat="43.95565" lon="1.90694">
        <ele>231.2</ele>
        <time>2022-10-12T11:11:24Z</time>
      </trkpt>
      <trkpt lat="43.95566" lon="1.90696">
        <ele>231.4</ele>
        <time>2022-10-12T11:11:25Z</time>
      </trkpt>
      <trkpt lat="43.95567" lon="1.90697">
        <ele>231.6</ele>
        <time>2022-10-12T11:11:26Z</time>
      </trkpt>
      <trkpt lat="43.95568" lon="1.90698">
        <ele>232</ele>
        <time>2022-10-12T11:11:27Z</time>
      </trkpt>
      <trkpt lat="43.95569" lon="1.907">
        <ele>232.2</ele>
        <time>2022-10-12T11:11:28Z</time>
      </trkpt>
      <trkpt lat="43.9557" lon="1.90701">
        <ele>232.4</ele>
        <time>2022-10-12T11:11:29Z</time>
      </trkpt>
      <trkpt lat="43.95572" lon="1.90703">
        <ele>232.6</ele>
        <time>2022-10-12T11:11:30Z</time>
      </trkpt>
      <trkpt lat="43.95573" lon="1.90705">
        <ele>232.8</ele>
        <time>2022-10-12T11:11:31Z</time>
      </trkpt>
      <trkpt lat="43.95574" lon="1.90706">
        <ele>233.2</ele>
        <time>2022-10-12T11:11:32Z</time>
      </trkpt>
      <trkpt lat="43.95576" lon="1.90708">
        <ele>233.6</ele>
        <time>2022-10-12T11:11:33Z</time>
      </trkpt>
      <trkpt lat="43.95577" lon="1.90709">
        <ele>233.8</ele>
        <time>2022-10-12T11:11:34Z</time>
      </trkpt>
      <trkpt lat="43.95579" lon="1.90711">
        <ele>234.2</ele>
        <time>2022-10-12T11:11:35Z</time>
      </trkpt>
      <trkpt lat="43.9558" lon="1.90713">
        <ele>234.2</ele>
        <time>2022-10-12T11:11:36Z</time>
      </trkpt>
      <trkpt lat="43.95581" lon="1.90715">
        <ele>234.6</ele>
        <time>2022-10-12T11:11:37Z</time>
      </trkpt>
      <trkpt lat="43.95583" lon="1.90717">
        <ele>234.8</ele>
        <time>2022-10-12T11:11:38Z</time>
      </trkpt>
      <trkpt lat="43.95584" lon="1.90718">
        <ele>235</ele>
        <time>2022-10-12T11:11:39Z</time>
      </trkpt>
      <trkpt lat="43.95585" lon="1.9072">
        <ele>235.2</ele>
        <time>2022-10-12T11:11:40Z</time>
      </trkpt>
      <trkpt lat="43.95586" lon="1.90721">
        <ele>235.4</ele>
        <time>2022-10-12T11:11:41Z</time>
      </trkpt>
      <trkpt lat="43.95588" lon="1.90722">
        <ele>235.6</ele>
        <time>2022-10-12T11:11:42Z</time>
      </trkpt>
      <trkpt lat="43.95589" lon="1.90723">
        <ele>235.8</ele>
        <time>2022-10-12T11:11:43Z</time>
      </trkpt>
      <trkpt lat="43.9559" lon="1.90725">
        <ele>236</ele>
        <time>2022-10-12T11:11:44Z</time>
      </trkpt>
      <trkpt lat="43.95592" lon="1.90726">
        <ele>236.2</ele>
        <time>2022-10-12T11:11:45Z</time>
      </trkpt>
      <trkpt lat="43.95594" lon="1.90728">
        <ele>236.4</ele>
        <time>2022-10-12T11:11:46Z</time>
      </trkpt>
      <trkpt lat="43.95595" lon="1.9073">
        <ele>236.6</ele>
        <time>2022-10-12T11:11:47Z</time>
      </trkpt>
      <trkpt lat="43.95596" lon="1.90732">
        <ele>236.8</ele>
        <time>2022-10-12T11:11:48Z</time>
      </trkpt>
      <trkpt lat="43.95597" lon="1.90734">
        <ele>237.2</ele>
        <time>2022-10-12T11:11:49Z</time>
      </trkpt>
      <trkpt lat="43.95599" lon="1.90736">
        <ele>237.4</ele>
        <time>2022-10-12T11:11:50Z</time>
      </trkpt>
      <trkpt lat="43.956" lon="1.90738">
        <ele>237.6</ele>
        <time>2022-10-12T11:11:51Z</time>
      </trkpt>
      <trkpt lat="43.95601" lon="1.90739">
        <ele>237.8</ele>
        <time>2022-10-12T11:11:52Z</time>
      </trkpt>
      <trkpt lat="43.95603" lon="1.9074">
        <ele>238</ele>
        <time>2022-10-12T11:11:53Z</time>
      </trkpt>
      <trkpt lat="43.95603" lon="1.9074">
        <ele>238</ele>
        <time>2022-10-12T11:11:54Z</time>
      </trkpt>
      <trkpt lat="43.95606" lon="1.90744">
        <ele>238.4</ele>
        <time>2022-10-12T11:11:55Z</time>
      </trkpt>
      <trkpt lat="43.95607" lon="1.90746">
        <ele>238.4</ele>
        <time>2022-10-12T11:11:56Z</time>
      </trkpt>
      <trkpt lat="43.95608" lon="1.90748">
        <ele>239</ele>
        <time>2022-10-12T11:11:57Z</time>
      </trkpt>
      <trkpt lat="43.9561" lon="1.90749">
        <ele>239.2</ele>
        <time>2022-10-12T11:11:58Z</time>
      </trkpt>
      <trkpt lat="43.95611" lon="1.90751">
        <ele>239.4</ele>
        <time>2022-10-12T11:11:59Z</time>
      </trkpt>
      <trkpt lat="43.95611" lon="1.90753">
        <ele>239.6</ele>
        <time>2022-10-12T11:12:00Z</time>
      </trkpt>
      <trkpt lat="43.95612" lon="1.90755">
        <ele>239.6</ele>
        <time>2022-10-12T11:12:01Z</time>
      </trkpt>
      <trkpt lat="43.95613" lon="1.90757">
        <ele>239.6</ele>
        <time>2022-10-12T11:12:02Z</time>
      </trkpt>
      <trkpt lat="43.95614" lon="1.90759">
        <ele>239.8</ele>
        <time>2022-10-12T11:12:03Z</time>
      </trkpt>
      <trkpt lat="43.95615" lon="1.90761">
        <ele>240</ele>
        <time>2022-10-12T11:12:04Z</time>
      </trkpt>
      <trkpt lat="43.95615" lon="1.90764">
        <ele>240.2</ele>
        <time>2022-10-12T11:12:05Z</time>
      </trkpt>
      <trkpt lat="43.95616" lon="1.90766">
        <ele>240.4</ele>
        <time>2022-10-12T11:12:06Z</time>
      </trkpt>
      <trkpt lat="43.95617" lon="1.90768">
        <ele>240.8</ele>
        <time>2022-10-12T11:12:07Z</time>
      </trkpt>
      <trkpt lat="43.95618" lon="1.9077">
        <ele>241</ele>
        <time>2022-10-12T11:12:08Z</time>
      </trkpt>
      <trkpt lat="43.95619" lon="1.90771">
        <ele>241.4</ele>
        <time>2022-10-12T11:12:09Z</time>
      </trkpt>
      <trkpt lat="43.95621" lon="1.90773">
        <ele>241.6</ele>
        <time>2022-10-12T11:12:10Z</time>
      </trkpt>
      <trkpt lat="43.95623" lon="1.90774">
        <ele>241.8</ele>
        <time>2022-10-12T11:12:11Z</time>
      </trkpt>
      <trkpt lat="43.95625" lon="1.90774">
        <ele>242</ele>
        <time>2022-10-12T11:12:12Z</time>
      </trkpt>
      <trkpt lat="43.95627" lon="1.90774">
        <ele>242.2</ele>
        <time>2022-10-12T11:12:13Z</time>
      </trkpt>
      <trkpt lat="43.9563" lon="1.90775">
        <ele>242.4</ele>
        <time>2022-10-12T11:12:14Z</time>
      </trkpt>
      <trkpt lat="43.95632" lon="1.90776">
        <ele>242.4</ele>
        <time>2022-10-12T11:12:15Z</time>
      </trkpt>
      <trkpt lat="43.95634" lon="1.90777">
        <ele>242.6</ele>
        <time>2022-10-12T11:12:16Z</time>
      </trkpt>
      <trkpt lat="43.95636" lon="1.90778">
        <ele>242.6</ele>
        <time>2022-10-12T11:12:17Z</time>
      </trkpt>
      <trkpt lat="43.95637" lon="1.9078">
        <ele>242.8</ele>
        <time>2022-10-12T11:12:18Z</time>
      </trkpt>
      <trkpt lat="43.95639" lon="1.90782">
        <ele>242.8</ele>
        <time>2022-10-12T11:12:19Z</time>
      </trkpt>
      <trkpt lat="43.9564" lon="1.90783">
        <ele>243</ele>
        <time>2022-10-12T11:12:20Z</time>
      </trkpt>
      <trkpt lat="43.95642" lon="1.90785">
        <ele>243</ele>
        <time>2022-10-12T11:12:21Z</time>
      </trkpt>
      <trkpt lat="43.95643" lon="1.90787">
        <ele>243.2</ele>
        <time>2022-10-12T11:12:22Z</time>
      </trkpt>
      <trkpt lat="43.95645" lon="1.90789">
        <ele>243.4</ele>
        <time>2022-10-12T11:12:23Z</time>
      </trkpt>
      <trkpt lat="43.95647" lon="1.90791">
        <ele>243.4</ele>
        <time>2022-10-12T11:12:24Z</time>
      </trkpt>
      <trkpt lat="43.95648" lon="1.90793">
        <ele>243.6</ele>
        <time>2022-10-12T11:12:25Z</time>
      </trkpt>
      <trkpt lat="43.95649" lon="1.90794">
        <ele>243.6</ele>
        <time>2022-10-12T11:12:26Z</time>
      </trkpt>
      <trkpt lat="43.9565" lon="1.90796">
        <ele>243.8</ele>
        <time>2022-10-12T11:12:27Z</time>
      </trkpt>
      <trkpt lat="43.95652" lon="1.90798">
        <ele>243.8</ele>
        <time>2022-10-12T11:12:28Z</time>
      </trkpt>
      <trkpt lat="43.95653" lon="1.90799">
        <ele>244</ele>
        <time>2022-10-12T11:12:29Z</time>
      </trkpt>
      <trkpt lat="43.95654" lon="1.90801">
        <ele>244.2</ele>
        <time>2022-10-12T11:12:30Z</time>
      </trkpt>
      <trkpt lat="43.95656" lon="1.90802">
        <ele>244.4</ele>
        <time>2022-10-12T11:12:31Z</time>
      </trkpt>
      <trkpt lat="43.95657" lon="1.90804">
        <ele>244.6</ele>
        <time>2022-10-12T11:12:32Z</time>
      </trkpt>
      <trkpt lat="43.95658" lon="1.90806">
        <ele>244.6</ele>
        <time>2022-10-12T11:12:33Z</time>
      </trkpt>
      <trkpt lat="43.95659" lon="1.90807">
        <ele>244.8</ele>
        <time>2022-10-12T11:12:34Z</time>
      </trkpt>
      <trkpt lat="43.95661" lon="1.90809">
        <ele>245</ele>
        <time>2022-10-12T11:12:35Z</time>
      </trkpt>
      <trkpt lat="43.95661" lon="1.9081">
        <ele>245.2</ele>
        <time>2022-10-12T11:12:36Z</time>
      </trkpt>
      <trkpt lat="43.95663" lon="1.90812">
        <ele>245.4</ele>
        <time>2022-10-12T11:12:37Z</time>
      </trkpt>
      <trkpt lat="43.95664" lon="1.90813">
        <ele>245.6</ele>
        <time>2022-10-12T11:12:38Z</time>
      </trkpt>
      <trkpt lat="43.95665" lon="1.90815">
        <ele>245.6</ele>
        <time>2022-10-12T11:12:39Z</time>
      </trkpt>
      <trkpt lat="43.95666" lon="1.90817">
        <ele>245.8</ele>
        <time>2022-10-12T11:12:40Z</time>
      </trkpt>
      <trkpt lat="43.95668" lon="1.90819">
        <ele>246.2</ele>
        <time>2022-10-12T11:12:41Z</time>
      </trkpt>
      <trkpt lat="43.95669" lon="1.9082">
        <ele>246.2</ele>
        <time>2022-10-12T11:12:42Z</time>
      </trkpt>
      <trkpt lat="43.9567" lon="1.90822">
        <ele>246.6</ele>
        <time>2022-10-12T11:12:43Z</time>
      </trkpt>
      <trkpt lat="43.95672" lon="1.90824">
        <ele>246.6</ele>
        <time>2022-10-12T11:12:44Z</time>
      </trkpt>
      <trkpt lat="43.95672" lon="1.90824">
        <ele>247</ele>
        <time>2022-10-12T11:12:45Z</time>
      </trkpt>
      <trkpt lat="43.95675" lon="1.90827">
        <ele>247</ele>
        <time>2022-10-12T11:12:46Z</time>
      </trkpt>
      <trkpt lat="43.95677" lon="1.90828">
        <ele>247.4</ele>
        <time>2022-10-12T11:12:47Z</time>
      </trkpt>
      <trkpt lat="43.95678" lon="1.9083">
        <ele>247.6</ele>
        <time>2022-10-12T11:12:48Z</time>
      </trkpt>
      <trkpt lat="43.95679" lon="1.90832">
        <ele>247.8</ele>
        <time>2022-10-12T11:12:49Z</time>
      </trkpt>
      <trkpt lat="43.95681" lon="1.90834">
        <ele>248</ele>
        <time>2022-10-12T11:12:50Z</time>
      </trkpt>
      <trkpt lat="43.95682" lon="1.90835">
        <ele>248</ele>
        <time>2022-10-12T11:12:51Z</time>
      </trkpt>
      <trkpt lat="43.95684" lon="1.90837">
        <ele>248.2</ele>
        <time>2022-10-12T11:12:52Z</time>
      </trkpt>
      <trkpt lat="43.95685" lon="1.90838">
        <ele>248.2</ele>
        <time>2022-10-12T11:12:53Z</time>
      </trkpt>
      <trkpt lat="43.95687" lon="1.9084">
        <ele>248.6</ele>
        <time>2022-10-12T11:12:54Z</time>
      </trkpt>
      <trkpt lat="43.95688" lon="1.90841">
        <ele>248.8</ele>
        <time>2022-10-12T11:12:55Z</time>
      </trkpt>
      <trkpt lat="43.9569" lon="1.90843">
        <ele>249</ele>
        <time>2022-10-12T11:12:56Z</time>
      </trkpt>
      <trkpt lat="43.95692" lon="1.90844">
        <ele>249</ele>
        <time>2022-10-12T11:12:57Z</time>
      </trkpt>
      <trkpt lat="43.95694" lon="1.90845">
        <ele>249.2</ele>
        <time>2022-10-12T11:12:58Z</time>
      </trkpt>
      <trkpt lat="43.95695" lon="1.90847">
        <ele>249.2</ele>
        <time>2022-10-12T11:12:59Z</time>
      </trkpt>
      <trkpt lat="43.95697" lon="1.90849">
        <ele>249.4</ele>
        <time>2022-10-12T11:13:00Z</time>
      </trkpt>
      <trkpt lat="43.95698" lon="1.9085">
        <ele>249.6</ele>
        <time>2022-10-12T11:13:01Z</time>
      </trkpt>
      <trkpt lat="43.957" lon="1.90852">
        <ele>249.6</ele>
        <time>2022-10-12T11:13:02Z</time>
      </trkpt>
      <trkpt lat="43.95701" lon="1.90853">
        <ele>249.8</ele>
        <time>2022-10-12T11:13:03Z</time>
      </trkpt>
      <trkpt lat="43.95703" lon="1.90854">
        <ele>250.2</ele>
        <time>2022-10-12T11:13:04Z</time>
      </trkpt>
      <trkpt lat="43.95704" lon="1.90856">
        <ele>250.2</ele>
        <time>2022-10-12T11:13:05Z</time>
      </trkpt>
      <trkpt lat="43.95706" lon="1.90858">
        <ele>250.4</ele>
        <time>2022-10-12T11:13:06Z</time>
      </trkpt>
      <trkpt lat="43.95707" lon="1.9086">
        <ele>250.4</ele>
        <time>2022-10-12T11:13:07Z</time>
      </trkpt>
      <trkpt lat="43.95709" lon="1.90862">
        <ele>250.6</ele>
        <time>2022-10-12T11:13:08Z</time>
      </trkpt>
      <trkpt lat="43.9571" lon="1.90864">
        <ele>250.8</ele>
        <time>2022-10-12T11:13:09Z</time>
      </trkpt>
      <trkpt lat="43.95711" lon="1.90866">
        <ele>251</ele>
        <time>2022-10-12T11:13:10Z</time>
      </trkpt>
      <trkpt lat="43.95711" lon="1.90869">
        <ele>251.2</ele>
        <time>2022-10-12T11:13:11Z</time>
      </trkpt>
      <trkpt lat="43.95711" lon="1.90872">
        <ele>251.4</ele>
        <time>2022-10-12T11:13:12Z</time>
      </trkpt>
      <trkpt lat="43.95711" lon="1.90875">
        <ele>251.8</ele>
        <time>2022-10-12T11:13:13Z</time>
      </trkpt>
      <trkpt lat="43.95711" lon="1.90878">
        <ele>251.8</ele>
        <time>2022-10-12T11:13:14Z</time>
      </trkpt>
      <trkpt lat="43.9571" lon="1.90881">
        <ele>252.2</ele>
        <time>2022-10-12T11:13:15Z</time>
      </trkpt>
      <trkpt lat="43.95709" lon="1.90883">
        <ele>252.2</ele>
        <time>2022-10-12T11:13:16Z</time>
      </trkpt>
      <trkpt lat="43.95708" lon="1.90887">
        <ele>252.4</ele>
        <time>2022-10-12T11:13:17Z</time>
      </trkpt>
      <trkpt lat="43.95708" lon="1.90889">
        <ele>252.4</ele>
        <time>2022-10-12T11:13:18Z</time>
      </trkpt>
      <trkpt lat="43.95707" lon="1.90892">
        <ele>252.6</ele>
        <time>2022-10-12T11:13:19Z</time>
      </trkpt>
      <trkpt lat="43.95707" lon="1.90895">
        <ele>252.6</ele>
        <time>2022-10-12T11:13:20Z</time>
      </trkpt>
      <trkpt lat="43.95706" lon="1.90898">
        <ele>252.6</ele>
        <time>2022-10-12T11:13:21Z</time>
      </trkpt>
      <trkpt lat="43.95706" lon="1.90898">
        <ele>252.6</ele>
        <time>2022-10-12T11:13:22Z</time>
      </trkpt>
      <trkpt lat="43.95705" lon="1.90902">
        <ele>252.6</ele>
        <time>2022-10-12T11:13:23Z</time>
      </trkpt>
      <trkpt lat="43.95705" lon="1.90905">
        <ele>252.6</ele>
        <time>2022-10-12T11:13:24Z</time>
      </trkpt>
      <trkpt lat="43.95703" lon="1.9091">
        <ele>252.6</ele>
        <time>2022-10-12T11:13:25Z</time>
      </trkpt>
      <trkpt lat="43.95702" lon="1.90913">
        <ele>252.6</ele>
        <time>2022-10-12T11:13:26Z</time>
      </trkpt>
      <trkpt lat="43.95702" lon="1.90913">
        <ele>252.8</ele>
        <time>2022-10-12T11:13:27Z</time>
      </trkpt>
      <trkpt lat="43.95702" lon="1.90916">
        <ele>252.8</ele>
        <time>2022-10-12T11:13:28Z</time>
      </trkpt>
      <trkpt lat="43.95701" lon="1.9092">
        <ele>252.8</ele>
        <time>2022-10-12T11:13:29Z</time>
      </trkpt>
      <trkpt lat="43.95699" lon="1.90928">
        <ele>252.8</ele>
        <time>2022-10-12T11:13:30Z</time>
      </trkpt>
      <trkpt lat="43.95699" lon="1.90928">
        <ele>252.8</ele>
        <time>2022-10-12T11:13:31Z</time>
      </trkpt>
      <trkpt lat="43.95698" lon="1.90936">
        <ele>252.8</ele>
        <time>2022-10-12T11:13:32Z</time>
      </trkpt>
      <trkpt lat="43.95698" lon="1.90936">
        <ele>253</ele>
        <time>2022-10-12T11:13:33Z</time>
      </trkpt>
      <trkpt lat="43.95697" lon="1.9094">
        <ele>253</ele>
        <time>2022-10-12T11:13:34Z</time>
      </trkpt>
      <trkpt lat="43.95697" lon="1.90944">
        <ele>253</ele>
        <time>2022-10-12T11:13:35Z</time>
      </trkpt>
      <trkpt lat="43.95687" lon="1.90982">
        <ele>253</ele>
        <time>2022-10-12T11:13:43Z</time>
      </trkpt>
      <trkpt lat="43.95682" lon="1.90992">
        <ele>253</ele>
        <time>2022-10-12T11:13:46Z</time>
      </trkpt>
      <trkpt lat="43.95682" lon="1.90992">
        <ele>253</ele>
        <time>2022-10-12T11:13:47Z</time>
      </trkpt>
      <trkpt lat="43.95677" lon="1.91003">
        <ele>253.4</ele>
        <time>2022-10-12T11:13:49Z</time>
      </trkpt>
      <trkpt lat="43.95674" lon="1.91006">
        <ele>253.4</ele>
        <time>2022-10-12T11:13:50Z</time>
      </trkpt>
      <trkpt lat="43.95674" lon="1.91006">
        <ele>253.4</ele>
        <time>2022-10-12T11:13:51Z</time>
      </trkpt>
      <trkpt lat="43.95666" lon="1.91018">
        <ele>253.2</ele>
        <time>2022-10-12T11:13:53Z</time>
      </trkpt>
      <trkpt lat="43.95665" lon="1.91021">
        <ele>253.4</ele>
        <time>2022-10-12T11:13:54Z</time>
      </trkpt>
      <trkpt lat="43.95665" lon="1.91021">
        <ele>253.6</ele>
        <time>2022-10-12T11:13:55Z</time>
      </trkpt>
      <trkpt lat="43.95664" lon="1.91025">
        <ele>253.6</ele>
        <time>2022-10-12T11:13:56Z</time>
      </trkpt>
      <trkpt lat="43.95658" lon="1.91033">
        <ele>253.6</ele>
        <time>2022-10-12T11:13:57Z</time>
      </trkpt>
      <trkpt lat="43.95655" lon="1.91037">
        <ele>253.6</ele>
        <time>2022-10-12T11:13:59Z</time>
      </trkpt>
      <trkpt lat="43.95652" lon="1.91042">
        <ele>253.6</ele>
        <time>2022-10-12T11:14:00Z</time>
      </trkpt>
      <trkpt lat="43.95643" lon="1.91061">
        <ele>253.6</ele>
        <time>2022-10-12T11:14:02Z</time>
      </trkpt>
      <trkpt lat="43.95625" lon="1.91109">
        <ele>253.4</ele>
        <time>2022-10-12T11:14:08Z</time>
      </trkpt>
      <trkpt lat="43.95605" lon="1.91153">
        <ele>252.6</ele>
        <time>2022-10-12T11:14:14Z</time>
      </trkpt>
      <trkpt lat="43.95597" lon="1.91168">
        <ele>252.2</ele>
        <time>2022-10-12T11:14:16Z</time>
      </trkpt>
      <trkpt lat="43.95594" lon="1.91176">
        <ele>251.8</ele>
        <time>2022-10-12T11:14:17Z</time>
      </trkpt>
      <trkpt lat="43.95591" lon="1.91184">
        <ele>251.4</ele>
        <time>2022-10-12T11:14:18Z</time>
      </trkpt>
      <trkpt lat="43.95583" lon="1.91199">
        <ele>251</ele>
        <time>2022-10-12T11:14:20Z</time>
      </trkpt>
      <trkpt lat="43.95579" lon="1.91206">
        <ele>251</ele>
        <time>2022-10-12T11:14:21Z</time>
      </trkpt>
      <trkpt lat="43.95577" lon="1.91212">
        <ele>250.8</ele>
        <time>2022-10-12T11:14:22Z</time>
      </trkpt>
      <trkpt lat="43.95572" lon="1.9122">
        <ele>250.8</ele>
        <time>2022-10-12T11:14:23Z</time>
      </trkpt>
      <trkpt lat="43.95567" lon="1.91228">
        <ele>250.8</ele>
        <time>2022-10-12T11:14:24Z</time>
      </trkpt>
      <trkpt lat="43.95565" lon="1.91235">
        <ele>250.4</ele>
        <time>2022-10-12T11:14:25Z</time>
      </trkpt>
      <trkpt lat="43.95563" lon="1.91241">
        <ele>250</ele>
        <time>2022-10-12T11:14:26Z</time>
      </trkpt>
      <trkpt lat="43.95561" lon="1.91244">
        <ele>250</ele>
        <time>2022-10-12T11:14:27Z</time>
      </trkpt>
      <trkpt lat="43.95559" lon="1.91249">
        <ele>249.8</ele>
        <time>2022-10-12T11:14:28Z</time>
      </trkpt>
      <trkpt lat="43.95559" lon="1.91249">
        <ele>249.8</ele>
        <time>2022-10-12T11:14:29Z</time>
      </trkpt>
      <trkpt lat="43.95555" lon="1.91261">
        <ele>249.8</ele>
        <time>2022-10-12T11:14:30Z</time>
      </trkpt>
      <trkpt lat="43.95554" lon="1.91265">
        <ele>249.8</ele>
        <time>2022-10-12T11:14:31Z</time>
      </trkpt>
      <trkpt lat="43.95552" lon="1.91269">
        <ele>249.6</ele>
        <time>2022-10-12T11:14:32Z</time>
      </trkpt>
      <trkpt lat="43.9555" lon="1.91274">
        <ele>249.6</ele>
        <time>2022-10-12T11:14:33Z</time>
      </trkpt>
      <trkpt lat="43.95546" lon="1.91283">
        <ele>249.6</ele>
        <time>2022-10-12T11:14:35Z</time>
      </trkpt>
      <trkpt lat="43.95541" lon="1.91289">
        <ele>249.4</ele>
        <time>2022-10-12T11:14:37Z</time>
      </trkpt>
      <trkpt lat="43.95537" lon="1.91292">
        <ele>249.4</ele>
        <time>2022-10-12T11:14:38Z</time>
      </trkpt>
      <trkpt lat="43.95534" lon="1.91293">
        <ele>249.4</ele>
        <time>2022-10-12T11:14:39Z</time>
      </trkpt>
      <trkpt lat="43.9553" lon="1.91295">
        <ele>249.4</ele>
        <time>2022-10-12T11:14:40Z</time>
      </trkpt>
      <trkpt lat="43.95528" lon="1.91298">
        <ele>249.4</ele>
        <time>2022-10-12T11:14:41Z</time>
      </trkpt>
      <trkpt lat="43.95527" lon="1.91301">
        <ele>249.4</ele>
        <time>2022-10-12T11:14:42Z</time>
      </trkpt>
      <trkpt lat="43.95524" lon="1.91312">
        <ele>249.8</ele>
        <time>2022-10-12T11:14:45Z</time>
      </trkpt>
      <trkpt lat="43.95523" lon="1.91318">
        <ele>249.8</ele>
        <time>2022-10-12T11:14:46Z</time>
      </trkpt>
      <trkpt lat="43.95521" lon="1.91324">
        <ele>249.8</ele>
        <time>2022-10-12T11:14:47Z</time>
      </trkpt>
      <trkpt lat="43.95518" lon="1.91336">
        <ele>250</ele>
        <time>2022-10-12T11:14:49Z</time>
      </trkpt>
      <trkpt lat="43.95511" lon="1.91383">
        <ele>249.4</ele>
        <time>2022-10-12T11:14:54Z</time>
      </trkpt>
      <trkpt lat="43.95511" lon="1.91392">
        <ele>249</ele>
        <time>2022-10-12T11:14:55Z</time>
      </trkpt>
      <trkpt lat="43.9551" lon="1.91404">
        <ele>248.8</ele>
        <time>2022-10-12T11:14:56Z</time>
      </trkpt>
      <trkpt lat="43.95508" lon="1.91415">
        <ele>247.8</ele>
        <time>2022-10-12T11:14:57Z</time>
      </trkpt>
      <trkpt lat="43.95507" lon="1.91426">
        <ele>247.2</ele>
        <time>2022-10-12T11:14:58Z</time>
      </trkpt>
      <trkpt lat="43.95504" lon="1.91438">
        <ele>246.6</ele>
        <time>2022-10-12T11:14:59Z</time>
      </trkpt>
      <trkpt lat="43.95497" lon="1.91464">
        <ele>246</ele>
        <time>2022-10-12T11:15:01Z</time>
      </trkpt>
      <trkpt lat="43.95493" lon="1.91478">
        <ele>244.2</ele>
        <time>2022-10-12T11:15:02Z</time>
      </trkpt>
      <trkpt lat="43.95489" lon="1.9149">
        <ele>243.6</ele>
        <time>2022-10-12T11:15:03Z</time>
      </trkpt>
      <trkpt lat="43.95484" lon="1.91503">
        <ele>242.6</ele>
        <time>2022-10-12T11:15:04Z</time>
      </trkpt>
      <trkpt lat="43.95479" lon="1.91512">
        <ele>242</ele>
        <time>2022-10-12T11:15:05Z</time>
      </trkpt>
      <trkpt lat="43.95476" lon="1.91519">
        <ele>241.2</ele>
        <time>2022-10-12T11:15:06Z</time>
      </trkpt>
      <trkpt lat="43.95474" lon="1.91525">
        <ele>240</ele>
        <time>2022-10-12T11:15:07Z</time>
      </trkpt>
      <trkpt lat="43.95475" lon="1.91533">
        <ele>239.8</ele>
        <time>2022-10-12T11:15:08Z</time>
      </trkpt>
      <trkpt lat="43.95477" lon="1.91544">
        <ele>239</ele>
        <time>2022-10-12T11:15:09Z</time>
      </trkpt>
      <trkpt lat="43.95479" lon="1.91554">
        <ele>238.6</ele>
        <time>2022-10-12T11:15:10Z</time>
      </trkpt>
      <trkpt lat="43.9548" lon="1.91564">
        <ele>238.4</ele>
        <time>2022-10-12T11:15:11Z</time>
      </trkpt>
      <trkpt lat="43.95479" lon="1.91574">
        <ele>238</ele>
        <time>2022-10-12T11:15:12Z</time>
      </trkpt>
      <trkpt lat="43.95479" lon="1.91584">
        <ele>237.4</ele>
        <time>2022-10-12T11:15:13Z</time>
      </trkpt>
      <trkpt lat="43.95479" lon="1.91593">
        <ele>237</ele>
        <time>2022-10-12T11:15:14Z</time>
      </trkpt>
      <trkpt lat="43.95477" lon="1.91596">
        <ele>236.2</ele>
        <time>2022-10-12T11:15:15Z</time>
      </trkpt>
      <trkpt lat="43.95473" lon="1.91599">
        <ele>235.4</ele>
        <time>2022-10-12T11:15:16Z</time>
      </trkpt>
      <trkpt lat="43.95469" lon="1.91602">
        <ele>235.2</ele>
        <time>2022-10-12T11:15:17Z</time>
      </trkpt>
      <trkpt lat="43.95465" lon="1.91604">
        <ele>234.8</ele>
        <time>2022-10-12T11:15:18Z</time>
      </trkpt>
      <trkpt lat="43.95463" lon="1.91604">
        <ele>234.6</ele>
        <time>2022-10-12T11:15:19Z</time>
      </trkpt>
      <trkpt lat="43.9546" lon="1.91606">
        <ele>234.6</ele>
        <time>2022-10-12T11:15:20Z</time>
      </trkpt>
      <trkpt lat="43.95456" lon="1.9161">
        <ele>234.4</ele>
        <time>2022-10-12T11:15:21Z</time>
      </trkpt>
      <trkpt lat="43.95452" lon="1.91614">
        <ele>234.4</ele>
        <time>2022-10-12T11:15:23Z</time>
      </trkpt>
      <trkpt lat="43.95448" lon="1.91614">
        <ele>234.4</ele>
        <time>2022-10-12T11:15:24Z</time>
      </trkpt>
      <trkpt lat="43.95444" lon="1.91616">
        <ele>234.6</ele>
        <time>2022-10-12T11:15:25Z</time>
      </trkpt>
      <trkpt lat="43.95442" lon="1.91618">
        <ele>234.6</ele>
        <time>2022-10-12T11:15:27Z</time>
      </trkpt>
      <trkpt lat="43.95441" lon="1.91619">
        <ele>234.8</ele>
        <time>2022-10-12T11:15:28Z</time>
      </trkpt>
      <trkpt lat="43.95441" lon="1.91621">
        <ele>234.8</ele>
        <time>2022-10-12T11:15:29Z</time>
      </trkpt>
      <trkpt lat="43.95441" lon="1.91622">
        <ele>235</ele>
        <time>2022-10-12T11:15:30Z</time>
      </trkpt>
      <trkpt lat="43.95439" lon="1.91623">
        <ele>235</ele>
        <time>2022-10-12T11:15:31Z</time>
      </trkpt>
      <trkpt lat="43.95436" lon="1.91625">
        <ele>235.2</ele>
        <time>2022-10-12T11:15:32Z</time>
      </trkpt>
      <trkpt lat="43.95435" lon="1.91625">
        <ele>235.6</ele>
        <time>2022-10-12T11:15:33Z</time>
      </trkpt>
      <trkpt lat="43.95433" lon="1.91626">
        <ele>235.8</ele>
        <time>2022-10-12T11:15:34Z</time>
      </trkpt>
      <trkpt lat="43.95432" lon="1.91628">
        <ele>236.2</ele>
        <time>2022-10-12T11:15:35Z</time>
      </trkpt>
      <trkpt lat="43.9543" lon="1.91629">
        <ele>236.4</ele>
        <time>2022-10-12T11:15:36Z</time>
      </trkpt>
      <trkpt lat="43.95428" lon="1.9163">
        <ele>236.8</ele>
        <time>2022-10-12T11:15:38Z</time>
      </trkpt>
      <trkpt lat="43.95421" lon="1.91633">
        <ele>237.4</ele>
        <time>2022-10-12T11:15:41Z</time>
      </trkpt>
      <trkpt lat="43.95419" lon="1.91634">
        <ele>237.6</ele>
        <time>2022-10-12T11:15:42Z</time>
      </trkpt>
      <trkpt lat="43.95416" lon="1.91635">
        <ele>237.8</ele>
        <time>2022-10-12T11:15:43Z</time>
      </trkpt>
      <trkpt lat="43.95414" lon="1.91635">
        <ele>238</ele>
        <time>2022-10-12T11:15:44Z</time>
      </trkpt>
      <trkpt lat="43.95411" lon="1.91635">
        <ele>238.4</ele>
        <time>2022-10-12T11:15:46Z</time>
      </trkpt>
      <trkpt lat="43.9541" lon="1.91634">
        <ele>238.6</ele>
        <time>2022-10-12T11:15:47Z</time>
      </trkpt>
      <trkpt lat="43.95409" lon="1.91633">
        <ele>238.8</ele>
        <time>2022-10-12T11:15:48Z</time>
      </trkpt>
      <trkpt lat="43.95408" lon="1.91632">
        <ele>239</ele>
        <time>2022-10-12T11:15:49Z</time>
      </trkpt>
      <trkpt lat="43.95408" lon="1.91631">
        <ele>239.2</ele>
        <time>2022-10-12T11:15:50Z</time>
      </trkpt>
      <trkpt lat="43.95408" lon="1.91631">
        <ele>239.6</ele>
        <time>2022-10-12T11:15:51Z</time>
      </trkpt>
      <trkpt lat="43.95408" lon="1.91631">
        <ele>239.8</ele>
        <time>2022-10-12T11:15:52Z</time>
      </trkpt>
      <trkpt lat="43.95407" lon="1.91631">
        <ele>240.4</ele>
        <time>2022-10-12T11:15:53Z</time>
      </trkpt>
      <trkpt lat="43.95404" lon="1.9163">
        <ele>240.4</ele>
        <time>2022-10-12T11:15:54Z</time>
      </trkpt>
      <trkpt lat="43.95401" lon="1.91629">
        <ele>240.6</ele>
        <time>2022-10-12T11:15:55Z</time>
      </trkpt>
      <trkpt lat="43.95399" lon="1.91629">
        <ele>240.8</ele>
        <time>2022-10-12T11:15:56Z</time>
      </trkpt>
      <trkpt lat="43.95398" lon="1.91628">
        <ele>241.2</ele>
        <time>2022-10-12T11:15:57Z</time>
      </trkpt>
      <trkpt lat="43.95397" lon="1.91628">
        <ele>241.4</ele>
        <time>2022-10-12T11:15:58Z</time>
      </trkpt>
      <trkpt lat="43.95395" lon="1.91628">
        <ele>241.6</ele>
        <time>2022-10-12T11:15:59Z</time>
      </trkpt>
      <trkpt lat="43.95393" lon="1.91628">
        <ele>241.8</ele>
        <time>2022-10-12T11:16:00Z</time>
      </trkpt>
      <trkpt lat="43.9539" lon="1.91627">
        <ele>241.8</ele>
        <time>2022-10-12T11:16:01Z</time>
      </trkpt>
      <trkpt lat="43.95388" lon="1.91625">
        <ele>242</ele>
        <time>2022-10-12T11:16:02Z</time>
      </trkpt>
      <trkpt lat="43.95387" lon="1.91624">
        <ele>242.2</ele>
        <time>2022-10-12T11:16:03Z</time>
      </trkpt>
      <trkpt lat="43.95386" lon="1.91623">
        <ele>242.4</ele>
        <time>2022-10-12T11:16:04Z</time>
      </trkpt>
      <trkpt lat="43.95384" lon="1.91621">
        <ele>242.4</ele>
        <time>2022-10-12T11:16:05Z</time>
      </trkpt>
      <trkpt lat="43.95381" lon="1.91616">
        <ele>242.6</ele>
        <time>2022-10-12T11:16:06Z</time>
      </trkpt>
      <trkpt lat="43.95379" lon="1.91615">
        <ele>242.8</ele>
        <time>2022-10-12T11:16:07Z</time>
      </trkpt>
      <trkpt lat="43.95378" lon="1.91614">
        <ele>242.8</ele>
        <time>2022-10-12T11:16:08Z</time>
      </trkpt>
      <trkpt lat="43.95376" lon="1.91613">
        <ele>243.2</ele>
        <time>2022-10-12T11:16:09Z</time>
      </trkpt>
      <trkpt lat="43.95375" lon="1.91611">
        <ele>243.2</ele>
        <time>2022-10-12T11:16:10Z</time>
      </trkpt>
      <trkpt lat="43.95374" lon="1.9161">
        <ele>243.6</ele>
        <time>2022-10-12T11:16:11Z</time>
      </trkpt>
      <trkpt lat="43.95371" lon="1.91607">
        <ele>243.8</ele>
        <time>2022-10-12T11:16:12Z</time>
      </trkpt>
      <trkpt lat="43.9537" lon="1.91605">
        <ele>244</ele>
        <time>2022-10-12T11:16:13Z</time>
      </trkpt>
      <trkpt lat="43.9537" lon="1.91604">
        <ele>244.2</ele>
        <time>2022-10-12T11:16:14Z</time>
      </trkpt>
      <trkpt lat="43.95368" lon="1.91604">
        <ele>244.2</ele>
        <time>2022-10-12T11:16:15Z</time>
      </trkpt>
      <trkpt lat="43.95367" lon="1.91603">
        <ele>244.6</ele>
        <time>2022-10-12T11:16:16Z</time>
      </trkpt>
      <trkpt lat="43.95366" lon="1.91601">
        <ele>244.6</ele>
        <time>2022-10-12T11:16:17Z</time>
      </trkpt>
      <trkpt lat="43.95366" lon="1.91599">
        <ele>244.8</ele>
        <time>2022-10-12T11:16:18Z</time>
      </trkpt>
      <trkpt lat="43.95365" lon="1.91597">
        <ele>245</ele>
        <time>2022-10-12T11:16:19Z</time>
      </trkpt>
      <trkpt lat="43.95364" lon="1.91597">
        <ele>245.2</ele>
        <time>2022-10-12T11:16:20Z</time>
      </trkpt>
      <trkpt lat="43.95364" lon="1.91595">
        <ele>245.4</ele>
        <time>2022-10-12T11:16:21Z</time>
      </trkpt>
      <trkpt lat="43.95363" lon="1.91595">
        <ele>245.4</ele>
        <time>2022-10-12T11:16:22Z</time>
      </trkpt>
      <trkpt lat="43.95361" lon="1.91594">
        <ele>246</ele>
        <time>2022-10-12T11:16:23Z</time>
      </trkpt>
      <trkpt lat="43.95358" lon="1.91594">
        <ele>246</ele>
        <time>2022-10-12T11:16:24Z</time>
      </trkpt>
      <trkpt lat="43.95357" lon="1.91593">
        <ele>246.4</ele>
        <time>2022-10-12T11:16:25Z</time>
      </trkpt>
      <trkpt lat="43.95356" lon="1.91591">
        <ele>246.6</ele>
        <time>2022-10-12T11:16:26Z</time>
      </trkpt>
      <trkpt lat="43.95355" lon="1.9159">
        <ele>247</ele>
        <time>2022-10-12T11:16:27Z</time>
      </trkpt>
      <trkpt lat="43.95354" lon="1.91588">
        <ele>247</ele>
        <time>2022-10-12T11:16:28Z</time>
      </trkpt>
      <trkpt lat="43.95353" lon="1.91587">
        <ele>247.4</ele>
        <time>2022-10-12T11:16:29Z</time>
      </trkpt>
      <trkpt lat="43.95352" lon="1.91585">
        <ele>247.6</ele>
        <time>2022-10-12T11:16:30Z</time>
      </trkpt>
      <trkpt lat="43.95351" lon="1.91584">
        <ele>247.6</ele>
        <time>2022-10-12T11:16:31Z</time>
      </trkpt>
      <trkpt lat="43.95349" lon="1.91583">
        <ele>248</ele>
        <time>2022-10-12T11:16:32Z</time>
      </trkpt>
      <trkpt lat="43.95348" lon="1.91581">
        <ele>248</ele>
        <time>2022-10-12T11:16:33Z</time>
      </trkpt>
      <trkpt lat="43.95346" lon="1.9158">
        <ele>248.2</ele>
        <time>2022-10-12T11:16:34Z</time>
      </trkpt>
      <trkpt lat="43.95345" lon="1.91578">
        <ele>248.2</ele>
        <time>2022-10-12T11:16:35Z</time>
      </trkpt>
      <trkpt lat="43.95343" lon="1.91576">
        <ele>248.2</ele>
        <time>2022-10-12T11:16:36Z</time>
      </trkpt>
      <trkpt lat="43.95341" lon="1.91574">
        <ele>248.4</ele>
        <time>2022-10-12T11:16:37Z</time>
      </trkpt>
      <trkpt lat="43.9534" lon="1.91572">
        <ele>248.4</ele>
        <time>2022-10-12T11:16:38Z</time>
      </trkpt>
      <trkpt lat="43.95338" lon="1.91571">
        <ele>248.6</ele>
        <time>2022-10-12T11:16:39Z</time>
      </trkpt>
      <trkpt lat="43.95336" lon="1.91569">
        <ele>248.6</ele>
        <time>2022-10-12T11:16:40Z</time>
      </trkpt>
      <trkpt lat="43.95335" lon="1.91568">
        <ele>248.8</ele>
        <time>2022-10-12T11:16:41Z</time>
      </trkpt>
      <trkpt lat="43.95334" lon="1.91566">
        <ele>248.8</ele>
        <time>2022-10-12T11:16:42Z</time>
      </trkpt>
      <trkpt lat="43.95333" lon="1.91563">
        <ele>249</ele>
        <time>2022-10-12T11:16:43Z</time>
      </trkpt>
      <trkpt lat="43.95332" lon="1.91561">
        <ele>249.2</ele>
        <time>2022-10-12T11:16:44Z</time>
      </trkpt>
      <trkpt lat="43.9533" lon="1.9156">
        <ele>249.4</ele>
        <time>2022-10-12T11:16:45Z</time>
      </trkpt>
      <trkpt lat="43.95328" lon="1.91558">
        <ele>249.4</ele>
        <time>2022-10-12T11:16:46Z</time>
      </trkpt>
      <trkpt lat="43.95327" lon="1.91556">
        <ele>249.4</ele>
        <time>2022-10-12T11:16:47Z</time>
      </trkpt>
      <trkpt lat="43.95325" lon="1.91555">
        <ele>249.6</ele>
        <time>2022-10-12T11:16:48Z</time>
      </trkpt>
      <trkpt lat="43.95324" lon="1.91553">
        <ele>249.6</ele>
        <time>2022-10-12T11:16:49Z</time>
      </trkpt>
      <trkpt lat="43.95322" lon="1.91551">
        <ele>249.8</ele>
        <time>2022-10-12T11:16:50Z</time>
      </trkpt>
      <trkpt lat="43.9532" lon="1.91549">
        <ele>249.8</ele>
        <time>2022-10-12T11:16:51Z</time>
      </trkpt>
      <trkpt lat="43.95319" lon="1.91548">
        <ele>250</ele>
        <time>2022-10-12T11:16:52Z</time>
      </trkpt>
      <trkpt lat="43.95318" lon="1.91547">
        <ele>250.2</ele>
        <time>2022-10-12T11:16:53Z</time>
      </trkpt>
      <trkpt lat="43.95317" lon="1.91545">
        <ele>250.2</ele>
        <time>2022-10-12T11:16:54Z</time>
      </trkpt>
      <trkpt lat="43.95315" lon="1.91543">
        <ele>250.6</ele>
        <time>2022-10-12T11:16:55Z</time>
      </trkpt>
      <trkpt lat="43.95313" lon="1.91541">
        <ele>250.6</ele>
        <time>2022-10-12T11:16:56Z</time>
      </trkpt>
      <trkpt lat="43.95312" lon="1.9154">
        <ele>250.8</ele>
        <time>2022-10-12T11:16:57Z</time>
      </trkpt>
      <trkpt lat="43.95311" lon="1.91538">
        <ele>250.8</ele>
        <time>2022-10-12T11:16:58Z</time>
      </trkpt>
      <trkpt lat="43.95309" lon="1.91537">
        <ele>251</ele>
        <time>2022-10-12T11:16:59Z</time>
      </trkpt>
      <trkpt lat="43.95307" lon="1.91536">
        <ele>251</ele>
        <time>2022-10-12T11:17:00Z</time>
      </trkpt>
      <trkpt lat="43.95306" lon="1.91534">
        <ele>251</ele>
        <time>2022-10-12T11:17:01Z</time>
      </trkpt>
      <trkpt lat="43.95305" lon="1.91533">
        <ele>251.4</ele>
        <time>2022-10-12T11:17:02Z</time>
      </trkpt>
      <trkpt lat="43.95303" lon="1.91531">
        <ele>251.6</ele>
        <time>2022-10-12T11:17:03Z</time>
      </trkpt>
      <trkpt lat="43.95302" lon="1.9153">
        <ele>251.8</ele>
        <time>2022-10-12T11:17:04Z</time>
      </trkpt>
      <trkpt lat="43.953" lon="1.91528">
        <ele>251.8</ele>
        <time>2022-10-12T11:17:05Z</time>
      </trkpt>
      <trkpt lat="43.95299" lon="1.91527">
        <ele>251.8</ele>
        <time>2022-10-12T11:17:06Z</time>
      </trkpt>
      <trkpt lat="43.95297" lon="1.91525">
        <ele>252</ele>
        <time>2022-10-12T11:17:07Z</time>
      </trkpt>
      <trkpt lat="43.95296" lon="1.91524">
        <ele>252</ele>
        <time>2022-10-12T11:17:08Z</time>
      </trkpt>
      <trkpt lat="43.95294" lon="1.91523">
        <ele>252.2</ele>
        <time>2022-10-12T11:17:09Z</time>
      </trkpt>
      <trkpt lat="43.95292" lon="1.91522">
        <ele>252.4</ele>
        <time>2022-10-12T11:17:10Z</time>
      </trkpt>
      <trkpt lat="43.95289" lon="1.91522">
        <ele>252.4</ele>
        <time>2022-10-12T11:17:11Z</time>
      </trkpt>
      <trkpt lat="43.95286" lon="1.91523">
        <ele>252.6</ele>
        <time>2022-10-12T11:17:12Z</time>
      </trkpt>
      <trkpt lat="43.95284" lon="1.91524">
        <ele>252.6</ele>
        <time>2022-10-12T11:17:13Z</time>
      </trkpt>
      <trkpt lat="43.95283" lon="1.91527">
        <ele>252.6</ele>
        <time>2022-10-12T11:17:14Z</time>
      </trkpt>
      <trkpt lat="43.95281" lon="1.9153">
        <ele>252.8</ele>
        <time>2022-10-12T11:17:15Z</time>
      </trkpt>
      <trkpt lat="43.9528" lon="1.91532">
        <ele>252.8</ele>
        <time>2022-10-12T11:17:16Z</time>
      </trkpt>
      <trkpt lat="43.95279" lon="1.91536">
        <ele>253.2</ele>
        <time>2022-10-12T11:17:17Z</time>
      </trkpt>
      <trkpt lat="43.95277" lon="1.91539">
        <ele>253.4</ele>
        <time>2022-10-12T11:17:18Z</time>
      </trkpt>
      <trkpt lat="43.95277" lon="1.91541">
        <ele>253.4</ele>
        <time>2022-10-12T11:17:19Z</time>
      </trkpt>
      <trkpt lat="43.95276" lon="1.91544">
        <ele>253.6</ele>
        <time>2022-10-12T11:17:20Z</time>
      </trkpt>
      <trkpt lat="43.95275" lon="1.91547">
        <ele>253.6</ele>
        <time>2022-10-12T11:17:21Z</time>
      </trkpt>
      <trkpt lat="43.95274" lon="1.9155">
        <ele>253.8</ele>
        <time>2022-10-12T11:17:22Z</time>
      </trkpt>
      <trkpt lat="43.95272" lon="1.91554">
        <ele>253.8</ele>
        <time>2022-10-12T11:17:23Z</time>
      </trkpt>
      <trkpt lat="43.95271" lon="1.91557">
        <ele>254</ele>
        <time>2022-10-12T11:17:24Z</time>
      </trkpt>
      <trkpt lat="43.9527" lon="1.9156">
        <ele>254</ele>
        <time>2022-10-12T11:17:25Z</time>
      </trkpt>
      <trkpt lat="43.95269" lon="1.91563">
        <ele>254.2</ele>
        <time>2022-10-12T11:17:26Z</time>
      </trkpt>
      <trkpt lat="43.95268" lon="1.91565">
        <ele>254.4</ele>
        <time>2022-10-12T11:17:27Z</time>
      </trkpt>
      <trkpt lat="43.95267" lon="1.91568">
        <ele>254.4</ele>
        <time>2022-10-12T11:17:28Z</time>
      </trkpt>
      <trkpt lat="43.95265" lon="1.91571">
        <ele>254.4</ele>
        <time>2022-10-12T11:17:29Z</time>
      </trkpt>
      <trkpt lat="43.95264" lon="1.91574">
        <ele>254.6</ele>
        <time>2022-10-12T11:17:30Z</time>
      </trkpt>
      <trkpt lat="43.95263" lon="1.91577">
        <ele>254.6</ele>
        <time>2022-10-12T11:17:31Z</time>
      </trkpt>
      <trkpt lat="43.95262" lon="1.9158">
        <ele>254.6</ele>
        <time>2022-10-12T11:17:32Z</time>
      </trkpt>
      <trkpt lat="43.95261" lon="1.91583">
        <ele>254.8</ele>
        <time>2022-10-12T11:17:33Z</time>
      </trkpt>
      <trkpt lat="43.9526" lon="1.91586">
        <ele>254.8</ele>
        <time>2022-10-12T11:17:34Z</time>
      </trkpt>
      <trkpt lat="43.95259" lon="1.9159">
        <ele>254.8</ele>
        <time>2022-10-12T11:17:35Z</time>
      </trkpt>
      <trkpt lat="43.95257" lon="1.91593">
        <ele>255</ele>
        <time>2022-10-12T11:17:36Z</time>
      </trkpt>
      <trkpt lat="43.95256" lon="1.91597">
        <ele>255</ele>
        <time>2022-10-12T11:17:37Z</time>
      </trkpt>
      <trkpt lat="43.95255" lon="1.916">
        <ele>255.2</ele>
        <time>2022-10-12T11:17:38Z</time>
      </trkpt>
      <trkpt lat="43.95253" lon="1.91605">
        <ele>255.2</ele>
        <time>2022-10-12T11:17:39Z</time>
      </trkpt>
      <trkpt lat="43.95247" lon="1.91622">
        <ele>255.4</ele>
        <time>2022-10-12T11:17:43Z</time>
      </trkpt>
      <trkpt lat="43.95234" lon="1.91661">
        <ele>255</ele>
        <time>2022-10-12T11:17:49Z</time>
      </trkpt>
      <trkpt lat="43.95216" lon="1.91709">
        <ele>254.4</ele>
        <time>2022-10-12T11:17:55Z</time>
      </trkpt>
      <trkpt lat="43.95213" lon="1.91717">
        <ele>254.2</ele>
        <time>2022-10-12T11:17:56Z</time>
      </trkpt>
      <trkpt lat="43.95208" lon="1.91726">
        <ele>254</ele>
        <time>2022-10-12T11:17:57Z</time>
      </trkpt>
      <trkpt lat="43.95203" lon="1.91733">
        <ele>254</ele>
        <time>2022-10-12T11:17:58Z</time>
      </trkpt>
      <trkpt lat="43.95194" lon="1.91743">
        <ele>253.8</ele>
        <time>2022-10-12T11:18:00Z</time>
      </trkpt>
      <trkpt lat="43.95187" lon="1.9175">
        <ele>253.6</ele>
        <time>2022-10-12T11:18:01Z</time>
      </trkpt>
      <trkpt lat="43.95167" lon="1.91771">
        <ele>253.2</ele>
        <time>2022-10-12T11:18:05Z</time>
      </trkpt>
      <trkpt lat="43.9516" lon="1.91778">
        <ele>253</ele>
        <time>2022-10-12T11:18:06Z</time>
      </trkpt>
      <trkpt lat="43.9515" lon="1.91787">
        <ele>252.6</ele>
        <time>2022-10-12T11:18:08Z</time>
      </trkpt>
      <trkpt lat="43.95145" lon="1.91793">
        <ele>252.6</ele>
        <time>2022-10-12T11:18:09Z</time>
      </trkpt>
      <trkpt lat="43.95139" lon="1.91799">
        <ele>252.6</ele>
        <time>2022-10-12T11:18:10Z</time>
      </trkpt>
      <trkpt lat="43.95133" lon="1.91804">
        <ele>252.6</ele>
        <time>2022-10-12T11:18:11Z</time>
      </trkpt>
      <trkpt lat="43.95124" lon="1.91813">
        <ele>252.4</ele>
        <time>2022-10-12T11:18:13Z</time>
      </trkpt>
      <trkpt lat="43.95119" lon="1.91818">
        <ele>252.2</ele>
        <time>2022-10-12T11:18:14Z</time>
      </trkpt>
      <trkpt lat="43.95113" lon="1.91824">
        <ele>252</ele>
        <time>2022-10-12T11:18:15Z</time>
      </trkpt>
      <trkpt lat="43.95081" lon="1.91856">
        <ele>251.8</ele>
        <time>2022-10-12T11:18:21Z</time>
      </trkpt>
      <trkpt lat="43.95034" lon="1.91903">
        <ele>251.2</ele>
        <time>2022-10-12T11:18:29Z</time>
      </trkpt>
      <trkpt lat="43.95029" lon="1.91909">
        <ele>250.8</ele>
        <time>2022-10-12T11:18:30Z</time>
      </trkpt>
      <trkpt lat="43.95025" lon="1.91915">
        <ele>250.4</ele>
        <time>2022-10-12T11:18:31Z</time>
      </trkpt>
      <trkpt lat="43.95021" lon="1.91923">
        <ele>250</ele>
        <time>2022-10-12T11:18:32Z</time>
      </trkpt>
      <trkpt lat="43.95017" lon="1.91932">
        <ele>249.6</ele>
        <time>2022-10-12T11:18:33Z</time>
      </trkpt>
      <trkpt lat="43.95014" lon="1.9194">
        <ele>249.4</ele>
        <time>2022-10-12T11:18:34Z</time>
      </trkpt>
      <trkpt lat="43.95012" lon="1.91948">
        <ele>249.2</ele>
        <time>2022-10-12T11:18:35Z</time>
      </trkpt>
      <trkpt lat="43.95009" lon="1.91953">
        <ele>249.2</ele>
        <time>2022-10-12T11:18:36Z</time>
      </trkpt>
      <trkpt lat="43.95006" lon="1.91961">
        <ele>248.8</ele>
        <time>2022-10-12T11:18:37Z</time>
      </trkpt>
      <trkpt lat="43.95003" lon="1.91967">
        <ele>248.4</ele>
        <time>2022-10-12T11:18:38Z</time>
      </trkpt>
      <trkpt lat="43.94999" lon="1.91975">
        <ele>248.2</ele>
        <time>2022-10-12T11:18:39Z</time>
      </trkpt>
      <trkpt lat="43.9499" lon="1.91993">
        <ele>248.2</ele>
        <time>2022-10-12T11:18:42Z</time>
      </trkpt>
      <trkpt lat="43.94983" lon="1.92006">
        <ele>248</ele>
        <time>2022-10-12T11:18:44Z</time>
      </trkpt>
      <trkpt lat="43.9498" lon="1.92013">
        <ele>248</ele>
        <time>2022-10-12T11:18:45Z</time>
      </trkpt>
      <trkpt lat="43.94972" lon="1.92026">
        <ele>248.2</ele>
        <time>2022-10-12T11:18:47Z</time>
      </trkpt>
      <trkpt lat="43.94969" lon="1.92032">
        <ele>248.2</ele>
        <time>2022-10-12T11:18:48Z</time>
      </trkpt>
      <trkpt lat="43.94966" lon="1.92038">
        <ele>248.4</ele>
        <time>2022-10-12T11:18:49Z</time>
      </trkpt>
      <trkpt lat="43.94964" lon="1.92042">
        <ele>248.4</ele>
        <time>2022-10-12T11:18:50Z</time>
      </trkpt>
      <trkpt lat="43.94961" lon="1.92048">
        <ele>248.4</ele>
        <time>2022-10-12T11:18:51Z</time>
      </trkpt>
      <trkpt lat="43.94958" lon="1.92054">
        <ele>248.6</ele>
        <time>2022-10-12T11:18:52Z</time>
      </trkpt>
      <trkpt lat="43.94955" lon="1.92059">
        <ele>248.6</ele>
        <time>2022-10-12T11:18:53Z</time>
      </trkpt>
      <trkpt lat="43.94946" lon="1.92074">
        <ele>249</ele>
        <time>2022-10-12T11:18:56Z</time>
      </trkpt>
      <trkpt lat="43.94939" lon="1.92083">
        <ele>249.2</ele>
        <time>2022-10-12T11:18:58Z</time>
      </trkpt>
      <trkpt lat="43.94936" lon="1.92086">
        <ele>249.4</ele>
        <time>2022-10-12T11:18:59Z</time>
      </trkpt>
      <trkpt lat="43.94928" lon="1.92095">
        <ele>249.6</ele>
        <time>2022-10-12T11:19:01Z</time>
      </trkpt>
      <trkpt lat="43.9491" lon="1.92118">
        <ele>250.6</ele>
        <time>2022-10-12T11:19:06Z</time>
      </trkpt>
      <trkpt lat="43.94906" lon="1.92122">
        <ele>250.6</ele>
        <time>2022-10-12T11:19:07Z</time>
      </trkpt>
      <trkpt lat="43.94903" lon="1.92125">
        <ele>250.8</ele>
        <time>2022-10-12T11:19:08Z</time>
      </trkpt>
      <trkpt lat="43.94899" lon="1.9213">
        <ele>250.8</ele>
        <time>2022-10-12T11:19:09Z</time>
      </trkpt>
      <trkpt lat="43.94888" lon="1.92144">
        <ele>251.6</ele>
        <time>2022-10-12T11:19:12Z</time>
      </trkpt>
      <trkpt lat="43.94874" lon="1.92161">
        <ele>251.8</ele>
        <time>2022-10-12T11:19:15Z</time>
      </trkpt>
      <trkpt lat="43.94865" lon="1.92172">
        <ele>251.8</ele>
        <time>2022-10-12T11:19:17Z</time>
      </trkpt>
      <trkpt lat="43.9486" lon="1.9218">
        <ele>251.8</ele>
        <time>2022-10-12T11:19:18Z</time>
      </trkpt>
      <trkpt lat="43.94855" lon="1.92186">
        <ele>251.6</ele>
        <time>2022-10-12T11:19:19Z</time>
      </trkpt>
      <trkpt lat="43.9485" lon="1.92192">
        <ele>251.6</ele>
        <time>2022-10-12T11:19:20Z</time>
      </trkpt>
      <trkpt lat="43.94847" lon="1.92197">
        <ele>251.2</ele>
        <time>2022-10-12T11:19:21Z</time>
      </trkpt>
      <trkpt lat="43.94842" lon="1.92203">
        <ele>251.2</ele>
        <time>2022-10-12T11:19:22Z</time>
      </trkpt>
      <trkpt lat="43.94837" lon="1.92208">
        <ele>251</ele>
        <time>2022-10-12T11:19:23Z</time>
      </trkpt>
      <trkpt lat="43.94832" lon="1.92213">
        <ele>250.8</ele>
        <time>2022-10-12T11:19:24Z</time>
      </trkpt>
      <trkpt lat="43.94827" lon="1.92217">
        <ele>250.8</ele>
        <time>2022-10-12T11:19:25Z</time>
      </trkpt>
      <trkpt lat="43.94822" lon="1.9222">
        <ele>250.6</ele>
        <time>2022-10-12T11:19:26Z</time>
      </trkpt>
      <trkpt lat="43.9481" lon="1.92224">
        <ele>250.6</ele>
        <time>2022-10-12T11:19:28Z</time>
      </trkpt>
      <trkpt lat="43.94804" lon="1.92224">
        <ele>250.2</ele>
        <time>2022-10-12T11:19:29Z</time>
      </trkpt>
      <trkpt lat="43.94799" lon="1.92224">
        <ele>249.8</ele>
        <time>2022-10-12T11:19:30Z</time>
      </trkpt>
      <trkpt lat="43.94794" lon="1.92223">
        <ele>249.8</ele>
        <time>2022-10-12T11:19:31Z</time>
      </trkpt>
      <trkpt lat="43.94787" lon="1.92222">
        <ele>249.6</ele>
        <time>2022-10-12T11:19:32Z</time>
      </trkpt>
      <trkpt lat="43.94754" lon="1.92221">
        <ele>248.4</ele>
        <time>2022-10-12T11:19:37Z</time>
      </trkpt>
      <trkpt lat="43.94741" lon="1.92221">
        <ele>247.4</ele>
        <time>2022-10-12T11:19:39Z</time>
      </trkpt>
      <trkpt lat="43.94734" lon="1.92223">
        <ele>247.2</ele>
        <time>2022-10-12T11:19:40Z</time>
      </trkpt>
      <trkpt lat="43.94726" lon="1.92226">
        <ele>247</ele>
        <time>2022-10-12T11:19:41Z</time>
      </trkpt>
      <trkpt lat="43.94712" lon="1.92231">
        <ele>246.8</ele>
        <time>2022-10-12T11:19:43Z</time>
      </trkpt>
      <trkpt lat="43.94707" lon="1.92233">
        <ele>246.8</ele>
        <time>2022-10-12T11:19:44Z</time>
      </trkpt>
      <trkpt lat="43.94699" lon="1.92236">
        <ele>246.8</ele>
        <time>2022-10-12T11:19:45Z</time>
      </trkpt>
      <trkpt lat="43.94695" lon="1.92238">
        <ele>246.6</ele>
        <time>2022-10-12T11:19:46Z</time>
      </trkpt>
      <trkpt lat="43.94688" lon="1.92243">
        <ele>246.6</ele>
        <time>2022-10-12T11:19:47Z</time>
      </trkpt>
      <trkpt lat="43.94684" lon="1.92246">
        <ele>246.4</ele>
        <time>2022-10-12T11:19:48Z</time>
      </trkpt>
      <trkpt lat="43.94679" lon="1.92249">
        <ele>246.2</ele>
        <time>2022-10-12T11:19:49Z</time>
      </trkpt>
      <trkpt lat="43.94674" lon="1.92254">
        <ele>246.2</ele>
        <time>2022-10-12T11:19:50Z</time>
      </trkpt>
      <trkpt lat="43.9467" lon="1.92259">
        <ele>246.2</ele>
        <time>2022-10-12T11:19:51Z</time>
      </trkpt>
      <trkpt lat="43.94665" lon="1.92263">
        <ele>246.2</ele>
        <time>2022-10-12T11:19:52Z</time>
      </trkpt>
      <trkpt lat="43.94661" lon="1.92267">
        <ele>246.2</ele>
        <time>2022-10-12T11:19:53Z</time>
      </trkpt>
      <trkpt lat="43.94658" lon="1.92271">
        <ele>246.2</ele>
        <time>2022-10-12T11:19:54Z</time>
      </trkpt>
      <trkpt lat="43.94646" lon="1.92285">
        <ele>246.4</ele>
        <time>2022-10-12T11:19:57Z</time>
      </trkpt>
      <trkpt lat="43.94642" lon="1.92289">
        <ele>246.6</ele>
        <time>2022-10-12T11:19:58Z</time>
      </trkpt>
      <trkpt lat="43.94638" lon="1.92295">
        <ele>246.8</ele>
        <time>2022-10-12T11:19:59Z</time>
      </trkpt>
      <trkpt lat="43.94617" lon="1.92331">
        <ele>247.4</ele>
        <time>2022-10-12T11:20:05Z</time>
      </trkpt>
      <trkpt lat="43.94597" lon="1.92364">
        <ele>246.8</ele>
        <time>2022-10-12T11:20:10Z</time>
      </trkpt>
      <trkpt lat="43.94593" lon="1.92368">
        <ele>246.8</ele>
        <time>2022-10-12T11:20:11Z</time>
      </trkpt>
      <trkpt lat="43.94587" lon="1.92373">
        <ele>246.6</ele>
        <time>2022-10-12T11:20:12Z</time>
      </trkpt>
      <trkpt lat="43.94574" lon="1.92381">
        <ele>246</ele>
        <time>2022-10-12T11:20:14Z</time>
      </trkpt>
      <trkpt lat="43.94567" lon="1.92383">
        <ele>246</ele>
        <time>2022-10-12T11:20:15Z</time>
      </trkpt>
      <trkpt lat="43.94529" lon="1.92398">
        <ele>244.4</ele>
        <time>2022-10-12T11:20:20Z</time>
      </trkpt>
      <trkpt lat="43.94501" lon="1.9241">
        <ele>242.8</ele>
        <time>2022-10-12T11:20:23Z</time>
      </trkpt>
      <trkpt lat="43.94483" lon="1.92417">
        <ele>241</ele>
        <time>2022-10-12T11:20:25Z</time>
      </trkpt>
      <trkpt lat="43.94472" lon="1.92421">
        <ele>240.6</ele>
        <time>2022-10-12T11:20:26Z</time>
      </trkpt>
      <trkpt lat="43.94463" lon="1.92424">
        <ele>239.2</ele>
        <time>2022-10-12T11:20:27Z</time>
      </trkpt>
      <trkpt lat="43.94454" lon="1.92427">
        <ele>238</ele>
        <time>2022-10-12T11:20:28Z</time>
      </trkpt>
      <trkpt lat="43.94446" lon="1.92428">
        <ele>236.8</ele>
        <time>2022-10-12T11:20:29Z</time>
      </trkpt>
      <trkpt lat="43.94438" lon="1.92427">
        <ele>235.6</ele>
        <time>2022-10-12T11:20:30Z</time>
      </trkpt>
      <trkpt lat="43.94429" lon="1.92423">
        <ele>235</ele>
        <time>2022-10-12T11:20:31Z</time>
      </trkpt>
      <trkpt lat="43.94423" lon="1.92419">
        <ele>234.2</ele>
        <time>2022-10-12T11:20:32Z</time>
      </trkpt>
      <trkpt lat="43.94416" lon="1.92414">
        <ele>233.8</ele>
        <time>2022-10-12T11:20:33Z</time>
      </trkpt>
      <trkpt lat="43.94409" lon="1.9241">
        <ele>233.4</ele>
        <time>2022-10-12T11:20:34Z</time>
      </trkpt>
      <trkpt lat="43.94402" lon="1.92407">
        <ele>233</ele>
        <time>2022-10-12T11:20:35Z</time>
      </trkpt>
      <trkpt lat="43.94394" lon="1.92403">
        <ele>232.4</ele>
        <time>2022-10-12T11:20:36Z</time>
      </trkpt>
      <trkpt lat="43.94387" lon="1.92398">
        <ele>232.2</ele>
        <time>2022-10-12T11:20:37Z</time>
      </trkpt>
      <trkpt lat="43.9438" lon="1.92395">
        <ele>231.8</ele>
        <time>2022-10-12T11:20:38Z</time>
      </trkpt>
      <trkpt lat="43.94373" lon="1.92392">
        <ele>231.2</ele>
        <time>2022-10-12T11:20:39Z</time>
      </trkpt>
      <trkpt lat="43.94366" lon="1.9239">
        <ele>231.2</ele>
        <time>2022-10-12T11:20:40Z</time>
      </trkpt>
      <trkpt lat="43.94359" lon="1.92389">
        <ele>231</ele>
        <time>2022-10-12T11:20:41Z</time>
      </trkpt>
      <trkpt lat="43.94352" lon="1.92388">
        <ele>230.6</ele>
        <time>2022-10-12T11:20:42Z</time>
      </trkpt>
      <trkpt lat="43.94347" lon="1.92385">
        <ele>230</ele>
        <time>2022-10-12T11:20:43Z</time>
      </trkpt>
      <trkpt lat="43.94342" lon="1.9238">
        <ele>229.8</ele>
        <time>2022-10-12T11:20:44Z</time>
      </trkpt>
      <trkpt lat="43.94338" lon="1.92374">
        <ele>229.4</ele>
        <time>2022-10-12T11:20:45Z</time>
      </trkpt>
      <trkpt lat="43.94334" lon="1.92369">
        <ele>229.2</ele>
        <time>2022-10-12T11:20:46Z</time>
      </trkpt>
      <trkpt lat="43.94331" lon="1.92365">
        <ele>229</ele>
        <time>2022-10-12T11:20:47Z</time>
      </trkpt>
      <trkpt lat="43.94327" lon="1.92361">
        <ele>228.6</ele>
        <time>2022-10-12T11:20:48Z</time>
      </trkpt>
      <trkpt lat="43.94323" lon="1.92357">
        <ele>228.6</ele>
        <time>2022-10-12T11:20:49Z</time>
      </trkpt>
      <trkpt lat="43.94318" lon="1.92352">
        <ele>228.6</ele>
        <time>2022-10-12T11:20:50Z</time>
      </trkpt>
      <trkpt lat="43.94304" lon="1.9233">
        <ele>228.4</ele>
        <time>2022-10-12T11:20:54Z</time>
      </trkpt>
      <trkpt lat="43.94296" lon="1.92316">
        <ele>228.4</ele>
        <time>2022-10-12T11:20:56Z</time>
      </trkpt>
      <trkpt lat="43.94279" lon="1.92287">
        <ele>228.2</ele>
        <time>2022-10-12T11:21:00Z</time>
      </trkpt>
      <trkpt lat="43.94275" lon="1.9228">
        <ele>228.2</ele>
        <time>2022-10-12T11:21:01Z</time>
      </trkpt>
      <trkpt lat="43.94272" lon="1.92273">
        <ele>228</ele>
        <time>2022-10-12T11:21:02Z</time>
      </trkpt>
      <trkpt lat="43.9427" lon="1.92266">
        <ele>227.6</ele>
        <time>2022-10-12T11:21:03Z</time>
      </trkpt>
      <trkpt lat="43.94268" lon="1.92259">
        <ele>227.4</ele>
        <time>2022-10-12T11:21:04Z</time>
      </trkpt>
      <trkpt lat="43.94267" lon="1.92252">
        <ele>227.2</ele>
        <time>2022-10-12T11:21:05Z</time>
      </trkpt>
      <trkpt lat="43.94265" lon="1.92245">
        <ele>227.2</ele>
        <time>2022-10-12T11:21:06Z</time>
      </trkpt>
      <trkpt lat="43.94264" lon="1.92238">
        <ele>227.2</ele>
        <time>2022-10-12T11:21:07Z</time>
      </trkpt>
      <trkpt lat="43.94264" lon="1.92231">
        <ele>227.2</ele>
        <time>2022-10-12T11:21:08Z</time>
      </trkpt>
      <trkpt lat="43.9426" lon="1.92212">
        <ele>226.8</ele>
        <time>2022-10-12T11:21:11Z</time>
      </trkpt>
      <trkpt lat="43.94257" lon="1.92206">
        <ele>226.8</ele>
        <time>2022-10-12T11:21:12Z</time>
      </trkpt>
      <trkpt lat="43.94253" lon="1.92201">
        <ele>226.8</ele>
        <time>2022-10-12T11:21:13Z</time>
      </trkpt>
      <trkpt lat="43.94248" lon="1.92197">
        <ele>226.8</ele>
        <time>2022-10-12T11:21:14Z</time>
      </trkpt>
      <trkpt lat="43.94242" lon="1.92194">
        <ele>226.8</ele>
        <time>2022-10-12T11:21:15Z</time>
      </trkpt>
      <trkpt lat="43.94227" lon="1.92191">
        <ele>226.4</ele>
        <time>2022-10-12T11:21:17Z</time>
      </trkpt>
      <trkpt lat="43.94218" lon="1.92189">
        <ele>226.2</ele>
        <time>2022-10-12T11:21:18Z</time>
      </trkpt>
      <trkpt lat="43.9421" lon="1.92186">
        <ele>226</ele>
        <time>2022-10-12T11:21:19Z</time>
      </trkpt>
      <trkpt lat="43.94203" lon="1.92183">
        <ele>225.8</ele>
        <time>2022-10-12T11:21:20Z</time>
      </trkpt>
      <trkpt lat="43.94195" lon="1.92179">
        <ele>225.2</ele>
        <time>2022-10-12T11:21:21Z</time>
      </trkpt>
      <trkpt lat="43.94189" lon="1.92175">
        <ele>223.8</ele>
        <time>2022-10-12T11:21:22Z</time>
      </trkpt>
      <trkpt lat="43.94183" lon="1.92172">
        <ele>223.2</ele>
        <time>2022-10-12T11:21:23Z</time>
      </trkpt>
      <trkpt lat="43.94176" lon="1.9217">
        <ele>222</ele>
        <time>2022-10-12T11:21:24Z</time>
      </trkpt>
      <trkpt lat="43.94163" lon="1.92166">
        <ele>220.8</ele>
        <time>2022-10-12T11:21:26Z</time>
      </trkpt>
      <trkpt lat="43.94156" lon="1.92163">
        <ele>220.2</ele>
        <time>2022-10-12T11:21:27Z</time>
      </trkpt>
      <trkpt lat="43.9415" lon="1.9216">
        <ele>219.6</ele>
        <time>2022-10-12T11:21:28Z</time>
      </trkpt>
      <trkpt lat="43.94145" lon="1.92156">
        <ele>218</ele>
        <time>2022-10-12T11:21:29Z</time>
      </trkpt>
      <trkpt lat="43.94133" lon="1.92145">
        <ele>214.2</ele>
        <time>2022-10-12T11:21:31Z</time>
      </trkpt>
      <trkpt lat="43.94127" lon="1.92139">
        <ele>213</ele>
        <time>2022-10-12T11:21:32Z</time>
      </trkpt>
      <trkpt lat="43.9412" lon="1.92133">
        <ele>211.6</ele>
        <time>2022-10-12T11:21:33Z</time>
      </trkpt>
      <trkpt lat="43.94113" lon="1.92126">
        <ele>210.2</ele>
        <time>2022-10-12T11:21:34Z</time>
      </trkpt>
      <trkpt lat="43.94097" lon="1.92112">
        <ele>207.4</ele>
        <time>2022-10-12T11:21:36Z</time>
      </trkpt>
      <trkpt lat="43.94088" lon="1.92103">
        <ele>206.2</ele>
        <time>2022-10-12T11:21:37Z</time>
      </trkpt>
      <trkpt lat="43.94082" lon="1.92098">
        <ele>204.6</ele>
        <time>2022-10-12T11:21:38Z</time>
      </trkpt>
      <trkpt lat="43.94074" lon="1.92091">
        <ele>203.2</ele>
        <time>2022-10-12T11:21:39Z</time>
      </trkpt>
      <trkpt lat="43.94067" lon="1.92083">
        <ele>201.8</ele>
        <time>2022-10-12T11:21:40Z</time>
      </trkpt>
      <trkpt lat="43.9406" lon="1.92074">
        <ele>200.6</ele>
        <time>2022-10-12T11:21:41Z</time>
      </trkpt>
      <trkpt lat="43.94053" lon="1.92065">
        <ele>199</ele>
        <time>2022-10-12T11:21:42Z</time>
      </trkpt>
      <trkpt lat="43.94047" lon="1.92055">
        <ele>198</ele>
        <time>2022-10-12T11:21:43Z</time>
      </trkpt>
      <trkpt lat="43.94041" lon="1.92046">
        <ele>197.2</ele>
        <time>2022-10-12T11:21:44Z</time>
      </trkpt>
      <trkpt lat="43.94035" lon="1.92036">
        <ele>195.2</ele>
        <time>2022-10-12T11:21:45Z</time>
      </trkpt>
      <trkpt lat="43.94029" lon="1.92028">
        <ele>194.4</ele>
        <time>2022-10-12T11:21:46Z</time>
      </trkpt>
      <trkpt lat="43.94024" lon="1.92021">
        <ele>193</ele>
        <time>2022-10-12T11:21:47Z</time>
      </trkpt>
      <trkpt lat="43.9402" lon="1.92013">
        <ele>192.4</ele>
        <time>2022-10-12T11:21:48Z</time>
      </trkpt>
      <trkpt lat="43.94016" lon="1.92005">
        <ele>191.2</ele>
        <time>2022-10-12T11:21:49Z</time>
      </trkpt>
      <trkpt lat="43.94013" lon="1.91997">
        <ele>189.6</ele>
        <time>2022-10-12T11:21:50Z</time>
      </trkpt>
      <trkpt lat="43.94008" lon="1.9198">
        <ele>188</ele>
        <time>2022-10-12T11:21:52Z</time>
      </trkpt>
      <trkpt lat="43.94003" lon="1.91962">
        <ele>186.6</ele>
        <time>2022-10-12T11:21:54Z</time>
      </trkpt>
      <trkpt lat="43.94001" lon="1.91954">
        <ele>186.4</ele>
        <time>2022-10-12T11:21:55Z</time>
      </trkpt>
      <trkpt lat="43.93998" lon="1.91947">
        <ele>186.2</ele>
        <time>2022-10-12T11:21:56Z</time>
      </trkpt>
      <trkpt lat="43.93994" lon="1.91944">
        <ele>186</ele>
        <time>2022-10-12T11:21:57Z</time>
      </trkpt>
      <trkpt lat="43.93989" lon="1.91943">
        <ele>185.2</ele>
        <time>2022-10-12T11:21:58Z</time>
      </trkpt>
      <trkpt lat="43.93984" lon="1.91944">
        <ele>184.8</ele>
        <time>2022-10-12T11:21:59Z</time>
      </trkpt>
      <trkpt lat="43.93978" lon="1.91945">
        <ele>184.6</ele>
        <time>2022-10-12T11:22:00Z</time>
      </trkpt>
      <trkpt lat="43.9396" lon="1.91947">
        <ele>184</ele>
        <time>2022-10-12T11:22:03Z</time>
      </trkpt>
      <trkpt lat="43.93949" lon="1.91948">
        <ele>183.8</ele>
        <time>2022-10-12T11:22:05Z</time>
      </trkpt>
      <trkpt lat="43.93931" lon="1.91951">
        <ele>183.4</ele>
        <time>2022-10-12T11:22:08Z</time>
      </trkpt>
      <trkpt lat="43.93893" lon="1.9196">
        <ele>183.4</ele>
        <time>2022-10-12T11:22:14Z</time>
      </trkpt>
      <trkpt lat="43.9388" lon="1.91964">
        <ele>183.4</ele>
        <time>2022-10-12T11:22:16Z</time>
      </trkpt>
      <trkpt lat="43.93874" lon="1.91965">
        <ele>183.2</ele>
        <time>2022-10-12T11:22:17Z</time>
      </trkpt>
      <trkpt lat="43.93869" lon="1.91967">
        <ele>183.2</ele>
        <time>2022-10-12T11:22:18Z</time>
      </trkpt>
      <trkpt lat="43.93862" lon="1.91969">
        <ele>183</ele>
        <time>2022-10-12T11:22:19Z</time>
      </trkpt>
      <trkpt lat="43.93823" lon="1.91982">
        <ele>182</ele>
        <time>2022-10-12T11:22:25Z</time>
      </trkpt>
      <trkpt lat="43.93809" lon="1.91986">
        <ele>180.8</ele>
        <time>2022-10-12T11:22:27Z</time>
      </trkpt>
      <trkpt lat="43.93786" lon="1.91994">
        <ele>180</ele>
        <time>2022-10-12T11:22:30Z</time>
      </trkpt>
      <trkpt lat="43.93778" lon="1.91997">
        <ele>179.8</ele>
        <time>2022-10-12T11:22:31Z</time>
      </trkpt>
      <trkpt lat="43.93762" lon="1.92">
        <ele>179.2</ele>
        <time>2022-10-12T11:22:33Z</time>
      </trkpt>
      <trkpt lat="43.93747" lon="1.92">
        <ele>178.2</ele>
        <time>2022-10-12T11:22:35Z</time>
      </trkpt>
      <trkpt lat="43.93713" lon="1.91993">
        <ele>177</ele>
        <time>2022-10-12T11:22:39Z</time>
      </trkpt>
      <trkpt lat="43.93699" lon="1.91988">
        <ele>176.6</ele>
        <time>2022-10-12T11:22:41Z</time>
      </trkpt>
      <trkpt lat="43.93691" lon="1.91984">
        <ele>176.2</ele>
        <time>2022-10-12T11:22:42Z</time>
      </trkpt>
      <trkpt lat="43.93676" lon="1.91978">
        <ele>175.8</ele>
        <time>2022-10-12T11:22:44Z</time>
      </trkpt>
      <trkpt lat="43.93661" lon="1.91971">
        <ele>175.2</ele>
        <time>2022-10-12T11:22:46Z</time>
      </trkpt>
      <trkpt lat="43.93654" lon="1.91967">
        <ele>174.2</ele>
        <time>2022-10-12T11:22:47Z</time>
      </trkpt>
      <trkpt lat="43.93646" lon="1.91965">
        <ele>174</ele>
        <time>2022-10-12T11:22:48Z</time>
      </trkpt>
      <trkpt lat="43.9364" lon="1.91966">
        <ele>173.6</ele>
        <time>2022-10-12T11:22:49Z</time>
      </trkpt>
      <trkpt lat="43.93633" lon="1.91967">
        <ele>173.2</ele>
        <time>2022-10-12T11:22:50Z</time>
      </trkpt>
      <trkpt lat="43.93627" lon="1.91969">
        <ele>172.8</ele>
        <time>2022-10-12T11:22:51Z</time>
      </trkpt>
      <trkpt lat="43.9362" lon="1.9197">
        <ele>172.6</ele>
        <time>2022-10-12T11:22:52Z</time>
      </trkpt>
      <trkpt lat="43.93615" lon="1.91969">
        <ele>171.8</ele>
        <time>2022-10-12T11:22:53Z</time>
      </trkpt>
      <trkpt lat="43.93611" lon="1.91966">
        <ele>171.6</ele>
        <time>2022-10-12T11:22:54Z</time>
      </trkpt>
      <trkpt lat="43.93604" lon="1.91956">
        <ele>170.8</ele>
        <time>2022-10-12T11:22:56Z</time>
      </trkpt>
      <trkpt lat="43.93601" lon="1.91949">
        <ele>170.6</ele>
        <time>2022-10-12T11:22:57Z</time>
      </trkpt>
      <trkpt lat="43.93597" lon="1.91943">
        <ele>170</ele>
        <time>2022-10-12T11:22:58Z</time>
      </trkpt>
      <trkpt lat="43.93594" lon="1.91937">
        <ele>169.8</ele>
        <time>2022-10-12T11:22:59Z</time>
      </trkpt>
      <trkpt lat="43.93588" lon="1.91921">
        <ele>169.4</ele>
        <time>2022-10-12T11:23:01Z</time>
      </trkpt>
      <trkpt lat="43.93585" lon="1.91905">
        <ele>168.8</ele>
        <time>2022-10-12T11:23:03Z</time>
      </trkpt>
      <trkpt lat="43.93583" lon="1.91897">
        <ele>168.6</ele>
        <time>2022-10-12T11:23:04Z</time>
      </trkpt>
      <trkpt lat="43.93581" lon="1.91889">
        <ele>168.6</ele>
        <time>2022-10-12T11:23:05Z</time>
      </trkpt>
      <trkpt lat="43.93568" lon="1.9186">
        <ele>168</ele>
        <time>2022-10-12T11:23:09Z</time>
      </trkpt>
      <trkpt lat="43.93561" lon="1.91846">
        <ele>167.6</ele>
        <time>2022-10-12T11:23:11Z</time>
      </trkpt>
      <trkpt lat="43.93557" lon="1.91839">
        <ele>167.4</ele>
        <time>2022-10-12T11:23:12Z</time>
      </trkpt>
      <trkpt lat="43.93539" lon="1.91814">
        <ele>167</ele>
        <time>2022-10-12T11:23:16Z</time>
      </trkpt>
      <trkpt lat="43.9353" lon="1.91801">
        <ele>166.8</ele>
        <time>2022-10-12T11:23:18Z</time>
      </trkpt>
      <trkpt lat="43.93526" lon="1.91795">
        <ele>166.6</ele>
        <time>2022-10-12T11:23:19Z</time>
      </trkpt>
      <trkpt lat="43.93513" lon="1.91776">
        <ele>166.6</ele>
        <time>2022-10-12T11:23:22Z</time>
      </trkpt>
      <trkpt lat="43.93509" lon="1.9177">
        <ele>166.6</ele>
        <time>2022-10-12T11:23:23Z</time>
      </trkpt>
      <trkpt lat="43.93504" lon="1.91765">
        <ele>166.6</ele>
        <time>2022-10-12T11:23:24Z</time>
      </trkpt>
      <trkpt lat="43.935" lon="1.9176">
        <ele>166.4</ele>
        <time>2022-10-12T11:23:25Z</time>
      </trkpt>
      <trkpt lat="43.93495" lon="1.91758">
        <ele>166.2</ele>
        <time>2022-10-12T11:23:26Z</time>
      </trkpt>
      <trkpt lat="43.93489" lon="1.91757">
        <ele>166</ele>
        <time>2022-10-12T11:23:27Z</time>
      </trkpt>
      <trkpt lat="43.93484" lon="1.91759">
        <ele>166</ele>
        <time>2022-10-12T11:23:28Z</time>
      </trkpt>
      <trkpt lat="43.93479" lon="1.91762">
        <ele>166</ele>
        <time>2022-10-12T11:23:29Z</time>
      </trkpt>
      <trkpt lat="43.93469" lon="1.9177">
        <ele>165.8</ele>
        <time>2022-10-12T11:23:31Z</time>
      </trkpt>
      <trkpt lat="43.93463" lon="1.91774">
        <ele>165.6</ele>
        <time>2022-10-12T11:23:32Z</time>
      </trkpt>
      <trkpt lat="43.93457" lon="1.91777">
        <ele>165.6</ele>
        <time>2022-10-12T11:23:33Z</time>
      </trkpt>
      <trkpt lat="43.93431" lon="1.91786">
        <ele>164.8</ele>
        <time>2022-10-12T11:23:37Z</time>
      </trkpt>
      <trkpt lat="43.93418" lon="1.9179">
        <ele>164.4</ele>
        <time>2022-10-12T11:23:39Z</time>
      </trkpt>
      <trkpt lat="43.93364" lon="1.91798">
        <ele>163.2</ele>
        <time>2022-10-12T11:23:47Z</time>
      </trkpt>
      <trkpt lat="43.93344" lon="1.91803">
        <ele>162.6</ele>
        <time>2022-10-12T11:23:50Z</time>
      </trkpt>
      <trkpt lat="43.93319" lon="1.91813">
        <ele>162.6</ele>
        <time>2022-10-12T11:23:54Z</time>
      </trkpt>
      <trkpt lat="43.93313" lon="1.91817">
        <ele>162.6</ele>
        <time>2022-10-12T11:23:55Z</time>
      </trkpt>
      <trkpt lat="43.93307" lon="1.9182">
        <ele>162.2</ele>
        <time>2022-10-12T11:23:56Z</time>
      </trkpt>
      <trkpt lat="43.93301" lon="1.91824">
        <ele>162.6</ele>
        <time>2022-10-12T11:23:57Z</time>
      </trkpt>
      <trkpt lat="43.93296" lon="1.91829">
        <ele>162.6</ele>
        <time>2022-10-12T11:23:58Z</time>
      </trkpt>
      <trkpt lat="43.9329" lon="1.91833">
        <ele>162.6</ele>
        <time>2022-10-12T11:23:59Z</time>
      </trkpt>
      <trkpt lat="43.93284" lon="1.91837">
        <ele>162.2</ele>
        <time>2022-10-12T11:24:00Z</time>
      </trkpt>
      <trkpt lat="43.93279" lon="1.91841">
        <ele>162.4</ele>
        <time>2022-10-12T11:24:01Z</time>
      </trkpt>
      <trkpt lat="43.93268" lon="1.9185">
        <ele>162.6</ele>
        <time>2022-10-12T11:24:03Z</time>
      </trkpt>
      <trkpt lat="43.93257" lon="1.91858">
        <ele>162.2</ele>
        <time>2022-10-12T11:24:05Z</time>
      </trkpt>
      <trkpt lat="43.93251" lon="1.91862">
        <ele>162.2</ele>
        <time>2022-10-12T11:24:06Z</time>
      </trkpt>
      <trkpt lat="43.93224" lon="1.9188">
        <ele>162.2</ele>
        <time>2022-10-12T11:24:11Z</time>
      </trkpt>
      <trkpt lat="43.93211" lon="1.91883">
        <ele>161.8</ele>
        <time>2022-10-12T11:24:13Z</time>
      </trkpt>
      <trkpt lat="43.93205" lon="1.91883">
        <ele>161.8</ele>
        <time>2022-10-12T11:24:14Z</time>
      </trkpt>
      <trkpt lat="43.93179" lon="1.91878">
        <ele>161.4</ele>
        <time>2022-10-12T11:24:18Z</time>
      </trkpt>
      <trkpt lat="43.93133" lon="1.91876">
        <ele>160.8</ele>
        <time>2022-10-12T11:24:25Z</time>
      </trkpt>
      <trkpt lat="43.93114" lon="1.91877">
        <ele>160.8</ele>
        <time>2022-10-12T11:24:28Z</time>
      </trkpt>
      <trkpt lat="43.93073" lon="1.91883">
        <ele>160.2</ele>
        <time>2022-10-12T11:24:34Z</time>
      </trkpt>
      <trkpt lat="43.93052" lon="1.91887">
        <ele>160</ele>
        <time>2022-10-12T11:24:37Z</time>
      </trkpt>
      <trkpt lat="43.93046" lon="1.9189">
        <ele>159.8</ele>
        <time>2022-10-12T11:24:38Z</time>
      </trkpt>
      <trkpt lat="43.93032" lon="1.91894">
        <ele>159.8</ele>
        <time>2022-10-12T11:24:40Z</time>
      </trkpt>
      <trkpt lat="43.93012" lon="1.919">
        <ele>159.6</ele>
        <time>2022-10-12T11:24:43Z</time>
      </trkpt>
      <trkpt lat="43.92992" lon="1.91906">
        <ele>159.4</ele>
        <time>2022-10-12T11:24:46Z</time>
      </trkpt>
      <trkpt lat="43.9298" lon="1.91912">
        <ele>159.2</ele>
        <time>2022-10-12T11:24:48Z</time>
      </trkpt>
      <trkpt lat="43.92967" lon="1.91919">
        <ele>159.2</ele>
        <time>2022-10-12T11:24:50Z</time>
      </trkpt>
      <trkpt lat="43.92961" lon="1.91923">
        <ele>159.2</ele>
        <time>2022-10-12T11:24:51Z</time>
      </trkpt>
      <trkpt lat="43.92924" lon="1.91947">
        <ele>159.4</ele>
        <time>2022-10-12T11:24:57Z</time>
      </trkpt>
      <trkpt lat="43.92911" lon="1.91954">
        <ele>159.2</ele>
        <time>2022-10-12T11:24:59Z</time>
      </trkpt>
      <trkpt lat="43.92905" lon="1.91957">
        <ele>159.2</ele>
        <time>2022-10-12T11:25:00Z</time>
      </trkpt>
      <trkpt lat="43.92899" lon="1.91959">
        <ele>159.2</ele>
        <time>2022-10-12T11:25:01Z</time>
      </trkpt>
      <trkpt lat="43.92893" lon="1.91961">
        <ele>159.2</ele>
        <time>2022-10-12T11:25:02Z</time>
      </trkpt>
      <trkpt lat="43.92887" lon="1.91963">
        <ele>159.2</ele>
        <time>2022-10-12T11:25:03Z</time>
      </trkpt>
      <trkpt lat="43.92882" lon="1.91965">
        <ele>159.2</ele>
        <time>2022-10-12T11:25:04Z</time>
      </trkpt>
      <trkpt lat="43.92877" lon="1.91966">
        <ele>159.2</ele>
        <time>2022-10-12T11:25:05Z</time>
      </trkpt>
      <trkpt lat="43.92872" lon="1.91968">
        <ele>159.2</ele>
        <time>2022-10-12T11:25:06Z</time>
      </trkpt>
      <trkpt lat="43.92855" lon="1.91973">
        <ele>159.4</ele>
        <time>2022-10-12T11:25:09Z</time>
      </trkpt>
      <trkpt lat="43.928" lon="1.91988">
        <ele>158.4</ele>
        <time>2022-10-12T11:25:18Z</time>
      </trkpt>
      <trkpt lat="43.92794" lon="1.9199">
        <ele>158.4</ele>
        <time>2022-10-12T11:25:19Z</time>
      </trkpt>
      <trkpt lat="43.92788" lon="1.91992">
        <ele>158.2</ele>
        <time>2022-10-12T11:25:20Z</time>
      </trkpt>
      <trkpt lat="43.92769" lon="1.91996">
        <ele>157.6</ele>
        <time>2022-10-12T11:25:23Z</time>
      </trkpt>
      <trkpt lat="43.92745" lon="1.92005">
        <ele>157.4</ele>
        <time>2022-10-12T11:25:27Z</time>
      </trkpt>
      <trkpt lat="43.92739" lon="1.92009">
        <ele>157.4</ele>
        <time>2022-10-12T11:25:28Z</time>
      </trkpt>
      <trkpt lat="43.92733" lon="1.92013">
        <ele>157.4</ele>
        <time>2022-10-12T11:25:29Z</time>
      </trkpt>
      <trkpt lat="43.92703" lon="1.92033">
        <ele>157</ele>
        <time>2022-10-12T11:25:34Z</time>
      </trkpt>
      <trkpt lat="43.92697" lon="1.92037">
        <ele>157</ele>
        <time>2022-10-12T11:25:35Z</time>
      </trkpt>
      <trkpt lat="43.9269" lon="1.9204">
        <ele>157</ele>
        <time>2022-10-12T11:25:36Z</time>
      </trkpt>
      <trkpt lat="43.92684" lon="1.92043">
        <ele>157</ele>
        <time>2022-10-12T11:25:37Z</time>
      </trkpt>
      <trkpt lat="43.92678" lon="1.92047">
        <ele>157</ele>
        <time>2022-10-12T11:25:38Z</time>
      </trkpt>
      <trkpt lat="43.92673" lon="1.92049">
        <ele>157</ele>
        <time>2022-10-12T11:25:39Z</time>
      </trkpt>
      <trkpt lat="43.92668" lon="1.9205">
        <ele>157</ele>
        <time>2022-10-12T11:25:40Z</time>
      </trkpt>
      <trkpt lat="43.92664" lon="1.92051">
        <ele>157</ele>
        <time>2022-10-12T11:25:41Z</time>
      </trkpt>
      <trkpt lat="43.92661" lon="1.92051">
        <ele>157</ele>
        <time>2022-10-12T11:25:42Z</time>
      </trkpt>
      <trkpt lat="43.92658" lon="1.92052">
        <ele>157</ele>
        <time>2022-10-12T11:25:43Z</time>
      </trkpt>
      <trkpt lat="43.92655" lon="1.92054">
        <ele>157</ele>
        <time>2022-10-12T11:25:44Z</time>
      </trkpt>
      <trkpt lat="43.92652" lon="1.92058">
        <ele>157</ele>
        <time>2022-10-12T11:25:45Z</time>
      </trkpt>
      <trkpt lat="43.92651" lon="1.92063">
        <ele>156.8</ele>
        <time>2022-10-12T11:25:46Z</time>
      </trkpt>
      <trkpt lat="43.92649" lon="1.9207">
        <ele>156.8</ele>
        <time>2022-10-12T11:25:47Z</time>
      </trkpt>
      <trkpt lat="43.92646" lon="1.92084">
        <ele>156.8</ele>
        <time>2022-10-12T11:25:49Z</time>
      </trkpt>
      <trkpt lat="43.92644" lon="1.92091">
        <ele>156.8</ele>
        <time>2022-10-12T11:25:50Z</time>
      </trkpt>
      <trkpt lat="43.92641" lon="1.92107">
        <ele>156.8</ele>
        <time>2022-10-12T11:25:52Z</time>
      </trkpt>
      <trkpt lat="43.92635" lon="1.92138">
        <ele>156.8</ele>
        <time>2022-10-12T11:25:56Z</time>
      </trkpt>
      <trkpt lat="43.9263" lon="1.92153">
        <ele>156.8</ele>
        <time>2022-10-12T11:25:58Z</time>
      </trkpt>
      <trkpt lat="43.92627" lon="1.9216">
        <ele>156.8</ele>
        <time>2022-10-12T11:25:59Z</time>
      </trkpt>
      <trkpt lat="43.92622" lon="1.92166">
        <ele>156.8</ele>
        <time>2022-10-12T11:26:00Z</time>
      </trkpt>
      <trkpt lat="43.92617" lon="1.92171">
        <ele>156.6</ele>
        <time>2022-10-12T11:26:01Z</time>
      </trkpt>
      <trkpt lat="43.9261" lon="1.92176">
        <ele>156.6</ele>
        <time>2022-10-12T11:26:02Z</time>
      </trkpt>
      <trkpt lat="43.92605" lon="1.92178">
        <ele>156.8</ele>
        <time>2022-10-12T11:26:03Z</time>
      </trkpt>
      <trkpt lat="43.92598" lon="1.92179">
        <ele>156.6</ele>
        <time>2022-10-12T11:26:04Z</time>
      </trkpt>
      <trkpt lat="43.92592" lon="1.92179">
        <ele>156.6</ele>
        <time>2022-10-12T11:26:05Z</time>
      </trkpt>
      <trkpt lat="43.92585" lon="1.9218">
        <ele>156.6</ele>
        <time>2022-10-12T11:26:06Z</time>
      </trkpt>
      <trkpt lat="43.92578" lon="1.92179">
        <ele>156.6</ele>
        <time>2022-10-12T11:26:07Z</time>
      </trkpt>
      <trkpt lat="43.92542" lon="1.9218">
        <ele>156</ele>
        <time>2022-10-12T11:26:12Z</time>
      </trkpt>
      <trkpt lat="43.92535" lon="1.9218">
        <ele>156.2</ele>
        <time>2022-10-12T11:26:13Z</time>
      </trkpt>
      <trkpt lat="43.92528" lon="1.9218">
        <ele>155.8</ele>
        <time>2022-10-12T11:26:14Z</time>
      </trkpt>
      <trkpt lat="43.92506" lon="1.9218">
        <ele>155.8</ele>
        <time>2022-10-12T11:26:17Z</time>
      </trkpt>
      <trkpt lat="43.92499" lon="1.9218">
        <ele>155.8</ele>
        <time>2022-10-12T11:26:18Z</time>
      </trkpt>
      <trkpt lat="43.92462" lon="1.92181">
        <ele>156.2</ele>
        <time>2022-10-12T11:26:23Z</time>
      </trkpt>
      <trkpt lat="43.92401" lon="1.92183">
        <ele>156.4</ele>
        <time>2022-10-12T11:26:31Z</time>
      </trkpt>
      <trkpt lat="43.92393" lon="1.92183">
        <ele>156.4</ele>
        <time>2022-10-12T11:26:32Z</time>
      </trkpt>
      <trkpt lat="43.92385" lon="1.92184">
        <ele>156.6</ele>
        <time>2022-10-12T11:26:33Z</time>
      </trkpt>
      <trkpt lat="43.92377" lon="1.92183">
        <ele>156.6</ele>
        <time>2022-10-12T11:26:34Z</time>
      </trkpt>
      <trkpt lat="43.92362" lon="1.92184">
        <ele>156.6</ele>
        <time>2022-10-12T11:26:36Z</time>
      </trkpt>
      <trkpt lat="43.92307" lon="1.92185">
        <ele>156.4</ele>
        <time>2022-10-12T11:26:43Z</time>
      </trkpt>
      <trkpt lat="43.92299" lon="1.92185">
        <ele>156.2</ele>
        <time>2022-10-12T11:26:44Z</time>
      </trkpt>
      <trkpt lat="43.92274" lon="1.92185">
        <ele>156</ele>
        <time>2022-10-12T11:26:47Z</time>
      </trkpt>
      <trkpt lat="43.92225" lon="1.92187">
        <ele>155.6</ele>
        <time>2022-10-12T11:26:53Z</time>
      </trkpt>
      <trkpt lat="43.92217" lon="1.92187">
        <ele>155.6</ele>
        <time>2022-10-12T11:26:54Z</time>
      </trkpt>
      <trkpt lat="43.92209" lon="1.92185">
        <ele>155.4</ele>
        <time>2022-10-12T11:26:55Z</time>
      </trkpt>
      <trkpt lat="43.92202" lon="1.9218">
        <ele>155.4</ele>
        <time>2022-10-12T11:26:56Z</time>
      </trkpt>
      <trkpt lat="43.92196" lon="1.92173">
        <ele>155.2</ele>
        <time>2022-10-12T11:26:57Z</time>
      </trkpt>
      <trkpt lat="43.92193" lon="1.92164">
        <ele>155</ele>
        <time>2022-10-12T11:26:58Z</time>
      </trkpt>
      <trkpt lat="43.92192" lon="1.92154">
        <ele>155</ele>
        <time>2022-10-12T11:26:59Z</time>
      </trkpt>
      <trkpt lat="43.92191" lon="1.92143">
        <ele>155</ele>
        <time>2022-10-12T11:27:00Z</time>
      </trkpt>
      <trkpt lat="43.9219" lon="1.92132">
        <ele>154.8</ele>
        <time>2022-10-12T11:27:01Z</time>
      </trkpt>
      <trkpt lat="43.92188" lon="1.92122">
        <ele>154.8</ele>
        <time>2022-10-12T11:27:02Z</time>
      </trkpt>
      <trkpt lat="43.92187" lon="1.92112">
        <ele>154.6</ele>
        <time>2022-10-12T11:27:03Z</time>
      </trkpt>
      <trkpt lat="43.92185" lon="1.92102">
        <ele>154.6</ele>
        <time>2022-10-12T11:27:04Z</time>
      </trkpt>
      <trkpt lat="43.92183" lon="1.92093">
        <ele>154.4</ele>
        <time>2022-10-12T11:27:05Z</time>
      </trkpt>
      <trkpt lat="43.92182" lon="1.92083">
        <ele>154.4</ele>
        <time>2022-10-12T11:27:06Z</time>
      </trkpt>
      <trkpt lat="43.9218" lon="1.92075">
        <ele>154.2</ele>
        <time>2022-10-12T11:27:07Z</time>
      </trkpt>
      <trkpt lat="43.92176" lon="1.92066">
        <ele>154.2</ele>
        <time>2022-10-12T11:27:08Z</time>
      </trkpt>
      <trkpt lat="43.92171" lon="1.92059">
        <ele>154.2</ele>
        <time>2022-10-12T11:27:09Z</time>
      </trkpt>
      <trkpt lat="43.92166" lon="1.92054">
        <ele>154</ele>
        <time>2022-10-12T11:27:10Z</time>
      </trkpt>
      <trkpt lat="43.9216" lon="1.92052">
        <ele>154</ele>
        <time>2022-10-12T11:27:11Z</time>
      </trkpt>
      <trkpt lat="43.92154" lon="1.92053">
        <ele>153.8</ele>
        <time>2022-10-12T11:27:12Z</time>
      </trkpt>
      <trkpt lat="43.92139" lon="1.92056">
        <ele>153.8</ele>
        <time>2022-10-12T11:27:14Z</time>
      </trkpt>
      <trkpt lat="43.92132" lon="1.92057">
        <ele>153.8</ele>
        <time>2022-10-12T11:27:15Z</time>
      </trkpt>
      <trkpt lat="43.92125" lon="1.92058">
        <ele>153.6</ele>
        <time>2022-10-12T11:27:16Z</time>
      </trkpt>
      <trkpt lat="43.92066" lon="1.92064">
        <ele>153.2</ele>
        <time>2022-10-12T11:27:24Z</time>
      </trkpt>
      <trkpt lat="43.92058" lon="1.92064">
        <ele>153.2</ele>
        <time>2022-10-12T11:27:25Z</time>
      </trkpt>
      <trkpt lat="43.92051" lon="1.92063">
        <ele>153.2</ele>
        <time>2022-10-12T11:27:26Z</time>
      </trkpt>
      <trkpt lat="43.92044" lon="1.92061">
        <ele>153.2</ele>
        <time>2022-10-12T11:27:27Z</time>
      </trkpt>
      <trkpt lat="43.92037" lon="1.92059">
        <ele>153.2</ele>
        <time>2022-10-12T11:27:28Z</time>
      </trkpt>
      <trkpt lat="43.9203" lon="1.92058">
        <ele>153.2</ele>
        <time>2022-10-12T11:27:29Z</time>
      </trkpt>
      <trkpt lat="43.92024" lon="1.92056">
        <ele>153.2</ele>
        <time>2022-10-12T11:27:30Z</time>
      </trkpt>
      <trkpt lat="43.92018" lon="1.92055">
        <ele>153.2</ele>
        <time>2022-10-12T11:27:31Z</time>
      </trkpt>
      <trkpt lat="43.92012" lon="1.92053">
        <ele>153.2</ele>
        <time>2022-10-12T11:27:32Z</time>
      </trkpt>
      <trkpt lat="43.92007" lon="1.92052">
        <ele>153.2</ele>
        <time>2022-10-12T11:27:33Z</time>
      </trkpt>
      <trkpt lat="43.92001" lon="1.92052">
        <ele>153.2</ele>
        <time>2022-10-12T11:27:34Z</time>
      </trkpt>
      <trkpt lat="43.91996" lon="1.92051">
        <ele>153.2</ele>
        <time>2022-10-12T11:27:35Z</time>
      </trkpt>
      <trkpt lat="43.91991" lon="1.92049">
        <ele>153.2</ele>
        <time>2022-10-12T11:27:36Z</time>
      </trkpt>
      <trkpt lat="43.91989" lon="1.92046">
        <ele>153.2</ele>
        <time>2022-10-12T11:27:37Z</time>
      </trkpt>
      <trkpt lat="43.91988" lon="1.9204">
        <ele>153.2</ele>
        <time>2022-10-12T11:27:38Z</time>
      </trkpt>
      <trkpt lat="43.91989" lon="1.92035">
        <ele>153.2</ele>
        <time>2022-10-12T11:27:39Z</time>
      </trkpt>
      <trkpt lat="43.9199" lon="1.92023">
        <ele>153</ele>
        <time>2022-10-12T11:27:41Z</time>
      </trkpt>
      <trkpt lat="43.91991" lon="1.92017">
        <ele>153</ele>
        <time>2022-10-12T11:27:42Z</time>
      </trkpt>
      <trkpt lat="43.91991" lon="1.9201">
        <ele>153</ele>
        <time>2022-10-12T11:27:43Z</time>
      </trkpt>
      <trkpt lat="43.91993" lon="1.91945">
        <ele>152.6</ele>
        <time>2022-10-12T11:27:52Z</time>
      </trkpt>
      <trkpt lat="43.91996" lon="1.91891">
        <ele>152.4</ele>
        <time>2022-10-12T11:27:59Z</time>
      </trkpt>
      <trkpt lat="43.91996" lon="1.91845">
        <ele>152</ele>
        <time>2022-10-12T11:28:05Z</time>
      </trkpt>
      <trkpt lat="43.91996" lon="1.91805">
        <ele>151.8</ele>
        <time>2022-10-12T11:28:10Z</time>
      </trkpt>
      <trkpt lat="43.91996" lon="1.91795">
        <ele>151.8</ele>
        <time>2022-10-12T11:28:11Z</time>
      </trkpt>
      <trkpt lat="43.91996" lon="1.91789">
        <ele>151.6</ele>
        <time>2022-10-12T11:28:12Z</time>
      </trkpt>
      <trkpt lat="43.91995" lon="1.91781">
        <ele>151.6</ele>
        <time>2022-10-12T11:28:13Z</time>
      </trkpt>
      <trkpt lat="43.91995" lon="1.91774">
        <ele>151.6</ele>
        <time>2022-10-12T11:28:14Z</time>
      </trkpt>
      <trkpt lat="43.91995" lon="1.91766">
        <ele>151.6</ele>
        <time>2022-10-12T11:28:15Z</time>
      </trkpt>
      <trkpt lat="43.91999" lon="1.91751">
        <ele>151.6</ele>
        <time>2022-10-12T11:28:17Z</time>
      </trkpt>
      <trkpt lat="43.92002" lon="1.91745">
        <ele>151.6</ele>
        <time>2022-10-12T11:28:18Z</time>
      </trkpt>
      <trkpt lat="43.92006" lon="1.91741">
        <ele>151.8</ele>
        <time>2022-10-12T11:28:19Z</time>
      </trkpt>
      <trkpt lat="43.92011" lon="1.91737">
        <ele>151.8</ele>
        <time>2022-10-12T11:28:20Z</time>
      </trkpt>
      <trkpt lat="43.92016" lon="1.91734">
        <ele>152</ele>
        <time>2022-10-12T11:28:21Z</time>
      </trkpt>
      <trkpt lat="43.92021" lon="1.91731">
        <ele>152</ele>
        <time>2022-10-12T11:28:22Z</time>
      </trkpt>
      <trkpt lat="43.92026" lon="1.91728">
        <ele>152.2</ele>
        <time>2022-10-12T11:28:23Z</time>
      </trkpt>
      <trkpt lat="43.92057" lon="1.91709">
        <ele>152.6</ele>
        <time>2022-10-12T11:28:29Z</time>
      </trkpt>
      <trkpt lat="43.92062" lon="1.91705">
        <ele>152.6</ele>
        <time>2022-10-12T11:28:30Z</time>
      </trkpt>
      <trkpt lat="43.92098" lon="1.91681">
        <ele>152.8</ele>
        <time>2022-10-12T11:28:37Z</time>
      </trkpt>
      <trkpt lat="43.92103" lon="1.91677">
        <ele>152.8</ele>
        <time>2022-10-12T11:28:38Z</time>
      </trkpt>
      <trkpt lat="43.92112" lon="1.91668">
        <ele>152.8</ele>
        <time>2022-10-12T11:28:40Z</time>
      </trkpt>
      <trkpt lat="43.92118" lon="1.91657">
        <ele>153</ele>
        <time>2022-10-12T11:28:42Z</time>
      </trkpt>
      <trkpt lat="43.92118" lon="1.9165">
        <ele>152.8</ele>
        <time>2022-10-12T11:28:43Z</time>
      </trkpt>
      <trkpt lat="43.92116" lon="1.91635">
        <ele>152.8</ele>
        <time>2022-10-12T11:28:45Z</time>
      </trkpt>
      <trkpt lat="43.92114" lon="1.91627">
        <ele>152.8</ele>
        <time>2022-10-12T11:28:46Z</time>
      </trkpt>
      <trkpt lat="43.92113" lon="1.9162">
        <ele>152.8</ele>
        <time>2022-10-12T11:28:47Z</time>
      </trkpt>
      <trkpt lat="43.92111" lon="1.91612">
        <ele>152.8</ele>
        <time>2022-10-12T11:28:48Z</time>
      </trkpt>
      <trkpt lat="43.9211" lon="1.91605">
        <ele>152.8</ele>
        <time>2022-10-12T11:28:49Z</time>
      </trkpt>
      <trkpt lat="43.92109" lon="1.91597">
        <ele>152.8</ele>
        <time>2022-10-12T11:28:50Z</time>
      </trkpt>
      <trkpt lat="43.92109" lon="1.91589">
        <ele>152.6</ele>
        <time>2022-10-12T11:28:51Z</time>
      </trkpt>
      <trkpt lat="43.92106" lon="1.91549">
        <ele>152.6</ele>
        <time>2022-10-12T11:28:56Z</time>
      </trkpt>
      <trkpt lat="43.92102" lon="1.91473">
        <ele>152.6</ele>
        <time>2022-10-12T11:29:05Z</time>
      </trkpt>
      <trkpt lat="43.92101" lon="1.91464">
        <ele>152.6</ele>
        <time>2022-10-12T11:29:06Z</time>
      </trkpt>
      <trkpt lat="43.92098" lon="1.91417">
        <ele>152.6</ele>
        <time>2022-10-12T11:29:11Z</time>
      </trkpt>
      <trkpt lat="43.92096" lon="1.91398">
        <ele>152.8</ele>
        <time>2022-10-12T11:29:13Z</time>
      </trkpt>
      <trkpt lat="43.92096" lon="1.91389">
        <ele>152.8</ele>
        <time>2022-10-12T11:29:14Z</time>
      </trkpt>
      <trkpt lat="43.92094" lon="1.91361">
        <ele>152.8</ele>
        <time>2022-10-12T11:29:17Z</time>
      </trkpt>
      <trkpt lat="43.92091" lon="1.91304">
        <ele>152.6</ele>
        <time>2022-10-12T11:29:23Z</time>
      </trkpt>
      <trkpt lat="43.9209" lon="1.91295">
        <ele>152.4</ele>
        <time>2022-10-12T11:29:24Z</time>
      </trkpt>
      <trkpt lat="43.9209" lon="1.91287">
        <ele>152.4</ele>
        <time>2022-10-12T11:29:25Z</time>
      </trkpt>
      <trkpt lat="43.92089" lon="1.91278">
        <ele>152.4</ele>
        <time>2022-10-12T11:29:26Z</time>
      </trkpt>
      <trkpt lat="43.92089" lon="1.91269">
        <ele>152.2</ele>
        <time>2022-10-12T11:29:27Z</time>
      </trkpt>
      <trkpt lat="43.92088" lon="1.91261">
        <ele>152.2</ele>
        <time>2022-10-12T11:29:28Z</time>
      </trkpt>
      <trkpt lat="43.92088" lon="1.91253">
        <ele>152.2</ele>
        <time>2022-10-12T11:29:29Z</time>
      </trkpt>
      <trkpt lat="43.92089" lon="1.91246">
        <ele>152.2</ele>
        <time>2022-10-12T11:29:30Z</time>
      </trkpt>
      <trkpt lat="43.92091" lon="1.91241">
        <ele>152.2</ele>
        <time>2022-10-12T11:29:31Z</time>
      </trkpt>
      <trkpt lat="43.92093" lon="1.91239">
        <ele>152.2</ele>
        <time>2022-10-12T11:29:32Z</time>
      </trkpt>
      <trkpt lat="43.92095" lon="1.91236">
        <ele>152.2</ele>
        <time>2022-10-12T11:29:33Z</time>
      </trkpt>
      <trkpt lat="43.92097" lon="1.91234">
        <ele>152</ele>
        <time>2022-10-12T11:29:34Z</time>
      </trkpt>
      <trkpt lat="43.921" lon="1.91232">
        <ele>152</ele>
        <time>2022-10-12T11:29:35Z</time>
      </trkpt>
      <trkpt lat="43.92104" lon="1.9123">
        <ele>152</ele>
        <time>2022-10-12T11:29:36Z</time>
      </trkpt>
      <trkpt lat="43.92108" lon="1.91228">
        <ele>152</ele>
        <time>2022-10-12T11:29:37Z</time>
      </trkpt>
      <trkpt lat="43.92112" lon="1.91226">
        <ele>152</ele>
        <time>2022-10-12T11:29:38Z</time>
      </trkpt>
      <trkpt lat="43.92125" lon="1.91223">
        <ele>152</ele>
        <time>2022-10-12T11:29:41Z</time>
      </trkpt>
      <trkpt lat="43.9214" lon="1.91218">
        <ele>152</ele>
        <time>2022-10-12T11:29:44Z</time>
      </trkpt>
      <trkpt lat="43.92168" lon="1.91209">
        <ele>152.6</ele>
        <time>2022-10-12T11:29:49Z</time>
      </trkpt>
      <trkpt lat="43.92174" lon="1.91205">
        <ele>152.6</ele>
        <time>2022-10-12T11:29:50Z</time>
      </trkpt>
      <trkpt lat="43.92179" lon="1.91201">
        <ele>152.8</ele>
        <time>2022-10-12T11:29:51Z</time>
      </trkpt>
      <trkpt lat="43.92182" lon="1.91195">
        <ele>152.8</ele>
        <time>2022-10-12T11:29:52Z</time>
      </trkpt>
      <trkpt lat="43.92183" lon="1.91187">
        <ele>152.8</ele>
        <time>2022-10-12T11:29:53Z</time>
      </trkpt>
      <trkpt lat="43.92183" lon="1.91172">
        <ele>153</ele>
        <time>2022-10-12T11:29:55Z</time>
      </trkpt>
      <trkpt lat="43.92182" lon="1.91157">
        <ele>153</ele>
        <time>2022-10-12T11:29:57Z</time>
      </trkpt>
      <trkpt lat="43.92178" lon="1.91115">
        <ele>152.8</ele>
        <time>2022-10-12T11:30:02Z</time>
      </trkpt>
      <trkpt lat="43.92178" lon="1.91107">
        <ele>152.8</ele>
        <time>2022-10-12T11:30:03Z</time>
      </trkpt>
      <trkpt lat="43.92177" lon="1.91099">
        <ele>153</ele>
        <time>2022-10-12T11:30:04Z</time>
      </trkpt>
      <trkpt lat="43.92177" lon="1.91092">
        <ele>153</ele>
        <time>2022-10-12T11:30:05Z</time>
      </trkpt>
      <trkpt lat="43.92176" lon="1.91084">
        <ele>153</ele>
        <time>2022-10-12T11:30:06Z</time>
      </trkpt>
      <trkpt lat="43.92174" lon="1.91076">
        <ele>153.2</ele>
        <time>2022-10-12T11:30:07Z</time>
      </trkpt>
      <trkpt lat="43.92173" lon="1.91069">
        <ele>153.2</ele>
        <time>2022-10-12T11:30:08Z</time>
      </trkpt>
      <trkpt lat="43.92172" lon="1.91062">
        <ele>153.2</ele>
        <time>2022-10-12T11:30:09Z</time>
      </trkpt>
      <trkpt lat="43.92169" lon="1.91055">
        <ele>153.2</ele>
        <time>2022-10-12T11:30:10Z</time>
      </trkpt>
      <trkpt lat="43.92167" lon="1.9105">
        <ele>153.2</ele>
        <time>2022-10-12T11:30:11Z</time>
      </trkpt>
      <trkpt lat="43.92162" lon="1.91049">
        <ele>153.4</ele>
        <time>2022-10-12T11:30:12Z</time>
      </trkpt>
      <trkpt lat="43.92157" lon="1.9105">
        <ele>153.4</ele>
        <time>2022-10-12T11:30:13Z</time>
      </trkpt>
      <trkpt lat="43.92143" lon="1.91055">
        <ele>153.6</ele>
        <time>2022-10-12T11:30:16Z</time>
      </trkpt>
      <trkpt lat="43.92137" lon="1.91056">
        <ele>153.8</ele>
        <time>2022-10-12T11:30:17Z</time>
      </trkpt>
      <trkpt lat="43.92109" lon="1.91061">
        <ele>154</ele>
        <time>2022-10-12T11:30:22Z</time>
      </trkpt>
      <trkpt lat="43.92091" lon="1.91061">
        <ele>154</ele>
        <time>2022-10-12T11:30:25Z</time>
      </trkpt>
      <trkpt lat="43.92053" lon="1.91062">
        <ele>153.4</ele>
        <time>2022-10-12T11:30:31Z</time>
      </trkpt>
      <trkpt lat="43.9204" lon="1.91063">
        <ele>153.2</ele>
        <time>2022-10-12T11:30:33Z</time>
      </trkpt>
      <trkpt lat="43.92034" lon="1.91063">
        <ele>153.2</ele>
        <time>2022-10-12T11:30:34Z</time>
      </trkpt>
      <trkpt lat="43.92028" lon="1.91064">
        <ele>152.8</ele>
        <time>2022-10-12T11:30:35Z</time>
      </trkpt>
      <trkpt lat="43.92021" lon="1.91065">
        <ele>152.6</ele>
        <time>2022-10-12T11:30:36Z</time>
      </trkpt>
      <trkpt lat="43.92015" lon="1.91065">
        <ele>152.4</ele>
        <time>2022-10-12T11:30:37Z</time>
      </trkpt>
      <trkpt lat="43.9201" lon="1.91066">
        <ele>152.4</ele>
        <time>2022-10-12T11:30:38Z</time>
      </trkpt>
      <trkpt lat="43.92004" lon="1.91067">
        <ele>152</ele>
        <time>2022-10-12T11:30:39Z</time>
      </trkpt>
      <trkpt lat="43.91997" lon="1.91068">
        <ele>152</ele>
        <time>2022-10-12T11:30:40Z</time>
      </trkpt>
      <trkpt lat="43.91994" lon="1.91068">
        <ele>152</ele>
        <time>2022-10-12T11:30:41Z</time>
      </trkpt>
      <trkpt lat="43.91989" lon="1.91068">
        <ele>152.2</ele>
        <time>2022-10-12T11:30:42Z</time>
      </trkpt>
      <trkpt lat="43.91985" lon="1.91065">
        <ele>152.2</ele>
        <time>2022-10-12T11:30:43Z</time>
      </trkpt>
      <trkpt lat="43.91983" lon="1.91062">
        <ele>152.2</ele>
        <time>2022-10-12T11:30:44Z</time>
      </trkpt>
      <trkpt lat="43.91982" lon="1.91056">
        <ele>152.2</ele>
        <time>2022-10-12T11:30:45Z</time>
      </trkpt>
      <trkpt lat="43.91981" lon="1.91019">
        <ele>152.2</ele>
        <time>2022-10-12T11:30:50Z</time>
      </trkpt>
      <trkpt lat="43.91979" lon="1.90959">
        <ele>151.6</ele>
        <time>2022-10-12T11:30:57Z</time>
      </trkpt>
      <trkpt lat="43.91978" lon="1.9095">
        <ele>151.6</ele>
        <time>2022-10-12T11:30:58Z</time>
      </trkpt>
      <trkpt lat="43.91976" lon="1.90906">
        <ele>151.2</ele>
        <time>2022-10-12T11:31:03Z</time>
      </trkpt>
      <trkpt lat="43.91975" lon="1.90897">
        <ele>151.2</ele>
        <time>2022-10-12T11:31:04Z</time>
      </trkpt>
      <trkpt lat="43.91974" lon="1.90871">
        <ele>151.2</ele>
        <time>2022-10-12T11:31:07Z</time>
      </trkpt>
      <trkpt lat="43.91968" lon="1.90856">
        <ele>151</ele>
        <time>2022-10-12T11:31:09Z</time>
      </trkpt>
      <trkpt lat="43.91963" lon="1.90851">
        <ele>151</ele>
        <time>2022-10-12T11:31:10Z</time>
      </trkpt>
      <trkpt lat="43.91957" lon="1.90848">
        <ele>151</ele>
        <time>2022-10-12T11:31:11Z</time>
      </trkpt>
      <trkpt lat="43.91945" lon="1.90847">
        <ele>151</ele>
        <time>2022-10-12T11:31:13Z</time>
      </trkpt>
      <trkpt lat="43.91939" lon="1.90848">
        <ele>151.2</ele>
        <time>2022-10-12T11:31:14Z</time>
      </trkpt>
      <trkpt lat="43.91933" lon="1.90848">
        <ele>151.2</ele>
        <time>2022-10-12T11:31:15Z</time>
      </trkpt>
      <trkpt lat="43.91926" lon="1.90849">
        <ele>151</ele>
        <time>2022-10-12T11:31:16Z</time>
      </trkpt>
      <trkpt lat="43.9192" lon="1.90849">
        <ele>151</ele>
        <time>2022-10-12T11:31:17Z</time>
      </trkpt>
      <trkpt lat="43.91914" lon="1.90851">
        <ele>151.2</ele>
        <time>2022-10-12T11:31:18Z</time>
      </trkpt>
      <trkpt lat="43.91909" lon="1.90855">
        <ele>151.2</ele>
        <time>2022-10-12T11:31:19Z</time>
      </trkpt>
      <trkpt lat="43.91892" lon="1.90867">
        <ele>151.2</ele>
        <time>2022-10-12T11:31:22Z</time>
      </trkpt>
      <trkpt lat="43.91878" lon="1.90866">
        <ele>151.2</ele>
        <time>2022-10-12T11:31:24Z</time>
      </trkpt>
      <trkpt lat="43.91872" lon="1.90863">
        <ele>151</ele>
        <time>2022-10-12T11:31:25Z</time>
      </trkpt>
      <trkpt lat="43.91865" lon="1.90861">
        <ele>151</ele>
        <time>2022-10-12T11:31:26Z</time>
      </trkpt>
      <trkpt lat="43.91859" lon="1.90859">
        <ele>151</ele>
        <time>2022-10-12T11:31:27Z</time>
      </trkpt>
      <trkpt lat="43.91833" lon="1.90849">
        <ele>151</ele>
        <time>2022-10-12T11:31:31Z</time>
      </trkpt>
      <trkpt lat="43.91826" lon="1.90846">
        <ele>151</ele>
        <time>2022-10-12T11:31:32Z</time>
      </trkpt>
      <trkpt lat="43.91771" lon="1.90825">
        <ele>151</ele>
        <time>2022-10-12T11:31:40Z</time>
      </trkpt>
      <trkpt lat="43.91764" lon="1.90822">
        <ele>151</ele>
        <time>2022-10-12T11:31:41Z</time>
      </trkpt>
      <trkpt lat="43.91706" lon="1.908">
        <ele>150.8</ele>
        <time>2022-10-12T11:31:49Z</time>
      </trkpt>
      <trkpt lat="43.91699" lon="1.90797">
        <ele>150.8</ele>
        <time>2022-10-12T11:31:50Z</time>
      </trkpt>
      <trkpt lat="43.91692" lon="1.90794">
        <ele>150.8</ele>
        <time>2022-10-12T11:31:51Z</time>
      </trkpt>
      <trkpt lat="43.91677" lon="1.90787">
        <ele>150.6</ele>
        <time>2022-10-12T11:31:53Z</time>
      </trkpt>
      <trkpt lat="43.91641" lon="1.90769">
        <ele>150.4</ele>
        <time>2022-10-12T11:31:58Z</time>
      </trkpt>
      <trkpt lat="43.91627" lon="1.90761">
        <ele>150.4</ele>
        <time>2022-10-12T11:32:00Z</time>
      </trkpt>
      <trkpt lat="43.9162" lon="1.90756">
        <ele>150.4</ele>
        <time>2022-10-12T11:32:01Z</time>
      </trkpt>
      <trkpt lat="43.91613" lon="1.90751">
        <ele>150.4</ele>
        <time>2022-10-12T11:32:02Z</time>
      </trkpt>
      <trkpt lat="43.91607" lon="1.90747">
        <ele>150.2</ele>
        <time>2022-10-12T11:32:03Z</time>
      </trkpt>
      <trkpt lat="43.91601" lon="1.90742">
        <ele>150.2</ele>
        <time>2022-10-12T11:32:04Z</time>
      </trkpt>
      <trkpt lat="43.91594" lon="1.90736">
        <ele>150.2</ele>
        <time>2022-10-12T11:32:05Z</time>
      </trkpt>
      <trkpt lat="43.91588" lon="1.90731">
        <ele>150.2</ele>
        <time>2022-10-12T11:32:06Z</time>
      </trkpt>
      <trkpt lat="43.91557" lon="1.90706">
        <ele>150</ele>
        <time>2022-10-12T11:32:11Z</time>
      </trkpt>
      <trkpt lat="43.91544" lon="1.90695">
        <ele>150</ele>
        <time>2022-10-12T11:32:13Z</time>
      </trkpt>
      <trkpt lat="43.91538" lon="1.9069">
        <ele>150</ele>
        <time>2022-10-12T11:32:14Z</time>
      </trkpt>
      <trkpt lat="43.91526" lon="1.9068">
        <ele>149.8</ele>
        <time>2022-10-12T11:32:16Z</time>
      </trkpt>
      <trkpt lat="43.9152" lon="1.90675">
        <ele>149.8</ele>
        <time>2022-10-12T11:32:17Z</time>
      </trkpt>
      <trkpt lat="43.91513" lon="1.9067">
        <ele>149.8</ele>
        <time>2022-10-12T11:32:18Z</time>
      </trkpt>
      <trkpt lat="43.91495" lon="1.90654">
        <ele>149.6</ele>
        <time>2022-10-12T11:32:21Z</time>
      </trkpt>
      <trkpt lat="43.91483" lon="1.90645">
        <ele>149.6</ele>
        <time>2022-10-12T11:32:23Z</time>
      </trkpt>
      <trkpt lat="43.91477" lon="1.9064">
        <ele>149.4</ele>
        <time>2022-10-12T11:32:24Z</time>
      </trkpt>
      <trkpt lat="43.91459" lon="1.90625">
        <ele>149</ele>
        <time>2022-10-12T11:32:27Z</time>
      </trkpt>
      <trkpt lat="43.91453" lon="1.9062">
        <ele>149</ele>
        <time>2022-10-12T11:32:28Z</time>
      </trkpt>
      <trkpt lat="43.91447" lon="1.90615">
        <ele>149</ele>
        <time>2022-10-12T11:32:29Z</time>
      </trkpt>
      <trkpt lat="43.91443" lon="1.90612">
        <ele>148.8</ele>
        <time>2022-10-12T11:32:30Z</time>
      </trkpt>
      <trkpt lat="43.91439" lon="1.90608">
        <ele>149</ele>
        <time>2022-10-12T11:32:31Z</time>
      </trkpt>
      <trkpt lat="43.91437" lon="1.90605">
        <ele>148.8</ele>
        <time>2022-10-12T11:32:32Z</time>
      </trkpt>
      <trkpt lat="43.91435" lon="1.90603">
        <ele>148.8</ele>
        <time>2022-10-12T11:32:33Z</time>
      </trkpt>
      <trkpt lat="43.91435" lon="1.906">
        <ele>148.8</ele>
        <time>2022-10-12T11:32:34Z</time>
      </trkpt>
      <trkpt lat="43.91435" lon="1.90598">
        <ele>149</ele>
        <time>2022-10-12T11:32:35Z</time>
      </trkpt>
      <trkpt lat="43.91436" lon="1.90596">
        <ele>148.8</ele>
        <time>2022-10-12T11:32:36Z</time>
      </trkpt>
      <trkpt lat="43.91439" lon="1.90595">
        <ele>148.8</ele>
        <time>2022-10-12T11:32:37Z</time>
      </trkpt>
      <trkpt lat="43.91441" lon="1.90595">
        <ele>148.8</ele>
        <time>2022-10-12T11:32:38Z</time>
      </trkpt>
      <trkpt lat="43.91442" lon="1.90593">
        <ele>148.8</ele>
        <time>2022-10-12T11:32:39Z</time>
      </trkpt>
      <trkpt lat="43.91444" lon="1.90589">
        <ele>148.6</ele>
        <time>2022-10-12T11:32:41Z</time>
      </trkpt>
      <trkpt lat="43.91444" lon="1.90588">
        <ele>148.6</ele>
        <time>2022-10-12T11:32:42Z</time>
      </trkpt>
      <trkpt lat="43.91444" lon="1.90589">
        <ele>148.6</ele>
        <time>2022-10-12T11:32:43Z</time>
      </trkpt>
      <trkpt lat="43.91443" lon="1.90591">
        <ele>148.6</ele>
        <time>2022-10-12T11:32:44Z</time>
      </trkpt>
      <trkpt lat="43.91442" lon="1.90593">
        <ele>148.6</ele>
        <time>2022-10-12T11:32:45Z</time>
      </trkpt>
      <trkpt lat="43.91442" lon="1.90595">
        <ele>148.6</ele>
        <time>2022-10-12T11:32:46Z</time>
      </trkpt>
      <trkpt lat="43.91445" lon="1.906">
        <ele>148.6</ele>
        <time>2022-10-12T11:32:48Z</time>
      </trkpt>
    </trkseg>
  </trk>
</gpx>